<?xml version="1.0" encoding="UTF-8" standalone="no" ?>
<gpx xmlns="http://www.topografix.com/GPX/1/1" xmlns:xsi="http://www.w3.org/2001/XMLSchema-instance" xsi:schemaLocation="http://www.topografix.com/GPX/1/1 http://www.topografix.com/GPX/1/1/gpx.xsd" version="1.1" creator="VisuGPX - https://www.visugpx.com">
  <metadata>
    <name>2017-07-14 Bike ride-Amberieux-Saone O Quincieux O</name>
    <desc><![CDATA[2017-07-14 Bike-rideAmberieux-Saone O Quincieux O]]></desc>
  </metadata>
  <wpt lat="45.92444" lon="4.73719">
    <ele>174</ele>
    <name><![CDATA[2017-07-14 09:57 (Start)]]></name>
  </wpt>
  <wpt lat="45.92463" lon="4.73711">
    <ele>174</ele>
    <name><![CDATA[2017-07-14 09:57 (End)]]></name>
    <desc><![CDATA[Created by Google My Tracks on Android  Name: 2017-07-14 09:57 Activity type: biking Description: - Total distance: 21.19 km (13.2 mi) Total time: 1:43:46 Moving time: 1:21:34 Average speed: 12.25 km/h (7.6 mi/h) Average moving speed: 15.59 km/h (9.7 mi/h) Max speed: 27.44 km/h (17.1 mi/h) Average pace: 4:54 min/km (7:53 min/mi) Average moving pace: 3:51 min/km (6:12 min/mi) Fastest pace: 2:11 min/km (3:31 min/mi) Max elevation: 193 m (633 ft) Min elevation: 154 m (505 ft) Elevation gain: 408 m (1338 ft) Max grade: 11 % Min grade: -68 % Recorded: 14/07/2017 09:57]]></desc>
  </wpt>
  <trk>
    <name><![CDATA[2017-07-14 09:57]]></name>
    <trkseg>
      <trkpt lat="45.92444" lon="4.73719">
        <ele>174</ele>
        <time>2017-07-14T07:57:56.436Z</time>
      </trkpt>
      <trkpt lat="45.92443" lon="4.73721">
        <ele>174</ele>
        <time>2017-07-14T07:58:15Z</time>
      </trkpt>
      <trkpt lat="45.92438" lon="4.73726">
        <ele>174</ele>
        <time>2017-07-14T07:58:16Z</time>
      </trkpt>
      <trkpt lat="45.92448" lon="4.73736">
        <ele>174</ele>
        <time>2017-07-14T07:58:17Z</time>
      </trkpt>
      <trkpt lat="45.92446" lon="4.73733">
        <ele>174</ele>
        <time>2017-07-14T07:58:19Z</time>
      </trkpt>
      <trkpt lat="45.92448" lon="4.73734">
        <ele>174</ele>
        <time>2017-07-14T07:58:20Z</time>
      </trkpt>
      <trkpt lat="45.92449" lon="4.73733">
        <ele>174</ele>
        <time>2017-07-14T07:58:31Z</time>
      </trkpt>
      <trkpt lat="45.92447" lon="4.73714">
        <ele>174</ele>
        <time>2017-07-14T07:58:32Z</time>
      </trkpt>
      <trkpt lat="45.92454" lon="4.7372">
        <ele>174</ele>
        <time>2017-07-14T07:58:36Z</time>
      </trkpt>
      <trkpt lat="45.92455" lon="4.73723">
        <ele>174</ele>
        <time>2017-07-14T07:58:37Z</time>
      </trkpt>
      <trkpt lat="45.92462" lon="4.73715">
        <ele>174</ele>
        <time>2017-07-14T07:59:26Z</time>
      </trkpt>
      <trkpt lat="45.92462" lon="4.73714">
        <ele>174</ele>
        <time>2017-07-14T07:59:27Z</time>
      </trkpt>
      <trkpt lat="45.9247" lon="4.7371">
        <ele>174</ele>
        <time>2017-07-14T08:02:13Z</time>
      </trkpt>
      <trkpt lat="45.9247" lon="4.73708">
        <ele>174</ele>
        <time>2017-07-14T08:02:14Z</time>
      </trkpt>
      <trkpt lat="45.92473" lon="4.73696">
        <ele>174</ele>
        <time>2017-07-14T08:02:19Z</time>
      </trkpt>
      <trkpt lat="45.92473" lon="4.73692">
        <ele>174</ele>
        <time>2017-07-14T08:02:20Z</time>
      </trkpt>
      <trkpt lat="45.92473" lon="4.7368">
        <ele>174</ele>
        <time>2017-07-14T08:02:23Z</time>
      </trkpt>
      <trkpt lat="45.92474" lon="4.73675">
        <ele>174</ele>
        <time>2017-07-14T08:02:24Z</time>
      </trkpt>
      <trkpt lat="45.92475" lon="4.73665">
        <ele>174</ele>
        <time>2017-07-14T08:02:26Z</time>
      </trkpt>
      <trkpt lat="45.92476" lon="4.7366">
        <ele>174</ele>
        <time>2017-07-14T08:02:27Z</time>
      </trkpt>
      <trkpt lat="45.92479" lon="4.73652">
        <ele>174</ele>
        <time>2017-07-14T08:02:29Z</time>
      </trkpt>
      <trkpt lat="45.92482" lon="4.7365">
        <ele>174</ele>
        <time>2017-07-14T08:02:30Z</time>
      </trkpt>
      <trkpt lat="45.9249" lon="4.73646">
        <ele>174</ele>
        <time>2017-07-14T08:02:33Z</time>
      </trkpt>
      <trkpt lat="45.92494" lon="4.73644">
        <ele>174</ele>
        <time>2017-07-14T08:02:34Z</time>
      </trkpt>
      <trkpt lat="45.925" lon="4.73643">
        <ele>174</ele>
        <time>2017-07-14T08:02:36Z</time>
      </trkpt>
      <trkpt lat="45.92504" lon="4.73642">
        <ele>174</ele>
        <time>2017-07-14T08:02:37Z</time>
      </trkpt>
      <trkpt lat="45.92511" lon="4.73641">
        <ele>174</ele>
        <time>2017-07-14T08:02:39Z</time>
      </trkpt>
      <trkpt lat="45.92515" lon="4.73641">
        <ele>174</ele>
        <time>2017-07-14T08:02:40Z</time>
      </trkpt>
      <trkpt lat="45.92523" lon="4.7364">
        <ele>173</ele>
        <time>2017-07-14T08:02:42Z</time>
      </trkpt>
      <trkpt lat="45.92527" lon="4.73639">
        <ele>173</ele>
        <time>2017-07-14T08:02:43Z</time>
      </trkpt>
      <trkpt lat="45.92534" lon="4.73639">
        <ele>173</ele>
        <time>2017-07-14T08:02:45Z</time>
      </trkpt>
      <trkpt lat="45.92538" lon="4.73639">
        <ele>173</ele>
        <time>2017-07-14T08:02:46Z</time>
      </trkpt>
      <trkpt lat="45.92544" lon="4.73637">
        <ele>173</ele>
        <time>2017-07-14T08:02:48Z</time>
      </trkpt>
      <trkpt lat="45.92548" lon="4.73636">
        <ele>173</ele>
        <time>2017-07-14T08:02:49Z</time>
      </trkpt>
      <trkpt lat="45.92554" lon="4.73634">
        <ele>173</ele>
        <time>2017-07-14T08:02:51Z</time>
      </trkpt>
      <trkpt lat="45.92557" lon="4.73634">
        <ele>173</ele>
        <time>2017-07-14T08:02:52Z</time>
      </trkpt>
      <trkpt lat="45.92563" lon="4.73632">
        <ele>173</ele>
        <time>2017-07-14T08:02:54Z</time>
      </trkpt>
      <trkpt lat="45.92566" lon="4.73632">
        <ele>173</ele>
        <time>2017-07-14T08:02:55Z</time>
      </trkpt>
      <trkpt lat="45.92573" lon="4.7363">
        <ele>173</ele>
        <time>2017-07-14T08:02:57Z</time>
      </trkpt>
      <trkpt lat="45.92576" lon="4.73629">
        <ele>173</ele>
        <time>2017-07-14T08:02:58Z</time>
      </trkpt>
      <trkpt lat="45.92582" lon="4.73627">
        <ele>173</ele>
        <time>2017-07-14T08:03:00Z</time>
      </trkpt>
      <trkpt lat="45.92586" lon="4.73627">
        <ele>172</ele>
        <time>2017-07-14T08:03:01Z</time>
      </trkpt>
      <trkpt lat="45.92593" lon="4.73626">
        <ele>172</ele>
        <time>2017-07-14T08:03:03Z</time>
      </trkpt>
      <trkpt lat="45.92595" lon="4.73626">
        <ele>173</ele>
        <time>2017-07-14T08:03:04Z</time>
      </trkpt>
      <trkpt lat="45.92603" lon="4.73626">
        <ele>173</ele>
        <time>2017-07-14T08:03:07Z</time>
      </trkpt>
      <trkpt lat="45.92606" lon="4.73626">
        <ele>173</ele>
        <time>2017-07-14T08:03:08Z</time>
      </trkpt>
      <trkpt lat="45.92609" lon="4.7363">
        <ele>173</ele>
        <time>2017-07-14T08:03:09Z</time>
      </trkpt>
      <trkpt lat="45.92613" lon="4.73638">
        <ele>173</ele>
        <time>2017-07-14T08:03:10Z</time>
      </trkpt>
      <trkpt lat="45.92619" lon="4.73647">
        <ele>173</ele>
        <time>2017-07-14T08:03:13Z</time>
      </trkpt>
      <trkpt lat="45.92621" lon="4.73651">
        <ele>173</ele>
        <time>2017-07-14T08:03:14Z</time>
      </trkpt>
      <trkpt lat="45.92625" lon="4.73659">
        <ele>173</ele>
        <time>2017-07-14T08:03:16Z</time>
      </trkpt>
      <trkpt lat="45.92627" lon="4.73663">
        <ele>173</ele>
        <time>2017-07-14T08:03:17Z</time>
      </trkpt>
      <trkpt lat="45.92631" lon="4.73671">
        <ele>173</ele>
        <time>2017-07-14T08:03:19Z</time>
      </trkpt>
      <trkpt lat="45.92633" lon="4.73675">
        <ele>173</ele>
        <time>2017-07-14T08:03:20Z</time>
      </trkpt>
      <trkpt lat="45.92638" lon="4.73682">
        <ele>173</ele>
        <time>2017-07-14T08:03:22Z</time>
      </trkpt>
      <trkpt lat="45.92641" lon="4.73685">
        <ele>173</ele>
        <time>2017-07-14T08:03:23Z</time>
      </trkpt>
      <trkpt lat="45.92646" lon="4.73692">
        <ele>173</ele>
        <time>2017-07-14T08:03:25Z</time>
      </trkpt>
      <trkpt lat="45.92649" lon="4.73695">
        <ele>173</ele>
        <time>2017-07-14T08:03:26Z</time>
      </trkpt>
      <trkpt lat="45.92654" lon="4.737">
        <ele>173</ele>
        <time>2017-07-14T08:03:28Z</time>
      </trkpt>
      <trkpt lat="45.92657" lon="4.73703">
        <ele>173</ele>
        <time>2017-07-14T08:03:29Z</time>
      </trkpt>
      <trkpt lat="45.92663" lon="4.73708">
        <ele>173</ele>
        <time>2017-07-14T08:03:31Z</time>
      </trkpt>
      <trkpt lat="45.92666" lon="4.7371">
        <ele>173</ele>
        <time>2017-07-14T08:03:32Z</time>
      </trkpt>
      <trkpt lat="45.92673" lon="4.73714">
        <ele>174</ele>
        <time>2017-07-14T08:03:34Z</time>
      </trkpt>
      <trkpt lat="45.92677" lon="4.73716">
        <ele>174</ele>
        <time>2017-07-14T08:03:35Z</time>
      </trkpt>
      <trkpt lat="45.92682" lon="4.73717">
        <ele>173</ele>
        <time>2017-07-14T08:03:36Z</time>
      </trkpt>
      <trkpt lat="45.92686" lon="4.73718">
        <ele>173</ele>
        <time>2017-07-14T08:03:37Z</time>
      </trkpt>
      <trkpt lat="45.92695" lon="4.7372">
        <ele>173</ele>
        <time>2017-07-14T08:03:39Z</time>
      </trkpt>
      <trkpt lat="45.92699" lon="4.73721">
        <ele>173</ele>
        <time>2017-07-14T08:03:40Z</time>
      </trkpt>
      <trkpt lat="45.92704" lon="4.73723">
        <ele>173</ele>
        <time>2017-07-14T08:03:42Z</time>
      </trkpt>
      <trkpt lat="45.92708" lon="4.73724">
        <ele>173</ele>
        <time>2017-07-14T08:03:43Z</time>
      </trkpt>
      <trkpt lat="45.92716" lon="4.73726">
        <ele>173</ele>
        <time>2017-07-14T08:03:45Z</time>
      </trkpt>
      <trkpt lat="45.9272" lon="4.73727">
        <ele>173</ele>
        <time>2017-07-14T08:03:46Z</time>
      </trkpt>
      <trkpt lat="45.92729" lon="4.73728">
        <ele>173</ele>
        <time>2017-07-14T08:03:48Z</time>
      </trkpt>
      <trkpt lat="45.92733" lon="4.73729">
        <ele>173</ele>
        <time>2017-07-14T08:03:49Z</time>
      </trkpt>
      <trkpt lat="45.9274" lon="4.73731">
        <ele>173</ele>
        <time>2017-07-14T08:03:51Z</time>
      </trkpt>
      <trkpt lat="45.92744" lon="4.73731">
        <ele>173</ele>
        <time>2017-07-14T08:03:52Z</time>
      </trkpt>
      <trkpt lat="45.92751" lon="4.73733">
        <ele>173</ele>
        <time>2017-07-14T08:03:54Z</time>
      </trkpt>
      <trkpt lat="45.92755" lon="4.73735">
        <ele>173</ele>
        <time>2017-07-14T08:03:55Z</time>
      </trkpt>
      <trkpt lat="45.92762" lon="4.73738">
        <ele>173</ele>
        <time>2017-07-14T08:03:57Z</time>
      </trkpt>
      <trkpt lat="45.92765" lon="4.7374">
        <ele>172</ele>
        <time>2017-07-14T08:03:58Z</time>
      </trkpt>
      <trkpt lat="45.92771" lon="4.73742">
        <ele>172</ele>
        <time>2017-07-14T08:04:00Z</time>
      </trkpt>
      <trkpt lat="45.92773" lon="4.73745">
        <ele>172</ele>
        <time>2017-07-14T08:04:01Z</time>
      </trkpt>
      <trkpt lat="45.92777" lon="4.73755">
        <ele>173</ele>
        <time>2017-07-14T08:04:04Z</time>
      </trkpt>
      <trkpt lat="45.92779" lon="4.73759">
        <ele>173</ele>
        <time>2017-07-14T08:04:05Z</time>
      </trkpt>
      <trkpt lat="45.92783" lon="4.73764">
        <ele>173</ele>
        <time>2017-07-14T08:04:06Z</time>
      </trkpt>
      <trkpt lat="45.92788" lon="4.73768">
        <ele>173</ele>
        <time>2017-07-14T08:04:07Z</time>
      </trkpt>
      <trkpt lat="45.92797" lon="4.73772">
        <ele>173</ele>
        <time>2017-07-14T08:04:09Z</time>
      </trkpt>
      <trkpt lat="45.92801" lon="4.73774">
        <ele>173</ele>
        <time>2017-07-14T08:04:10Z</time>
      </trkpt>
      <trkpt lat="45.92806" lon="4.73776">
        <ele>173</ele>
        <time>2017-07-14T08:04:11Z</time>
      </trkpt>
      <trkpt lat="45.9281" lon="4.73778">
        <ele>173</ele>
        <time>2017-07-14T08:04:12Z</time>
      </trkpt>
      <trkpt lat="45.92818" lon="4.73783">
        <ele>173</ele>
        <time>2017-07-14T08:04:14Z</time>
      </trkpt>
      <trkpt lat="45.92822" lon="4.73786">
        <ele>173</ele>
        <time>2017-07-14T08:04:15Z</time>
      </trkpt>
      <trkpt lat="45.92826" lon="4.73789">
        <ele>173</ele>
        <time>2017-07-14T08:04:16Z</time>
      </trkpt>
      <trkpt lat="45.9283" lon="4.73792">
        <ele>173</ele>
        <time>2017-07-14T08:04:17Z</time>
      </trkpt>
      <trkpt lat="45.92838" lon="4.73798">
        <ele>173</ele>
        <time>2017-07-14T08:04:19Z</time>
      </trkpt>
      <trkpt lat="45.92841" lon="4.738">
        <ele>173</ele>
        <time>2017-07-14T08:04:20Z</time>
      </trkpt>
      <trkpt lat="45.92846" lon="4.73805">
        <ele>173</ele>
        <time>2017-07-14T08:04:22Z</time>
      </trkpt>
      <trkpt lat="45.92849" lon="4.73807">
        <ele>173</ele>
        <time>2017-07-14T08:04:23Z</time>
      </trkpt>
      <trkpt lat="45.92853" lon="4.73816">
        <ele>173</ele>
        <time>2017-07-14T08:04:25Z</time>
      </trkpt>
      <trkpt lat="45.92855" lon="4.73822">
        <ele>173</ele>
        <time>2017-07-14T08:04:26Z</time>
      </trkpt>
      <trkpt lat="45.92859" lon="4.73833">
        <ele>173</ele>
        <time>2017-07-14T08:04:28Z</time>
      </trkpt>
      <trkpt lat="45.92861" lon="4.73838">
        <ele>173</ele>
        <time>2017-07-14T08:04:29Z</time>
      </trkpt>
      <trkpt lat="45.92866" lon="4.73848">
        <ele>173</ele>
        <time>2017-07-14T08:04:31Z</time>
      </trkpt>
      <trkpt lat="45.92869" lon="4.73854">
        <ele>173</ele>
        <time>2017-07-14T08:04:32Z</time>
      </trkpt>
      <trkpt lat="45.92871" lon="4.7386">
        <ele>173</ele>
        <time>2017-07-14T08:04:33Z</time>
      </trkpt>
      <trkpt lat="45.92874" lon="4.73867">
        <ele>173</ele>
        <time>2017-07-14T08:04:34Z</time>
      </trkpt>
      <trkpt lat="45.92876" lon="4.73872">
        <ele>173</ele>
        <time>2017-07-14T08:04:35Z</time>
      </trkpt>
      <trkpt lat="45.92877" lon="4.73879">
        <ele>173</ele>
        <time>2017-07-14T08:04:36Z</time>
      </trkpt>
      <trkpt lat="45.92879" lon="4.73887">
        <ele>173</ele>
        <time>2017-07-14T08:04:37Z</time>
      </trkpt>
      <trkpt lat="45.92881" lon="4.73893">
        <ele>173</ele>
        <time>2017-07-14T08:04:38Z</time>
      </trkpt>
      <trkpt lat="45.92882" lon="4.73898">
        <ele>173</ele>
        <time>2017-07-14T08:04:39Z</time>
      </trkpt>
      <trkpt lat="45.92884" lon="4.73905">
        <ele>173</ele>
        <time>2017-07-14T08:04:40Z</time>
      </trkpt>
      <trkpt lat="45.92886" lon="4.73912">
        <ele>173</ele>
        <time>2017-07-14T08:04:41Z</time>
      </trkpt>
      <trkpt lat="45.92888" lon="4.73918">
        <ele>172</ele>
        <time>2017-07-14T08:04:42Z</time>
      </trkpt>
      <trkpt lat="45.92892" lon="4.73929">
        <ele>172</ele>
        <time>2017-07-14T08:04:44Z</time>
      </trkpt>
      <trkpt lat="45.92894" lon="4.73933">
        <ele>172</ele>
        <time>2017-07-14T08:04:45Z</time>
      </trkpt>
      <trkpt lat="45.92899" lon="4.73941">
        <ele>172</ele>
        <time>2017-07-14T08:04:47Z</time>
      </trkpt>
      <trkpt lat="45.92902" lon="4.73946">
        <ele>172</ele>
        <time>2017-07-14T08:04:48Z</time>
      </trkpt>
      <trkpt lat="45.92907" lon="4.73954">
        <ele>172</ele>
        <time>2017-07-14T08:04:50Z</time>
      </trkpt>
      <trkpt lat="45.92908" lon="4.73959">
        <ele>172</ele>
        <time>2017-07-14T08:04:51Z</time>
      </trkpt>
      <trkpt lat="45.92911" lon="4.73969">
        <ele>172</ele>
        <time>2017-07-14T08:04:53Z</time>
      </trkpt>
      <trkpt lat="45.92912" lon="4.73974">
        <ele>172</ele>
        <time>2017-07-14T08:04:54Z</time>
      </trkpt>
      <trkpt lat="45.92913" lon="4.73985">
        <ele>172</ele>
        <time>2017-07-14T08:04:56Z</time>
      </trkpt>
      <trkpt lat="45.92914" lon="4.73991">
        <ele>172</ele>
        <time>2017-07-14T08:04:57Z</time>
      </trkpt>
      <trkpt lat="45.92916" lon="4.73997">
        <ele>172</ele>
        <time>2017-07-14T08:04:58Z</time>
      </trkpt>
      <trkpt lat="45.92918" lon="4.74003">
        <ele>172</ele>
        <time>2017-07-14T08:04:59Z</time>
      </trkpt>
      <trkpt lat="45.9292" lon="4.74009">
        <ele>172</ele>
        <time>2017-07-14T08:05:00Z</time>
      </trkpt>
      <trkpt lat="45.92921" lon="4.74017">
        <ele>172</ele>
        <time>2017-07-14T08:05:01Z</time>
      </trkpt>
      <trkpt lat="45.9292" lon="4.74024">
        <ele>172</ele>
        <time>2017-07-14T08:05:02Z</time>
      </trkpt>
      <trkpt lat="45.92918" lon="4.74031">
        <ele>172</ele>
        <time>2017-07-14T08:05:03Z</time>
      </trkpt>
      <trkpt lat="45.92916" lon="4.74037">
        <ele>172</ele>
        <time>2017-07-14T08:05:04Z</time>
      </trkpt>
      <trkpt lat="45.92913" lon="4.74044">
        <ele>172</ele>
        <time>2017-07-14T08:05:05Z</time>
      </trkpt>
      <trkpt lat="45.92911" lon="4.7405">
        <ele>172</ele>
        <time>2017-07-14T08:05:06Z</time>
      </trkpt>
      <trkpt lat="45.9291" lon="4.74058">
        <ele>172</ele>
        <time>2017-07-14T08:05:07Z</time>
      </trkpt>
      <trkpt lat="45.9291" lon="4.74065">
        <ele>173</ele>
        <time>2017-07-14T08:05:08Z</time>
      </trkpt>
      <trkpt lat="45.9291" lon="4.74073">
        <ele>173</ele>
        <time>2017-07-14T08:05:09Z</time>
      </trkpt>
      <trkpt lat="45.92909" lon="4.7408">
        <ele>173</ele>
        <time>2017-07-14T08:05:10Z</time>
      </trkpt>
      <trkpt lat="45.92908" lon="4.74087">
        <ele>173</ele>
        <time>2017-07-14T08:05:11Z</time>
      </trkpt>
      <trkpt lat="45.92904" lon="4.74098">
        <ele>172</ele>
        <time>2017-07-14T08:05:13Z</time>
      </trkpt>
      <trkpt lat="45.92901" lon="4.74103">
        <ele>172</ele>
        <time>2017-07-14T08:05:14Z</time>
      </trkpt>
      <trkpt lat="45.92895" lon="4.74111">
        <ele>172</ele>
        <time>2017-07-14T08:05:16Z</time>
      </trkpt>
      <trkpt lat="45.92892" lon="4.74115">
        <ele>172</ele>
        <time>2017-07-14T08:05:17Z</time>
      </trkpt>
      <trkpt lat="45.92886" lon="4.74121">
        <ele>172</ele>
        <time>2017-07-14T08:05:19Z</time>
      </trkpt>
      <trkpt lat="45.92884" lon="4.74125">
        <ele>172</ele>
        <time>2017-07-14T08:05:20Z</time>
      </trkpt>
      <trkpt lat="45.9288" lon="4.74133">
        <ele>172</ele>
        <time>2017-07-14T08:05:22Z</time>
      </trkpt>
      <trkpt lat="45.92878" lon="4.74138">
        <ele>172</ele>
        <time>2017-07-14T08:05:23Z</time>
      </trkpt>
      <trkpt lat="45.92878" lon="4.74148">
        <ele>172</ele>
        <time>2017-07-14T08:05:25Z</time>
      </trkpt>
      <trkpt lat="45.92878" lon="4.74153">
        <ele>172</ele>
        <time>2017-07-14T08:05:26Z</time>
      </trkpt>
      <trkpt lat="45.92881" lon="4.74162">
        <ele>172</ele>
        <time>2017-07-14T08:05:28Z</time>
      </trkpt>
      <trkpt lat="45.92883" lon="4.74167">
        <ele>172</ele>
        <time>2017-07-14T08:05:29Z</time>
      </trkpt>
      <trkpt lat="45.9289" lon="4.74174">
        <ele>171</ele>
        <time>2017-07-14T08:05:31Z</time>
      </trkpt>
      <trkpt lat="45.92894" lon="4.74177">
        <ele>171</ele>
        <time>2017-07-14T08:05:32Z</time>
      </trkpt>
      <trkpt lat="45.929" lon="4.74182">
        <ele>171</ele>
        <time>2017-07-14T08:05:34Z</time>
      </trkpt>
      <trkpt lat="45.92903" lon="4.74184">
        <ele>171</ele>
        <time>2017-07-14T08:05:35Z</time>
      </trkpt>
      <trkpt lat="45.92909" lon="4.74188">
        <ele>171</ele>
        <time>2017-07-14T08:05:37Z</time>
      </trkpt>
      <trkpt lat="45.92913" lon="4.74189">
        <ele>171</ele>
        <time>2017-07-14T08:05:38Z</time>
      </trkpt>
      <trkpt lat="45.9292" lon="4.74194">
        <ele>171</ele>
        <time>2017-07-14T08:05:40Z</time>
      </trkpt>
      <trkpt lat="45.92924" lon="4.74197">
        <ele>170</ele>
        <time>2017-07-14T08:05:41Z</time>
      </trkpt>
      <trkpt lat="45.92931" lon="4.74201">
        <ele>170</ele>
        <time>2017-07-14T08:05:43Z</time>
      </trkpt>
      <trkpt lat="45.92935" lon="4.74203">
        <ele>170</ele>
        <time>2017-07-14T08:05:44Z</time>
      </trkpt>
      <trkpt lat="45.92942" lon="4.74207">
        <ele>170</ele>
        <time>2017-07-14T08:05:46Z</time>
      </trkpt>
      <trkpt lat="45.92945" lon="4.74208">
        <ele>170</ele>
        <time>2017-07-14T08:05:47Z</time>
      </trkpt>
      <trkpt lat="45.92954" lon="4.74209">
        <ele>170</ele>
        <time>2017-07-14T08:05:49Z</time>
      </trkpt>
      <trkpt lat="45.92958" lon="4.74208">
        <ele>170</ele>
        <time>2017-07-14T08:05:50Z</time>
      </trkpt>
      <trkpt lat="45.92965" lon="4.74202">
        <ele>170</ele>
        <time>2017-07-14T08:05:52Z</time>
      </trkpt>
      <trkpt lat="45.92968" lon="4.74197">
        <ele>170</ele>
        <time>2017-07-14T08:05:53Z</time>
      </trkpt>
      <trkpt lat="45.92971" lon="4.74191">
        <ele>170</ele>
        <time>2017-07-14T08:05:54Z</time>
      </trkpt>
      <trkpt lat="45.92973" lon="4.74184">
        <ele>170</ele>
        <time>2017-07-14T08:05:55Z</time>
      </trkpt>
      <trkpt lat="45.92976" lon="4.74177">
        <ele>170</ele>
        <time>2017-07-14T08:05:56Z</time>
      </trkpt>
      <trkpt lat="45.92979" lon="4.7417">
        <ele>170</ele>
        <time>2017-07-14T08:05:57Z</time>
      </trkpt>
      <trkpt lat="45.92981" lon="4.74162">
        <ele>170</ele>
        <time>2017-07-14T08:05:58Z</time>
      </trkpt>
      <trkpt lat="45.92984" lon="4.74153">
        <ele>170</ele>
        <time>2017-07-14T08:05:59Z</time>
      </trkpt>
      <trkpt lat="45.92987" lon="4.74144">
        <ele>170</ele>
        <time>2017-07-14T08:06:00Z</time>
      </trkpt>
      <trkpt lat="45.9299" lon="4.74134">
        <ele>171</ele>
        <time>2017-07-14T08:06:01Z</time>
      </trkpt>
      <trkpt lat="45.92992" lon="4.74124">
        <ele>171</ele>
        <time>2017-07-14T08:06:02Z</time>
      </trkpt>
      <trkpt lat="45.92994" lon="4.74114">
        <ele>171</ele>
        <time>2017-07-14T08:06:03Z</time>
      </trkpt>
      <trkpt lat="45.92996" lon="4.74102">
        <ele>171</ele>
        <time>2017-07-14T08:06:04Z</time>
      </trkpt>
      <trkpt lat="45.92997" lon="4.74091">
        <ele>171</ele>
        <time>2017-07-14T08:06:05Z</time>
      </trkpt>
      <trkpt lat="45.92996" lon="4.74079">
        <ele>171</ele>
        <time>2017-07-14T08:06:06Z</time>
      </trkpt>
      <trkpt lat="45.92996" lon="4.74068">
        <ele>171</ele>
        <time>2017-07-14T08:06:07Z</time>
      </trkpt>
      <trkpt lat="45.92996" lon="4.74057">
        <ele>171</ele>
        <time>2017-07-14T08:06:08Z</time>
      </trkpt>
      <trkpt lat="45.92996" lon="4.74046">
        <ele>171</ele>
        <time>2017-07-14T08:06:09Z</time>
      </trkpt>
      <trkpt lat="45.92997" lon="4.74036">
        <ele>171</ele>
        <time>2017-07-14T08:06:10Z</time>
      </trkpt>
      <trkpt lat="45.92999" lon="4.74026">
        <ele>171</ele>
        <time>2017-07-14T08:06:11Z</time>
      </trkpt>
      <trkpt lat="45.93003" lon="4.74018">
        <ele>170</ele>
        <time>2017-07-14T08:06:12Z</time>
      </trkpt>
      <trkpt lat="45.93009" lon="4.74011">
        <ele>170</ele>
        <time>2017-07-14T08:06:13Z</time>
      </trkpt>
      <trkpt lat="45.93015" lon="4.74007">
        <ele>170</ele>
        <time>2017-07-14T08:06:14Z</time>
      </trkpt>
      <trkpt lat="45.93022" lon="4.74005">
        <ele>170</ele>
        <time>2017-07-14T08:06:15Z</time>
      </trkpt>
      <trkpt lat="45.93028" lon="4.74005">
        <ele>170</ele>
        <time>2017-07-14T08:06:16Z</time>
      </trkpt>
      <trkpt lat="45.93033" lon="4.74006">
        <ele>169</ele>
        <time>2017-07-14T08:06:17Z</time>
      </trkpt>
      <trkpt lat="45.93039" lon="4.74009">
        <ele>169</ele>
        <time>2017-07-14T08:06:18Z</time>
      </trkpt>
      <trkpt lat="45.93044" lon="4.74011">
        <ele>169</ele>
        <time>2017-07-14T08:06:19Z</time>
      </trkpt>
      <trkpt lat="45.93049" lon="4.74013">
        <ele>169</ele>
        <time>2017-07-14T08:06:20Z</time>
      </trkpt>
      <trkpt lat="45.93054" lon="4.74015">
        <ele>169</ele>
        <time>2017-07-14T08:06:21Z</time>
      </trkpt>
      <trkpt lat="45.9306" lon="4.74017">
        <ele>169</ele>
        <time>2017-07-14T08:06:22Z</time>
      </trkpt>
      <trkpt lat="45.93065" lon="4.7402">
        <ele>169</ele>
        <time>2017-07-14T08:06:23Z</time>
      </trkpt>
      <trkpt lat="45.9307" lon="4.74021">
        <ele>169</ele>
        <time>2017-07-14T08:06:24Z</time>
      </trkpt>
      <trkpt lat="45.93075" lon="4.74022">
        <ele>169</ele>
        <time>2017-07-14T08:06:25Z</time>
      </trkpt>
      <trkpt lat="45.93081" lon="4.74023">
        <ele>169</ele>
        <time>2017-07-14T08:06:26Z</time>
      </trkpt>
      <trkpt lat="45.93086" lon="4.74023">
        <ele>168</ele>
        <time>2017-07-14T08:06:27Z</time>
      </trkpt>
      <trkpt lat="45.93091" lon="4.74023">
        <ele>168</ele>
        <time>2017-07-14T08:06:28Z</time>
      </trkpt>
      <trkpt lat="45.93097" lon="4.74024">
        <ele>168</ele>
        <time>2017-07-14T08:06:29Z</time>
      </trkpt>
      <trkpt lat="45.93102" lon="4.74025">
        <ele>168</ele>
        <time>2017-07-14T08:06:30Z</time>
      </trkpt>
      <trkpt lat="45.93108" lon="4.74026">
        <ele>168</ele>
        <time>2017-07-14T08:06:31Z</time>
      </trkpt>
      <trkpt lat="45.93113" lon="4.74028">
        <ele>168</ele>
        <time>2017-07-14T08:06:32Z</time>
      </trkpt>
      <trkpt lat="45.93119" lon="4.74029">
        <ele>168</ele>
        <time>2017-07-14T08:06:33Z</time>
      </trkpt>
      <trkpt lat="45.93125" lon="4.74032">
        <ele>168</ele>
        <time>2017-07-14T08:06:34Z</time>
      </trkpt>
      <trkpt lat="45.9313" lon="4.74035">
        <ele>168</ele>
        <time>2017-07-14T08:06:35Z</time>
      </trkpt>
      <trkpt lat="45.93135" lon="4.74039">
        <ele>168</ele>
        <time>2017-07-14T08:06:36Z</time>
      </trkpt>
      <trkpt lat="45.9314" lon="4.74042">
        <ele>168</ele>
        <time>2017-07-14T08:06:37Z</time>
      </trkpt>
      <trkpt lat="45.93145" lon="4.74046">
        <ele>168</ele>
        <time>2017-07-14T08:06:38Z</time>
      </trkpt>
      <trkpt lat="45.93149" lon="4.74049">
        <ele>168</ele>
        <time>2017-07-14T08:06:39Z</time>
      </trkpt>
      <trkpt lat="45.93154" lon="4.74054">
        <ele>168</ele>
        <time>2017-07-14T08:06:40Z</time>
      </trkpt>
      <trkpt lat="45.93158" lon="4.74058">
        <ele>168</ele>
        <time>2017-07-14T08:06:41Z</time>
      </trkpt>
      <trkpt lat="45.93163" lon="4.74062">
        <ele>168</ele>
        <time>2017-07-14T08:06:42Z</time>
      </trkpt>
      <trkpt lat="45.93167" lon="4.74066">
        <ele>168</ele>
        <time>2017-07-14T08:06:43Z</time>
      </trkpt>
      <trkpt lat="45.93172" lon="4.74069">
        <ele>168</ele>
        <time>2017-07-14T08:06:44Z</time>
      </trkpt>
      <trkpt lat="45.93177" lon="4.74074">
        <ele>168</ele>
        <time>2017-07-14T08:06:45Z</time>
      </trkpt>
      <trkpt lat="45.93182" lon="4.74079">
        <ele>168</ele>
        <time>2017-07-14T08:06:46Z</time>
      </trkpt>
      <trkpt lat="45.93186" lon="4.74084">
        <ele>168</ele>
        <time>2017-07-14T08:06:47Z</time>
      </trkpt>
      <trkpt lat="45.93191" lon="4.74089">
        <ele>168</ele>
        <time>2017-07-14T08:06:48Z</time>
      </trkpt>
      <trkpt lat="45.93196" lon="4.74093">
        <ele>167</ele>
        <time>2017-07-14T08:06:49Z</time>
      </trkpt>
      <trkpt lat="45.93201" lon="4.74097">
        <ele>167</ele>
        <time>2017-07-14T08:06:50Z</time>
      </trkpt>
      <trkpt lat="45.93206" lon="4.74102">
        <ele>167</ele>
        <time>2017-07-14T08:06:51Z</time>
      </trkpt>
      <trkpt lat="45.9321" lon="4.74106">
        <ele>167</ele>
        <time>2017-07-14T08:06:52Z</time>
      </trkpt>
      <trkpt lat="45.93215" lon="4.74109">
        <ele>167</ele>
        <time>2017-07-14T08:06:53Z</time>
      </trkpt>
      <trkpt lat="45.9322" lon="4.74112">
        <ele>167</ele>
        <time>2017-07-14T08:06:54Z</time>
      </trkpt>
      <trkpt lat="45.93224" lon="4.74113">
        <ele>167</ele>
        <time>2017-07-14T08:06:55Z</time>
      </trkpt>
      <trkpt lat="45.93232" lon="4.74113">
        <ele>167</ele>
        <time>2017-07-14T08:06:57Z</time>
      </trkpt>
      <trkpt lat="45.93236" lon="4.74112">
        <ele>167</ele>
        <time>2017-07-14T08:06:58Z</time>
      </trkpt>
      <trkpt lat="45.93242" lon="4.74106">
        <ele>167</ele>
        <time>2017-07-14T08:07:00Z</time>
      </trkpt>
      <trkpt lat="45.93245" lon="4.74102">
        <ele>167</ele>
        <time>2017-07-14T08:07:01Z</time>
      </trkpt>
      <trkpt lat="45.9325" lon="4.74092">
        <ele>167</ele>
        <time>2017-07-14T08:07:03Z</time>
      </trkpt>
      <trkpt lat="45.93252" lon="4.74087">
        <ele>167</ele>
        <time>2017-07-14T08:07:04Z</time>
      </trkpt>
      <trkpt lat="45.93258" lon="4.74078">
        <ele>167</ele>
        <time>2017-07-14T08:07:06Z</time>
      </trkpt>
      <trkpt lat="45.9326" lon="4.74074">
        <ele>167</ele>
        <time>2017-07-14T08:07:07Z</time>
      </trkpt>
      <trkpt lat="45.93265" lon="4.74065">
        <ele>167</ele>
        <time>2017-07-14T08:07:09Z</time>
      </trkpt>
      <trkpt lat="45.93267" lon="4.7406">
        <ele>168</ele>
        <time>2017-07-14T08:07:10Z</time>
      </trkpt>
      <trkpt lat="45.93271" lon="4.7405">
        <ele>168</ele>
        <time>2017-07-14T08:07:12Z</time>
      </trkpt>
      <trkpt lat="45.93273" lon="4.74045">
        <ele>168</ele>
        <time>2017-07-14T08:07:13Z</time>
      </trkpt>
      <trkpt lat="45.93277" lon="4.74035">
        <ele>168</ele>
        <time>2017-07-14T08:07:15Z</time>
      </trkpt>
      <trkpt lat="45.9328" lon="4.7403">
        <ele>168</ele>
        <time>2017-07-14T08:07:16Z</time>
      </trkpt>
      <trkpt lat="45.93285" lon="4.74022">
        <ele>168</ele>
        <time>2017-07-14T08:07:18Z</time>
      </trkpt>
      <trkpt lat="45.93288" lon="4.74017">
        <ele>168</ele>
        <time>2017-07-14T08:07:19Z</time>
      </trkpt>
      <trkpt lat="45.93294" lon="4.74007">
        <ele>168</ele>
        <time>2017-07-14T08:07:21Z</time>
      </trkpt>
      <trkpt lat="45.93296" lon="4.74002">
        <ele>168</ele>
        <time>2017-07-14T08:07:22Z</time>
      </trkpt>
      <trkpt lat="45.93302" lon="4.73992">
        <ele>168</ele>
        <time>2017-07-14T08:07:24Z</time>
      </trkpt>
      <trkpt lat="45.93304" lon="4.73987">
        <ele>168</ele>
        <time>2017-07-14T08:07:25Z</time>
      </trkpt>
      <trkpt lat="45.93309" lon="4.73977">
        <ele>168</ele>
        <time>2017-07-14T08:07:27Z</time>
      </trkpt>
      <trkpt lat="45.93312" lon="4.73972">
        <ele>168</ele>
        <time>2017-07-14T08:07:28Z</time>
      </trkpt>
      <trkpt lat="45.93318" lon="4.73963">
        <ele>168</ele>
        <time>2017-07-14T08:07:30Z</time>
      </trkpt>
      <trkpt lat="45.93321" lon="4.73959">
        <ele>168</ele>
        <time>2017-07-14T08:07:31Z</time>
      </trkpt>
      <trkpt lat="45.93326" lon="4.73949">
        <ele>168</ele>
        <time>2017-07-14T08:07:33Z</time>
      </trkpt>
      <trkpt lat="45.93329" lon="4.73945">
        <ele>168</ele>
        <time>2017-07-14T08:07:34Z</time>
      </trkpt>
      <trkpt lat="45.93334" lon="4.73936">
        <ele>168</ele>
        <time>2017-07-14T08:07:36Z</time>
      </trkpt>
      <trkpt lat="45.93337" lon="4.73931">
        <ele>168</ele>
        <time>2017-07-14T08:07:37Z</time>
      </trkpt>
      <trkpt lat="45.93343" lon="4.73922">
        <ele>168</ele>
        <time>2017-07-14T08:07:39Z</time>
      </trkpt>
      <trkpt lat="45.93346" lon="4.73918">
        <ele>168</ele>
        <time>2017-07-14T08:07:40Z</time>
      </trkpt>
      <trkpt lat="45.93352" lon="4.73908">
        <ele>168</ele>
        <time>2017-07-14T08:07:42Z</time>
      </trkpt>
      <trkpt lat="45.93355" lon="4.73904">
        <ele>168</ele>
        <time>2017-07-14T08:07:43Z</time>
      </trkpt>
      <trkpt lat="45.93362" lon="4.73896">
        <ele>168</ele>
        <time>2017-07-14T08:07:45Z</time>
      </trkpt>
      <trkpt lat="45.93365" lon="4.73892">
        <ele>168</ele>
        <time>2017-07-14T08:07:46Z</time>
      </trkpt>
      <trkpt lat="45.93372" lon="4.73884">
        <ele>168</ele>
        <time>2017-07-14T08:07:48Z</time>
      </trkpt>
      <trkpt lat="45.93375" lon="4.73881">
        <ele>168</ele>
        <time>2017-07-14T08:07:49Z</time>
      </trkpt>
      <trkpt lat="45.93382" lon="4.73876">
        <ele>168</ele>
        <time>2017-07-14T08:07:51Z</time>
      </trkpt>
      <trkpt lat="45.93386" lon="4.73874">
        <ele>169</ele>
        <time>2017-07-14T08:07:52Z</time>
      </trkpt>
      <trkpt lat="45.93394" lon="4.73869">
        <ele>169</ele>
        <time>2017-07-14T08:07:54Z</time>
      </trkpt>
      <trkpt lat="45.93397" lon="4.73866">
        <ele>169</ele>
        <time>2017-07-14T08:07:55Z</time>
      </trkpt>
      <trkpt lat="45.93405" lon="4.7386">
        <ele>169</ele>
        <time>2017-07-14T08:07:57Z</time>
      </trkpt>
      <trkpt lat="45.93408" lon="4.73858">
        <ele>169</ele>
        <time>2017-07-14T08:07:58Z</time>
      </trkpt>
      <trkpt lat="45.93417" lon="4.73853">
        <ele>169</ele>
        <time>2017-07-14T08:08:00Z</time>
      </trkpt>
      <trkpt lat="45.93421" lon="4.73851">
        <ele>169</ele>
        <time>2017-07-14T08:08:01Z</time>
      </trkpt>
      <trkpt lat="45.93429" lon="4.73848">
        <ele>169</ele>
        <time>2017-07-14T08:08:03Z</time>
      </trkpt>
      <trkpt lat="45.93433" lon="4.73846">
        <ele>169</ele>
        <time>2017-07-14T08:08:04Z</time>
      </trkpt>
      <trkpt lat="45.9344" lon="4.73842">
        <ele>169</ele>
        <time>2017-07-14T08:08:06Z</time>
      </trkpt>
      <trkpt lat="45.93444" lon="4.7384">
        <ele>169</ele>
        <time>2017-07-14T08:08:07Z</time>
      </trkpt>
      <trkpt lat="45.93452" lon="4.73837">
        <ele>169</ele>
        <time>2017-07-14T08:08:09Z</time>
      </trkpt>
      <trkpt lat="45.93456" lon="4.73834">
        <ele>169</ele>
        <time>2017-07-14T08:08:10Z</time>
      </trkpt>
      <trkpt lat="45.93464" lon="4.7383">
        <ele>169</ele>
        <time>2017-07-14T08:08:12Z</time>
      </trkpt>
      <trkpt lat="45.93469" lon="4.73828">
        <ele>169</ele>
        <time>2017-07-14T08:08:13Z</time>
      </trkpt>
      <trkpt lat="45.93476" lon="4.73823">
        <ele>169</ele>
        <time>2017-07-14T08:08:15Z</time>
      </trkpt>
      <trkpt lat="45.9348" lon="4.73822">
        <ele>169</ele>
        <time>2017-07-14T08:08:16Z</time>
      </trkpt>
      <trkpt lat="45.93488" lon="4.73817">
        <ele>169</ele>
        <time>2017-07-14T08:08:18Z</time>
      </trkpt>
      <trkpt lat="45.93492" lon="4.73814">
        <ele>169</ele>
        <time>2017-07-14T08:08:19Z</time>
      </trkpt>
      <trkpt lat="45.93499" lon="4.73806">
        <ele>169</ele>
        <time>2017-07-14T08:08:21Z</time>
      </trkpt>
      <trkpt lat="45.93502" lon="4.73803">
        <ele>169</ele>
        <time>2017-07-14T08:08:22Z</time>
      </trkpt>
      <trkpt lat="45.9351" lon="4.73796">
        <ele>169</ele>
        <time>2017-07-14T08:08:24Z</time>
      </trkpt>
      <trkpt lat="45.93514" lon="4.73793">
        <ele>169</ele>
        <time>2017-07-14T08:08:25Z</time>
      </trkpt>
      <trkpt lat="45.93517" lon="4.73789">
        <ele>169</ele>
        <time>2017-07-14T08:08:26Z</time>
      </trkpt>
      <trkpt lat="45.93521" lon="4.73785">
        <ele>169</ele>
        <time>2017-07-14T08:08:27Z</time>
      </trkpt>
      <trkpt lat="45.93528" lon="4.73777">
        <ele>169</ele>
        <time>2017-07-14T08:08:29Z</time>
      </trkpt>
      <trkpt lat="45.93531" lon="4.73773">
        <ele>169</ele>
        <time>2017-07-14T08:08:30Z</time>
      </trkpt>
      <trkpt lat="45.93537" lon="4.73766">
        <ele>169</ele>
        <time>2017-07-14T08:08:32Z</time>
      </trkpt>
      <trkpt lat="45.93541" lon="4.73762">
        <ele>169</ele>
        <time>2017-07-14T08:08:33Z</time>
      </trkpt>
      <trkpt lat="45.93547" lon="4.73755">
        <ele>169</ele>
        <time>2017-07-14T08:08:35Z</time>
      </trkpt>
      <trkpt lat="45.9355" lon="4.73751">
        <ele>169</ele>
        <time>2017-07-14T08:08:36Z</time>
      </trkpt>
      <trkpt lat="45.93556" lon="4.73744">
        <ele>169</ele>
        <time>2017-07-14T08:08:38Z</time>
      </trkpt>
      <trkpt lat="45.9356" lon="4.7374">
        <ele>169</ele>
        <time>2017-07-14T08:08:39Z</time>
      </trkpt>
      <trkpt lat="45.93566" lon="4.73733">
        <ele>169</ele>
        <time>2017-07-14T08:08:41Z</time>
      </trkpt>
      <trkpt lat="45.9357" lon="4.7373">
        <ele>169</ele>
        <time>2017-07-14T08:08:42Z</time>
      </trkpt>
      <trkpt lat="45.93576" lon="4.73723">
        <ele>169</ele>
        <time>2017-07-14T08:08:44Z</time>
      </trkpt>
      <trkpt lat="45.93579" lon="4.73719">
        <ele>169</ele>
        <time>2017-07-14T08:08:45Z</time>
      </trkpt>
      <trkpt lat="45.93583" lon="4.73712">
        <ele>169</ele>
        <time>2017-07-14T08:08:47Z</time>
      </trkpt>
      <trkpt lat="45.93585" lon="4.73708">
        <ele>169</ele>
        <time>2017-07-14T08:08:48Z</time>
      </trkpt>
      <trkpt lat="45.93585" lon="4.73696">
        <ele>169</ele>
        <time>2017-07-14T08:08:50Z</time>
      </trkpt>
      <trkpt lat="45.93585" lon="4.7369">
        <ele>169</ele>
        <time>2017-07-14T08:08:51Z</time>
      </trkpt>
      <trkpt lat="45.93584" lon="4.73678">
        <ele>168</ele>
        <time>2017-07-14T08:08:53Z</time>
      </trkpt>
      <trkpt lat="45.93583" lon="4.73672">
        <ele>168</ele>
        <time>2017-07-14T08:08:54Z</time>
      </trkpt>
      <trkpt lat="45.93582" lon="4.73661">
        <ele>168</ele>
        <time>2017-07-14T08:08:56Z</time>
      </trkpt>
      <trkpt lat="45.93582" lon="4.73655">
        <ele>168</ele>
        <time>2017-07-14T08:08:57Z</time>
      </trkpt>
      <trkpt lat="45.9358" lon="4.73644">
        <ele>168</ele>
        <time>2017-07-14T08:08:59Z</time>
      </trkpt>
      <trkpt lat="45.93579" lon="4.73638">
        <ele>168</ele>
        <time>2017-07-14T08:09:00Z</time>
      </trkpt>
      <trkpt lat="45.93578" lon="4.73626">
        <ele>168</ele>
        <time>2017-07-14T08:09:02Z</time>
      </trkpt>
      <trkpt lat="45.93578" lon="4.73619">
        <ele>168</ele>
        <time>2017-07-14T08:09:03Z</time>
      </trkpt>
      <trkpt lat="45.93577" lon="4.73613">
        <ele>168</ele>
        <time>2017-07-14T08:09:04Z</time>
      </trkpt>
      <trkpt lat="45.93577" lon="4.73606">
        <ele>168</ele>
        <time>2017-07-14T08:09:05Z</time>
      </trkpt>
      <trkpt lat="45.93576" lon="4.73599">
        <ele>168</ele>
        <time>2017-07-14T08:09:06Z</time>
      </trkpt>
      <trkpt lat="45.93575" lon="4.73593">
        <ele>168</ele>
        <time>2017-07-14T08:09:07Z</time>
      </trkpt>
      <trkpt lat="45.93574" lon="4.7358">
        <ele>168</ele>
        <time>2017-07-14T08:09:09Z</time>
      </trkpt>
      <trkpt lat="45.93574" lon="4.73574">
        <ele>168</ele>
        <time>2017-07-14T08:09:10Z</time>
      </trkpt>
      <trkpt lat="45.93573" lon="4.73563">
        <ele>168</ele>
        <time>2017-07-14T08:09:12Z</time>
      </trkpt>
      <trkpt lat="45.93572" lon="4.73558">
        <ele>168</ele>
        <time>2017-07-14T08:09:13Z</time>
      </trkpt>
      <trkpt lat="45.9357" lon="4.73548">
        <ele>169</ele>
        <time>2017-07-14T08:09:15Z</time>
      </trkpt>
      <trkpt lat="45.9357" lon="4.73543">
        <ele>169</ele>
        <time>2017-07-14T08:09:16Z</time>
      </trkpt>
      <trkpt lat="45.93566" lon="4.73532">
        <ele>169</ele>
        <time>2017-07-14T08:09:18Z</time>
      </trkpt>
      <trkpt lat="45.93565" lon="4.73527">
        <ele>169</ele>
        <time>2017-07-14T08:09:19Z</time>
      </trkpt>
      <trkpt lat="45.9356" lon="4.73517">
        <ele>169</ele>
        <time>2017-07-14T08:09:22Z</time>
      </trkpt>
      <trkpt lat="45.93559" lon="4.73515">
        <ele>169</ele>
        <time>2017-07-14T08:09:23Z</time>
      </trkpt>
      <trkpt lat="45.9356" lon="4.73503">
        <ele>169</ele>
        <time>2017-07-14T08:09:28Z</time>
      </trkpt>
      <trkpt lat="45.9356" lon="4.735">
        <ele>169</ele>
        <time>2017-07-14T08:09:29Z</time>
      </trkpt>
      <trkpt lat="45.93559" lon="4.73491">
        <ele>169</ele>
        <time>2017-07-14T08:09:31Z</time>
      </trkpt>
      <trkpt lat="45.93559" lon="4.73486">
        <ele>169</ele>
        <time>2017-07-14T08:09:32Z</time>
      </trkpt>
      <trkpt lat="45.93555" lon="4.73475">
        <ele>169</ele>
        <time>2017-07-14T08:09:34Z</time>
      </trkpt>
      <trkpt lat="45.93554" lon="4.73469">
        <ele>169</ele>
        <time>2017-07-14T08:09:35Z</time>
      </trkpt>
      <trkpt lat="45.93551" lon="4.73458">
        <ele>169</ele>
        <time>2017-07-14T08:09:37Z</time>
      </trkpt>
      <trkpt lat="45.9355" lon="4.73452">
        <ele>169</ele>
        <time>2017-07-14T08:09:38Z</time>
      </trkpt>
      <trkpt lat="45.93547" lon="4.7344">
        <ele>169</ele>
        <time>2017-07-14T08:09:40Z</time>
      </trkpt>
      <trkpt lat="45.93547" lon="4.73434">
        <ele>169</ele>
        <time>2017-07-14T08:09:41Z</time>
      </trkpt>
      <trkpt lat="45.93545" lon="4.73423">
        <ele>169</ele>
        <time>2017-07-14T08:09:43Z</time>
      </trkpt>
      <trkpt lat="45.93544" lon="4.73418">
        <ele>169</ele>
        <time>2017-07-14T08:09:44Z</time>
      </trkpt>
      <trkpt lat="45.93542" lon="4.73406">
        <ele>169</ele>
        <time>2017-07-14T08:09:46Z</time>
      </trkpt>
      <trkpt lat="45.93542" lon="4.734">
        <ele>169</ele>
        <time>2017-07-14T08:09:47Z</time>
      </trkpt>
      <trkpt lat="45.93541" lon="4.73393">
        <ele>169</ele>
        <time>2017-07-14T08:09:48Z</time>
      </trkpt>
      <trkpt lat="45.93539" lon="4.73387">
        <ele>169</ele>
        <time>2017-07-14T08:09:49Z</time>
      </trkpt>
      <trkpt lat="45.93537" lon="4.73381">
        <ele>169</ele>
        <time>2017-07-14T08:09:50Z</time>
      </trkpt>
      <trkpt lat="45.93536" lon="4.73375">
        <ele>169</ele>
        <time>2017-07-14T08:09:51Z</time>
      </trkpt>
      <trkpt lat="45.93535" lon="4.73368">
        <ele>169</ele>
        <time>2017-07-14T08:09:52Z</time>
      </trkpt>
      <trkpt lat="45.93533" lon="4.73362">
        <ele>169</ele>
        <time>2017-07-14T08:09:53Z</time>
      </trkpt>
      <trkpt lat="45.93532" lon="4.73349">
        <ele>169</ele>
        <time>2017-07-14T08:09:55Z</time>
      </trkpt>
      <trkpt lat="45.93532" lon="4.73343">
        <ele>169</ele>
        <time>2017-07-14T08:09:56Z</time>
      </trkpt>
      <trkpt lat="45.93531" lon="4.73332">
        <ele>169</ele>
        <time>2017-07-14T08:09:58Z</time>
      </trkpt>
      <trkpt lat="45.93531" lon="4.73326">
        <ele>169</ele>
        <time>2017-07-14T08:09:59Z</time>
      </trkpt>
      <trkpt lat="45.9353" lon="4.73316">
        <ele>169</ele>
        <time>2017-07-14T08:10:01Z</time>
      </trkpt>
      <trkpt lat="45.9353" lon="4.73311">
        <ele>169</ele>
        <time>2017-07-14T08:10:02Z</time>
      </trkpt>
      <trkpt lat="45.93528" lon="4.73301">
        <ele>169</ele>
        <time>2017-07-14T08:10:04Z</time>
      </trkpt>
      <trkpt lat="45.93526" lon="4.73295">
        <ele>169</ele>
        <time>2017-07-14T08:10:05Z</time>
      </trkpt>
      <trkpt lat="45.93525" lon="4.73283">
        <ele>169</ele>
        <time>2017-07-14T08:10:07Z</time>
      </trkpt>
      <trkpt lat="45.93523" lon="4.73277">
        <ele>169</ele>
        <time>2017-07-14T08:10:08Z</time>
      </trkpt>
      <trkpt lat="45.93521" lon="4.73271">
        <ele>169</ele>
        <time>2017-07-14T08:10:09Z</time>
      </trkpt>
      <trkpt lat="45.9352" lon="4.73264">
        <ele>169</ele>
        <time>2017-07-14T08:10:10Z</time>
      </trkpt>
      <trkpt lat="45.93519" lon="4.73258">
        <ele>169</ele>
        <time>2017-07-14T08:10:11Z</time>
      </trkpt>
      <trkpt lat="45.93517" lon="4.73251">
        <ele>169</ele>
        <time>2017-07-14T08:10:12Z</time>
      </trkpt>
      <trkpt lat="45.93516" lon="4.73244">
        <ele>169</ele>
        <time>2017-07-14T08:10:13Z</time>
      </trkpt>
      <trkpt lat="45.93515" lon="4.73238">
        <ele>169</ele>
        <time>2017-07-14T08:10:14Z</time>
      </trkpt>
      <trkpt lat="45.93513" lon="4.73231">
        <ele>169</ele>
        <time>2017-07-14T08:10:15Z</time>
      </trkpt>
      <trkpt lat="45.93511" lon="4.73225">
        <ele>169</ele>
        <time>2017-07-14T08:10:16Z</time>
      </trkpt>
      <trkpt lat="45.9351" lon="4.73219">
        <ele>169</ele>
        <time>2017-07-14T08:10:17Z</time>
      </trkpt>
      <trkpt lat="45.93508" lon="4.73213">
        <ele>169</ele>
        <time>2017-07-14T08:10:18Z</time>
      </trkpt>
      <trkpt lat="45.93505" lon="4.73201">
        <ele>169</ele>
        <time>2017-07-14T08:10:20Z</time>
      </trkpt>
      <trkpt lat="45.93505" lon="4.73195">
        <ele>169</ele>
        <time>2017-07-14T08:10:21Z</time>
      </trkpt>
      <trkpt lat="45.93502" lon="4.73183">
        <ele>169</ele>
        <time>2017-07-14T08:10:23Z</time>
      </trkpt>
      <trkpt lat="45.935" lon="4.73177">
        <ele>170</ele>
        <time>2017-07-14T08:10:24Z</time>
      </trkpt>
      <trkpt lat="45.93496" lon="4.73166">
        <ele>170</ele>
        <time>2017-07-14T08:10:26Z</time>
      </trkpt>
      <trkpt lat="45.93495" lon="4.73161">
        <ele>170</ele>
        <time>2017-07-14T08:10:27Z</time>
      </trkpt>
      <trkpt lat="45.93491" lon="4.7315">
        <ele>170</ele>
        <time>2017-07-14T08:10:29Z</time>
      </trkpt>
      <trkpt lat="45.9349" lon="4.73145">
        <ele>170</ele>
        <time>2017-07-14T08:10:30Z</time>
      </trkpt>
      <trkpt lat="45.93488" lon="4.73135">
        <ele>170</ele>
        <time>2017-07-14T08:10:32Z</time>
      </trkpt>
      <trkpt lat="45.93487" lon="4.73129">
        <ele>170</ele>
        <time>2017-07-14T08:10:33Z</time>
      </trkpt>
      <trkpt lat="45.93486" lon="4.73118">
        <ele>170</ele>
        <time>2017-07-14T08:10:35Z</time>
      </trkpt>
      <trkpt lat="45.93485" lon="4.73112">
        <ele>170</ele>
        <time>2017-07-14T08:10:36Z</time>
      </trkpt>
      <trkpt lat="45.93485" lon="4.731">
        <ele>170</ele>
        <time>2017-07-14T08:10:38Z</time>
      </trkpt>
      <trkpt lat="45.93484" lon="4.73094">
        <ele>170</ele>
        <time>2017-07-14T08:10:39Z</time>
      </trkpt>
      <trkpt lat="45.93485" lon="4.73087">
        <ele>170</ele>
        <time>2017-07-14T08:10:40Z</time>
      </trkpt>
      <trkpt lat="45.93485" lon="4.7308">
        <ele>170</ele>
        <time>2017-07-14T08:10:41Z</time>
      </trkpt>
      <trkpt lat="45.93485" lon="4.73074">
        <ele>170</ele>
        <time>2017-07-14T08:10:42Z</time>
      </trkpt>
      <trkpt lat="45.93486" lon="4.73067">
        <ele>170</ele>
        <time>2017-07-14T08:10:43Z</time>
      </trkpt>
      <trkpt lat="45.93486" lon="4.73061">
        <ele>170</ele>
        <time>2017-07-14T08:10:44Z</time>
      </trkpt>
      <trkpt lat="45.93486" lon="4.73054">
        <ele>170</ele>
        <time>2017-07-14T08:10:45Z</time>
      </trkpt>
      <trkpt lat="45.93485" lon="4.73042">
        <ele>170</ele>
        <time>2017-07-14T08:10:47Z</time>
      </trkpt>
      <trkpt lat="45.93485" lon="4.73035">
        <ele>170</ele>
        <time>2017-07-14T08:10:48Z</time>
      </trkpt>
      <trkpt lat="45.93485" lon="4.73028">
        <ele>170</ele>
        <time>2017-07-14T08:10:49Z</time>
      </trkpt>
      <trkpt lat="45.93485" lon="4.73022">
        <ele>170</ele>
        <time>2017-07-14T08:10:50Z</time>
      </trkpt>
      <trkpt lat="45.93484" lon="4.73009">
        <ele>170</ele>
        <time>2017-07-14T08:10:52Z</time>
      </trkpt>
      <trkpt lat="45.93485" lon="4.73003">
        <ele>170</ele>
        <time>2017-07-14T08:10:53Z</time>
      </trkpt>
      <trkpt lat="45.93485" lon="4.72996">
        <ele>170</ele>
        <time>2017-07-14T08:10:54Z</time>
      </trkpt>
      <trkpt lat="45.93485" lon="4.72989">
        <ele>170</ele>
        <time>2017-07-14T08:10:55Z</time>
      </trkpt>
      <trkpt lat="45.93486" lon="4.72981">
        <ele>171</ele>
        <time>2017-07-14T08:10:56Z</time>
      </trkpt>
      <trkpt lat="45.93487" lon="4.72974">
        <ele>171</ele>
        <time>2017-07-14T08:10:57Z</time>
      </trkpt>
      <trkpt lat="45.93489" lon="4.72968">
        <ele>171</ele>
        <time>2017-07-14T08:10:58Z</time>
      </trkpt>
      <trkpt lat="45.9349" lon="4.72962">
        <ele>171</ele>
        <time>2017-07-14T08:10:59Z</time>
      </trkpt>
      <trkpt lat="45.93494" lon="4.7295">
        <ele>171</ele>
        <time>2017-07-14T08:11:01Z</time>
      </trkpt>
      <trkpt lat="45.93495" lon="4.72945">
        <ele>171</ele>
        <time>2017-07-14T08:11:02Z</time>
      </trkpt>
      <trkpt lat="45.93498" lon="4.72933">
        <ele>172</ele>
        <time>2017-07-14T08:11:04Z</time>
      </trkpt>
      <trkpt lat="45.93499" lon="4.72928">
        <ele>172</ele>
        <time>2017-07-14T08:11:05Z</time>
      </trkpt>
      <trkpt lat="45.93504" lon="4.72919">
        <ele>172</ele>
        <time>2017-07-14T08:11:07Z</time>
      </trkpt>
      <trkpt lat="45.93508" lon="4.72916">
        <ele>172</ele>
        <time>2017-07-14T08:11:08Z</time>
      </trkpt>
      <trkpt lat="45.93514" lon="4.7291">
        <ele>172</ele>
        <time>2017-07-14T08:11:10Z</time>
      </trkpt>
      <trkpt lat="45.93517" lon="4.72907">
        <ele>172</ele>
        <time>2017-07-14T08:11:11Z</time>
      </trkpt>
      <trkpt lat="45.93524" lon="4.729">
        <ele>172</ele>
        <time>2017-07-14T08:11:13Z</time>
      </trkpt>
      <trkpt lat="45.93527" lon="4.72896">
        <ele>172</ele>
        <time>2017-07-14T08:11:14Z</time>
      </trkpt>
      <trkpt lat="45.93534" lon="4.72888">
        <ele>172</ele>
        <time>2017-07-14T08:11:16Z</time>
      </trkpt>
      <trkpt lat="45.93538" lon="4.72884">
        <ele>172</ele>
        <time>2017-07-14T08:11:17Z</time>
      </trkpt>
      <trkpt lat="45.93544" lon="4.72877">
        <ele>172</ele>
        <time>2017-07-14T08:11:19Z</time>
      </trkpt>
      <trkpt lat="45.93548" lon="4.72873">
        <ele>172</ele>
        <time>2017-07-14T08:11:20Z</time>
      </trkpt>
      <trkpt lat="45.93554" lon="4.72866">
        <ele>172</ele>
        <time>2017-07-14T08:11:22Z</time>
      </trkpt>
      <trkpt lat="45.93558" lon="4.72862">
        <ele>172</ele>
        <time>2017-07-14T08:11:23Z</time>
      </trkpt>
      <trkpt lat="45.93565" lon="4.72856">
        <ele>172</ele>
        <time>2017-07-14T08:11:25Z</time>
      </trkpt>
      <trkpt lat="45.93568" lon="4.72852">
        <ele>172</ele>
        <time>2017-07-14T08:11:26Z</time>
      </trkpt>
      <trkpt lat="45.93575" lon="4.72846">
        <ele>172</ele>
        <time>2017-07-14T08:11:28Z</time>
      </trkpt>
      <trkpt lat="45.93579" lon="4.72843">
        <ele>172</ele>
        <time>2017-07-14T08:11:29Z</time>
      </trkpt>
      <trkpt lat="45.93587" lon="4.72836">
        <ele>172</ele>
        <time>2017-07-14T08:11:31Z</time>
      </trkpt>
      <trkpt lat="45.9359" lon="4.72833">
        <ele>172</ele>
        <time>2017-07-14T08:11:32Z</time>
      </trkpt>
      <trkpt lat="45.93598" lon="4.72827">
        <ele>173</ele>
        <time>2017-07-14T08:11:34Z</time>
      </trkpt>
      <trkpt lat="45.93602" lon="4.72824">
        <ele>173</ele>
        <time>2017-07-14T08:11:35Z</time>
      </trkpt>
      <trkpt lat="45.93606" lon="4.7282">
        <ele>173</ele>
        <time>2017-07-14T08:11:36Z</time>
      </trkpt>
      <trkpt lat="45.93609" lon="4.72817">
        <ele>173</ele>
        <time>2017-07-14T08:11:37Z</time>
      </trkpt>
      <trkpt lat="45.93617" lon="4.72812">
        <ele>173</ele>
        <time>2017-07-14T08:11:39Z</time>
      </trkpt>
      <trkpt lat="45.9362" lon="4.72809">
        <ele>173</ele>
        <time>2017-07-14T08:11:40Z</time>
      </trkpt>
      <trkpt lat="45.93627" lon="4.72804">
        <ele>173</ele>
        <time>2017-07-14T08:11:42Z</time>
      </trkpt>
      <trkpt lat="45.93631" lon="4.72801">
        <ele>173</ele>
        <time>2017-07-14T08:11:43Z</time>
      </trkpt>
      <trkpt lat="45.93636" lon="4.72798">
        <ele>173</ele>
        <time>2017-07-14T08:11:44Z</time>
      </trkpt>
      <trkpt lat="45.9364" lon="4.72795">
        <ele>173</ele>
        <time>2017-07-14T08:11:45Z</time>
      </trkpt>
      <trkpt lat="45.93648" lon="4.7279">
        <ele>173</ele>
        <time>2017-07-14T08:11:47Z</time>
      </trkpt>
      <trkpt lat="45.93651" lon="4.72787">
        <ele>173</ele>
        <time>2017-07-14T08:11:48Z</time>
      </trkpt>
      <trkpt lat="45.93657" lon="4.72782">
        <ele>174</ele>
        <time>2017-07-14T08:11:50Z</time>
      </trkpt>
      <trkpt lat="45.93661" lon="4.7278">
        <ele>174</ele>
        <time>2017-07-14T08:11:51Z</time>
      </trkpt>
      <trkpt lat="45.93668" lon="4.72774">
        <ele>173</ele>
        <time>2017-07-14T08:11:53Z</time>
      </trkpt>
      <trkpt lat="45.93672" lon="4.72771">
        <ele>173</ele>
        <time>2017-07-14T08:11:54Z</time>
      </trkpt>
      <trkpt lat="45.93679" lon="4.72764">
        <ele>173</ele>
        <time>2017-07-14T08:11:56Z</time>
      </trkpt>
      <trkpt lat="45.93683" lon="4.7276">
        <ele>173</ele>
        <time>2017-07-14T08:11:57Z</time>
      </trkpt>
      <trkpt lat="45.93687" lon="4.72756">
        <ele>173</ele>
        <time>2017-07-14T08:11:58Z</time>
      </trkpt>
      <trkpt lat="45.93691" lon="4.72752">
        <ele>172</ele>
        <time>2017-07-14T08:11:59Z</time>
      </trkpt>
      <trkpt lat="45.93695" lon="4.72748">
        <ele>173</ele>
        <time>2017-07-14T08:12:00Z</time>
      </trkpt>
      <trkpt lat="45.937" lon="4.72744">
        <ele>173</ele>
        <time>2017-07-14T08:12:01Z</time>
      </trkpt>
      <trkpt lat="45.93704" lon="4.72741">
        <ele>173</ele>
        <time>2017-07-14T08:12:02Z</time>
      </trkpt>
      <trkpt lat="45.93708" lon="4.72737">
        <ele>173</ele>
        <time>2017-07-14T08:12:03Z</time>
      </trkpt>
      <trkpt lat="45.93712" lon="4.72734">
        <ele>173</ele>
        <time>2017-07-14T08:12:04Z</time>
      </trkpt>
      <trkpt lat="45.93716" lon="4.72731">
        <ele>173</ele>
        <time>2017-07-14T08:12:05Z</time>
      </trkpt>
      <trkpt lat="45.9372" lon="4.72727">
        <ele>173</ele>
        <time>2017-07-14T08:12:06Z</time>
      </trkpt>
      <trkpt lat="45.93723" lon="4.72724">
        <ele>173</ele>
        <time>2017-07-14T08:12:07Z</time>
      </trkpt>
      <trkpt lat="45.9373" lon="4.72717">
        <ele>173</ele>
        <time>2017-07-14T08:12:09Z</time>
      </trkpt>
      <trkpt lat="45.93734" lon="4.72713">
        <ele>173</ele>
        <time>2017-07-14T08:12:10Z</time>
      </trkpt>
      <trkpt lat="45.93738" lon="4.72709">
        <ele>173</ele>
        <time>2017-07-14T08:12:11Z</time>
      </trkpt>
      <trkpt lat="45.93742" lon="4.72705">
        <ele>173</ele>
        <time>2017-07-14T08:12:12Z</time>
      </trkpt>
      <trkpt lat="45.93746" lon="4.72701">
        <ele>173</ele>
        <time>2017-07-14T08:12:13Z</time>
      </trkpt>
      <trkpt lat="45.9375" lon="4.72697">
        <ele>173</ele>
        <time>2017-07-14T08:12:14Z</time>
      </trkpt>
      <trkpt lat="45.93754" lon="4.72693">
        <ele>172</ele>
        <time>2017-07-14T08:12:15Z</time>
      </trkpt>
      <trkpt lat="45.93758" lon="4.72688">
        <ele>172</ele>
        <time>2017-07-14T08:12:16Z</time>
      </trkpt>
      <trkpt lat="45.93761" lon="4.72684">
        <ele>173</ele>
        <time>2017-07-14T08:12:17Z</time>
      </trkpt>
      <trkpt lat="45.93765" lon="4.72679">
        <ele>173</ele>
        <time>2017-07-14T08:12:18Z</time>
      </trkpt>
      <trkpt lat="45.93768" lon="4.72675">
        <ele>173</ele>
        <time>2017-07-14T08:12:19Z</time>
      </trkpt>
      <trkpt lat="45.93772" lon="4.72671">
        <ele>173</ele>
        <time>2017-07-14T08:12:20Z</time>
      </trkpt>
      <trkpt lat="45.93776" lon="4.72666">
        <ele>173</ele>
        <time>2017-07-14T08:12:21Z</time>
      </trkpt>
      <trkpt lat="45.9378" lon="4.7266">
        <ele>173</ele>
        <time>2017-07-14T08:12:22Z</time>
      </trkpt>
      <trkpt lat="45.93784" lon="4.72654">
        <ele>173</ele>
        <time>2017-07-14T08:12:23Z</time>
      </trkpt>
      <trkpt lat="45.93788" lon="4.72648">
        <ele>173</ele>
        <time>2017-07-14T08:12:24Z</time>
      </trkpt>
      <trkpt lat="45.93792" lon="4.72643">
        <ele>173</ele>
        <time>2017-07-14T08:12:25Z</time>
      </trkpt>
      <trkpt lat="45.93796" lon="4.72637">
        <ele>173</ele>
        <time>2017-07-14T08:12:26Z</time>
      </trkpt>
      <trkpt lat="45.938" lon="4.72632">
        <ele>173</ele>
        <time>2017-07-14T08:12:27Z</time>
      </trkpt>
      <trkpt lat="45.93804" lon="4.72627">
        <ele>173</ele>
        <time>2017-07-14T08:12:28Z</time>
      </trkpt>
      <trkpt lat="45.93807" lon="4.72622">
        <ele>173</ele>
        <time>2017-07-14T08:12:29Z</time>
      </trkpt>
      <trkpt lat="45.93811" lon="4.72616">
        <ele>173</ele>
        <time>2017-07-14T08:12:30Z</time>
      </trkpt>
      <trkpt lat="45.93814" lon="4.72611">
        <ele>173</ele>
        <time>2017-07-14T08:12:31Z</time>
      </trkpt>
      <trkpt lat="45.93816" lon="4.72605">
        <ele>173</ele>
        <time>2017-07-14T08:12:32Z</time>
      </trkpt>
      <trkpt lat="45.93816" lon="4.72594">
        <ele>174</ele>
        <time>2017-07-14T08:12:34Z</time>
      </trkpt>
      <trkpt lat="45.93814" lon="4.72589">
        <ele>174</ele>
        <time>2017-07-14T08:12:35Z</time>
      </trkpt>
      <trkpt lat="45.93808" lon="4.72581">
        <ele>174</ele>
        <time>2017-07-14T08:12:37Z</time>
      </trkpt>
      <trkpt lat="45.93805" lon="4.72577">
        <ele>174</ele>
        <time>2017-07-14T08:12:38Z</time>
      </trkpt>
      <trkpt lat="45.93799" lon="4.72567">
        <ele>174</ele>
        <time>2017-07-14T08:12:40Z</time>
      </trkpt>
      <trkpt lat="45.93796" lon="4.72562">
        <ele>174</ele>
        <time>2017-07-14T08:12:41Z</time>
      </trkpt>
      <trkpt lat="45.93793" lon="4.72557">
        <ele>173</ele>
        <time>2017-07-14T08:12:42Z</time>
      </trkpt>
      <trkpt lat="45.93789" lon="4.72553">
        <ele>173</ele>
        <time>2017-07-14T08:12:43Z</time>
      </trkpt>
      <trkpt lat="45.93785" lon="4.72549">
        <ele>173</ele>
        <time>2017-07-14T08:12:44Z</time>
      </trkpt>
      <trkpt lat="45.9378" lon="4.72543">
        <ele>173</ele>
        <time>2017-07-14T08:12:45Z</time>
      </trkpt>
      <trkpt lat="45.93774" lon="4.72538">
        <ele>173</ele>
        <time>2017-07-14T08:12:47Z</time>
      </trkpt>
      <trkpt lat="45.93772" lon="4.72536">
        <ele>173</ele>
        <time>2017-07-14T08:12:48Z</time>
      </trkpt>
      <trkpt lat="45.93766" lon="4.72532">
        <ele>173</ele>
        <time>2017-07-14T08:12:50Z</time>
      </trkpt>
      <trkpt lat="45.93761" lon="4.72529">
        <ele>173</ele>
        <time>2017-07-14T08:12:51Z</time>
      </trkpt>
      <trkpt lat="45.93756" lon="4.72524">
        <ele>172</ele>
        <time>2017-07-14T08:12:52Z</time>
      </trkpt>
      <trkpt lat="45.93749" lon="4.72519">
        <ele>171</ele>
        <time>2017-07-14T08:12:53Z</time>
      </trkpt>
      <trkpt lat="45.93744" lon="4.72517">
        <ele>171</ele>
        <time>2017-07-14T08:12:54Z</time>
      </trkpt>
      <trkpt lat="45.9374" lon="4.72513">
        <ele>171</ele>
        <time>2017-07-14T08:12:55Z</time>
      </trkpt>
      <trkpt lat="45.93736" lon="4.7251">
        <ele>171</ele>
        <time>2017-07-14T08:12:56Z</time>
      </trkpt>
      <trkpt lat="45.93732" lon="4.72505">
        <ele>171</ele>
        <time>2017-07-14T08:12:57Z</time>
      </trkpt>
      <trkpt lat="45.93724" lon="4.72499">
        <ele>171</ele>
        <time>2017-07-14T08:12:59Z</time>
      </trkpt>
      <trkpt lat="45.93721" lon="4.72496">
        <ele>171</ele>
        <time>2017-07-14T08:13:00Z</time>
      </trkpt>
      <trkpt lat="45.93714" lon="4.7249">
        <ele>171</ele>
        <time>2017-07-14T08:13:02Z</time>
      </trkpt>
      <trkpt lat="45.93711" lon="4.72487">
        <ele>171</ele>
        <time>2017-07-14T08:13:03Z</time>
      </trkpt>
      <trkpt lat="45.93707" lon="4.72484">
        <ele>171</ele>
        <time>2017-07-14T08:13:04Z</time>
      </trkpt>
      <trkpt lat="45.93703" lon="4.72481">
        <ele>171</ele>
        <time>2017-07-14T08:13:05Z</time>
      </trkpt>
      <trkpt lat="45.93699" lon="4.72477">
        <ele>171</ele>
        <time>2017-07-14T08:13:06Z</time>
      </trkpt>
      <trkpt lat="45.93695" lon="4.72474">
        <ele>171</ele>
        <time>2017-07-14T08:13:07Z</time>
      </trkpt>
      <trkpt lat="45.93691" lon="4.7247">
        <ele>171</ele>
        <time>2017-07-14T08:13:08Z</time>
      </trkpt>
      <trkpt lat="45.93687" lon="4.72466">
        <ele>171</ele>
        <time>2017-07-14T08:13:09Z</time>
      </trkpt>
      <trkpt lat="45.9368" lon="4.72459">
        <ele>171</ele>
        <time>2017-07-14T08:13:11Z</time>
      </trkpt>
      <trkpt lat="45.93676" lon="4.72456">
        <ele>171</ele>
        <time>2017-07-14T08:13:12Z</time>
      </trkpt>
      <trkpt lat="45.93669" lon="4.7245">
        <ele>171</ele>
        <time>2017-07-14T08:13:14Z</time>
      </trkpt>
      <trkpt lat="45.93666" lon="4.72446">
        <ele>172</ele>
        <time>2017-07-14T08:13:15Z</time>
      </trkpt>
      <trkpt lat="45.93661" lon="4.72437">
        <ele>172</ele>
        <time>2017-07-14T08:13:17Z</time>
      </trkpt>
      <trkpt lat="45.93659" lon="4.72431">
        <ele>172</ele>
        <time>2017-07-14T08:13:18Z</time>
      </trkpt>
      <trkpt lat="45.93657" lon="4.72425">
        <ele>172</ele>
        <time>2017-07-14T08:13:19Z</time>
      </trkpt>
      <trkpt lat="45.93654" lon="4.72418">
        <ele>172</ele>
        <time>2017-07-14T08:13:20Z</time>
      </trkpt>
      <trkpt lat="45.93649" lon="4.72409">
        <ele>172</ele>
        <time>2017-07-14T08:13:22Z</time>
      </trkpt>
      <trkpt lat="45.93645" lon="4.72405">
        <ele>172</ele>
        <time>2017-07-14T08:13:23Z</time>
      </trkpt>
      <trkpt lat="45.9364" lon="4.72399">
        <ele>172</ele>
        <time>2017-07-14T08:13:25Z</time>
      </trkpt>
      <trkpt lat="45.93638" lon="4.72397">
        <ele>172</ele>
        <time>2017-07-14T08:13:26Z</time>
      </trkpt>
      <trkpt lat="45.93633" lon="4.72389">
        <ele>172</ele>
        <time>2017-07-14T08:13:29Z</time>
      </trkpt>
      <trkpt lat="45.9363" lon="4.72386">
        <ele>172</ele>
        <time>2017-07-14T08:13:30Z</time>
      </trkpt>
      <trkpt lat="45.93625" lon="4.7238">
        <ele>172</ele>
        <time>2017-07-14T08:13:32Z</time>
      </trkpt>
      <trkpt lat="45.93622" lon="4.72378">
        <ele>172</ele>
        <time>2017-07-14T08:13:33Z</time>
      </trkpt>
      <trkpt lat="45.93617" lon="4.72372">
        <ele>172</ele>
        <time>2017-07-14T08:13:35Z</time>
      </trkpt>
      <trkpt lat="45.93614" lon="4.72369">
        <ele>172</ele>
        <time>2017-07-14T08:13:36Z</time>
      </trkpt>
      <trkpt lat="45.93608" lon="4.72362">
        <ele>172</ele>
        <time>2017-07-14T08:13:38Z</time>
      </trkpt>
      <trkpt lat="45.93605" lon="4.72359">
        <ele>172</ele>
        <time>2017-07-14T08:13:39Z</time>
      </trkpt>
      <trkpt lat="45.93599" lon="4.72354">
        <ele>172</ele>
        <time>2017-07-14T08:13:41Z</time>
      </trkpt>
      <trkpt lat="45.93597" lon="4.72352">
        <ele>172</ele>
        <time>2017-07-14T08:13:42Z</time>
      </trkpt>
      <trkpt lat="45.93591" lon="4.72346">
        <ele>173</ele>
        <time>2017-07-14T08:13:45Z</time>
      </trkpt>
      <trkpt lat="45.93588" lon="4.72344">
        <ele>173</ele>
        <time>2017-07-14T08:13:46Z</time>
      </trkpt>
      <trkpt lat="45.93582" lon="4.72339">
        <ele>173</ele>
        <time>2017-07-14T08:13:48Z</time>
      </trkpt>
      <trkpt lat="45.93579" lon="4.72337">
        <ele>173</ele>
        <time>2017-07-14T08:13:49Z</time>
      </trkpt>
      <trkpt lat="45.93573" lon="4.72333">
        <ele>173</ele>
        <time>2017-07-14T08:13:51Z</time>
      </trkpt>
      <trkpt lat="45.93571" lon="4.72331">
        <ele>173</ele>
        <time>2017-07-14T08:13:52Z</time>
      </trkpt>
      <trkpt lat="45.93562" lon="4.72326">
        <ele>173</ele>
        <time>2017-07-14T08:13:55Z</time>
      </trkpt>
      <trkpt lat="45.93559" lon="4.72325">
        <ele>173</ele>
        <time>2017-07-14T08:13:56Z</time>
      </trkpt>
      <trkpt lat="45.93553" lon="4.72322">
        <ele>173</ele>
        <time>2017-07-14T08:13:58Z</time>
      </trkpt>
      <trkpt lat="45.9355" lon="4.72321">
        <ele>173</ele>
        <time>2017-07-14T08:13:59Z</time>
      </trkpt>
      <trkpt lat="45.93544" lon="4.7232">
        <ele>173</ele>
        <time>2017-07-14T08:14:01Z</time>
      </trkpt>
      <trkpt lat="45.93541" lon="4.72319">
        <ele>173</ele>
        <time>2017-07-14T08:14:02Z</time>
      </trkpt>
      <trkpt lat="45.93532" lon="4.72319">
        <ele>173</ele>
        <time>2017-07-14T08:14:05Z</time>
      </trkpt>
      <trkpt lat="45.93529" lon="4.7232">
        <ele>173</ele>
        <time>2017-07-14T08:14:06Z</time>
      </trkpt>
      <trkpt lat="45.93521" lon="4.72325">
        <ele>173</ele>
        <time>2017-07-14T08:14:10Z</time>
      </trkpt>
      <trkpt lat="45.9352" lon="4.72326">
        <ele>173</ele>
        <time>2017-07-14T08:14:11Z</time>
      </trkpt>
      <trkpt lat="45.93518" lon="4.72316">
        <ele>173</ele>
        <time>2017-07-14T08:14:18Z</time>
      </trkpt>
      <trkpt lat="45.93519" lon="4.72313">
        <ele>173</ele>
        <time>2017-07-14T08:14:19Z</time>
      </trkpt>
      <trkpt lat="45.93523" lon="4.72305">
        <ele>173</ele>
        <time>2017-07-14T08:14:22Z</time>
      </trkpt>
      <trkpt lat="45.93524" lon="4.72301">
        <ele>172</ele>
        <time>2017-07-14T08:14:23Z</time>
      </trkpt>
      <trkpt lat="45.93529" lon="4.7229">
        <ele>172</ele>
        <time>2017-07-14T08:14:26Z</time>
      </trkpt>
      <trkpt lat="45.9353" lon="4.72287">
        <ele>172</ele>
        <time>2017-07-14T08:14:27Z</time>
      </trkpt>
      <trkpt lat="45.93534" lon="4.72277">
        <ele>172</ele>
        <time>2017-07-14T08:14:30Z</time>
      </trkpt>
      <trkpt lat="45.93535" lon="4.72273">
        <ele>172</ele>
        <time>2017-07-14T08:14:31Z</time>
      </trkpt>
      <trkpt lat="45.9354" lon="4.72262">
        <ele>172</ele>
        <time>2017-07-14T08:14:34Z</time>
      </trkpt>
      <trkpt lat="45.93541" lon="4.72258">
        <ele>172</ele>
        <time>2017-07-14T08:14:35Z</time>
      </trkpt>
      <trkpt lat="45.93545" lon="4.7225">
        <ele>172</ele>
        <time>2017-07-14T08:14:37Z</time>
      </trkpt>
      <trkpt lat="45.93547" lon="4.72246">
        <ele>172</ele>
        <time>2017-07-14T08:14:38Z</time>
      </trkpt>
      <trkpt lat="45.9355" lon="4.72238">
        <ele>172</ele>
        <time>2017-07-14T08:14:40Z</time>
      </trkpt>
      <trkpt lat="45.93552" lon="4.72234">
        <ele>172</ele>
        <time>2017-07-14T08:14:41Z</time>
      </trkpt>
      <trkpt lat="45.93558" lon="4.72231">
        <ele>173</ele>
        <time>2017-07-14T08:14:43Z</time>
      </trkpt>
      <trkpt lat="45.93561" lon="4.72232">
        <ele>173</ele>
        <time>2017-07-14T08:14:44Z</time>
      </trkpt>
      <trkpt lat="45.93567" lon="4.72237">
        <ele>173</ele>
        <time>2017-07-14T08:14:46Z</time>
      </trkpt>
      <trkpt lat="45.93569" lon="4.72239">
        <ele>173</ele>
        <time>2017-07-14T08:14:47Z</time>
      </trkpt>
      <trkpt lat="45.93574" lon="4.72245">
        <ele>173</ele>
        <time>2017-07-14T08:14:49Z</time>
      </trkpt>
      <trkpt lat="45.93577" lon="4.72247">
        <ele>173</ele>
        <time>2017-07-14T08:14:50Z</time>
      </trkpt>
      <trkpt lat="45.93583" lon="4.72253">
        <ele>173</ele>
        <time>2017-07-14T08:14:52Z</time>
      </trkpt>
      <trkpt lat="45.93585" lon="4.72256">
        <ele>173</ele>
        <time>2017-07-14T08:14:53Z</time>
      </trkpt>
      <trkpt lat="45.93591" lon="4.72261">
        <ele>173</ele>
        <time>2017-07-14T08:14:55Z</time>
      </trkpt>
      <trkpt lat="45.93595" lon="4.72264">
        <ele>173</ele>
        <time>2017-07-14T08:14:56Z</time>
      </trkpt>
      <trkpt lat="45.93602" lon="4.72272">
        <ele>173</ele>
        <time>2017-07-14T08:14:58Z</time>
      </trkpt>
      <trkpt lat="45.93605" lon="4.72275">
        <ele>172</ele>
        <time>2017-07-14T08:14:59Z</time>
      </trkpt>
      <trkpt lat="45.93611" lon="4.72281">
        <ele>172</ele>
        <time>2017-07-14T08:15:01Z</time>
      </trkpt>
      <trkpt lat="45.93615" lon="4.72285">
        <ele>172</ele>
        <time>2017-07-14T08:15:02Z</time>
      </trkpt>
      <trkpt lat="45.93621" lon="4.72291">
        <ele>172</ele>
        <time>2017-07-14T08:15:04Z</time>
      </trkpt>
      <trkpt lat="45.93624" lon="4.72295">
        <ele>172</ele>
        <time>2017-07-14T08:15:05Z</time>
      </trkpt>
      <trkpt lat="45.9363" lon="4.72303">
        <ele>172</ele>
        <time>2017-07-14T08:15:07Z</time>
      </trkpt>
      <trkpt lat="45.93633" lon="4.72306">
        <ele>172</ele>
        <time>2017-07-14T08:15:08Z</time>
      </trkpt>
      <trkpt lat="45.93639" lon="4.72312">
        <ele>172</ele>
        <time>2017-07-14T08:15:10Z</time>
      </trkpt>
      <trkpt lat="45.93642" lon="4.72314">
        <ele>172</ele>
        <time>2017-07-14T08:15:11Z</time>
      </trkpt>
      <trkpt lat="45.93647" lon="4.7232">
        <ele>172</ele>
        <time>2017-07-14T08:15:13Z</time>
      </trkpt>
      <trkpt lat="45.9365" lon="4.72323">
        <ele>172</ele>
        <time>2017-07-14T08:15:14Z</time>
      </trkpt>
      <trkpt lat="45.93657" lon="4.7233">
        <ele>171</ele>
        <time>2017-07-14T08:15:16Z</time>
      </trkpt>
      <trkpt lat="45.9366" lon="4.72333">
        <ele>171</ele>
        <time>2017-07-14T08:15:17Z</time>
      </trkpt>
      <trkpt lat="45.93666" lon="4.72339">
        <ele>171</ele>
        <time>2017-07-14T08:15:19Z</time>
      </trkpt>
      <trkpt lat="45.93669" lon="4.72341">
        <ele>171</ele>
        <time>2017-07-14T08:15:20Z</time>
      </trkpt>
      <trkpt lat="45.93676" lon="4.72344">
        <ele>171</ele>
        <time>2017-07-14T08:15:23Z</time>
      </trkpt>
      <trkpt lat="45.93678" lon="4.72345">
        <ele>171</ele>
        <time>2017-07-14T08:15:24Z</time>
      </trkpt>
      <trkpt lat="45.93685" lon="4.7235">
        <ele>171</ele>
        <time>2017-07-14T08:15:27Z</time>
      </trkpt>
      <trkpt lat="45.93687" lon="4.72352">
        <ele>171</ele>
        <time>2017-07-14T08:15:28Z</time>
      </trkpt>
      <trkpt lat="45.93693" lon="4.72357">
        <ele>171</ele>
        <time>2017-07-14T08:15:30Z</time>
      </trkpt>
      <trkpt lat="45.93697" lon="4.72359">
        <ele>171</ele>
        <time>2017-07-14T08:15:31Z</time>
      </trkpt>
      <trkpt lat="45.93702" lon="4.72365">
        <ele>171</ele>
        <time>2017-07-14T08:15:33Z</time>
      </trkpt>
      <trkpt lat="45.93705" lon="4.72368">
        <ele>171</ele>
        <time>2017-07-14T08:15:34Z</time>
      </trkpt>
      <trkpt lat="45.93711" lon="4.72374">
        <ele>172</ele>
        <time>2017-07-14T08:15:36Z</time>
      </trkpt>
      <trkpt lat="45.93714" lon="4.72377">
        <ele>171</ele>
        <time>2017-07-14T08:15:37Z</time>
      </trkpt>
      <trkpt lat="45.9372" lon="4.72383">
        <ele>171</ele>
        <time>2017-07-14T08:15:39Z</time>
      </trkpt>
      <trkpt lat="45.93723" lon="4.72386">
        <ele>171</ele>
        <time>2017-07-14T08:15:40Z</time>
      </trkpt>
      <trkpt lat="45.9373" lon="4.72393">
        <ele>171</ele>
        <time>2017-07-14T08:15:43Z</time>
      </trkpt>
      <trkpt lat="45.93732" lon="4.72395">
        <ele>171</ele>
        <time>2017-07-14T08:15:44Z</time>
      </trkpt>
      <trkpt lat="45.93739" lon="4.72403">
        <ele>171</ele>
        <time>2017-07-14T08:15:47Z</time>
      </trkpt>
      <trkpt lat="45.93742" lon="4.72405">
        <ele>171</ele>
        <time>2017-07-14T08:15:48Z</time>
      </trkpt>
      <trkpt lat="45.9375" lon="4.72406">
        <ele>171</ele>
        <time>2017-07-14T08:15:51Z</time>
      </trkpt>
      <trkpt lat="45.93753" lon="4.72404">
        <ele>171</ele>
        <time>2017-07-14T08:15:52Z</time>
      </trkpt>
      <trkpt lat="45.93754" lon="4.72411">
        <ele>171</ele>
        <time>2017-07-14T08:16:02Z</time>
      </trkpt>
      <trkpt lat="45.93757" lon="4.72416">
        <ele>171</ele>
        <time>2017-07-14T08:16:03Z</time>
      </trkpt>
      <trkpt lat="45.93764" lon="4.72423">
        <ele>171</ele>
        <time>2017-07-14T08:16:05Z</time>
      </trkpt>
      <trkpt lat="45.93767" lon="4.72427">
        <ele>171</ele>
        <time>2017-07-14T08:16:06Z</time>
      </trkpt>
      <trkpt lat="45.93772" lon="4.72431">
        <ele>171</ele>
        <time>2017-07-14T08:16:07Z</time>
      </trkpt>
      <trkpt lat="45.93776" lon="4.72435">
        <ele>172</ele>
        <time>2017-07-14T08:16:08Z</time>
      </trkpt>
      <trkpt lat="45.93781" lon="4.72439">
        <ele>172</ele>
        <time>2017-07-14T08:16:09Z</time>
      </trkpt>
      <trkpt lat="45.93785" lon="4.72443">
        <ele>172</ele>
        <time>2017-07-14T08:16:10Z</time>
      </trkpt>
      <trkpt lat="45.9379" lon="4.72447">
        <ele>172</ele>
        <time>2017-07-14T08:16:11Z</time>
      </trkpt>
      <trkpt lat="45.93794" lon="4.72452">
        <ele>172</ele>
        <time>2017-07-14T08:16:12Z</time>
      </trkpt>
      <trkpt lat="45.93799" lon="4.72457">
        <ele>172</ele>
        <time>2017-07-14T08:16:13Z</time>
      </trkpt>
      <trkpt lat="45.93804" lon="4.72462">
        <ele>172</ele>
        <time>2017-07-14T08:16:14Z</time>
      </trkpt>
      <trkpt lat="45.93808" lon="4.72468">
        <ele>172</ele>
        <time>2017-07-14T08:16:15Z</time>
      </trkpt>
      <trkpt lat="45.93813" lon="4.72472">
        <ele>172</ele>
        <time>2017-07-14T08:16:16Z</time>
      </trkpt>
      <trkpt lat="45.93819" lon="4.72476">
        <ele>172</ele>
        <time>2017-07-14T08:16:17Z</time>
      </trkpt>
      <trkpt lat="45.93824" lon="4.7248">
        <ele>173</ele>
        <time>2017-07-14T08:16:18Z</time>
      </trkpt>
      <trkpt lat="45.93828" lon="4.72484">
        <ele>173</ele>
        <time>2017-07-14T08:16:19Z</time>
      </trkpt>
      <trkpt lat="45.93832" lon="4.72489">
        <ele>173</ele>
        <time>2017-07-14T08:16:20Z</time>
      </trkpt>
      <trkpt lat="45.93835" lon="4.72494">
        <ele>174</ele>
        <time>2017-07-14T08:16:21Z</time>
      </trkpt>
      <trkpt lat="45.93839" lon="4.72497">
        <ele>174</ele>
        <time>2017-07-14T08:16:22Z</time>
      </trkpt>
      <trkpt lat="45.93843" lon="4.72502">
        <ele>174</ele>
        <time>2017-07-14T08:16:23Z</time>
      </trkpt>
      <trkpt lat="45.93849" lon="4.72509">
        <ele>174</ele>
        <time>2017-07-14T08:16:24Z</time>
      </trkpt>
      <trkpt lat="45.93854" lon="4.72514">
        <ele>173</ele>
        <time>2017-07-14T08:16:25Z</time>
      </trkpt>
      <trkpt lat="45.93858" lon="4.72521">
        <ele>173</ele>
        <time>2017-07-14T08:16:26Z</time>
      </trkpt>
      <trkpt lat="45.93862" lon="4.72523">
        <ele>173</ele>
        <time>2017-07-14T08:16:27Z</time>
      </trkpt>
      <trkpt lat="45.93867" lon="4.72524">
        <ele>173</ele>
        <time>2017-07-14T08:16:28Z</time>
      </trkpt>
      <trkpt lat="45.93873" lon="4.72521">
        <ele>173</ele>
        <time>2017-07-14T08:16:29Z</time>
      </trkpt>
      <trkpt lat="45.93878" lon="4.72516">
        <ele>173</ele>
        <time>2017-07-14T08:16:30Z</time>
      </trkpt>
      <trkpt lat="45.93883" lon="4.72513">
        <ele>173</ele>
        <time>2017-07-14T08:16:31Z</time>
      </trkpt>
      <trkpt lat="45.93889" lon="4.72507">
        <ele>173</ele>
        <time>2017-07-14T08:16:32Z</time>
      </trkpt>
      <trkpt lat="45.93893" lon="4.72501">
        <ele>172</ele>
        <time>2017-07-14T08:16:33Z</time>
      </trkpt>
      <trkpt lat="45.93898" lon="4.72495">
        <ele>172</ele>
        <time>2017-07-14T08:16:34Z</time>
      </trkpt>
      <trkpt lat="45.93903" lon="4.7249">
        <ele>172</ele>
        <time>2017-07-14T08:16:35Z</time>
      </trkpt>
      <trkpt lat="45.93908" lon="4.72484">
        <ele>172</ele>
        <time>2017-07-14T08:16:36Z</time>
      </trkpt>
      <trkpt lat="45.93912" lon="4.72478">
        <ele>172</ele>
        <time>2017-07-14T08:16:37Z</time>
      </trkpt>
      <trkpt lat="45.93916" lon="4.72472">
        <ele>172</ele>
        <time>2017-07-14T08:16:38Z</time>
      </trkpt>
      <trkpt lat="45.93921" lon="4.72466">
        <ele>171</ele>
        <time>2017-07-14T08:16:39Z</time>
      </trkpt>
      <trkpt lat="45.93925" lon="4.72461">
        <ele>171</ele>
        <time>2017-07-14T08:16:40Z</time>
      </trkpt>
      <trkpt lat="45.93929" lon="4.72455">
        <ele>171</ele>
        <time>2017-07-14T08:16:41Z</time>
      </trkpt>
      <trkpt lat="45.93933" lon="4.7245">
        <ele>171</ele>
        <time>2017-07-14T08:16:42Z</time>
      </trkpt>
      <trkpt lat="45.93937" lon="4.72445">
        <ele>171</ele>
        <time>2017-07-14T08:16:43Z</time>
      </trkpt>
      <trkpt lat="45.93942" lon="4.72439">
        <ele>171</ele>
        <time>2017-07-14T08:16:44Z</time>
      </trkpt>
      <trkpt lat="45.93946" lon="4.72434">
        <ele>171</ele>
        <time>2017-07-14T08:16:45Z</time>
      </trkpt>
      <trkpt lat="45.93951" lon="4.72428">
        <ele>171</ele>
        <time>2017-07-14T08:16:46Z</time>
      </trkpt>
      <trkpt lat="45.93956" lon="4.72422">
        <ele>171</ele>
        <time>2017-07-14T08:16:47Z</time>
      </trkpt>
      <trkpt lat="45.93961" lon="4.72416">
        <ele>171</ele>
        <time>2017-07-14T08:16:48Z</time>
      </trkpt>
      <trkpt lat="45.93966" lon="4.7241">
        <ele>171</ele>
        <time>2017-07-14T08:16:49Z</time>
      </trkpt>
      <trkpt lat="45.93972" lon="4.72403">
        <ele>171</ele>
        <time>2017-07-14T08:16:50Z</time>
      </trkpt>
      <trkpt lat="45.93977" lon="4.72397">
        <ele>171</ele>
        <time>2017-07-14T08:16:51Z</time>
      </trkpt>
      <trkpt lat="45.93983" lon="4.72391">
        <ele>171</ele>
        <time>2017-07-14T08:16:52Z</time>
      </trkpt>
      <trkpt lat="45.93988" lon="4.72384">
        <ele>171</ele>
        <time>2017-07-14T08:16:53Z</time>
      </trkpt>
      <trkpt lat="45.93993" lon="4.72378">
        <ele>171</ele>
        <time>2017-07-14T08:16:54Z</time>
      </trkpt>
      <trkpt lat="45.93998" lon="4.72372">
        <ele>171</ele>
        <time>2017-07-14T08:16:55Z</time>
      </trkpt>
      <trkpt lat="45.94003" lon="4.72366">
        <ele>171</ele>
        <time>2017-07-14T08:16:56Z</time>
      </trkpt>
      <trkpt lat="45.94007" lon="4.72361">
        <ele>171</ele>
        <time>2017-07-14T08:16:57Z</time>
      </trkpt>
      <trkpt lat="45.94011" lon="4.72355">
        <ele>171</ele>
        <time>2017-07-14T08:16:58Z</time>
      </trkpt>
      <trkpt lat="45.94015" lon="4.7235">
        <ele>171</ele>
        <time>2017-07-14T08:16:59Z</time>
      </trkpt>
      <trkpt lat="45.94019" lon="4.72345">
        <ele>171</ele>
        <time>2017-07-14T08:17:00Z</time>
      </trkpt>
      <trkpt lat="45.94024" lon="4.7234">
        <ele>171</ele>
        <time>2017-07-14T08:17:01Z</time>
      </trkpt>
      <trkpt lat="45.94028" lon="4.72335">
        <ele>171</ele>
        <time>2017-07-14T08:17:02Z</time>
      </trkpt>
      <trkpt lat="45.94033" lon="4.72329">
        <ele>171</ele>
        <time>2017-07-14T08:17:03Z</time>
      </trkpt>
      <trkpt lat="45.94037" lon="4.72323">
        <ele>171</ele>
        <time>2017-07-14T08:17:04Z</time>
      </trkpt>
      <trkpt lat="45.94042" lon="4.72318">
        <ele>171</ele>
        <time>2017-07-14T08:17:05Z</time>
      </trkpt>
      <trkpt lat="45.94046" lon="4.72312">
        <ele>171</ele>
        <time>2017-07-14T08:17:06Z</time>
      </trkpt>
      <trkpt lat="45.94051" lon="4.72306">
        <ele>171</ele>
        <time>2017-07-14T08:17:07Z</time>
      </trkpt>
      <trkpt lat="45.94055" lon="4.72301">
        <ele>171</ele>
        <time>2017-07-14T08:17:08Z</time>
      </trkpt>
      <trkpt lat="45.9406" lon="4.72295">
        <ele>171</ele>
        <time>2017-07-14T08:17:09Z</time>
      </trkpt>
      <trkpt lat="45.94064" lon="4.7229">
        <ele>171</ele>
        <time>2017-07-14T08:17:10Z</time>
      </trkpt>
      <trkpt lat="45.94069" lon="4.72285">
        <ele>171</ele>
        <time>2017-07-14T08:17:11Z</time>
      </trkpt>
      <trkpt lat="45.94073" lon="4.7228">
        <ele>171</ele>
        <time>2017-07-14T08:17:12Z</time>
      </trkpt>
      <trkpt lat="45.94078" lon="4.72276">
        <ele>171</ele>
        <time>2017-07-14T08:17:13Z</time>
      </trkpt>
      <trkpt lat="45.94083" lon="4.72273">
        <ele>171</ele>
        <time>2017-07-14T08:17:14Z</time>
      </trkpt>
      <trkpt lat="45.94088" lon="4.72271">
        <ele>171</ele>
        <time>2017-07-14T08:17:15Z</time>
      </trkpt>
      <trkpt lat="45.94094" lon="4.72269">
        <ele>171</ele>
        <time>2017-07-14T08:17:16Z</time>
      </trkpt>
      <trkpt lat="45.941" lon="4.72269">
        <ele>171</ele>
        <time>2017-07-14T08:17:17Z</time>
      </trkpt>
      <trkpt lat="45.94105" lon="4.72269">
        <ele>171</ele>
        <time>2017-07-14T08:17:18Z</time>
      </trkpt>
      <trkpt lat="45.94109" lon="4.7227">
        <ele>171</ele>
        <time>2017-07-14T08:17:19Z</time>
      </trkpt>
      <trkpt lat="45.94114" lon="4.72272">
        <ele>171</ele>
        <time>2017-07-14T08:17:20Z</time>
      </trkpt>
      <trkpt lat="45.94119" lon="4.72273">
        <ele>171</ele>
        <time>2017-07-14T08:17:21Z</time>
      </trkpt>
      <trkpt lat="45.94124" lon="4.72276">
        <ele>171</ele>
        <time>2017-07-14T08:17:22Z</time>
      </trkpt>
      <trkpt lat="45.94129" lon="4.72278">
        <ele>171</ele>
        <time>2017-07-14T08:17:23Z</time>
      </trkpt>
      <trkpt lat="45.94134" lon="4.72281">
        <ele>171</ele>
        <time>2017-07-14T08:17:24Z</time>
      </trkpt>
      <trkpt lat="45.94139" lon="4.72284">
        <ele>171</ele>
        <time>2017-07-14T08:17:25Z</time>
      </trkpt>
      <trkpt lat="45.94145" lon="4.72287">
        <ele>171</ele>
        <time>2017-07-14T08:17:26Z</time>
      </trkpt>
      <trkpt lat="45.9415" lon="4.72289">
        <ele>171</ele>
        <time>2017-07-14T08:17:27Z</time>
      </trkpt>
      <trkpt lat="45.94156" lon="4.72291">
        <ele>171</ele>
        <time>2017-07-14T08:17:28Z</time>
      </trkpt>
      <trkpt lat="45.94162" lon="4.72292">
        <ele>171</ele>
        <time>2017-07-14T08:17:29Z</time>
      </trkpt>
      <trkpt lat="45.94167" lon="4.72293">
        <ele>171</ele>
        <time>2017-07-14T08:17:30Z</time>
      </trkpt>
      <trkpt lat="45.94173" lon="4.72293">
        <ele>171</ele>
        <time>2017-07-14T08:17:31Z</time>
      </trkpt>
      <trkpt lat="45.94178" lon="4.72293">
        <ele>171</ele>
        <time>2017-07-14T08:17:32Z</time>
      </trkpt>
      <trkpt lat="45.94183" lon="4.72293">
        <ele>171</ele>
        <time>2017-07-14T08:17:33Z</time>
      </trkpt>
      <trkpt lat="45.94188" lon="4.72293">
        <ele>171</ele>
        <time>2017-07-14T08:17:34Z</time>
      </trkpt>
      <trkpt lat="45.94193" lon="4.72293">
        <ele>171</ele>
        <time>2017-07-14T08:17:35Z</time>
      </trkpt>
      <trkpt lat="45.94199" lon="4.72293">
        <ele>171</ele>
        <time>2017-07-14T08:17:36Z</time>
      </trkpt>
      <trkpt lat="45.94205" lon="4.72293">
        <ele>171</ele>
        <time>2017-07-14T08:17:37Z</time>
      </trkpt>
      <trkpt lat="45.9421" lon="4.72293">
        <ele>171</ele>
        <time>2017-07-14T08:17:38Z</time>
      </trkpt>
      <trkpt lat="45.94215" lon="4.72293">
        <ele>171</ele>
        <time>2017-07-14T08:17:39Z</time>
      </trkpt>
      <trkpt lat="45.9422" lon="4.72293">
        <ele>171</ele>
        <time>2017-07-14T08:17:40Z</time>
      </trkpt>
      <trkpt lat="45.94225" lon="4.72293">
        <ele>171</ele>
        <time>2017-07-14T08:17:41Z</time>
      </trkpt>
      <trkpt lat="45.94231" lon="4.72292">
        <ele>171</ele>
        <time>2017-07-14T08:17:42Z</time>
      </trkpt>
      <trkpt lat="45.94236" lon="4.72291">
        <ele>171</ele>
        <time>2017-07-14T08:17:43Z</time>
      </trkpt>
      <trkpt lat="45.94241" lon="4.72289">
        <ele>171</ele>
        <time>2017-07-14T08:17:44Z</time>
      </trkpt>
      <trkpt lat="45.94246" lon="4.72287">
        <ele>171</ele>
        <time>2017-07-14T08:17:45Z</time>
      </trkpt>
      <trkpt lat="45.9425" lon="4.72286">
        <ele>171</ele>
        <time>2017-07-14T08:17:46Z</time>
      </trkpt>
      <trkpt lat="45.94255" lon="4.72284">
        <ele>171</ele>
        <time>2017-07-14T08:17:47Z</time>
      </trkpt>
      <trkpt lat="45.94259" lon="4.72282">
        <ele>171</ele>
        <time>2017-07-14T08:17:48Z</time>
      </trkpt>
      <trkpt lat="45.94266" lon="4.72279">
        <ele>171</ele>
        <time>2017-07-14T08:17:50Z</time>
      </trkpt>
      <trkpt lat="45.9427" lon="4.72279">
        <ele>171</ele>
        <time>2017-07-14T08:17:51Z</time>
      </trkpt>
      <trkpt lat="45.94277" lon="4.72284">
        <ele>171</ele>
        <time>2017-07-14T08:17:53Z</time>
      </trkpt>
      <trkpt lat="45.94279" lon="4.72289">
        <ele>171</ele>
        <time>2017-07-14T08:17:54Z</time>
      </trkpt>
      <trkpt lat="45.9428" lon="4.72294">
        <ele>171</ele>
        <time>2017-07-14T08:17:55Z</time>
      </trkpt>
      <trkpt lat="45.94283" lon="4.723">
        <ele>171</ele>
        <time>2017-07-14T08:17:56Z</time>
      </trkpt>
      <trkpt lat="45.94286" lon="4.72305">
        <ele>171</ele>
        <time>2017-07-14T08:17:57Z</time>
      </trkpt>
      <trkpt lat="45.94288" lon="4.72311">
        <ele>171</ele>
        <time>2017-07-14T08:17:58Z</time>
      </trkpt>
      <trkpt lat="45.94291" lon="4.72316">
        <ele>171</ele>
        <time>2017-07-14T08:17:59Z</time>
      </trkpt>
      <trkpt lat="45.94293" lon="4.72321">
        <ele>171</ele>
        <time>2017-07-14T08:18:00Z</time>
      </trkpt>
      <trkpt lat="45.94296" lon="4.72327">
        <ele>171</ele>
        <time>2017-07-14T08:18:01Z</time>
      </trkpt>
      <trkpt lat="45.94299" lon="4.72334">
        <ele>172</ele>
        <time>2017-07-14T08:18:02Z</time>
      </trkpt>
      <trkpt lat="45.94301" lon="4.7234">
        <ele>172</ele>
        <time>2017-07-14T08:18:03Z</time>
      </trkpt>
      <trkpt lat="45.94304" lon="4.72345">
        <ele>172</ele>
        <time>2017-07-14T08:18:04Z</time>
      </trkpt>
      <trkpt lat="45.94309" lon="4.72356">
        <ele>172</ele>
        <time>2017-07-14T08:18:06Z</time>
      </trkpt>
      <trkpt lat="45.94311" lon="4.72362">
        <ele>172</ele>
        <time>2017-07-14T08:18:07Z</time>
      </trkpt>
      <trkpt lat="45.94314" lon="4.72368">
        <ele>172</ele>
        <time>2017-07-14T08:18:08Z</time>
      </trkpt>
      <trkpt lat="45.94316" lon="4.72375">
        <ele>172</ele>
        <time>2017-07-14T08:18:09Z</time>
      </trkpt>
      <trkpt lat="45.94319" lon="4.72381">
        <ele>172</ele>
        <time>2017-07-14T08:18:10Z</time>
      </trkpt>
      <trkpt lat="45.94322" lon="4.72387">
        <ele>172</ele>
        <time>2017-07-14T08:18:11Z</time>
      </trkpt>
      <trkpt lat="45.94325" lon="4.72393">
        <ele>172</ele>
        <time>2017-07-14T08:18:12Z</time>
      </trkpt>
      <trkpt lat="45.94328" lon="4.72399">
        <ele>172</ele>
        <time>2017-07-14T08:18:13Z</time>
      </trkpt>
      <trkpt lat="45.94331" lon="4.72405">
        <ele>173</ele>
        <time>2017-07-14T08:18:14Z</time>
      </trkpt>
      <trkpt lat="45.94333" lon="4.72411">
        <ele>173</ele>
        <time>2017-07-14T08:18:15Z</time>
      </trkpt>
      <trkpt lat="45.94336" lon="4.72417">
        <ele>173</ele>
        <time>2017-07-14T08:18:16Z</time>
      </trkpt>
      <trkpt lat="45.94339" lon="4.72423">
        <ele>173</ele>
        <time>2017-07-14T08:18:17Z</time>
      </trkpt>
      <trkpt lat="45.94341" lon="4.72429">
        <ele>173</ele>
        <time>2017-07-14T08:18:18Z</time>
      </trkpt>
      <trkpt lat="45.94344" lon="4.72435">
        <ele>173</ele>
        <time>2017-07-14T08:18:19Z</time>
      </trkpt>
      <trkpt lat="45.94347" lon="4.72442">
        <ele>173</ele>
        <time>2017-07-14T08:18:20Z</time>
      </trkpt>
      <trkpt lat="45.9435" lon="4.72448">
        <ele>173</ele>
        <time>2017-07-14T08:18:21Z</time>
      </trkpt>
      <trkpt lat="45.94353" lon="4.72455">
        <ele>173</ele>
        <time>2017-07-14T08:18:22Z</time>
      </trkpt>
      <trkpt lat="45.94355" lon="4.72462">
        <ele>173</ele>
        <time>2017-07-14T08:18:23Z</time>
      </trkpt>
      <trkpt lat="45.94358" lon="4.72468">
        <ele>173</ele>
        <time>2017-07-14T08:18:24Z</time>
      </trkpt>
      <trkpt lat="45.94361" lon="4.72474">
        <ele>173</ele>
        <time>2017-07-14T08:18:25Z</time>
      </trkpt>
      <trkpt lat="45.94363" lon="4.7248">
        <ele>173</ele>
        <time>2017-07-14T08:18:26Z</time>
      </trkpt>
      <trkpt lat="45.94365" lon="4.72486">
        <ele>173</ele>
        <time>2017-07-14T08:18:27Z</time>
      </trkpt>
      <trkpt lat="45.94368" lon="4.72492">
        <ele>173</ele>
        <time>2017-07-14T08:18:28Z</time>
      </trkpt>
      <trkpt lat="45.94369" lon="4.72498">
        <ele>173</ele>
        <time>2017-07-14T08:18:29Z</time>
      </trkpt>
      <trkpt lat="45.94371" lon="4.72504">
        <ele>173</ele>
        <time>2017-07-14T08:18:30Z</time>
      </trkpt>
      <trkpt lat="45.94373" lon="4.72511">
        <ele>173</ele>
        <time>2017-07-14T08:18:31Z</time>
      </trkpt>
      <trkpt lat="45.94375" lon="4.72517">
        <ele>173</ele>
        <time>2017-07-14T08:18:32Z</time>
      </trkpt>
      <trkpt lat="45.94376" lon="4.72525">
        <ele>174</ele>
        <time>2017-07-14T08:18:33Z</time>
      </trkpt>
      <trkpt lat="45.94377" lon="4.72532">
        <ele>174</ele>
        <time>2017-07-14T08:18:34Z</time>
      </trkpt>
      <trkpt lat="45.9438" lon="4.72538">
        <ele>174</ele>
        <time>2017-07-14T08:18:35Z</time>
      </trkpt>
      <trkpt lat="45.94381" lon="4.72545">
        <ele>173</ele>
        <time>2017-07-14T08:18:36Z</time>
      </trkpt>
      <trkpt lat="45.94383" lon="4.72554">
        <ele>173</ele>
        <time>2017-07-14T08:18:37Z</time>
      </trkpt>
      <trkpt lat="45.94384" lon="4.72561">
        <ele>173</ele>
        <time>2017-07-14T08:18:38Z</time>
      </trkpt>
      <trkpt lat="45.94386" lon="4.72567">
        <ele>173</ele>
        <time>2017-07-14T08:18:39Z</time>
      </trkpt>
      <trkpt lat="45.94387" lon="4.72574">
        <ele>173</ele>
        <time>2017-07-14T08:18:40Z</time>
      </trkpt>
      <trkpt lat="45.94389" lon="4.7258">
        <ele>173</ele>
        <time>2017-07-14T08:18:41Z</time>
      </trkpt>
      <trkpt lat="45.9439" lon="4.72587">
        <ele>173</ele>
        <time>2017-07-14T08:18:42Z</time>
      </trkpt>
      <trkpt lat="45.94391" lon="4.72594">
        <ele>173</ele>
        <time>2017-07-14T08:18:43Z</time>
      </trkpt>
      <trkpt lat="45.94393" lon="4.72601">
        <ele>173</ele>
        <time>2017-07-14T08:18:44Z</time>
      </trkpt>
      <trkpt lat="45.94394" lon="4.72608">
        <ele>173</ele>
        <time>2017-07-14T08:18:45Z</time>
      </trkpt>
      <trkpt lat="45.94395" lon="4.72616">
        <ele>173</ele>
        <time>2017-07-14T08:18:46Z</time>
      </trkpt>
      <trkpt lat="45.94396" lon="4.72623">
        <ele>173</ele>
        <time>2017-07-14T08:18:47Z</time>
      </trkpt>
      <trkpt lat="45.94397" lon="4.72631">
        <ele>174</ele>
        <time>2017-07-14T08:18:48Z</time>
      </trkpt>
      <trkpt lat="45.94398" lon="4.72639">
        <ele>174</ele>
        <time>2017-07-14T08:18:49Z</time>
      </trkpt>
      <trkpt lat="45.94399" lon="4.72646">
        <ele>174</ele>
        <time>2017-07-14T08:18:50Z</time>
      </trkpt>
      <trkpt lat="45.944" lon="4.72654">
        <ele>174</ele>
        <time>2017-07-14T08:18:51Z</time>
      </trkpt>
      <trkpt lat="45.94401" lon="4.72662">
        <ele>174</ele>
        <time>2017-07-14T08:18:52Z</time>
      </trkpt>
      <trkpt lat="45.94402" lon="4.7267">
        <ele>173</ele>
        <time>2017-07-14T08:18:53Z</time>
      </trkpt>
      <trkpt lat="45.94403" lon="4.72678">
        <ele>173</ele>
        <time>2017-07-14T08:18:54Z</time>
      </trkpt>
      <trkpt lat="45.94404" lon="4.72686">
        <ele>173</ele>
        <time>2017-07-14T08:18:55Z</time>
      </trkpt>
      <trkpt lat="45.94405" lon="4.72694">
        <ele>173</ele>
        <time>2017-07-14T08:18:56Z</time>
      </trkpt>
      <trkpt lat="45.94406" lon="4.72702">
        <ele>172</ele>
        <time>2017-07-14T08:18:57Z</time>
      </trkpt>
      <trkpt lat="45.94407" lon="4.72709">
        <ele>172</ele>
        <time>2017-07-14T08:18:58Z</time>
      </trkpt>
      <trkpt lat="45.94407" lon="4.72717">
        <ele>172</ele>
        <time>2017-07-14T08:18:59Z</time>
      </trkpt>
      <trkpt lat="45.94408" lon="4.72725">
        <ele>172</ele>
        <time>2017-07-14T08:19:00Z</time>
      </trkpt>
      <trkpt lat="45.94409" lon="4.72733">
        <ele>172</ele>
        <time>2017-07-14T08:19:01Z</time>
      </trkpt>
      <trkpt lat="45.9441" lon="4.72741">
        <ele>171</ele>
        <time>2017-07-14T08:19:02Z</time>
      </trkpt>
      <trkpt lat="45.94411" lon="4.72748">
        <ele>171</ele>
        <time>2017-07-14T08:19:03Z</time>
      </trkpt>
      <trkpt lat="45.94412" lon="4.72756">
        <ele>170</ele>
        <time>2017-07-14T08:19:04Z</time>
      </trkpt>
      <trkpt lat="45.94413" lon="4.72764">
        <ele>170</ele>
        <time>2017-07-14T08:19:05Z</time>
      </trkpt>
      <trkpt lat="45.94415" lon="4.72771">
        <ele>169</ele>
        <time>2017-07-14T08:19:06Z</time>
      </trkpt>
      <trkpt lat="45.94417" lon="4.72777">
        <ele>169</ele>
        <time>2017-07-14T08:19:07Z</time>
      </trkpt>
      <trkpt lat="45.94419" lon="4.72789">
        <ele>168</ele>
        <time>2017-07-14T08:19:09Z</time>
      </trkpt>
      <trkpt lat="45.9442" lon="4.72796">
        <ele>168</ele>
        <time>2017-07-14T08:19:10Z</time>
      </trkpt>
      <trkpt lat="45.9442" lon="4.72802">
        <ele>167</ele>
        <time>2017-07-14T08:19:11Z</time>
      </trkpt>
      <trkpt lat="45.94421" lon="4.72809">
        <ele>167</ele>
        <time>2017-07-14T08:19:12Z</time>
      </trkpt>
      <trkpt lat="45.94422" lon="4.72816">
        <ele>167</ele>
        <time>2017-07-14T08:19:13Z</time>
      </trkpt>
      <trkpt lat="45.94423" lon="4.72823">
        <ele>167</ele>
        <time>2017-07-14T08:19:14Z</time>
      </trkpt>
      <trkpt lat="45.94424" lon="4.7283">
        <ele>166</ele>
        <time>2017-07-14T08:19:15Z</time>
      </trkpt>
      <trkpt lat="45.94425" lon="4.72836">
        <ele>166</ele>
        <time>2017-07-14T08:19:16Z</time>
      </trkpt>
      <trkpt lat="45.94426" lon="4.72843">
        <ele>166</ele>
        <time>2017-07-14T08:19:17Z</time>
      </trkpt>
      <trkpt lat="45.94427" lon="4.7285">
        <ele>166</ele>
        <time>2017-07-14T08:19:18Z</time>
      </trkpt>
      <trkpt lat="45.94427" lon="4.72857">
        <ele>166</ele>
        <time>2017-07-14T08:19:19Z</time>
      </trkpt>
      <trkpt lat="45.94428" lon="4.72864">
        <ele>166</ele>
        <time>2017-07-14T08:19:20Z</time>
      </trkpt>
      <trkpt lat="45.9443" lon="4.72871">
        <ele>166</ele>
        <time>2017-07-14T08:19:21Z</time>
      </trkpt>
      <trkpt lat="45.94431" lon="4.72878">
        <ele>166</ele>
        <time>2017-07-14T08:19:22Z</time>
      </trkpt>
      <trkpt lat="45.94431" lon="4.72885">
        <ele>166</ele>
        <time>2017-07-14T08:19:23Z</time>
      </trkpt>
      <trkpt lat="45.94432" lon="4.72891">
        <ele>166</ele>
        <time>2017-07-14T08:19:24Z</time>
      </trkpt>
      <trkpt lat="45.94434" lon="4.72904">
        <ele>166</ele>
        <time>2017-07-14T08:19:26Z</time>
      </trkpt>
      <trkpt lat="45.94435" lon="4.7291">
        <ele>166</ele>
        <time>2017-07-14T08:19:27Z</time>
      </trkpt>
      <trkpt lat="45.94436" lon="4.72922">
        <ele>167</ele>
        <time>2017-07-14T08:19:29Z</time>
      </trkpt>
      <trkpt lat="45.94437" lon="4.72929">
        <ele>167</ele>
        <time>2017-07-14T08:19:30Z</time>
      </trkpt>
      <trkpt lat="45.94438" lon="4.72936">
        <ele>167</ele>
        <time>2017-07-14T08:19:31Z</time>
      </trkpt>
      <trkpt lat="45.94439" lon="4.72943">
        <ele>167</ele>
        <time>2017-07-14T08:19:32Z</time>
      </trkpt>
      <trkpt lat="45.9444" lon="4.72951">
        <ele>167</ele>
        <time>2017-07-14T08:19:33Z</time>
      </trkpt>
      <trkpt lat="45.94441" lon="4.72959">
        <ele>167</ele>
        <time>2017-07-14T08:19:34Z</time>
      </trkpt>
      <trkpt lat="45.94442" lon="4.72968">
        <ele>167</ele>
        <time>2017-07-14T08:19:35Z</time>
      </trkpt>
      <trkpt lat="45.94443" lon="4.72976">
        <ele>167</ele>
        <time>2017-07-14T08:19:36Z</time>
      </trkpt>
      <trkpt lat="45.94444" lon="4.72985">
        <ele>167</ele>
        <time>2017-07-14T08:19:37Z</time>
      </trkpt>
      <trkpt lat="45.94445" lon="4.72995">
        <ele>167</ele>
        <time>2017-07-14T08:19:38Z</time>
      </trkpt>
      <trkpt lat="45.94446" lon="4.73004">
        <ele>169</ele>
        <time>2017-07-14T08:19:39Z</time>
      </trkpt>
      <trkpt lat="45.94447" lon="4.73013">
        <ele>169</ele>
        <time>2017-07-14T08:19:40Z</time>
      </trkpt>
      <trkpt lat="45.94448" lon="4.73022">
        <ele>169</ele>
        <time>2017-07-14T08:19:41Z</time>
      </trkpt>
      <trkpt lat="45.94449" lon="4.7303">
        <ele>169</ele>
        <time>2017-07-14T08:19:42Z</time>
      </trkpt>
      <trkpt lat="45.9445" lon="4.73038">
        <ele>169</ele>
        <time>2017-07-14T08:19:43Z</time>
      </trkpt>
      <trkpt lat="45.94451" lon="4.73046">
        <ele>169</ele>
        <time>2017-07-14T08:19:44Z</time>
      </trkpt>
      <trkpt lat="45.94452" lon="4.73053">
        <ele>169</ele>
        <time>2017-07-14T08:19:45Z</time>
      </trkpt>
      <trkpt lat="45.94453" lon="4.73059">
        <ele>170</ele>
        <time>2017-07-14T08:19:46Z</time>
      </trkpt>
      <trkpt lat="45.94456" lon="4.73069">
        <ele>170</ele>
        <time>2017-07-14T08:19:48Z</time>
      </trkpt>
      <trkpt lat="45.94459" lon="4.73073">
        <ele>170</ele>
        <time>2017-07-14T08:19:49Z</time>
      </trkpt>
      <trkpt lat="45.94463" lon="4.73077">
        <ele>170</ele>
        <time>2017-07-14T08:19:50Z</time>
      </trkpt>
      <trkpt lat="45.94468" lon="4.73079">
        <ele>170</ele>
        <time>2017-07-14T08:19:51Z</time>
      </trkpt>
      <trkpt lat="45.94474" lon="4.7308">
        <ele>170</ele>
        <time>2017-07-14T08:19:52Z</time>
      </trkpt>
      <trkpt lat="45.9448" lon="4.73082">
        <ele>171</ele>
        <time>2017-07-14T08:19:53Z</time>
      </trkpt>
      <trkpt lat="45.94486" lon="4.73085">
        <ele>172</ele>
        <time>2017-07-14T08:19:54Z</time>
      </trkpt>
      <trkpt lat="45.94492" lon="4.73088">
        <ele>172</ele>
        <time>2017-07-14T08:19:55Z</time>
      </trkpt>
      <trkpt lat="45.94498" lon="4.73091">
        <ele>172</ele>
        <time>2017-07-14T08:19:56Z</time>
      </trkpt>
      <trkpt lat="45.94504" lon="4.73095">
        <ele>172</ele>
        <time>2017-07-14T08:19:57Z</time>
      </trkpt>
      <trkpt lat="45.9451" lon="4.73098">
        <ele>172</ele>
        <time>2017-07-14T08:19:58Z</time>
      </trkpt>
      <trkpt lat="45.94516" lon="4.73101">
        <ele>172</ele>
        <time>2017-07-14T08:19:59Z</time>
      </trkpt>
      <trkpt lat="45.94522" lon="4.73104">
        <ele>173</ele>
        <time>2017-07-14T08:20:00Z</time>
      </trkpt>
      <trkpt lat="45.94527" lon="4.73106">
        <ele>173</ele>
        <time>2017-07-14T08:20:01Z</time>
      </trkpt>
      <trkpt lat="45.94532" lon="4.73107">
        <ele>173</ele>
        <time>2017-07-14T08:20:02Z</time>
      </trkpt>
      <trkpt lat="45.94537" lon="4.73109">
        <ele>173</ele>
        <time>2017-07-14T08:20:03Z</time>
      </trkpt>
      <trkpt lat="45.94546" lon="4.73113">
        <ele>173</ele>
        <time>2017-07-14T08:20:05Z</time>
      </trkpt>
      <trkpt lat="45.94549" lon="4.73113">
        <ele>173</ele>
        <time>2017-07-14T08:20:06Z</time>
      </trkpt>
      <trkpt lat="45.94554" lon="4.73103">
        <ele>173</ele>
        <time>2017-07-14T08:20:09Z</time>
      </trkpt>
      <trkpt lat="45.94554" lon="4.73098">
        <ele>172</ele>
        <time>2017-07-14T08:20:10Z</time>
      </trkpt>
      <trkpt lat="45.94553" lon="4.73086">
        <ele>172</ele>
        <time>2017-07-14T08:20:12Z</time>
      </trkpt>
      <trkpt lat="45.94553" lon="4.73079">
        <ele>172</ele>
        <time>2017-07-14T08:20:13Z</time>
      </trkpt>
      <trkpt lat="45.94552" lon="4.73073">
        <ele>172</ele>
        <time>2017-07-14T08:20:14Z</time>
      </trkpt>
      <trkpt lat="45.94552" lon="4.73066">
        <ele>172</ele>
        <time>2017-07-14T08:20:15Z</time>
      </trkpt>
      <trkpt lat="45.94551" lon="4.73059">
        <ele>172</ele>
        <time>2017-07-14T08:20:16Z</time>
      </trkpt>
      <trkpt lat="45.94551" lon="4.73053">
        <ele>172</ele>
        <time>2017-07-14T08:20:17Z</time>
      </trkpt>
      <trkpt lat="45.94551" lon="4.7304">
        <ele>171</ele>
        <time>2017-07-14T08:20:19Z</time>
      </trkpt>
      <trkpt lat="45.9455" lon="4.73034">
        <ele>171</ele>
        <time>2017-07-14T08:20:20Z</time>
      </trkpt>
      <trkpt lat="45.9455" lon="4.73025">
        <ele>171</ele>
        <time>2017-07-14T08:20:22Z</time>
      </trkpt>
      <trkpt lat="45.9455" lon="4.7302">
        <ele>171</ele>
        <time>2017-07-14T08:20:23Z</time>
      </trkpt>
      <trkpt lat="45.94544" lon="4.73011">
        <ele>171</ele>
        <time>2017-07-14T08:20:26Z</time>
      </trkpt>
      <trkpt lat="45.94541" lon="4.7301">
        <ele>171</ele>
        <time>2017-07-14T08:20:27Z</time>
      </trkpt>
      <trkpt lat="45.94532" lon="4.73012">
        <ele>171</ele>
        <time>2017-07-14T08:20:30Z</time>
      </trkpt>
      <trkpt lat="45.94531" lon="4.73014">
        <ele>171</ele>
        <time>2017-07-14T08:20:31Z</time>
      </trkpt>
      <trkpt lat="45.94524" lon="4.73015">
        <ele>171</ele>
        <time>2017-07-14T08:20:34Z</time>
      </trkpt>
      <trkpt lat="45.94521" lon="4.73014">
        <ele>171</ele>
        <time>2017-07-14T08:20:35Z</time>
      </trkpt>
      <trkpt lat="45.94513" lon="4.73012">
        <ele>171</ele>
        <time>2017-07-14T08:20:37Z</time>
      </trkpt>
      <trkpt lat="45.94507" lon="4.7301">
        <ele>171</ele>
        <time>2017-07-14T08:20:38Z</time>
      </trkpt>
      <trkpt lat="45.94502" lon="4.73011">
        <ele>171</ele>
        <time>2017-07-14T08:20:39Z</time>
      </trkpt>
      <trkpt lat="45.94498" lon="4.73011">
        <ele>170</ele>
        <time>2017-07-14T08:20:40Z</time>
      </trkpt>
      <trkpt lat="45.94489" lon="4.73012">
        <ele>170</ele>
        <time>2017-07-14T08:20:42Z</time>
      </trkpt>
      <trkpt lat="45.94485" lon="4.73013">
        <ele>170</ele>
        <time>2017-07-14T08:20:43Z</time>
      </trkpt>
      <trkpt lat="45.94478" lon="4.73014">
        <ele>170</ele>
        <time>2017-07-14T08:20:45Z</time>
      </trkpt>
      <trkpt lat="45.94474" lon="4.73014">
        <ele>170</ele>
        <time>2017-07-14T08:20:46Z</time>
      </trkpt>
      <trkpt lat="45.94467" lon="4.73013">
        <ele>170</ele>
        <time>2017-07-14T08:20:48Z</time>
      </trkpt>
      <trkpt lat="45.94464" lon="4.73013">
        <ele>169</ele>
        <time>2017-07-14T08:20:49Z</time>
      </trkpt>
      <trkpt lat="45.94458" lon="4.73014">
        <ele>169</ele>
        <time>2017-07-14T08:20:51Z</time>
      </trkpt>
      <trkpt lat="45.94455" lon="4.73014">
        <ele>169</ele>
        <time>2017-07-14T08:20:52Z</time>
      </trkpt>
      <trkpt lat="45.94447" lon="4.73017">
        <ele>169</ele>
        <time>2017-07-14T08:20:54Z</time>
      </trkpt>
      <trkpt lat="45.94444" lon="4.7302">
        <ele>169</ele>
        <time>2017-07-14T08:20:55Z</time>
      </trkpt>
      <trkpt lat="45.94438" lon="4.73026">
        <ele>169</ele>
        <time>2017-07-14T08:20:57Z</time>
      </trkpt>
      <trkpt lat="45.94435" lon="4.7303">
        <ele>169</ele>
        <time>2017-07-14T08:20:58Z</time>
      </trkpt>
      <trkpt lat="45.94429" lon="4.73037">
        <ele>169</ele>
        <time>2017-07-14T08:21:00Z</time>
      </trkpt>
      <trkpt lat="45.94425" lon="4.7304">
        <ele>169</ele>
        <time>2017-07-14T08:21:01Z</time>
      </trkpt>
      <trkpt lat="45.9442" lon="4.73048">
        <ele>169</ele>
        <time>2017-07-14T08:21:03Z</time>
      </trkpt>
      <trkpt lat="45.94417" lon="4.73052">
        <ele>169</ele>
        <time>2017-07-14T08:21:04Z</time>
      </trkpt>
      <trkpt lat="45.94411" lon="4.73057">
        <ele>167</ele>
        <time>2017-07-14T08:21:06Z</time>
      </trkpt>
      <trkpt lat="45.94408" lon="4.7306">
        <ele>168</ele>
        <time>2017-07-14T08:21:07Z</time>
      </trkpt>
      <trkpt lat="45.94401" lon="4.73066">
        <ele>168</ele>
        <time>2017-07-14T08:21:09Z</time>
      </trkpt>
      <trkpt lat="45.94398" lon="4.7307">
        <ele>168</ele>
        <time>2017-07-14T08:21:10Z</time>
      </trkpt>
      <trkpt lat="45.94391" lon="4.73076">
        <ele>167</ele>
        <time>2017-07-14T08:21:12Z</time>
      </trkpt>
      <trkpt lat="45.94387" lon="4.73079">
        <ele>167</ele>
        <time>2017-07-14T08:21:13Z</time>
      </trkpt>
      <trkpt lat="45.94381" lon="4.73085">
        <ele>169</ele>
        <time>2017-07-14T08:21:15Z</time>
      </trkpt>
      <trkpt lat="45.94378" lon="4.73087">
        <ele>169</ele>
        <time>2017-07-14T08:21:16Z</time>
      </trkpt>
      <trkpt lat="45.94371" lon="4.73093">
        <ele>169</ele>
        <time>2017-07-14T08:21:18Z</time>
      </trkpt>
      <trkpt lat="45.94368" lon="4.73096">
        <ele>169</ele>
        <time>2017-07-14T08:21:19Z</time>
      </trkpt>
      <trkpt lat="45.9436" lon="4.73102">
        <ele>169</ele>
        <time>2017-07-14T08:21:21Z</time>
      </trkpt>
      <trkpt lat="45.94356" lon="4.73105">
        <ele>169</ele>
        <time>2017-07-14T08:21:22Z</time>
      </trkpt>
      <trkpt lat="45.9435" lon="4.73111">
        <ele>169</ele>
        <time>2017-07-14T08:21:24Z</time>
      </trkpt>
      <trkpt lat="45.94347" lon="4.73114">
        <ele>169</ele>
        <time>2017-07-14T08:21:25Z</time>
      </trkpt>
      <trkpt lat="45.9434" lon="4.73119">
        <ele>169</ele>
        <time>2017-07-14T08:21:27Z</time>
      </trkpt>
      <trkpt lat="45.94336" lon="4.73122">
        <ele>169</ele>
        <time>2017-07-14T08:21:28Z</time>
      </trkpt>
      <trkpt lat="45.94329" lon="4.73128">
        <ele>168</ele>
        <time>2017-07-14T08:21:30Z</time>
      </trkpt>
      <trkpt lat="45.94326" lon="4.73131">
        <ele>168</ele>
        <time>2017-07-14T08:21:31Z</time>
      </trkpt>
      <trkpt lat="45.9432" lon="4.73135">
        <ele>168</ele>
        <time>2017-07-14T08:21:33Z</time>
      </trkpt>
      <trkpt lat="45.94317" lon="4.73137">
        <ele>168</ele>
        <time>2017-07-14T08:21:34Z</time>
      </trkpt>
      <trkpt lat="45.94311" lon="4.73143">
        <ele>168</ele>
        <time>2017-07-14T08:21:36Z</time>
      </trkpt>
      <trkpt lat="45.94308" lon="4.73146">
        <ele>168</ele>
        <time>2017-07-14T08:21:37Z</time>
      </trkpt>
      <trkpt lat="45.94301" lon="4.73151">
        <ele>168</ele>
        <time>2017-07-14T08:21:39Z</time>
      </trkpt>
      <trkpt lat="45.94297" lon="4.73154">
        <ele>168</ele>
        <time>2017-07-14T08:21:40Z</time>
      </trkpt>
      <trkpt lat="45.94292" lon="4.7316">
        <ele>167</ele>
        <time>2017-07-14T08:21:42Z</time>
      </trkpt>
      <trkpt lat="45.9429" lon="4.73162">
        <ele>167</ele>
        <time>2017-07-14T08:21:43Z</time>
      </trkpt>
      <trkpt lat="45.94283" lon="4.73171">
        <ele>169</ele>
        <time>2017-07-14T08:21:47Z</time>
      </trkpt>
      <trkpt lat="45.94281" lon="4.73173">
        <ele>169</ele>
        <time>2017-07-14T08:21:48Z</time>
      </trkpt>
      <trkpt lat="45.94275" lon="4.73175">
        <ele>169</ele>
        <time>2017-07-14T08:21:52Z</time>
      </trkpt>
      <trkpt lat="45.94272" lon="4.73176">
        <ele>169</ele>
        <time>2017-07-14T08:21:53Z</time>
      </trkpt>
      <trkpt lat="45.94266" lon="4.73183">
        <ele>169</ele>
        <time>2017-07-14T08:21:55Z</time>
      </trkpt>
      <trkpt lat="45.94263" lon="4.73186">
        <ele>169</ele>
        <time>2017-07-14T08:21:56Z</time>
      </trkpt>
      <trkpt lat="45.94255" lon="4.73192">
        <ele>169</ele>
        <time>2017-07-14T08:21:58Z</time>
      </trkpt>
      <trkpt lat="45.94251" lon="4.73196">
        <ele>169</ele>
        <time>2017-07-14T08:21:59Z</time>
      </trkpt>
      <trkpt lat="45.94247" lon="4.73199">
        <ele>168</ele>
        <time>2017-07-14T08:22:00Z</time>
      </trkpt>
      <trkpt lat="45.94243" lon="4.73203">
        <ele>168</ele>
        <time>2017-07-14T08:22:01Z</time>
      </trkpt>
      <trkpt lat="45.94236" lon="4.7321">
        <ele>169</ele>
        <time>2017-07-14T08:22:03Z</time>
      </trkpt>
      <trkpt lat="45.94232" lon="4.73213">
        <ele>169</ele>
        <time>2017-07-14T08:22:04Z</time>
      </trkpt>
      <trkpt lat="45.94225" lon="4.7322">
        <ele>169</ele>
        <time>2017-07-14T08:22:06Z</time>
      </trkpt>
      <trkpt lat="45.94222" lon="4.73222">
        <ele>169</ele>
        <time>2017-07-14T08:22:07Z</time>
      </trkpt>
      <trkpt lat="45.94215" lon="4.73228">
        <ele>169</ele>
        <time>2017-07-14T08:22:09Z</time>
      </trkpt>
      <trkpt lat="45.94212" lon="4.73231">
        <ele>169</ele>
        <time>2017-07-14T08:22:10Z</time>
      </trkpt>
      <trkpt lat="45.94208" lon="4.73233">
        <ele>169</ele>
        <time>2017-07-14T08:22:11Z</time>
      </trkpt>
      <trkpt lat="45.94204" lon="4.73235">
        <ele>169</ele>
        <time>2017-07-14T08:22:12Z</time>
      </trkpt>
      <trkpt lat="45.94196" lon="4.73242">
        <ele>169</ele>
        <time>2017-07-14T08:22:14Z</time>
      </trkpt>
      <trkpt lat="45.94193" lon="4.73245">
        <ele>169</ele>
        <time>2017-07-14T08:22:15Z</time>
      </trkpt>
      <trkpt lat="45.94189" lon="4.73249">
        <ele>169</ele>
        <time>2017-07-14T08:22:16Z</time>
      </trkpt>
      <trkpt lat="45.94185" lon="4.73252">
        <ele>172</ele>
        <time>2017-07-14T08:22:17Z</time>
      </trkpt>
      <trkpt lat="45.94179" lon="4.73257">
        <ele>171</ele>
        <time>2017-07-14T08:22:19Z</time>
      </trkpt>
      <trkpt lat="45.94175" lon="4.7326">
        <ele>171</ele>
        <time>2017-07-14T08:22:20Z</time>
      </trkpt>
      <trkpt lat="45.94171" lon="4.73262">
        <ele>171</ele>
        <time>2017-07-14T08:22:21Z</time>
      </trkpt>
      <trkpt lat="45.94167" lon="4.73265">
        <ele>171</ele>
        <time>2017-07-14T08:22:22Z</time>
      </trkpt>
      <trkpt lat="45.94159" lon="4.73272">
        <ele>170</ele>
        <time>2017-07-14T08:22:24Z</time>
      </trkpt>
      <trkpt lat="45.94156" lon="4.73275">
        <ele>170</ele>
        <time>2017-07-14T08:22:25Z</time>
      </trkpt>
      <trkpt lat="45.9415" lon="4.73283">
        <ele>170</ele>
        <time>2017-07-14T08:22:27Z</time>
      </trkpt>
      <trkpt lat="45.94147" lon="4.73287">
        <ele>170</ele>
        <time>2017-07-14T08:22:28Z</time>
      </trkpt>
      <trkpt lat="45.9414" lon="4.73295">
        <ele>170</ele>
        <time>2017-07-14T08:22:30Z</time>
      </trkpt>
      <trkpt lat="45.94137" lon="4.733">
        <ele>170</ele>
        <time>2017-07-14T08:22:31Z</time>
      </trkpt>
      <trkpt lat="45.94132" lon="4.73309">
        <ele>171</ele>
        <time>2017-07-14T08:22:33Z</time>
      </trkpt>
      <trkpt lat="45.9413" lon="4.73312">
        <ele>171</ele>
        <time>2017-07-14T08:22:34Z</time>
      </trkpt>
      <trkpt lat="45.94125" lon="4.7332">
        <ele>171</ele>
        <time>2017-07-14T08:22:36Z</time>
      </trkpt>
      <trkpt lat="45.94122" lon="4.73324">
        <ele>171</ele>
        <time>2017-07-14T08:22:37Z</time>
      </trkpt>
      <trkpt lat="45.94115" lon="4.73333">
        <ele>171</ele>
        <time>2017-07-14T08:22:39Z</time>
      </trkpt>
      <trkpt lat="45.94112" lon="4.73336">
        <ele>173</ele>
        <time>2017-07-14T08:22:40Z</time>
      </trkpt>
      <trkpt lat="45.94106" lon="4.73345">
        <ele>173</ele>
        <time>2017-07-14T08:22:42Z</time>
      </trkpt>
      <trkpt lat="45.94103" lon="4.73348">
        <ele>173</ele>
        <time>2017-07-14T08:22:43Z</time>
      </trkpt>
      <trkpt lat="45.94097" lon="4.73355">
        <ele>173</ele>
        <time>2017-07-14T08:22:45Z</time>
      </trkpt>
      <trkpt lat="45.94094" lon="4.7336">
        <ele>173</ele>
        <time>2017-07-14T08:22:46Z</time>
      </trkpt>
      <trkpt lat="45.94088" lon="4.73369">
        <ele>173</ele>
        <time>2017-07-14T08:22:48Z</time>
      </trkpt>
      <trkpt lat="45.94085" lon="4.73373">
        <ele>173</ele>
        <time>2017-07-14T08:22:49Z</time>
      </trkpt>
      <trkpt lat="45.94081" lon="4.73381">
        <ele>171</ele>
        <time>2017-07-14T08:22:51Z</time>
      </trkpt>
      <trkpt lat="45.94079" lon="4.73386">
        <ele>171</ele>
        <time>2017-07-14T08:22:52Z</time>
      </trkpt>
      <trkpt lat="45.94073" lon="4.73395">
        <ele>171</ele>
        <time>2017-07-14T08:22:54Z</time>
      </trkpt>
      <trkpt lat="45.9407" lon="4.734">
        <ele>171</ele>
        <time>2017-07-14T08:22:55Z</time>
      </trkpt>
      <trkpt lat="45.94067" lon="4.73405">
        <ele>171</ele>
        <time>2017-07-14T08:22:56Z</time>
      </trkpt>
      <trkpt lat="45.94063" lon="4.7341">
        <ele>171</ele>
        <time>2017-07-14T08:22:57Z</time>
      </trkpt>
      <trkpt lat="45.9406" lon="4.73414">
        <ele>171</ele>
        <time>2017-07-14T08:22:58Z</time>
      </trkpt>
      <trkpt lat="45.94057" lon="4.7342">
        <ele>172</ele>
        <time>2017-07-14T08:22:59Z</time>
      </trkpt>
      <trkpt lat="45.94051" lon="4.73429">
        <ele>171</ele>
        <time>2017-07-14T08:23:01Z</time>
      </trkpt>
      <trkpt lat="45.94048" lon="4.73434">
        <ele>171</ele>
        <time>2017-07-14T08:23:02Z</time>
      </trkpt>
      <trkpt lat="45.94045" lon="4.73438">
        <ele>171</ele>
        <time>2017-07-14T08:23:03Z</time>
      </trkpt>
      <trkpt lat="45.94042" lon="4.73444">
        <ele>171</ele>
        <time>2017-07-14T08:23:04Z</time>
      </trkpt>
      <trkpt lat="45.9404" lon="4.73449">
        <ele>171</ele>
        <time>2017-07-14T08:23:05Z</time>
      </trkpt>
      <trkpt lat="45.94037" lon="4.73454">
        <ele>171</ele>
        <time>2017-07-14T08:23:06Z</time>
      </trkpt>
      <trkpt lat="45.94032" lon="4.73465">
        <ele>171</ele>
        <time>2017-07-14T08:23:08Z</time>
      </trkpt>
      <trkpt lat="45.9403" lon="4.7347">
        <ele>171</ele>
        <time>2017-07-14T08:23:09Z</time>
      </trkpt>
      <trkpt lat="45.94025" lon="4.73479">
        <ele>171</ele>
        <time>2017-07-14T08:23:11Z</time>
      </trkpt>
      <trkpt lat="45.94022" lon="4.73484">
        <ele>170</ele>
        <time>2017-07-14T08:23:12Z</time>
      </trkpt>
      <trkpt lat="45.94018" lon="4.73488">
        <ele>170</ele>
        <time>2017-07-14T08:23:13Z</time>
      </trkpt>
      <trkpt lat="45.94015" lon="4.73494">
        <ele>170</ele>
        <time>2017-07-14T08:23:14Z</time>
      </trkpt>
      <trkpt lat="45.94012" lon="4.735">
        <ele>169</ele>
        <time>2017-07-14T08:23:15Z</time>
      </trkpt>
      <trkpt lat="45.94009" lon="4.73506">
        <ele>170</ele>
        <time>2017-07-14T08:23:16Z</time>
      </trkpt>
      <trkpt lat="45.94007" lon="4.73512">
        <ele>170</ele>
        <time>2017-07-14T08:23:17Z</time>
      </trkpt>
      <trkpt lat="45.94004" lon="4.73517">
        <ele>170</ele>
        <time>2017-07-14T08:23:18Z</time>
      </trkpt>
      <trkpt lat="45.94" lon="4.73528">
        <ele>168</ele>
        <time>2017-07-14T08:23:20Z</time>
      </trkpt>
      <trkpt lat="45.93998" lon="4.73533">
        <ele>168</ele>
        <time>2017-07-14T08:23:21Z</time>
      </trkpt>
      <trkpt lat="45.93994" lon="4.73543">
        <ele>168</ele>
        <time>2017-07-14T08:23:23Z</time>
      </trkpt>
      <trkpt lat="45.93992" lon="4.73548">
        <ele>168</ele>
        <time>2017-07-14T08:23:24Z</time>
      </trkpt>
      <trkpt lat="45.93988" lon="4.73559">
        <ele>168</ele>
        <time>2017-07-14T08:23:26Z</time>
      </trkpt>
      <trkpt lat="45.93986" lon="4.73565">
        <ele>168</ele>
        <time>2017-07-14T08:23:27Z</time>
      </trkpt>
      <trkpt lat="45.93984" lon="4.73571">
        <ele>168</ele>
        <time>2017-07-14T08:23:28Z</time>
      </trkpt>
      <trkpt lat="45.93982" lon="4.73577">
        <ele>168</ele>
        <time>2017-07-14T08:23:29Z</time>
      </trkpt>
      <trkpt lat="45.9398" lon="4.73584">
        <ele>169</ele>
        <time>2017-07-14T08:23:30Z</time>
      </trkpt>
      <trkpt lat="45.93978" lon="4.73591">
        <ele>169</ele>
        <time>2017-07-14T08:23:31Z</time>
      </trkpt>
      <trkpt lat="45.93976" lon="4.73597">
        <ele>169</ele>
        <time>2017-07-14T08:23:32Z</time>
      </trkpt>
      <trkpt lat="45.93974" lon="4.73604">
        <ele>169</ele>
        <time>2017-07-14T08:23:33Z</time>
      </trkpt>
      <trkpt lat="45.93971" lon="4.73616">
        <ele>170</ele>
        <time>2017-07-14T08:23:35Z</time>
      </trkpt>
      <trkpt lat="45.9397" lon="4.73621">
        <ele>170</ele>
        <time>2017-07-14T08:23:36Z</time>
      </trkpt>
      <trkpt lat="45.93969" lon="4.73627">
        <ele>170</ele>
        <time>2017-07-14T08:23:37Z</time>
      </trkpt>
      <trkpt lat="45.93968" lon="4.73634">
        <ele>170</ele>
        <time>2017-07-14T08:23:38Z</time>
      </trkpt>
      <trkpt lat="45.93967" lon="4.73647">
        <ele>170</ele>
        <time>2017-07-14T08:23:40Z</time>
      </trkpt>
      <trkpt lat="45.93966" lon="4.73653">
        <ele>170</ele>
        <time>2017-07-14T08:23:41Z</time>
      </trkpt>
      <trkpt lat="45.93965" lon="4.7366">
        <ele>171</ele>
        <time>2017-07-14T08:23:42Z</time>
      </trkpt>
      <trkpt lat="45.93963" lon="4.73666">
        <ele>171</ele>
        <time>2017-07-14T08:23:43Z</time>
      </trkpt>
      <trkpt lat="45.93961" lon="4.73672">
        <ele>172</ele>
        <time>2017-07-14T08:23:44Z</time>
      </trkpt>
      <trkpt lat="45.9396" lon="4.73679">
        <ele>172</ele>
        <time>2017-07-14T08:23:45Z</time>
      </trkpt>
      <trkpt lat="45.93958" lon="4.73691">
        <ele>172</ele>
        <time>2017-07-14T08:23:47Z</time>
      </trkpt>
      <trkpt lat="45.93957" lon="4.73696">
        <ele>172</ele>
        <time>2017-07-14T08:23:48Z</time>
      </trkpt>
      <trkpt lat="45.93956" lon="4.73707">
        <ele>172</ele>
        <time>2017-07-14T08:23:50Z</time>
      </trkpt>
      <trkpt lat="45.93955" lon="4.73714">
        <ele>172</ele>
        <time>2017-07-14T08:23:51Z</time>
      </trkpt>
      <trkpt lat="45.93954" lon="4.7372">
        <ele>172</ele>
        <time>2017-07-14T08:23:52Z</time>
      </trkpt>
      <trkpt lat="45.93954" lon="4.73727">
        <ele>172</ele>
        <time>2017-07-14T08:23:53Z</time>
      </trkpt>
      <trkpt lat="45.93953" lon="4.73733">
        <ele>172</ele>
        <time>2017-07-14T08:23:54Z</time>
      </trkpt>
      <trkpt lat="45.93953" lon="4.7374">
        <ele>172</ele>
        <time>2017-07-14T08:23:55Z</time>
      </trkpt>
      <trkpt lat="45.93952" lon="4.73747">
        <ele>172</ele>
        <time>2017-07-14T08:23:56Z</time>
      </trkpt>
      <trkpt lat="45.93951" lon="4.73754">
        <ele>172</ele>
        <time>2017-07-14T08:23:57Z</time>
      </trkpt>
      <trkpt lat="45.9395" lon="4.7376">
        <ele>172</ele>
        <time>2017-07-14T08:23:58Z</time>
      </trkpt>
      <trkpt lat="45.93949" lon="4.73767">
        <ele>172</ele>
        <time>2017-07-14T08:23:59Z</time>
      </trkpt>
      <trkpt lat="45.93948" lon="4.73779">
        <ele>172</ele>
        <time>2017-07-14T08:24:01Z</time>
      </trkpt>
      <trkpt lat="45.93947" lon="4.73785">
        <ele>172</ele>
        <time>2017-07-14T08:24:02Z</time>
      </trkpt>
      <trkpt lat="45.93946" lon="4.73792">
        <ele>172</ele>
        <time>2017-07-14T08:24:03Z</time>
      </trkpt>
      <trkpt lat="45.93945" lon="4.73799">
        <ele>172</ele>
        <time>2017-07-14T08:24:04Z</time>
      </trkpt>
      <trkpt lat="45.93945" lon="4.73807">
        <ele>172</ele>
        <time>2017-07-14T08:24:05Z</time>
      </trkpt>
      <trkpt lat="45.93945" lon="4.73814">
        <ele>172</ele>
        <time>2017-07-14T08:24:06Z</time>
      </trkpt>
      <trkpt lat="45.93944" lon="4.73821">
        <ele>172</ele>
        <time>2017-07-14T08:24:07Z</time>
      </trkpt>
      <trkpt lat="45.93944" lon="4.73828">
        <ele>171</ele>
        <time>2017-07-14T08:24:08Z</time>
      </trkpt>
      <trkpt lat="45.93943" lon="4.73834">
        <ele>171</ele>
        <time>2017-07-14T08:24:09Z</time>
      </trkpt>
      <trkpt lat="45.93942" lon="4.7384">
        <ele>171</ele>
        <time>2017-07-14T08:24:10Z</time>
      </trkpt>
      <trkpt lat="45.93941" lon="4.73847">
        <ele>171</ele>
        <time>2017-07-14T08:24:11Z</time>
      </trkpt>
      <trkpt lat="45.93941" lon="4.73854">
        <ele>172</ele>
        <time>2017-07-14T08:24:12Z</time>
      </trkpt>
      <trkpt lat="45.93941" lon="4.73861">
        <ele>172</ele>
        <time>2017-07-14T08:24:13Z</time>
      </trkpt>
      <trkpt lat="45.9394" lon="4.73868">
        <ele>172</ele>
        <time>2017-07-14T08:24:14Z</time>
      </trkpt>
      <trkpt lat="45.9394" lon="4.73875">
        <ele>172</ele>
        <time>2017-07-14T08:24:15Z</time>
      </trkpt>
      <trkpt lat="45.93939" lon="4.73882">
        <ele>172</ele>
        <time>2017-07-14T08:24:16Z</time>
      </trkpt>
      <trkpt lat="45.93939" lon="4.7389">
        <ele>172</ele>
        <time>2017-07-14T08:24:17Z</time>
      </trkpt>
      <trkpt lat="45.93938" lon="4.73897">
        <ele>172</ele>
        <time>2017-07-14T08:24:18Z</time>
      </trkpt>
      <trkpt lat="45.93937" lon="4.73903">
        <ele>172</ele>
        <time>2017-07-14T08:24:19Z</time>
      </trkpt>
      <trkpt lat="45.93937" lon="4.7391">
        <ele>172</ele>
        <time>2017-07-14T08:24:20Z</time>
      </trkpt>
      <trkpt lat="45.93934" lon="4.73922">
        <ele>171</ele>
        <time>2017-07-14T08:24:22Z</time>
      </trkpt>
      <trkpt lat="45.93933" lon="4.73928">
        <ele>171</ele>
        <time>2017-07-14T08:24:23Z</time>
      </trkpt>
      <trkpt lat="45.93932" lon="4.73934">
        <ele>172</ele>
        <time>2017-07-14T08:24:24Z</time>
      </trkpt>
      <trkpt lat="45.93931" lon="4.73941">
        <ele>172</ele>
        <time>2017-07-14T08:24:25Z</time>
      </trkpt>
      <trkpt lat="45.9393" lon="4.73948">
        <ele>172</ele>
        <time>2017-07-14T08:24:26Z</time>
      </trkpt>
      <trkpt lat="45.9393" lon="4.73955">
        <ele>172</ele>
        <time>2017-07-14T08:24:27Z</time>
      </trkpt>
      <trkpt lat="45.93929" lon="4.73963">
        <ele>172</ele>
        <time>2017-07-14T08:24:28Z</time>
      </trkpt>
      <trkpt lat="45.93928" lon="4.7397">
        <ele>172</ele>
        <time>2017-07-14T08:24:29Z</time>
      </trkpt>
      <trkpt lat="45.93927" lon="4.73977">
        <ele>172</ele>
        <time>2017-07-14T08:24:30Z</time>
      </trkpt>
      <trkpt lat="45.93927" lon="4.73984">
        <ele>172</ele>
        <time>2017-07-14T08:24:31Z</time>
      </trkpt>
      <trkpt lat="45.93927" lon="4.7399">
        <ele>172</ele>
        <time>2017-07-14T08:24:32Z</time>
      </trkpt>
      <trkpt lat="45.93926" lon="4.73997">
        <ele>172</ele>
        <time>2017-07-14T08:24:33Z</time>
      </trkpt>
      <trkpt lat="45.93924" lon="4.74009">
        <ele>172</ele>
        <time>2017-07-14T08:24:35Z</time>
      </trkpt>
      <trkpt lat="45.93924" lon="4.74016">
        <ele>171</ele>
        <time>2017-07-14T08:24:36Z</time>
      </trkpt>
      <trkpt lat="45.93923" lon="4.74023">
        <ele>171</ele>
        <time>2017-07-14T08:24:37Z</time>
      </trkpt>
      <trkpt lat="45.93922" lon="4.74029">
        <ele>171</ele>
        <time>2017-07-14T08:24:38Z</time>
      </trkpt>
      <trkpt lat="45.93921" lon="4.74036">
        <ele>171</ele>
        <time>2017-07-14T08:24:39Z</time>
      </trkpt>
      <trkpt lat="45.9392" lon="4.74043">
        <ele>171</ele>
        <time>2017-07-14T08:24:40Z</time>
      </trkpt>
      <trkpt lat="45.93919" lon="4.7405">
        <ele>171</ele>
        <time>2017-07-14T08:24:41Z</time>
      </trkpt>
      <trkpt lat="45.93918" lon="4.74057">
        <ele>171</ele>
        <time>2017-07-14T08:24:42Z</time>
      </trkpt>
      <trkpt lat="45.93917" lon="4.74064">
        <ele>170</ele>
        <time>2017-07-14T08:24:43Z</time>
      </trkpt>
      <trkpt lat="45.93917" lon="4.74071">
        <ele>170</ele>
        <time>2017-07-14T08:24:44Z</time>
      </trkpt>
      <trkpt lat="45.93917" lon="4.74078">
        <ele>170</ele>
        <time>2017-07-14T08:24:45Z</time>
      </trkpt>
      <trkpt lat="45.93916" lon="4.74085">
        <ele>170</ele>
        <time>2017-07-14T08:24:46Z</time>
      </trkpt>
      <trkpt lat="45.93916" lon="4.74092">
        <ele>170</ele>
        <time>2017-07-14T08:24:47Z</time>
      </trkpt>
      <trkpt lat="45.93915" lon="4.74098">
        <ele>170</ele>
        <time>2017-07-14T08:24:48Z</time>
      </trkpt>
      <trkpt lat="45.93914" lon="4.74111">
        <ele>170</ele>
        <time>2017-07-14T08:24:50Z</time>
      </trkpt>
      <trkpt lat="45.93913" lon="4.74117">
        <ele>170</ele>
        <time>2017-07-14T08:24:51Z</time>
      </trkpt>
      <trkpt lat="45.93912" lon="4.74124">
        <ele>170</ele>
        <time>2017-07-14T08:24:52Z</time>
      </trkpt>
      <trkpt lat="45.93912" lon="4.74131">
        <ele>170</ele>
        <time>2017-07-14T08:24:53Z</time>
      </trkpt>
      <trkpt lat="45.93911" lon="4.74139">
        <ele>169</ele>
        <time>2017-07-14T08:24:54Z</time>
      </trkpt>
      <trkpt lat="45.93911" lon="4.74146">
        <ele>169</ele>
        <time>2017-07-14T08:24:55Z</time>
      </trkpt>
      <trkpt lat="45.9391" lon="4.74153">
        <ele>169</ele>
        <time>2017-07-14T08:24:56Z</time>
      </trkpt>
      <trkpt lat="45.9391" lon="4.74159">
        <ele>169</ele>
        <time>2017-07-14T08:24:57Z</time>
      </trkpt>
      <trkpt lat="45.93909" lon="4.74171">
        <ele>169</ele>
        <time>2017-07-14T08:24:59Z</time>
      </trkpt>
      <trkpt lat="45.93908" lon="4.74177">
        <ele>169</ele>
        <time>2017-07-14T08:25:00Z</time>
      </trkpt>
      <trkpt lat="45.93908" lon="4.74184">
        <ele>169</ele>
        <time>2017-07-14T08:25:01Z</time>
      </trkpt>
      <trkpt lat="45.93908" lon="4.7419">
        <ele>169</ele>
        <time>2017-07-14T08:25:02Z</time>
      </trkpt>
      <trkpt lat="45.93907" lon="4.74197">
        <ele>169</ele>
        <time>2017-07-14T08:25:03Z</time>
      </trkpt>
      <trkpt lat="45.93906" lon="4.74204">
        <ele>169</ele>
        <time>2017-07-14T08:25:04Z</time>
      </trkpt>
      <trkpt lat="45.93906" lon="4.74211">
        <ele>169</ele>
        <time>2017-07-14T08:25:05Z</time>
      </trkpt>
      <trkpt lat="45.93905" lon="4.74218">
        <ele>169</ele>
        <time>2017-07-14T08:25:06Z</time>
      </trkpt>
      <trkpt lat="45.93905" lon="4.74226">
        <ele>170</ele>
        <time>2017-07-14T08:25:07Z</time>
      </trkpt>
      <trkpt lat="45.93904" lon="4.74233">
        <ele>170</ele>
        <time>2017-07-14T08:25:08Z</time>
      </trkpt>
      <trkpt lat="45.93904" lon="4.7424">
        <ele>170</ele>
        <time>2017-07-14T08:25:09Z</time>
      </trkpt>
      <trkpt lat="45.93903" lon="4.74246">
        <ele>170</ele>
        <time>2017-07-14T08:25:10Z</time>
      </trkpt>
      <trkpt lat="45.93903" lon="4.74258">
        <ele>170</ele>
        <time>2017-07-14T08:25:12Z</time>
      </trkpt>
      <trkpt lat="45.93903" lon="4.74264">
        <ele>170</ele>
        <time>2017-07-14T08:25:13Z</time>
      </trkpt>
      <trkpt lat="45.93903" lon="4.74276">
        <ele>170</ele>
        <time>2017-07-14T08:25:15Z</time>
      </trkpt>
      <trkpt lat="45.93903" lon="4.74283">
        <ele>170</ele>
        <time>2017-07-14T08:25:16Z</time>
      </trkpt>
      <trkpt lat="45.93903" lon="4.7429">
        <ele>170</ele>
        <time>2017-07-14T08:25:17Z</time>
      </trkpt>
      <trkpt lat="45.93903" lon="4.74297">
        <ele>170</ele>
        <time>2017-07-14T08:25:18Z</time>
      </trkpt>
      <trkpt lat="45.93904" lon="4.74304">
        <ele>170</ele>
        <time>2017-07-14T08:25:19Z</time>
      </trkpt>
      <trkpt lat="45.93904" lon="4.74311">
        <ele>170</ele>
        <time>2017-07-14T08:25:20Z</time>
      </trkpt>
      <trkpt lat="45.93904" lon="4.74318">
        <ele>170</ele>
        <time>2017-07-14T08:25:21Z</time>
      </trkpt>
      <trkpt lat="45.93904" lon="4.74324">
        <ele>170</ele>
        <time>2017-07-14T08:25:22Z</time>
      </trkpt>
      <trkpt lat="45.93904" lon="4.74331">
        <ele>170</ele>
        <time>2017-07-14T08:25:23Z</time>
      </trkpt>
      <trkpt lat="45.93904" lon="4.74337">
        <ele>170</ele>
        <time>2017-07-14T08:25:24Z</time>
      </trkpt>
      <trkpt lat="45.93904" lon="4.74344">
        <ele>171</ele>
        <time>2017-07-14T08:25:25Z</time>
      </trkpt>
      <trkpt lat="45.93903" lon="4.74351">
        <ele>171</ele>
        <time>2017-07-14T08:25:26Z</time>
      </trkpt>
      <trkpt lat="45.93903" lon="4.74358">
        <ele>171</ele>
        <time>2017-07-14T08:25:27Z</time>
      </trkpt>
      <trkpt lat="45.93903" lon="4.74365">
        <ele>171</ele>
        <time>2017-07-14T08:25:28Z</time>
      </trkpt>
      <trkpt lat="45.93903" lon="4.74372">
        <ele>171</ele>
        <time>2017-07-14T08:25:29Z</time>
      </trkpt>
      <trkpt lat="45.93904" lon="4.74378">
        <ele>171</ele>
        <time>2017-07-14T08:25:30Z</time>
      </trkpt>
      <trkpt lat="45.93904" lon="4.7439">
        <ele>171</ele>
        <time>2017-07-14T08:25:32Z</time>
      </trkpt>
      <trkpt lat="45.93905" lon="4.74395">
        <ele>171</ele>
        <time>2017-07-14T08:25:33Z</time>
      </trkpt>
      <trkpt lat="45.93906" lon="4.74407">
        <ele>171</ele>
        <time>2017-07-14T08:25:35Z</time>
      </trkpt>
      <trkpt lat="45.93907" lon="4.74414">
        <ele>171</ele>
        <time>2017-07-14T08:25:36Z</time>
      </trkpt>
      <trkpt lat="45.93908" lon="4.74421">
        <ele>171</ele>
        <time>2017-07-14T08:25:37Z</time>
      </trkpt>
      <trkpt lat="45.93908" lon="4.74428">
        <ele>171</ele>
        <time>2017-07-14T08:25:38Z</time>
      </trkpt>
      <trkpt lat="45.93908" lon="4.74435">
        <ele>171</ele>
        <time>2017-07-14T08:25:39Z</time>
      </trkpt>
      <trkpt lat="45.93909" lon="4.74442">
        <ele>171</ele>
        <time>2017-07-14T08:25:40Z</time>
      </trkpt>
      <trkpt lat="45.93909" lon="4.74454">
        <ele>171</ele>
        <time>2017-07-14T08:25:42Z</time>
      </trkpt>
      <trkpt lat="45.93909" lon="4.7446">
        <ele>171</ele>
        <time>2017-07-14T08:25:43Z</time>
      </trkpt>
      <trkpt lat="45.93909" lon="4.74472">
        <ele>171</ele>
        <time>2017-07-14T08:25:45Z</time>
      </trkpt>
      <trkpt lat="45.93909" lon="4.74478">
        <ele>171</ele>
        <time>2017-07-14T08:25:46Z</time>
      </trkpt>
      <trkpt lat="45.93909" lon="4.74485">
        <ele>171</ele>
        <time>2017-07-14T08:25:47Z</time>
      </trkpt>
      <trkpt lat="45.93909" lon="4.74492">
        <ele>170</ele>
        <time>2017-07-14T08:25:48Z</time>
      </trkpt>
      <trkpt lat="45.93908" lon="4.74499">
        <ele>170</ele>
        <time>2017-07-14T08:25:49Z</time>
      </trkpt>
      <trkpt lat="45.93909" lon="4.74506">
        <ele>170</ele>
        <time>2017-07-14T08:25:50Z</time>
      </trkpt>
      <trkpt lat="45.93908" lon="4.74513">
        <ele>170</ele>
        <time>2017-07-14T08:25:51Z</time>
      </trkpt>
      <trkpt lat="45.93907" lon="4.7452">
        <ele>170</ele>
        <time>2017-07-14T08:25:52Z</time>
      </trkpt>
      <trkpt lat="45.93907" lon="4.74526">
        <ele>170</ele>
        <time>2017-07-14T08:25:53Z</time>
      </trkpt>
      <trkpt lat="45.93907" lon="4.74533">
        <ele>170</ele>
        <time>2017-07-14T08:25:54Z</time>
      </trkpt>
      <trkpt lat="45.93905" lon="4.74544">
        <ele>170</ele>
        <time>2017-07-14T08:25:56Z</time>
      </trkpt>
      <trkpt lat="45.93904" lon="4.7455">
        <ele>170</ele>
        <time>2017-07-14T08:25:57Z</time>
      </trkpt>
      <trkpt lat="45.93902" lon="4.74556">
        <ele>170</ele>
        <time>2017-07-14T08:25:58Z</time>
      </trkpt>
      <trkpt lat="45.93901" lon="4.74563">
        <ele>170</ele>
        <time>2017-07-14T08:25:59Z</time>
      </trkpt>
      <trkpt lat="45.939" lon="4.7457">
        <ele>170</ele>
        <time>2017-07-14T08:26:00Z</time>
      </trkpt>
      <trkpt lat="45.93899" lon="4.74577">
        <ele>170</ele>
        <time>2017-07-14T08:26:01Z</time>
      </trkpt>
      <trkpt lat="45.93897" lon="4.74589">
        <ele>170</ele>
        <time>2017-07-14T08:26:03Z</time>
      </trkpt>
      <trkpt lat="45.93896" lon="4.74595">
        <ele>170</ele>
        <time>2017-07-14T08:26:04Z</time>
      </trkpt>
      <trkpt lat="45.93894" lon="4.74601">
        <ele>170</ele>
        <time>2017-07-14T08:26:05Z</time>
      </trkpt>
      <trkpt lat="45.93892" lon="4.74607">
        <ele>170</ele>
        <time>2017-07-14T08:26:06Z</time>
      </trkpt>
      <trkpt lat="45.93889" lon="4.74614">
        <ele>170</ele>
        <time>2017-07-14T08:26:07Z</time>
      </trkpt>
      <trkpt lat="45.93887" lon="4.7462">
        <ele>170</ele>
        <time>2017-07-14T08:26:08Z</time>
      </trkpt>
      <trkpt lat="45.93885" lon="4.74627">
        <ele>170</ele>
        <time>2017-07-14T08:26:09Z</time>
      </trkpt>
      <trkpt lat="45.93883" lon="4.74633">
        <ele>170</ele>
        <time>2017-07-14T08:26:10Z</time>
      </trkpt>
      <trkpt lat="45.93881" lon="4.7464">
        <ele>170</ele>
        <time>2017-07-14T08:26:11Z</time>
      </trkpt>
      <trkpt lat="45.93879" lon="4.74647">
        <ele>170</ele>
        <time>2017-07-14T08:26:12Z</time>
      </trkpt>
      <trkpt lat="45.93877" lon="4.74654">
        <ele>170</ele>
        <time>2017-07-14T08:26:13Z</time>
      </trkpt>
      <trkpt lat="45.93875" lon="4.7466">
        <ele>170</ele>
        <time>2017-07-14T08:26:14Z</time>
      </trkpt>
      <trkpt lat="45.93873" lon="4.74666">
        <ele>170</ele>
        <time>2017-07-14T08:26:15Z</time>
      </trkpt>
      <trkpt lat="45.93871" lon="4.74672">
        <ele>170</ele>
        <time>2017-07-14T08:26:16Z</time>
      </trkpt>
      <trkpt lat="45.93867" lon="4.74682">
        <ele>170</ele>
        <time>2017-07-14T08:26:18Z</time>
      </trkpt>
      <trkpt lat="45.93866" lon="4.74687">
        <ele>170</ele>
        <time>2017-07-14T08:26:19Z</time>
      </trkpt>
      <trkpt lat="45.93861" lon="4.74698">
        <ele>169</ele>
        <time>2017-07-14T08:26:21Z</time>
      </trkpt>
      <trkpt lat="45.93859" lon="4.74705">
        <ele>169</ele>
        <time>2017-07-14T08:26:22Z</time>
      </trkpt>
      <trkpt lat="45.93856" lon="4.74711">
        <ele>169</ele>
        <time>2017-07-14T08:26:23Z</time>
      </trkpt>
      <trkpt lat="45.93854" lon="4.74717">
        <ele>169</ele>
        <time>2017-07-14T08:26:24Z</time>
      </trkpt>
      <trkpt lat="45.93851" lon="4.74723">
        <ele>169</ele>
        <time>2017-07-14T08:26:25Z</time>
      </trkpt>
      <trkpt lat="45.93848" lon="4.74728">
        <ele>169</ele>
        <time>2017-07-14T08:26:26Z</time>
      </trkpt>
      <trkpt lat="45.93843" lon="4.74738">
        <ele>169</ele>
        <time>2017-07-14T08:26:28Z</time>
      </trkpt>
      <trkpt lat="45.9384" lon="4.74742">
        <ele>168</ele>
        <time>2017-07-14T08:26:29Z</time>
      </trkpt>
      <trkpt lat="45.93835" lon="4.74752">
        <ele>168</ele>
        <time>2017-07-14T08:26:31Z</time>
      </trkpt>
      <trkpt lat="45.93832" lon="4.74758">
        <ele>168</ele>
        <time>2017-07-14T08:26:32Z</time>
      </trkpt>
      <trkpt lat="45.93828" lon="4.74764">
        <ele>168</ele>
        <time>2017-07-14T08:26:33Z</time>
      </trkpt>
      <trkpt lat="45.93825" lon="4.7477">
        <ele>167</ele>
        <time>2017-07-14T08:26:34Z</time>
      </trkpt>
      <trkpt lat="45.93823" lon="4.74776">
        <ele>167</ele>
        <time>2017-07-14T08:26:35Z</time>
      </trkpt>
      <trkpt lat="45.93819" lon="4.74781">
        <ele>167</ele>
        <time>2017-07-14T08:26:36Z</time>
      </trkpt>
      <trkpt lat="45.93817" lon="4.74787">
        <ele>167</ele>
        <time>2017-07-14T08:26:37Z</time>
      </trkpt>
      <trkpt lat="45.93814" lon="4.74793">
        <ele>167</ele>
        <time>2017-07-14T08:26:38Z</time>
      </trkpt>
      <trkpt lat="45.93811" lon="4.74798">
        <ele>167</ele>
        <time>2017-07-14T08:26:39Z</time>
      </trkpt>
      <trkpt lat="45.93808" lon="4.74803">
        <ele>167</ele>
        <time>2017-07-14T08:26:40Z</time>
      </trkpt>
      <trkpt lat="45.93806" lon="4.74809">
        <ele>167</ele>
        <time>2017-07-14T08:26:41Z</time>
      </trkpt>
      <trkpt lat="45.93803" lon="4.74815">
        <ele>167</ele>
        <time>2017-07-14T08:26:42Z</time>
      </trkpt>
      <trkpt lat="45.938" lon="4.74821">
        <ele>167</ele>
        <time>2017-07-14T08:26:43Z</time>
      </trkpt>
      <trkpt lat="45.93797" lon="4.74827">
        <ele>167</ele>
        <time>2017-07-14T08:26:44Z</time>
      </trkpt>
      <trkpt lat="45.93794" lon="4.74832">
        <ele>167</ele>
        <time>2017-07-14T08:26:45Z</time>
      </trkpt>
      <trkpt lat="45.93791" lon="4.74838">
        <ele>168</ele>
        <time>2017-07-14T08:26:46Z</time>
      </trkpt>
      <trkpt lat="45.93786" lon="4.74849">
        <ele>168</ele>
        <time>2017-07-14T08:26:48Z</time>
      </trkpt>
      <trkpt lat="45.93784" lon="4.74854">
        <ele>168</ele>
        <time>2017-07-14T08:26:49Z</time>
      </trkpt>
      <trkpt lat="45.93779" lon="4.74862">
        <ele>168</ele>
        <time>2017-07-14T08:26:51Z</time>
      </trkpt>
      <trkpt lat="45.93775" lon="4.74867">
        <ele>168</ele>
        <time>2017-07-14T08:26:52Z</time>
      </trkpt>
      <trkpt lat="45.93771" lon="4.74872">
        <ele>168</ele>
        <time>2017-07-14T08:26:53Z</time>
      </trkpt>
      <trkpt lat="45.93767" lon="4.74877">
        <ele>169</ele>
        <time>2017-07-14T08:26:54Z</time>
      </trkpt>
      <trkpt lat="45.93764" lon="4.74883">
        <ele>169</ele>
        <time>2017-07-14T08:26:55Z</time>
      </trkpt>
      <trkpt lat="45.93761" lon="4.74887">
        <ele>169</ele>
        <time>2017-07-14T08:26:56Z</time>
      </trkpt>
      <trkpt lat="45.93758" lon="4.74892">
        <ele>169</ele>
        <time>2017-07-14T08:26:57Z</time>
      </trkpt>
      <trkpt lat="45.93755" lon="4.74898">
        <ele>170</ele>
        <time>2017-07-14T08:26:58Z</time>
      </trkpt>
      <trkpt lat="45.93753" lon="4.74903">
        <ele>170</ele>
        <time>2017-07-14T08:26:59Z</time>
      </trkpt>
      <trkpt lat="45.9375" lon="4.74908">
        <ele>170</ele>
        <time>2017-07-14T08:27:00Z</time>
      </trkpt>
      <trkpt lat="45.93745" lon="4.74918">
        <ele>170</ele>
        <time>2017-07-14T08:27:02Z</time>
      </trkpt>
      <trkpt lat="45.93743" lon="4.74924">
        <ele>170</ele>
        <time>2017-07-14T08:27:03Z</time>
      </trkpt>
      <trkpt lat="45.9374" lon="4.7493">
        <ele>170</ele>
        <time>2017-07-14T08:27:04Z</time>
      </trkpt>
      <trkpt lat="45.93738" lon="4.74936">
        <ele>169</ele>
        <time>2017-07-14T08:27:05Z</time>
      </trkpt>
      <trkpt lat="45.93736" lon="4.74943">
        <ele>169</ele>
        <time>2017-07-14T08:27:06Z</time>
      </trkpt>
      <trkpt lat="45.93733" lon="4.7495">
        <ele>169</ele>
        <time>2017-07-14T08:27:07Z</time>
      </trkpt>
      <trkpt lat="45.93731" lon="4.74955">
        <ele>169</ele>
        <time>2017-07-14T08:27:08Z</time>
      </trkpt>
      <trkpt lat="45.93728" lon="4.74961">
        <ele>168</ele>
        <time>2017-07-14T08:27:09Z</time>
      </trkpt>
      <trkpt lat="45.93724" lon="4.74972">
        <ele>168</ele>
        <time>2017-07-14T08:27:11Z</time>
      </trkpt>
      <trkpt lat="45.93721" lon="4.74977">
        <ele>168</ele>
        <time>2017-07-14T08:27:12Z</time>
      </trkpt>
      <trkpt lat="45.93719" lon="4.74983">
        <ele>168</ele>
        <time>2017-07-14T08:27:13Z</time>
      </trkpt>
      <trkpt lat="45.93716" lon="4.74989">
        <ele>168</ele>
        <time>2017-07-14T08:27:14Z</time>
      </trkpt>
      <trkpt lat="45.93713" lon="4.74995">
        <ele>168</ele>
        <time>2017-07-14T08:27:15Z</time>
      </trkpt>
      <trkpt lat="45.93711" lon="4.75001">
        <ele>167</ele>
        <time>2017-07-14T08:27:16Z</time>
      </trkpt>
      <trkpt lat="45.93708" lon="4.75007">
        <ele>167</ele>
        <time>2017-07-14T08:27:17Z</time>
      </trkpt>
      <trkpt lat="45.93706" lon="4.75012">
        <ele>167</ele>
        <time>2017-07-14T08:27:18Z</time>
      </trkpt>
      <trkpt lat="45.93703" lon="4.75018">
        <ele>167</ele>
        <time>2017-07-14T08:27:19Z</time>
      </trkpt>
      <trkpt lat="45.93701" lon="4.75023">
        <ele>167</ele>
        <time>2017-07-14T08:27:20Z</time>
      </trkpt>
      <trkpt lat="45.93696" lon="4.75033">
        <ele>167</ele>
        <time>2017-07-14T08:27:22Z</time>
      </trkpt>
      <trkpt lat="45.93693" lon="4.75037">
        <ele>167</ele>
        <time>2017-07-14T08:27:23Z</time>
      </trkpt>
      <trkpt lat="45.93688" lon="4.75047">
        <ele>167</ele>
        <time>2017-07-14T08:27:25Z</time>
      </trkpt>
      <trkpt lat="45.93685" lon="4.75052">
        <ele>167</ele>
        <time>2017-07-14T08:27:26Z</time>
      </trkpt>
      <trkpt lat="45.93682" lon="4.75057">
        <ele>167</ele>
        <time>2017-07-14T08:27:27Z</time>
      </trkpt>
      <trkpt lat="45.93679" lon="4.75064">
        <ele>167</ele>
        <time>2017-07-14T08:27:28Z</time>
      </trkpt>
      <trkpt lat="45.93676" lon="4.7507">
        <ele>167</ele>
        <time>2017-07-14T08:27:29Z</time>
      </trkpt>
      <trkpt lat="45.93673" lon="4.75075">
        <ele>167</ele>
        <time>2017-07-14T08:27:30Z</time>
      </trkpt>
      <trkpt lat="45.93671" lon="4.7508">
        <ele>167</ele>
        <time>2017-07-14T08:27:31Z</time>
      </trkpt>
      <trkpt lat="45.93668" lon="4.75085">
        <ele>167</ele>
        <time>2017-07-14T08:27:32Z</time>
      </trkpt>
      <trkpt lat="45.93666" lon="4.75091">
        <ele>167</ele>
        <time>2017-07-14T08:27:33Z</time>
      </trkpt>
      <trkpt lat="45.93664" lon="4.75097">
        <ele>167</ele>
        <time>2017-07-14T08:27:34Z</time>
      </trkpt>
      <trkpt lat="45.93659" lon="4.75108">
        <ele>167</ele>
        <time>2017-07-14T08:27:36Z</time>
      </trkpt>
      <trkpt lat="45.93657" lon="4.75113">
        <ele>167</ele>
        <time>2017-07-14T08:27:37Z</time>
      </trkpt>
      <trkpt lat="45.93654" lon="4.75119">
        <ele>168</ele>
        <time>2017-07-14T08:27:38Z</time>
      </trkpt>
      <trkpt lat="45.93651" lon="4.75126">
        <ele>168</ele>
        <time>2017-07-14T08:27:39Z</time>
      </trkpt>
      <trkpt lat="45.93648" lon="4.75132">
        <ele>168</ele>
        <time>2017-07-14T08:27:40Z</time>
      </trkpt>
      <trkpt lat="45.93645" lon="4.75138">
        <ele>168</ele>
        <time>2017-07-14T08:27:41Z</time>
      </trkpt>
      <trkpt lat="45.93643" lon="4.75144">
        <ele>168</ele>
        <time>2017-07-14T08:27:42Z</time>
      </trkpt>
      <trkpt lat="45.9364" lon="4.7515">
        <ele>168</ele>
        <time>2017-07-14T08:27:43Z</time>
      </trkpt>
      <trkpt lat="45.93637" lon="4.75155">
        <ele>168</ele>
        <time>2017-07-14T08:27:44Z</time>
      </trkpt>
      <trkpt lat="45.93635" lon="4.75161">
        <ele>168</ele>
        <time>2017-07-14T08:27:45Z</time>
      </trkpt>
      <trkpt lat="45.93633" lon="4.75167">
        <ele>168</ele>
        <time>2017-07-14T08:27:46Z</time>
      </trkpt>
      <trkpt lat="45.93631" lon="4.75173">
        <ele>168</ele>
        <time>2017-07-14T08:27:47Z</time>
      </trkpt>
      <trkpt lat="45.93629" lon="4.75179">
        <ele>168</ele>
        <time>2017-07-14T08:27:48Z</time>
      </trkpt>
      <trkpt lat="45.93627" lon="4.75185">
        <ele>168</ele>
        <time>2017-07-14T08:27:49Z</time>
      </trkpt>
      <trkpt lat="45.93626" lon="4.75192">
        <ele>168</ele>
        <time>2017-07-14T08:27:50Z</time>
      </trkpt>
      <trkpt lat="45.93624" lon="4.75198">
        <ele>168</ele>
        <time>2017-07-14T08:27:51Z</time>
      </trkpt>
      <trkpt lat="45.9362" lon="4.7521">
        <ele>167</ele>
        <time>2017-07-14T08:27:53Z</time>
      </trkpt>
      <trkpt lat="45.93619" lon="4.75216">
        <ele>167</ele>
        <time>2017-07-14T08:27:54Z</time>
      </trkpt>
      <trkpt lat="45.93615" lon="4.75227">
        <ele>167</ele>
        <time>2017-07-14T08:27:56Z</time>
      </trkpt>
      <trkpt lat="45.93614" lon="4.75232">
        <ele>167</ele>
        <time>2017-07-14T08:27:57Z</time>
      </trkpt>
      <trkpt lat="45.9361" lon="4.75244">
        <ele>167</ele>
        <time>2017-07-14T08:27:59Z</time>
      </trkpt>
      <trkpt lat="45.93608" lon="4.7525">
        <ele>167</ele>
        <time>2017-07-14T08:28:00Z</time>
      </trkpt>
      <trkpt lat="45.93607" lon="4.75256">
        <ele>167</ele>
        <time>2017-07-14T08:28:01Z</time>
      </trkpt>
      <trkpt lat="45.93606" lon="4.75262">
        <ele>167</ele>
        <time>2017-07-14T08:28:02Z</time>
      </trkpt>
      <trkpt lat="45.93604" lon="4.75269">
        <ele>168</ele>
        <time>2017-07-14T08:28:03Z</time>
      </trkpt>
      <trkpt lat="45.93603" lon="4.75275">
        <ele>168</ele>
        <time>2017-07-14T08:28:04Z</time>
      </trkpt>
      <trkpt lat="45.93602" lon="4.75281">
        <ele>168</ele>
        <time>2017-07-14T08:28:05Z</time>
      </trkpt>
      <trkpt lat="45.93601" lon="4.75288">
        <ele>168</ele>
        <time>2017-07-14T08:28:06Z</time>
      </trkpt>
      <trkpt lat="45.936" lon="4.75294">
        <ele>168</ele>
        <time>2017-07-14T08:28:07Z</time>
      </trkpt>
      <trkpt lat="45.93599" lon="4.75301">
        <ele>168</ele>
        <time>2017-07-14T08:28:08Z</time>
      </trkpt>
      <trkpt lat="45.93598" lon="4.75308">
        <ele>169</ele>
        <time>2017-07-14T08:28:09Z</time>
      </trkpt>
      <trkpt lat="45.93596" lon="4.75314">
        <ele>169</ele>
        <time>2017-07-14T08:28:10Z</time>
      </trkpt>
      <trkpt lat="45.93594" lon="4.75321">
        <ele>169</ele>
        <time>2017-07-14T08:28:11Z</time>
      </trkpt>
      <trkpt lat="45.93592" lon="4.75329">
        <ele>169</ele>
        <time>2017-07-14T08:28:12Z</time>
      </trkpt>
      <trkpt lat="45.9359" lon="4.75337">
        <ele>170</ele>
        <time>2017-07-14T08:28:13Z</time>
      </trkpt>
      <trkpt lat="45.93589" lon="4.75344">
        <ele>170</ele>
        <time>2017-07-14T08:28:14Z</time>
      </trkpt>
      <trkpt lat="45.93587" lon="4.75351">
        <ele>169</ele>
        <time>2017-07-14T08:28:15Z</time>
      </trkpt>
      <trkpt lat="45.93586" lon="4.75357">
        <ele>169</ele>
        <time>2017-07-14T08:28:16Z</time>
      </trkpt>
      <trkpt lat="45.93584" lon="4.7537">
        <ele>169</ele>
        <time>2017-07-14T08:28:18Z</time>
      </trkpt>
      <trkpt lat="45.93583" lon="4.75376">
        <ele>168</ele>
        <time>2017-07-14T08:28:19Z</time>
      </trkpt>
      <trkpt lat="45.93583" lon="4.75384">
        <ele>168</ele>
        <time>2017-07-14T08:28:20Z</time>
      </trkpt>
      <trkpt lat="45.93582" lon="4.75391">
        <ele>168</ele>
        <time>2017-07-14T08:28:21Z</time>
      </trkpt>
      <trkpt lat="45.9358" lon="4.75399">
        <ele>168</ele>
        <time>2017-07-14T08:28:22Z</time>
      </trkpt>
      <trkpt lat="45.93578" lon="4.75408">
        <ele>168</ele>
        <time>2017-07-14T08:28:23Z</time>
      </trkpt>
      <trkpt lat="45.93576" lon="4.75416">
        <ele>168</ele>
        <time>2017-07-14T08:28:24Z</time>
      </trkpt>
      <trkpt lat="45.93575" lon="4.75424">
        <ele>168</ele>
        <time>2017-07-14T08:28:25Z</time>
      </trkpt>
      <trkpt lat="45.93573" lon="4.75432">
        <ele>168</ele>
        <time>2017-07-14T08:28:26Z</time>
      </trkpt>
      <trkpt lat="45.93572" lon="4.75439">
        <ele>168</ele>
        <time>2017-07-14T08:28:27Z</time>
      </trkpt>
      <trkpt lat="45.93572" lon="4.75452">
        <ele>168</ele>
        <time>2017-07-14T08:28:29Z</time>
      </trkpt>
      <trkpt lat="45.93571" lon="4.75458">
        <ele>168</ele>
        <time>2017-07-14T08:28:30Z</time>
      </trkpt>
      <trkpt lat="45.93571" lon="4.75466">
        <ele>168</ele>
        <time>2017-07-14T08:28:31Z</time>
      </trkpt>
      <trkpt lat="45.9357" lon="4.75473">
        <ele>168</ele>
        <time>2017-07-14T08:28:32Z</time>
      </trkpt>
      <trkpt lat="45.93569" lon="4.7548">
        <ele>168</ele>
        <time>2017-07-14T08:28:33Z</time>
      </trkpt>
      <trkpt lat="45.93569" lon="4.75488">
        <ele>169</ele>
        <time>2017-07-14T08:28:34Z</time>
      </trkpt>
      <trkpt lat="45.93568" lon="4.75496">
        <ele>169</ele>
        <time>2017-07-14T08:28:35Z</time>
      </trkpt>
      <trkpt lat="45.93567" lon="4.75504">
        <ele>169</ele>
        <time>2017-07-14T08:28:36Z</time>
      </trkpt>
      <trkpt lat="45.93566" lon="4.75512">
        <ele>169</ele>
        <time>2017-07-14T08:28:37Z</time>
      </trkpt>
      <trkpt lat="45.93565" lon="4.7552">
        <ele>169</ele>
        <time>2017-07-14T08:28:38Z</time>
      </trkpt>
      <trkpt lat="45.93565" lon="4.75527">
        <ele>169</ele>
        <time>2017-07-14T08:28:39Z</time>
      </trkpt>
      <trkpt lat="45.93564" lon="4.75534">
        <ele>169</ele>
        <time>2017-07-14T08:28:40Z</time>
      </trkpt>
      <trkpt lat="45.93563" lon="4.75541">
        <ele>169</ele>
        <time>2017-07-14T08:28:41Z</time>
      </trkpt>
      <trkpt lat="45.93562" lon="4.75548">
        <ele>169</ele>
        <time>2017-07-14T08:28:42Z</time>
      </trkpt>
      <trkpt lat="45.93559" lon="4.75559">
        <ele>169</ele>
        <time>2017-07-14T08:28:44Z</time>
      </trkpt>
      <trkpt lat="45.93558" lon="4.75566">
        <ele>169</ele>
        <time>2017-07-14T08:28:45Z</time>
      </trkpt>
      <trkpt lat="45.93556" lon="4.75572">
        <ele>169</ele>
        <time>2017-07-14T08:28:46Z</time>
      </trkpt>
      <trkpt lat="45.93555" lon="4.7558">
        <ele>169</ele>
        <time>2017-07-14T08:28:47Z</time>
      </trkpt>
      <trkpt lat="45.93554" lon="4.75587">
        <ele>170</ele>
        <time>2017-07-14T08:28:48Z</time>
      </trkpt>
      <trkpt lat="45.93553" lon="4.75594">
        <ele>170</ele>
        <time>2017-07-14T08:28:49Z</time>
      </trkpt>
      <trkpt lat="45.93552" lon="4.75601">
        <ele>170</ele>
        <time>2017-07-14T08:28:50Z</time>
      </trkpt>
      <trkpt lat="45.93551" lon="4.75608">
        <ele>170</ele>
        <time>2017-07-14T08:28:51Z</time>
      </trkpt>
      <trkpt lat="45.9355" lon="4.75615">
        <ele>170</ele>
        <time>2017-07-14T08:28:52Z</time>
      </trkpt>
      <trkpt lat="45.93549" lon="4.75622">
        <ele>170</ele>
        <time>2017-07-14T08:28:53Z</time>
      </trkpt>
      <trkpt lat="45.93547" lon="4.75629">
        <ele>170</ele>
        <time>2017-07-14T08:28:54Z</time>
      </trkpt>
      <trkpt lat="45.93546" lon="4.75637">
        <ele>170</ele>
        <time>2017-07-14T08:28:55Z</time>
      </trkpt>
      <trkpt lat="45.93544" lon="4.75644">
        <ele>170</ele>
        <time>2017-07-14T08:28:56Z</time>
      </trkpt>
      <trkpt lat="45.93542" lon="4.75651">
        <ele>170</ele>
        <time>2017-07-14T08:28:57Z</time>
      </trkpt>
      <trkpt lat="45.9354" lon="4.75658">
        <ele>170</ele>
        <time>2017-07-14T08:28:58Z</time>
      </trkpt>
      <trkpt lat="45.93538" lon="4.75665">
        <ele>169</ele>
        <time>2017-07-14T08:28:59Z</time>
      </trkpt>
      <trkpt lat="45.93536" lon="4.75672">
        <ele>170</ele>
        <time>2017-07-14T08:29:00Z</time>
      </trkpt>
      <trkpt lat="45.93535" lon="4.7568">
        <ele>170</ele>
        <time>2017-07-14T08:29:01Z</time>
      </trkpt>
      <trkpt lat="45.93533" lon="4.75686">
        <ele>169</ele>
        <time>2017-07-14T08:29:02Z</time>
      </trkpt>
      <trkpt lat="45.93532" lon="4.75693">
        <ele>169</ele>
        <time>2017-07-14T08:29:03Z</time>
      </trkpt>
      <trkpt lat="45.9353" lon="4.75705">
        <ele>169</ele>
        <time>2017-07-14T08:29:05Z</time>
      </trkpt>
      <trkpt lat="45.93528" lon="4.75711">
        <ele>169</ele>
        <time>2017-07-14T08:29:06Z</time>
      </trkpt>
      <trkpt lat="45.93527" lon="4.75718">
        <ele>169</ele>
        <time>2017-07-14T08:29:07Z</time>
      </trkpt>
      <trkpt lat="45.93526" lon="4.75724">
        <ele>169</ele>
        <time>2017-07-14T08:29:08Z</time>
      </trkpt>
      <trkpt lat="45.93524" lon="4.75731">
        <ele>169</ele>
        <time>2017-07-14T08:29:09Z</time>
      </trkpt>
      <trkpt lat="45.93523" lon="4.75738">
        <ele>169</ele>
        <time>2017-07-14T08:29:10Z</time>
      </trkpt>
      <trkpt lat="45.93521" lon="4.75745">
        <ele>168</ele>
        <time>2017-07-14T08:29:11Z</time>
      </trkpt>
      <trkpt lat="45.9352" lon="4.75752">
        <ele>168</ele>
        <time>2017-07-14T08:29:12Z</time>
      </trkpt>
      <trkpt lat="45.9352" lon="4.75759">
        <ele>168</ele>
        <time>2017-07-14T08:29:13Z</time>
      </trkpt>
      <trkpt lat="45.93519" lon="4.75766">
        <ele>168</ele>
        <time>2017-07-14T08:29:14Z</time>
      </trkpt>
      <trkpt lat="45.93518" lon="4.75779">
        <ele>169</ele>
        <time>2017-07-14T08:29:16Z</time>
      </trkpt>
      <trkpt lat="45.93518" lon="4.75786">
        <ele>169</ele>
        <time>2017-07-14T08:29:17Z</time>
      </trkpt>
      <trkpt lat="45.93518" lon="4.75793">
        <ele>169</ele>
        <time>2017-07-14T08:29:18Z</time>
      </trkpt>
      <trkpt lat="45.93519" lon="4.75799">
        <ele>169</ele>
        <time>2017-07-14T08:29:19Z</time>
      </trkpt>
      <trkpt lat="45.93519" lon="4.75806">
        <ele>169</ele>
        <time>2017-07-14T08:29:20Z</time>
      </trkpt>
      <trkpt lat="45.93521" lon="4.75815">
        <ele>169</ele>
        <time>2017-07-14T08:29:21Z</time>
      </trkpt>
      <trkpt lat="45.93522" lon="4.75824">
        <ele>168</ele>
        <time>2017-07-14T08:29:22Z</time>
      </trkpt>
      <trkpt lat="45.93524" lon="4.75832">
        <ele>168</ele>
        <time>2017-07-14T08:29:23Z</time>
      </trkpt>
      <trkpt lat="45.93525" lon="4.75839">
        <ele>168</ele>
        <time>2017-07-14T08:29:24Z</time>
      </trkpt>
      <trkpt lat="45.93526" lon="4.75849">
        <ele>168</ele>
        <time>2017-07-14T08:29:25Z</time>
      </trkpt>
      <trkpt lat="45.93528" lon="4.75858">
        <ele>168</ele>
        <time>2017-07-14T08:29:26Z</time>
      </trkpt>
      <trkpt lat="45.93529" lon="4.75864">
        <ele>168</ele>
        <time>2017-07-14T08:29:27Z</time>
      </trkpt>
      <trkpt lat="45.93531" lon="4.75871">
        <ele>168</ele>
        <time>2017-07-14T08:29:28Z</time>
      </trkpt>
      <trkpt lat="45.93533" lon="4.75877">
        <ele>168</ele>
        <time>2017-07-14T08:29:29Z</time>
      </trkpt>
      <trkpt lat="45.93534" lon="4.75884">
        <ele>168</ele>
        <time>2017-07-14T08:29:30Z</time>
      </trkpt>
      <trkpt lat="45.93536" lon="4.75891">
        <ele>168</ele>
        <time>2017-07-14T08:29:31Z</time>
      </trkpt>
      <trkpt lat="45.93538" lon="4.75898">
        <ele>168</ele>
        <time>2017-07-14T08:29:32Z</time>
      </trkpt>
      <trkpt lat="45.9354" lon="4.75905">
        <ele>168</ele>
        <time>2017-07-14T08:29:33Z</time>
      </trkpt>
      <trkpt lat="45.93542" lon="4.75911">
        <ele>168</ele>
        <time>2017-07-14T08:29:34Z</time>
      </trkpt>
      <trkpt lat="45.93543" lon="4.75917">
        <ele>169</ele>
        <time>2017-07-14T08:29:35Z</time>
      </trkpt>
      <trkpt lat="45.93548" lon="4.75927">
        <ele>169</ele>
        <time>2017-07-14T08:29:37Z</time>
      </trkpt>
      <trkpt lat="45.9355" lon="4.75933">
        <ele>169</ele>
        <time>2017-07-14T08:29:38Z</time>
      </trkpt>
      <trkpt lat="45.93551" lon="4.75939">
        <ele>169</ele>
        <time>2017-07-14T08:29:39Z</time>
      </trkpt>
      <trkpt lat="45.93554" lon="4.75946">
        <ele>169</ele>
        <time>2017-07-14T08:29:40Z</time>
      </trkpt>
      <trkpt lat="45.93556" lon="4.75952">
        <ele>169</ele>
        <time>2017-07-14T08:29:41Z</time>
      </trkpt>
      <trkpt lat="45.93558" lon="4.75958">
        <ele>169</ele>
        <time>2017-07-14T08:29:42Z</time>
      </trkpt>
      <trkpt lat="45.9356" lon="4.75965">
        <ele>169</ele>
        <time>2017-07-14T08:29:43Z</time>
      </trkpt>
      <trkpt lat="45.93563" lon="4.75971">
        <ele>169</ele>
        <time>2017-07-14T08:29:44Z</time>
      </trkpt>
      <trkpt lat="45.93564" lon="4.75977">
        <ele>170</ele>
        <time>2017-07-14T08:29:45Z</time>
      </trkpt>
      <trkpt lat="45.93566" lon="4.75983">
        <ele>170</ele>
        <time>2017-07-14T08:29:46Z</time>
      </trkpt>
      <trkpt lat="45.9357" lon="4.75995">
        <ele>170</ele>
        <time>2017-07-14T08:29:48Z</time>
      </trkpt>
      <trkpt lat="45.93571" lon="4.76">
        <ele>171</ele>
        <time>2017-07-14T08:29:49Z</time>
      </trkpt>
      <trkpt lat="45.93573" lon="4.76005">
        <ele>171</ele>
        <time>2017-07-14T08:29:50Z</time>
      </trkpt>
      <trkpt lat="45.93576" lon="4.76012">
        <ele>170</ele>
        <time>2017-07-14T08:29:51Z</time>
      </trkpt>
      <trkpt lat="45.93578" lon="4.76019">
        <ele>170</ele>
        <time>2017-07-14T08:29:52Z</time>
      </trkpt>
      <trkpt lat="45.93581" lon="4.76026">
        <ele>170</ele>
        <time>2017-07-14T08:29:53Z</time>
      </trkpt>
      <trkpt lat="45.93583" lon="4.76033">
        <ele>170</ele>
        <time>2017-07-14T08:29:54Z</time>
      </trkpt>
      <trkpt lat="45.93585" lon="4.76039">
        <ele>170</ele>
        <time>2017-07-14T08:29:55Z</time>
      </trkpt>
      <trkpt lat="45.93588" lon="4.76047">
        <ele>170</ele>
        <time>2017-07-14T08:29:56Z</time>
      </trkpt>
      <trkpt lat="45.9359" lon="4.76053">
        <ele>170</ele>
        <time>2017-07-14T08:29:57Z</time>
      </trkpt>
      <trkpt lat="45.93592" lon="4.76059">
        <ele>170</ele>
        <time>2017-07-14T08:29:58Z</time>
      </trkpt>
      <trkpt lat="45.93594" lon="4.76066">
        <ele>170</ele>
        <time>2017-07-14T08:29:59Z</time>
      </trkpt>
      <trkpt lat="45.93597" lon="4.76072">
        <ele>170</ele>
        <time>2017-07-14T08:30:00Z</time>
      </trkpt>
      <trkpt lat="45.93599" lon="4.76077">
        <ele>170</ele>
        <time>2017-07-14T08:30:01Z</time>
      </trkpt>
      <trkpt lat="45.93601" lon="4.76083">
        <ele>170</ele>
        <time>2017-07-14T08:30:02Z</time>
      </trkpt>
      <trkpt lat="45.93603" lon="4.76089">
        <ele>170</ele>
        <time>2017-07-14T08:30:03Z</time>
      </trkpt>
      <trkpt lat="45.93607" lon="4.761">
        <ele>170</ele>
        <time>2017-07-14T08:30:05Z</time>
      </trkpt>
      <trkpt lat="45.93609" lon="4.76105">
        <ele>169</ele>
        <time>2017-07-14T08:30:06Z</time>
      </trkpt>
      <trkpt lat="45.93611" lon="4.76111">
        <ele>169</ele>
        <time>2017-07-14T08:30:07Z</time>
      </trkpt>
      <trkpt lat="45.93613" lon="4.76117">
        <ele>169</ele>
        <time>2017-07-14T08:30:08Z</time>
      </trkpt>
      <trkpt lat="45.93615" lon="4.76124">
        <ele>169</ele>
        <time>2017-07-14T08:30:09Z</time>
      </trkpt>
      <trkpt lat="45.93618" lon="4.7613">
        <ele>169</ele>
        <time>2017-07-14T08:30:10Z</time>
      </trkpt>
      <trkpt lat="45.93619" lon="4.76136">
        <ele>169</ele>
        <time>2017-07-14T08:30:11Z</time>
      </trkpt>
      <trkpt lat="45.93622" lon="4.76142">
        <ele>169</ele>
        <time>2017-07-14T08:30:12Z</time>
      </trkpt>
      <trkpt lat="45.93624" lon="4.76148">
        <ele>169</ele>
        <time>2017-07-14T08:30:13Z</time>
      </trkpt>
      <trkpt lat="45.93626" lon="4.76154">
        <ele>169</ele>
        <time>2017-07-14T08:30:14Z</time>
      </trkpt>
      <trkpt lat="45.9363" lon="4.76166">
        <ele>170</ele>
        <time>2017-07-14T08:30:16Z</time>
      </trkpt>
      <trkpt lat="45.93632" lon="4.76171">
        <ele>169</ele>
        <time>2017-07-14T08:30:17Z</time>
      </trkpt>
      <trkpt lat="45.93638" lon="4.76179">
        <ele>169</ele>
        <time>2017-07-14T08:30:19Z</time>
      </trkpt>
      <trkpt lat="45.9364" lon="4.76184">
        <ele>169</ele>
        <time>2017-07-14T08:30:20Z</time>
      </trkpt>
      <trkpt lat="45.93642" lon="4.7619">
        <ele>169</ele>
        <time>2017-07-14T08:30:21Z</time>
      </trkpt>
      <trkpt lat="45.93644" lon="4.76196">
        <ele>169</ele>
        <time>2017-07-14T08:30:22Z</time>
      </trkpt>
      <trkpt lat="45.93646" lon="4.76203">
        <ele>169</ele>
        <time>2017-07-14T08:30:23Z</time>
      </trkpt>
      <trkpt lat="45.93648" lon="4.76209">
        <ele>169</ele>
        <time>2017-07-14T08:30:24Z</time>
      </trkpt>
      <trkpt lat="45.9365" lon="4.76216">
        <ele>169</ele>
        <time>2017-07-14T08:30:25Z</time>
      </trkpt>
      <trkpt lat="45.93653" lon="4.76223">
        <ele>169</ele>
        <time>2017-07-14T08:30:26Z</time>
      </trkpt>
      <trkpt lat="45.93656" lon="4.76229">
        <ele>169</ele>
        <time>2017-07-14T08:30:27Z</time>
      </trkpt>
      <trkpt lat="45.93658" lon="4.76236">
        <ele>169</ele>
        <time>2017-07-14T08:30:28Z</time>
      </trkpt>
      <trkpt lat="45.9366" lon="4.76242">
        <ele>169</ele>
        <time>2017-07-14T08:30:29Z</time>
      </trkpt>
      <trkpt lat="45.93661" lon="4.76248">
        <ele>170</ele>
        <time>2017-07-14T08:30:30Z</time>
      </trkpt>
      <trkpt lat="45.93661" lon="4.76255">
        <ele>170</ele>
        <time>2017-07-14T08:30:31Z</time>
      </trkpt>
      <trkpt lat="45.93662" lon="4.76262">
        <ele>169</ele>
        <time>2017-07-14T08:30:32Z</time>
      </trkpt>
      <trkpt lat="45.93664" lon="4.76268">
        <ele>169</ele>
        <time>2017-07-14T08:30:33Z</time>
      </trkpt>
      <trkpt lat="45.93665" lon="4.76275">
        <ele>169</ele>
        <time>2017-07-14T08:30:34Z</time>
      </trkpt>
      <trkpt lat="45.93667" lon="4.76281">
        <ele>169</ele>
        <time>2017-07-14T08:30:35Z</time>
      </trkpt>
      <trkpt lat="45.93669" lon="4.76287">
        <ele>170</ele>
        <time>2017-07-14T08:30:36Z</time>
      </trkpt>
      <trkpt lat="45.93671" lon="4.76294">
        <ele>170</ele>
        <time>2017-07-14T08:30:37Z</time>
      </trkpt>
      <trkpt lat="45.93673" lon="4.76301">
        <ele>170</ele>
        <time>2017-07-14T08:30:38Z</time>
      </trkpt>
      <trkpt lat="45.93675" lon="4.76307">
        <ele>170</ele>
        <time>2017-07-14T08:30:39Z</time>
      </trkpt>
      <trkpt lat="45.93676" lon="4.76313">
        <ele>170</ele>
        <time>2017-07-14T08:30:40Z</time>
      </trkpt>
      <trkpt lat="45.9368" lon="4.76324">
        <ele>170</ele>
        <time>2017-07-14T08:30:42Z</time>
      </trkpt>
      <trkpt lat="45.93682" lon="4.7633">
        <ele>170</ele>
        <time>2017-07-14T08:30:43Z</time>
      </trkpt>
      <trkpt lat="45.93686" lon="4.7634">
        <ele>169</ele>
        <time>2017-07-14T08:30:45Z</time>
      </trkpt>
      <trkpt lat="45.93688" lon="4.76346">
        <ele>169</ele>
        <time>2017-07-14T08:30:46Z</time>
      </trkpt>
      <trkpt lat="45.9369" lon="4.76351">
        <ele>169</ele>
        <time>2017-07-14T08:30:47Z</time>
      </trkpt>
      <trkpt lat="45.93693" lon="4.76358">
        <ele>169</ele>
        <time>2017-07-14T08:30:48Z</time>
      </trkpt>
      <trkpt lat="45.93696" lon="4.76364">
        <ele>169</ele>
        <time>2017-07-14T08:30:49Z</time>
      </trkpt>
      <trkpt lat="45.93698" lon="4.76371">
        <ele>169</ele>
        <time>2017-07-14T08:30:50Z</time>
      </trkpt>
      <trkpt lat="45.937" lon="4.76377">
        <ele>169</ele>
        <time>2017-07-14T08:30:51Z</time>
      </trkpt>
      <trkpt lat="45.93702" lon="4.76383">
        <ele>169</ele>
        <time>2017-07-14T08:30:52Z</time>
      </trkpt>
      <trkpt lat="45.93706" lon="4.76394">
        <ele>169</ele>
        <time>2017-07-14T08:30:54Z</time>
      </trkpt>
      <trkpt lat="45.93708" lon="4.764">
        <ele>169</ele>
        <time>2017-07-14T08:30:55Z</time>
      </trkpt>
      <trkpt lat="45.93712" lon="4.7641">
        <ele>169</ele>
        <time>2017-07-14T08:30:57Z</time>
      </trkpt>
      <trkpt lat="45.93714" lon="4.76415">
        <ele>169</ele>
        <time>2017-07-14T08:30:58Z</time>
      </trkpt>
      <trkpt lat="45.93716" lon="4.76421">
        <ele>169</ele>
        <time>2017-07-14T08:30:59Z</time>
      </trkpt>
      <trkpt lat="45.93718" lon="4.76427">
        <ele>169</ele>
        <time>2017-07-14T08:31:00Z</time>
      </trkpt>
      <trkpt lat="45.9372" lon="4.76434">
        <ele>169</ele>
        <time>2017-07-14T08:31:01Z</time>
      </trkpt>
      <trkpt lat="45.93722" lon="4.76441">
        <ele>169</ele>
        <time>2017-07-14T08:31:02Z</time>
      </trkpt>
      <trkpt lat="45.93724" lon="4.76447">
        <ele>169</ele>
        <time>2017-07-14T08:31:03Z</time>
      </trkpt>
      <trkpt lat="45.93726" lon="4.76454">
        <ele>169</ele>
        <time>2017-07-14T08:31:04Z</time>
      </trkpt>
      <trkpt lat="45.93728" lon="4.76459">
        <ele>169</ele>
        <time>2017-07-14T08:31:05Z</time>
      </trkpt>
      <trkpt lat="45.9373" lon="4.76465">
        <ele>169</ele>
        <time>2017-07-14T08:31:06Z</time>
      </trkpt>
      <trkpt lat="45.93734" lon="4.76476">
        <ele>169</ele>
        <time>2017-07-14T08:31:08Z</time>
      </trkpt>
      <trkpt lat="45.93736" lon="4.76482">
        <ele>169</ele>
        <time>2017-07-14T08:31:09Z</time>
      </trkpt>
      <trkpt lat="45.9374" lon="4.76491">
        <ele>169</ele>
        <time>2017-07-14T08:31:11Z</time>
      </trkpt>
      <trkpt lat="45.93742" lon="4.76496">
        <ele>169</ele>
        <time>2017-07-14T08:31:12Z</time>
      </trkpt>
      <trkpt lat="45.93746" lon="4.76507">
        <ele>169</ele>
        <time>2017-07-14T08:31:14Z</time>
      </trkpt>
      <trkpt lat="45.93748" lon="4.76513">
        <ele>169</ele>
        <time>2017-07-14T08:31:15Z</time>
      </trkpt>
      <trkpt lat="45.93751" lon="4.76524">
        <ele>170</ele>
        <time>2017-07-14T08:31:17Z</time>
      </trkpt>
      <trkpt lat="45.93753" lon="4.7653">
        <ele>170</ele>
        <time>2017-07-14T08:31:18Z</time>
      </trkpt>
      <trkpt lat="45.93756" lon="4.7654">
        <ele>170</ele>
        <time>2017-07-14T08:31:20Z</time>
      </trkpt>
      <trkpt lat="45.93757" lon="4.76545">
        <ele>170</ele>
        <time>2017-07-14T08:31:21Z</time>
      </trkpt>
      <trkpt lat="45.93761" lon="4.76555">
        <ele>170</ele>
        <time>2017-07-14T08:31:23Z</time>
      </trkpt>
      <trkpt lat="45.93763" lon="4.7656">
        <ele>170</ele>
        <time>2017-07-14T08:31:24Z</time>
      </trkpt>
      <trkpt lat="45.93765" lon="4.76566">
        <ele>170</ele>
        <time>2017-07-14T08:31:25Z</time>
      </trkpt>
      <trkpt lat="45.93767" lon="4.76572">
        <ele>170</ele>
        <time>2017-07-14T08:31:26Z</time>
      </trkpt>
      <trkpt lat="45.93769" lon="4.76578">
        <ele>170</ele>
        <time>2017-07-14T08:31:27Z</time>
      </trkpt>
      <trkpt lat="45.93772" lon="4.76584">
        <ele>169</ele>
        <time>2017-07-14T08:31:28Z</time>
      </trkpt>
      <trkpt lat="45.93773" lon="4.76589">
        <ele>169</ele>
        <time>2017-07-14T08:31:29Z</time>
      </trkpt>
      <trkpt lat="45.93776" lon="4.76595">
        <ele>169</ele>
        <time>2017-07-14T08:31:30Z</time>
      </trkpt>
      <trkpt lat="45.9378" lon="4.76606">
        <ele>169</ele>
        <time>2017-07-14T08:31:32Z</time>
      </trkpt>
      <trkpt lat="45.93782" lon="4.76611">
        <ele>169</ele>
        <time>2017-07-14T08:31:33Z</time>
      </trkpt>
      <trkpt lat="45.93785" lon="4.76621">
        <ele>169</ele>
        <time>2017-07-14T08:31:35Z</time>
      </trkpt>
      <trkpt lat="45.93787" lon="4.76626">
        <ele>169</ele>
        <time>2017-07-14T08:31:36Z</time>
      </trkpt>
      <trkpt lat="45.93791" lon="4.76635">
        <ele>169</ele>
        <time>2017-07-14T08:31:38Z</time>
      </trkpt>
      <trkpt lat="45.93793" lon="4.76639">
        <ele>169</ele>
        <time>2017-07-14T08:31:39Z</time>
      </trkpt>
      <trkpt lat="45.93797" lon="4.76649">
        <ele>169</ele>
        <time>2017-07-14T08:31:41Z</time>
      </trkpt>
      <trkpt lat="45.938" lon="4.76654">
        <ele>169</ele>
        <time>2017-07-14T08:31:42Z</time>
      </trkpt>
      <trkpt lat="45.93805" lon="4.76665">
        <ele>170</ele>
        <time>2017-07-14T08:31:44Z</time>
      </trkpt>
      <trkpt lat="45.93807" lon="4.7667">
        <ele>169</ele>
        <time>2017-07-14T08:31:45Z</time>
      </trkpt>
      <trkpt lat="45.93812" lon="4.76679">
        <ele>170</ele>
        <time>2017-07-14T08:31:47Z</time>
      </trkpt>
      <trkpt lat="45.93814" lon="4.76684">
        <ele>170</ele>
        <time>2017-07-14T08:31:48Z</time>
      </trkpt>
      <trkpt lat="45.9382" lon="4.76693">
        <ele>170</ele>
        <time>2017-07-14T08:31:50Z</time>
      </trkpt>
      <trkpt lat="45.93822" lon="4.76698">
        <ele>170</ele>
        <time>2017-07-14T08:31:51Z</time>
      </trkpt>
      <trkpt lat="45.93827" lon="4.76707">
        <ele>170</ele>
        <time>2017-07-14T08:31:53Z</time>
      </trkpt>
      <trkpt lat="45.93829" lon="4.76712">
        <ele>170</ele>
        <time>2017-07-14T08:31:54Z</time>
      </trkpt>
      <trkpt lat="45.93835" lon="4.76721">
        <ele>172</ele>
        <time>2017-07-14T08:31:56Z</time>
      </trkpt>
      <trkpt lat="45.93838" lon="4.76725">
        <ele>172</ele>
        <time>2017-07-14T08:31:57Z</time>
      </trkpt>
      <trkpt lat="45.93842" lon="4.76734">
        <ele>173</ele>
        <time>2017-07-14T08:31:59Z</time>
      </trkpt>
      <trkpt lat="45.93845" lon="4.76738">
        <ele>173</ele>
        <time>2017-07-14T08:32:00Z</time>
      </trkpt>
      <trkpt lat="45.9385" lon="4.76746">
        <ele>173</ele>
        <time>2017-07-14T08:32:02Z</time>
      </trkpt>
      <trkpt lat="45.93853" lon="4.76751">
        <ele>172</ele>
        <time>2017-07-14T08:32:03Z</time>
      </trkpt>
      <trkpt lat="45.93859" lon="4.7676">
        <ele>172</ele>
        <time>2017-07-14T08:32:05Z</time>
      </trkpt>
      <trkpt lat="45.93861" lon="4.76765">
        <ele>171</ele>
        <time>2017-07-14T08:32:06Z</time>
      </trkpt>
      <trkpt lat="45.93866" lon="4.76773">
        <ele>171</ele>
        <time>2017-07-14T08:32:08Z</time>
      </trkpt>
      <trkpt lat="45.93868" lon="4.76777">
        <ele>171</ele>
        <time>2017-07-14T08:32:09Z</time>
      </trkpt>
      <trkpt lat="45.93875" lon="4.76786">
        <ele>171</ele>
        <time>2017-07-14T08:32:12Z</time>
      </trkpt>
      <trkpt lat="45.93876" lon="4.76789">
        <ele>171</ele>
        <time>2017-07-14T08:32:13Z</time>
      </trkpt>
      <trkpt lat="45.9388" lon="4.76796">
        <ele>171</ele>
        <time>2017-07-14T08:32:15Z</time>
      </trkpt>
      <trkpt lat="45.93882" lon="4.768">
        <ele>171</ele>
        <time>2017-07-14T08:32:16Z</time>
      </trkpt>
      <trkpt lat="45.93889" lon="4.76809">
        <ele>171</ele>
        <time>2017-07-14T08:32:18Z</time>
      </trkpt>
      <trkpt lat="45.93892" lon="4.76813">
        <ele>171</ele>
        <time>2017-07-14T08:32:19Z</time>
      </trkpt>
      <trkpt lat="45.93898" lon="4.76822">
        <ele>172</ele>
        <time>2017-07-14T08:32:21Z</time>
      </trkpt>
      <trkpt lat="45.93901" lon="4.76827">
        <ele>172</ele>
        <time>2017-07-14T08:32:22Z</time>
      </trkpt>
      <trkpt lat="45.93905" lon="4.76836">
        <ele>172</ele>
        <time>2017-07-14T08:32:24Z</time>
      </trkpt>
      <trkpt lat="45.93907" lon="4.7684">
        <ele>172</ele>
        <time>2017-07-14T08:32:25Z</time>
      </trkpt>
      <trkpt lat="45.93912" lon="4.76848">
        <ele>171</ele>
        <time>2017-07-14T08:32:27Z</time>
      </trkpt>
      <trkpt lat="45.93914" lon="4.76851">
        <ele>171</ele>
        <time>2017-07-14T08:32:28Z</time>
      </trkpt>
      <trkpt lat="45.93918" lon="4.7686">
        <ele>172</ele>
        <time>2017-07-14T08:32:30Z</time>
      </trkpt>
      <trkpt lat="45.93921" lon="4.76863">
        <ele>172</ele>
        <time>2017-07-14T08:32:31Z</time>
      </trkpt>
      <trkpt lat="45.93926" lon="4.76872">
        <ele>172</ele>
        <time>2017-07-14T08:32:33Z</time>
      </trkpt>
      <trkpt lat="45.93929" lon="4.76877">
        <ele>172</ele>
        <time>2017-07-14T08:32:34Z</time>
      </trkpt>
      <trkpt lat="45.93934" lon="4.76885">
        <ele>172</ele>
        <time>2017-07-14T08:32:36Z</time>
      </trkpt>
      <trkpt lat="45.93936" lon="4.76889">
        <ele>172</ele>
        <time>2017-07-14T08:32:37Z</time>
      </trkpt>
      <trkpt lat="45.93942" lon="4.76897">
        <ele>172</ele>
        <time>2017-07-14T08:32:40Z</time>
      </trkpt>
      <trkpt lat="45.93945" lon="4.769">
        <ele>172</ele>
        <time>2017-07-14T08:32:41Z</time>
      </trkpt>
      <trkpt lat="45.9395" lon="4.76908">
        <ele>172</ele>
        <time>2017-07-14T08:32:44Z</time>
      </trkpt>
      <trkpt lat="45.93951" lon="4.76911">
        <ele>172</ele>
        <time>2017-07-14T08:32:45Z</time>
      </trkpt>
      <trkpt lat="45.93957" lon="4.7692">
        <ele>171</ele>
        <time>2017-07-14T08:32:50Z</time>
      </trkpt>
      <trkpt lat="45.93959" lon="4.76922">
        <ele>171</ele>
        <time>2017-07-14T08:32:51Z</time>
      </trkpt>
      <trkpt lat="45.93964" lon="4.76931">
        <ele>171</ele>
        <time>2017-07-14T08:32:56Z</time>
      </trkpt>
      <trkpt lat="45.93965" lon="4.76933">
        <ele>171</ele>
        <time>2017-07-14T08:32:57Z</time>
      </trkpt>
      <trkpt lat="45.9397" lon="4.76934">
        <ele>171</ele>
        <time>2017-07-14T08:43:14Z</time>
      </trkpt>
      <trkpt lat="45.93966" lon="4.76923">
        <ele>171</ele>
        <time>2017-07-14T08:43:15Z</time>
      </trkpt>
      <trkpt lat="45.93965" lon="4.76923">
        <ele>171</ele>
        <time>2017-07-14T08:54:00Z</time>
      </trkpt>
      <trkpt lat="45.93969" lon="4.76929">
        <ele>171</ele>
        <time>2017-07-14T08:54:01Z</time>
      </trkpt>
      <trkpt lat="45.93966" lon="4.76941">
        <ele>171</ele>
        <time>2017-07-14T08:55:05Z</time>
      </trkpt>
      <trkpt lat="45.93965" lon="4.76942">
        <ele>171</ele>
        <time>2017-07-14T08:55:06Z</time>
      </trkpt>
      <trkpt lat="45.93965" lon="4.76955">
        <ele>170</ele>
        <time>2017-07-14T08:55:13Z</time>
      </trkpt>
      <trkpt lat="45.93966" lon="4.76957">
        <ele>170</ele>
        <time>2017-07-14T08:55:14Z</time>
      </trkpt>
      <trkpt lat="45.93972" lon="4.76965">
        <ele>170</ele>
        <time>2017-07-14T08:55:18Z</time>
      </trkpt>
      <trkpt lat="45.93973" lon="4.76967">
        <ele>170</ele>
        <time>2017-07-14T08:55:19Z</time>
      </trkpt>
      <trkpt lat="45.93969" lon="4.76977">
        <ele>170</ele>
        <time>2017-07-14T08:55:23Z</time>
      </trkpt>
      <trkpt lat="45.93968" lon="4.76979">
        <ele>170</ele>
        <time>2017-07-14T08:55:24Z</time>
      </trkpt>
      <trkpt lat="45.93965" lon="4.76989">
        <ele>170</ele>
        <time>2017-07-14T08:55:27Z</time>
      </trkpt>
      <trkpt lat="45.93965" lon="4.76993">
        <ele>170</ele>
        <time>2017-07-14T08:55:28Z</time>
      </trkpt>
      <trkpt lat="45.93965" lon="4.77002">
        <ele>169</ele>
        <time>2017-07-14T08:55:30Z</time>
      </trkpt>
      <trkpt lat="45.93966" lon="4.77007">
        <ele>169</ele>
        <time>2017-07-14T08:55:31Z</time>
      </trkpt>
      <trkpt lat="45.93967" lon="4.77016">
        <ele>169</ele>
        <time>2017-07-14T08:55:33Z</time>
      </trkpt>
      <trkpt lat="45.93968" lon="4.77021">
        <ele>169</ele>
        <time>2017-07-14T08:55:34Z</time>
      </trkpt>
      <trkpt lat="45.93971" lon="4.77031">
        <ele>169</ele>
        <time>2017-07-14T08:55:36Z</time>
      </trkpt>
      <trkpt lat="45.93973" lon="4.77037">
        <ele>169</ele>
        <time>2017-07-14T08:55:37Z</time>
      </trkpt>
      <trkpt lat="45.93976" lon="4.77046">
        <ele>169</ele>
        <time>2017-07-14T08:55:39Z</time>
      </trkpt>
      <trkpt lat="45.93977" lon="4.77051">
        <ele>169</ele>
        <time>2017-07-14T08:55:40Z</time>
      </trkpt>
      <trkpt lat="45.9398" lon="4.77059">
        <ele>170</ele>
        <time>2017-07-14T08:55:42Z</time>
      </trkpt>
      <trkpt lat="45.93981" lon="4.77064">
        <ele>170</ele>
        <time>2017-07-14T08:55:43Z</time>
      </trkpt>
      <trkpt lat="45.93983" lon="4.77073">
        <ele>170</ele>
        <time>2017-07-14T08:55:45Z</time>
      </trkpt>
      <trkpt lat="45.93984" lon="4.77077">
        <ele>170</ele>
        <time>2017-07-14T08:55:46Z</time>
      </trkpt>
      <trkpt lat="45.93986" lon="4.77086">
        <ele>171</ele>
        <time>2017-07-14T08:55:48Z</time>
      </trkpt>
      <trkpt lat="45.93987" lon="4.77089">
        <ele>171</ele>
        <time>2017-07-14T08:55:49Z</time>
      </trkpt>
      <trkpt lat="45.93989" lon="4.77098">
        <ele>170</ele>
        <time>2017-07-14T08:55:51Z</time>
      </trkpt>
      <trkpt lat="45.9399" lon="4.77103">
        <ele>170</ele>
        <time>2017-07-14T08:55:52Z</time>
      </trkpt>
      <trkpt lat="45.93993" lon="4.77113">
        <ele>170</ele>
        <time>2017-07-14T08:55:54Z</time>
      </trkpt>
      <trkpt lat="45.93994" lon="4.77118">
        <ele>170</ele>
        <time>2017-07-14T08:55:55Z</time>
      </trkpt>
      <trkpt lat="45.93996" lon="4.77129">
        <ele>170</ele>
        <time>2017-07-14T08:55:57Z</time>
      </trkpt>
      <trkpt lat="45.93997" lon="4.77134">
        <ele>170</ele>
        <time>2017-07-14T08:55:58Z</time>
      </trkpt>
      <trkpt lat="45.93998" lon="4.77143">
        <ele>170</ele>
        <time>2017-07-14T08:56:00Z</time>
      </trkpt>
      <trkpt lat="45.93999" lon="4.77147">
        <ele>171</ele>
        <time>2017-07-14T08:56:01Z</time>
      </trkpt>
      <trkpt lat="45.94001" lon="4.7716">
        <ele>173</ele>
        <time>2017-07-14T08:56:04Z</time>
      </trkpt>
      <trkpt lat="45.94001" lon="4.77164">
        <ele>172</ele>
        <time>2017-07-14T08:56:05Z</time>
      </trkpt>
      <trkpt lat="45.94003" lon="4.77176">
        <ele>173</ele>
        <time>2017-07-14T08:56:08Z</time>
      </trkpt>
      <trkpt lat="45.94003" lon="4.77181">
        <ele>173</ele>
        <time>2017-07-14T08:56:09Z</time>
      </trkpt>
      <trkpt lat="45.94003" lon="4.77192">
        <ele>174</ele>
        <time>2017-07-14T08:56:11Z</time>
      </trkpt>
      <trkpt lat="45.94003" lon="4.77197">
        <ele>174</ele>
        <time>2017-07-14T08:56:12Z</time>
      </trkpt>
      <trkpt lat="45.94003" lon="4.77207">
        <ele>174</ele>
        <time>2017-07-14T08:56:14Z</time>
      </trkpt>
      <trkpt lat="45.94003" lon="4.77212">
        <ele>174</ele>
        <time>2017-07-14T08:56:15Z</time>
      </trkpt>
      <trkpt lat="45.94003" lon="4.77225">
        <ele>173</ele>
        <time>2017-07-14T08:56:18Z</time>
      </trkpt>
      <trkpt lat="45.94003" lon="4.77229">
        <ele>173</ele>
        <time>2017-07-14T08:56:19Z</time>
      </trkpt>
      <trkpt lat="45.94011" lon="4.77231">
        <ele>173</ele>
        <time>2017-07-14T08:56:23Z</time>
      </trkpt>
      <trkpt lat="45.94012" lon="4.77227">
        <ele>173</ele>
        <time>2017-07-14T08:56:24Z</time>
      </trkpt>
      <trkpt lat="45.94014" lon="4.77216">
        <ele>174</ele>
        <time>2017-07-14T08:56:27Z</time>
      </trkpt>
      <trkpt lat="45.94014" lon="4.77214">
        <ele>174</ele>
        <time>2017-07-14T08:56:28Z</time>
      </trkpt>
      <trkpt lat="45.94023" lon="4.77218">
        <ele>174</ele>
        <time>2017-07-14T08:56:35Z</time>
      </trkpt>
      <trkpt lat="45.94022" lon="4.77221">
        <ele>174</ele>
        <time>2017-07-14T08:56:36Z</time>
      </trkpt>
      <trkpt lat="45.94021" lon="4.77231">
        <ele>174</ele>
        <time>2017-07-14T08:56:40Z</time>
      </trkpt>
      <trkpt lat="45.9402" lon="4.77234">
        <ele>174</ele>
        <time>2017-07-14T08:56:41Z</time>
      </trkpt>
      <trkpt lat="45.94019" lon="4.77244">
        <ele>173</ele>
        <time>2017-07-14T08:56:44Z</time>
      </trkpt>
      <trkpt lat="45.94018" lon="4.77247">
        <ele>173</ele>
        <time>2017-07-14T08:56:45Z</time>
      </trkpt>
      <trkpt lat="45.9401" lon="4.7725">
        <ele>172</ele>
        <time>2017-07-14T08:56:49Z</time>
      </trkpt>
      <trkpt lat="45.94008" lon="4.77249">
        <ele>172</ele>
        <time>2017-07-14T08:56:50Z</time>
      </trkpt>
      <trkpt lat="45.94" lon="4.77246">
        <ele>170</ele>
        <time>2017-07-14T08:56:55Z</time>
      </trkpt>
      <trkpt lat="45.93998" lon="4.77247">
        <ele>170</ele>
        <time>2017-07-14T08:56:56Z</time>
      </trkpt>
      <trkpt lat="45.9399" lon="4.77247">
        <ele>169</ele>
        <time>2017-07-14T08:57:00Z</time>
      </trkpt>
      <trkpt lat="45.93987" lon="4.77246">
        <ele>169</ele>
        <time>2017-07-14T08:57:01Z</time>
      </trkpt>
      <trkpt lat="45.93979" lon="4.77245">
        <ele>169</ele>
        <time>2017-07-14T08:57:04Z</time>
      </trkpt>
      <trkpt lat="45.93975" lon="4.77244">
        <ele>169</ele>
        <time>2017-07-14T08:57:05Z</time>
      </trkpt>
      <trkpt lat="45.93968" lon="4.77243">
        <ele>169</ele>
        <time>2017-07-14T08:57:08Z</time>
      </trkpt>
      <trkpt lat="45.93966" lon="4.77242">
        <ele>169</ele>
        <time>2017-07-14T08:57:09Z</time>
      </trkpt>
      <trkpt lat="45.93957" lon="4.7724">
        <ele>168</ele>
        <time>2017-07-14T08:57:12Z</time>
      </trkpt>
      <trkpt lat="45.93954" lon="4.7724">
        <ele>168</ele>
        <time>2017-07-14T08:57:13Z</time>
      </trkpt>
      <trkpt lat="45.93948" lon="4.77238">
        <ele>168</ele>
        <time>2017-07-14T08:57:15Z</time>
      </trkpt>
      <trkpt lat="45.93945" lon="4.77237">
        <ele>168</ele>
        <time>2017-07-14T08:57:16Z</time>
      </trkpt>
      <trkpt lat="45.93938" lon="4.77235">
        <ele>168</ele>
        <time>2017-07-14T08:57:18Z</time>
      </trkpt>
      <trkpt lat="45.93934" lon="4.77235">
        <ele>167</ele>
        <time>2017-07-14T08:57:19Z</time>
      </trkpt>
      <trkpt lat="45.93927" lon="4.77233">
        <ele>167</ele>
        <time>2017-07-14T08:57:21Z</time>
      </trkpt>
      <trkpt lat="45.93923" lon="4.77232">
        <ele>167</ele>
        <time>2017-07-14T08:57:22Z</time>
      </trkpt>
      <trkpt lat="45.93915" lon="4.77231">
        <ele>167</ele>
        <time>2017-07-14T08:57:24Z</time>
      </trkpt>
      <trkpt lat="45.93911" lon="4.7723">
        <ele>167</ele>
        <time>2017-07-14T08:57:25Z</time>
      </trkpt>
      <trkpt lat="45.93903" lon="4.77228">
        <ele>167</ele>
        <time>2017-07-14T08:57:27Z</time>
      </trkpt>
      <trkpt lat="45.93899" lon="4.77227">
        <ele>167</ele>
        <time>2017-07-14T08:57:28Z</time>
      </trkpt>
      <trkpt lat="45.9389" lon="4.77224">
        <ele>167</ele>
        <time>2017-07-14T08:57:30Z</time>
      </trkpt>
      <trkpt lat="45.93885" lon="4.77223">
        <ele>167</ele>
        <time>2017-07-14T08:57:31Z</time>
      </trkpt>
      <trkpt lat="45.9388" lon="4.77222">
        <ele>168</ele>
        <time>2017-07-14T08:57:32Z</time>
      </trkpt>
      <trkpt lat="45.93875" lon="4.77221">
        <ele>168</ele>
        <time>2017-07-14T08:57:33Z</time>
      </trkpt>
      <trkpt lat="45.9387" lon="4.7722">
        <ele>168</ele>
        <time>2017-07-14T08:57:34Z</time>
      </trkpt>
      <trkpt lat="45.93865" lon="4.77218">
        <ele>168</ele>
        <time>2017-07-14T08:57:35Z</time>
      </trkpt>
      <trkpt lat="45.9386" lon="4.77217">
        <ele>168</ele>
        <time>2017-07-14T08:57:36Z</time>
      </trkpt>
      <trkpt lat="45.93855" lon="4.77216">
        <ele>168</ele>
        <time>2017-07-14T08:57:37Z</time>
      </trkpt>
      <trkpt lat="45.93847" lon="4.77215">
        <ele>168</ele>
        <time>2017-07-14T08:57:39Z</time>
      </trkpt>
      <trkpt lat="45.93844" lon="4.77214">
        <ele>168</ele>
        <time>2017-07-14T08:57:40Z</time>
      </trkpt>
      <trkpt lat="45.93837" lon="4.7721">
        <ele>168</ele>
        <time>2017-07-14T08:57:43Z</time>
      </trkpt>
      <trkpt lat="45.93834" lon="4.7721">
        <ele>168</ele>
        <time>2017-07-14T08:57:44Z</time>
      </trkpt>
      <trkpt lat="45.93826" lon="4.77208">
        <ele>170</ele>
        <time>2017-07-14T08:57:46Z</time>
      </trkpt>
      <trkpt lat="45.93821" lon="4.77207">
        <ele>170</ele>
        <time>2017-07-14T08:57:47Z</time>
      </trkpt>
      <trkpt lat="45.93814" lon="4.77203">
        <ele>170</ele>
        <time>2017-07-14T08:57:49Z</time>
      </trkpt>
      <trkpt lat="45.93812" lon="4.772">
        <ele>169</ele>
        <time>2017-07-14T08:57:50Z</time>
      </trkpt>
      <trkpt lat="45.9381" lon="4.7719">
        <ele>169</ele>
        <time>2017-07-14T08:57:52Z</time>
      </trkpt>
      <trkpt lat="45.93811" lon="4.77185">
        <ele>169</ele>
        <time>2017-07-14T08:57:53Z</time>
      </trkpt>
      <trkpt lat="45.93812" lon="4.77175">
        <ele>169</ele>
        <time>2017-07-14T08:57:55Z</time>
      </trkpt>
      <trkpt lat="45.93813" lon="4.77168">
        <ele>168</ele>
        <time>2017-07-14T08:57:56Z</time>
      </trkpt>
      <trkpt lat="45.93812" lon="4.77156">
        <ele>168</ele>
        <time>2017-07-14T08:57:58Z</time>
      </trkpt>
      <trkpt lat="45.93811" lon="4.7715">
        <ele>168</ele>
        <time>2017-07-14T08:57:59Z</time>
      </trkpt>
      <trkpt lat="45.9381" lon="4.77139">
        <ele>168</ele>
        <time>2017-07-14T08:58:01Z</time>
      </trkpt>
      <trkpt lat="45.93808" lon="4.77133">
        <ele>168</ele>
        <time>2017-07-14T08:58:02Z</time>
      </trkpt>
      <trkpt lat="45.93805" lon="4.77123">
        <ele>169</ele>
        <time>2017-07-14T08:58:04Z</time>
      </trkpt>
      <trkpt lat="45.93805" lon="4.77118">
        <ele>169</ele>
        <time>2017-07-14T08:58:05Z</time>
      </trkpt>
      <trkpt lat="45.93804" lon="4.77106">
        <ele>168</ele>
        <time>2017-07-14T08:58:07Z</time>
      </trkpt>
      <trkpt lat="45.93804" lon="4.77098">
        <ele>168</ele>
        <time>2017-07-14T08:58:08Z</time>
      </trkpt>
      <trkpt lat="45.93803" lon="4.77091">
        <ele>168</ele>
        <time>2017-07-14T08:58:09Z</time>
      </trkpt>
      <trkpt lat="45.93802" lon="4.77083">
        <ele>168</ele>
        <time>2017-07-14T08:58:10Z</time>
      </trkpt>
      <trkpt lat="45.938" lon="4.77076">
        <ele>168</ele>
        <time>2017-07-14T08:58:11Z</time>
      </trkpt>
      <trkpt lat="45.93797" lon="4.77069">
        <ele>168</ele>
        <time>2017-07-14T08:58:12Z</time>
      </trkpt>
      <trkpt lat="45.93795" lon="4.77062">
        <ele>168</ele>
        <time>2017-07-14T08:58:13Z</time>
      </trkpt>
      <trkpt lat="45.93792" lon="4.77056">
        <ele>168</ele>
        <time>2017-07-14T08:58:14Z</time>
      </trkpt>
      <trkpt lat="45.93789" lon="4.77049">
        <ele>168</ele>
        <time>2017-07-14T08:58:15Z</time>
      </trkpt>
      <trkpt lat="45.93787" lon="4.77042">
        <ele>168</ele>
        <time>2017-07-14T08:58:16Z</time>
      </trkpt>
      <trkpt lat="45.93785" lon="4.77036">
        <ele>168</ele>
        <time>2017-07-14T08:58:17Z</time>
      </trkpt>
      <trkpt lat="45.93784" lon="4.77029">
        <ele>168</ele>
        <time>2017-07-14T08:58:18Z</time>
      </trkpt>
      <trkpt lat="45.93783" lon="4.77022">
        <ele>168</ele>
        <time>2017-07-14T08:58:19Z</time>
      </trkpt>
      <trkpt lat="45.93781" lon="4.77016">
        <ele>168</ele>
        <time>2017-07-14T08:58:20Z</time>
      </trkpt>
      <trkpt lat="45.93776" lon="4.77006">
        <ele>168</ele>
        <time>2017-07-14T08:58:22Z</time>
      </trkpt>
      <trkpt lat="45.93773" lon="4.77002">
        <ele>168</ele>
        <time>2017-07-14T08:58:23Z</time>
      </trkpt>
      <trkpt lat="45.9377" lon="4.76994">
        <ele>168</ele>
        <time>2017-07-14T08:58:25Z</time>
      </trkpt>
      <trkpt lat="45.93769" lon="4.76989">
        <ele>168</ele>
        <time>2017-07-14T08:58:26Z</time>
      </trkpt>
      <trkpt lat="45.93765" lon="4.76981">
        <ele>168</ele>
        <time>2017-07-14T08:58:28Z</time>
      </trkpt>
      <trkpt lat="45.93763" lon="4.76976">
        <ele>168</ele>
        <time>2017-07-14T08:58:29Z</time>
      </trkpt>
      <trkpt lat="45.93759" lon="4.76967">
        <ele>168</ele>
        <time>2017-07-14T08:58:31Z</time>
      </trkpt>
      <trkpt lat="45.93757" lon="4.76963">
        <ele>168</ele>
        <time>2017-07-14T08:58:32Z</time>
      </trkpt>
      <trkpt lat="45.93754" lon="4.76955">
        <ele>168</ele>
        <time>2017-07-14T08:58:34Z</time>
      </trkpt>
      <trkpt lat="45.93752" lon="4.76952">
        <ele>168</ele>
        <time>2017-07-14T08:58:35Z</time>
      </trkpt>
      <trkpt lat="45.93748" lon="4.76942">
        <ele>169</ele>
        <time>2017-07-14T08:58:38Z</time>
      </trkpt>
      <trkpt lat="45.93745" lon="4.7694">
        <ele>169</ele>
        <time>2017-07-14T08:58:39Z</time>
      </trkpt>
      <trkpt lat="45.9374" lon="4.76931">
        <ele>169</ele>
        <time>2017-07-14T08:58:43Z</time>
      </trkpt>
      <trkpt lat="45.93739" lon="4.76929">
        <ele>169</ele>
        <time>2017-07-14T08:58:44Z</time>
      </trkpt>
      <trkpt lat="45.93735" lon="4.7692">
        <ele>169</ele>
        <time>2017-07-14T08:58:47Z</time>
      </trkpt>
      <trkpt lat="45.93733" lon="4.76916">
        <ele>168</ele>
        <time>2017-07-14T08:58:48Z</time>
      </trkpt>
      <trkpt lat="45.93729" lon="4.76907">
        <ele>168</ele>
        <time>2017-07-14T08:58:51Z</time>
      </trkpt>
      <trkpt lat="45.93728" lon="4.76905">
        <ele>168</ele>
        <time>2017-07-14T08:58:52Z</time>
      </trkpt>
      <trkpt lat="45.93723" lon="4.76894">
        <ele>168</ele>
        <time>2017-07-14T08:58:55Z</time>
      </trkpt>
      <trkpt lat="45.93721" lon="4.7689">
        <ele>168</ele>
        <time>2017-07-14T08:58:56Z</time>
      </trkpt>
      <trkpt lat="45.93717" lon="4.76881">
        <ele>167</ele>
        <time>2017-07-14T08:58:58Z</time>
      </trkpt>
      <trkpt lat="45.93715" lon="4.76877">
        <ele>167</ele>
        <time>2017-07-14T08:58:59Z</time>
      </trkpt>
      <trkpt lat="45.93711" lon="4.76868">
        <ele>167</ele>
        <time>2017-07-14T08:59:01Z</time>
      </trkpt>
      <trkpt lat="45.93709" lon="4.76864">
        <ele>167</ele>
        <time>2017-07-14T08:59:02Z</time>
      </trkpt>
      <trkpt lat="45.93704" lon="4.76855">
        <ele>167</ele>
        <time>2017-07-14T08:59:04Z</time>
      </trkpt>
      <trkpt lat="45.93702" lon="4.7685">
        <ele>167</ele>
        <time>2017-07-14T08:59:05Z</time>
      </trkpt>
      <trkpt lat="45.93696" lon="4.76841">
        <ele>167</ele>
        <time>2017-07-14T08:59:07Z</time>
      </trkpt>
      <trkpt lat="45.93694" lon="4.76837">
        <ele>167</ele>
        <time>2017-07-14T08:59:08Z</time>
      </trkpt>
      <trkpt lat="45.93688" lon="4.76828">
        <ele>166</ele>
        <time>2017-07-14T08:59:10Z</time>
      </trkpt>
      <trkpt lat="45.93685" lon="4.76824">
        <ele>166</ele>
        <time>2017-07-14T08:59:11Z</time>
      </trkpt>
      <trkpt lat="45.9368" lon="4.76817">
        <ele>166</ele>
        <time>2017-07-14T08:59:13Z</time>
      </trkpt>
      <trkpt lat="45.93677" lon="4.76813">
        <ele>166</ele>
        <time>2017-07-14T08:59:14Z</time>
      </trkpt>
      <trkpt lat="45.93671" lon="4.76804">
        <ele>166</ele>
        <time>2017-07-14T08:59:16Z</time>
      </trkpt>
      <trkpt lat="45.93669" lon="4.76799">
        <ele>166</ele>
        <time>2017-07-14T08:59:17Z</time>
      </trkpt>
      <trkpt lat="45.93664" lon="4.76789">
        <ele>167</ele>
        <time>2017-07-14T08:59:19Z</time>
      </trkpt>
      <trkpt lat="45.93661" lon="4.76784">
        <ele>167</ele>
        <time>2017-07-14T08:59:20Z</time>
      </trkpt>
      <trkpt lat="45.93659" lon="4.76779">
        <ele>167</ele>
        <time>2017-07-14T08:59:21Z</time>
      </trkpt>
      <trkpt lat="45.93655" lon="4.76774">
        <ele>167</ele>
        <time>2017-07-14T08:59:22Z</time>
      </trkpt>
      <trkpt lat="45.93652" lon="4.76768">
        <ele>167</ele>
        <time>2017-07-14T08:59:23Z</time>
      </trkpt>
      <trkpt lat="45.93649" lon="4.76763">
        <ele>167</ele>
        <time>2017-07-14T08:59:24Z</time>
      </trkpt>
      <trkpt lat="45.93645" lon="4.76758">
        <ele>167</ele>
        <time>2017-07-14T08:59:25Z</time>
      </trkpt>
      <trkpt lat="45.93642" lon="4.76753">
        <ele>167</ele>
        <time>2017-07-14T08:59:26Z</time>
      </trkpt>
      <trkpt lat="45.93639" lon="4.76748">
        <ele>168</ele>
        <time>2017-07-14T08:59:27Z</time>
      </trkpt>
      <trkpt lat="45.93636" lon="4.76744">
        <ele>168</ele>
        <time>2017-07-14T08:59:28Z</time>
      </trkpt>
      <trkpt lat="45.9363" lon="4.76735">
        <ele>168</ele>
        <time>2017-07-14T08:59:30Z</time>
      </trkpt>
      <trkpt lat="45.93627" lon="4.7673">
        <ele>168</ele>
        <time>2017-07-14T08:59:31Z</time>
      </trkpt>
      <trkpt lat="45.93621" lon="4.76721">
        <ele>169</ele>
        <time>2017-07-14T08:59:33Z</time>
      </trkpt>
      <trkpt lat="45.93618" lon="4.76717">
        <ele>169</ele>
        <time>2017-07-14T08:59:34Z</time>
      </trkpt>
      <trkpt lat="45.93613" lon="4.76709">
        <ele>169</ele>
        <time>2017-07-14T08:59:36Z</time>
      </trkpt>
      <trkpt lat="45.93611" lon="4.76704">
        <ele>169</ele>
        <time>2017-07-14T08:59:37Z</time>
      </trkpt>
      <trkpt lat="45.93608" lon="4.76699">
        <ele>169</ele>
        <time>2017-07-14T08:59:38Z</time>
      </trkpt>
      <trkpt lat="45.93605" lon="4.76694">
        <ele>169</ele>
        <time>2017-07-14T08:59:39Z</time>
      </trkpt>
      <trkpt lat="45.93601" lon="4.76689">
        <ele>169</ele>
        <time>2017-07-14T08:59:40Z</time>
      </trkpt>
      <trkpt lat="45.93596" lon="4.76684">
        <ele>170</ele>
        <time>2017-07-14T08:59:41Z</time>
      </trkpt>
      <trkpt lat="45.93593" lon="4.76678">
        <ele>170</ele>
        <time>2017-07-14T08:59:42Z</time>
      </trkpt>
      <trkpt lat="45.9359" lon="4.76673">
        <ele>170</ele>
        <time>2017-07-14T08:59:43Z</time>
      </trkpt>
      <trkpt lat="45.93584" lon="4.76664">
        <ele>171</ele>
        <time>2017-07-14T08:59:45Z</time>
      </trkpt>
      <trkpt lat="45.93582" lon="4.76659">
        <ele>171</ele>
        <time>2017-07-14T08:59:46Z</time>
      </trkpt>
      <trkpt lat="45.93578" lon="4.7665">
        <ele>170</ele>
        <time>2017-07-14T08:59:48Z</time>
      </trkpt>
      <trkpt lat="45.93574" lon="4.76644">
        <ele>170</ele>
        <time>2017-07-14T08:59:49Z</time>
      </trkpt>
      <trkpt lat="45.9357" lon="4.76639">
        <ele>170</ele>
        <time>2017-07-14T08:59:50Z</time>
      </trkpt>
      <trkpt lat="45.93567" lon="4.76634">
        <ele>170</ele>
        <time>2017-07-14T08:59:51Z</time>
      </trkpt>
      <trkpt lat="45.93563" lon="4.7663">
        <ele>169</ele>
        <time>2017-07-14T08:59:52Z</time>
      </trkpt>
      <trkpt lat="45.9356" lon="4.76625">
        <ele>169</ele>
        <time>2017-07-14T08:59:53Z</time>
      </trkpt>
      <trkpt lat="45.93556" lon="4.7662">
        <ele>169</ele>
        <time>2017-07-14T08:59:54Z</time>
      </trkpt>
      <trkpt lat="45.93553" lon="4.76615">
        <ele>169</ele>
        <time>2017-07-14T08:59:55Z</time>
      </trkpt>
      <trkpt lat="45.93549" lon="4.76609">
        <ele>169</ele>
        <time>2017-07-14T08:59:56Z</time>
      </trkpt>
      <trkpt lat="45.93546" lon="4.76604">
        <ele>169</ele>
        <time>2017-07-14T08:59:57Z</time>
      </trkpt>
      <trkpt lat="45.93543" lon="4.766">
        <ele>169</ele>
        <time>2017-07-14T08:59:58Z</time>
      </trkpt>
      <trkpt lat="45.93539" lon="4.76595">
        <ele>169</ele>
        <time>2017-07-14T08:59:59Z</time>
      </trkpt>
      <trkpt lat="45.93533" lon="4.76587">
        <ele>169</ele>
        <time>2017-07-14T09:00:01Z</time>
      </trkpt>
      <trkpt lat="45.9353" lon="4.76583">
        <ele>168</ele>
        <time>2017-07-14T09:00:02Z</time>
      </trkpt>
      <trkpt lat="45.93523" lon="4.76578">
        <ele>168</ele>
        <time>2017-07-14T09:00:04Z</time>
      </trkpt>
      <trkpt lat="45.93521" lon="4.76575">
        <ele>168</ele>
        <time>2017-07-14T09:00:05Z</time>
      </trkpt>
      <trkpt lat="45.93515" lon="4.76567">
        <ele>168</ele>
        <time>2017-07-14T09:00:07Z</time>
      </trkpt>
      <trkpt lat="45.93512" lon="4.76562">
        <ele>168</ele>
        <time>2017-07-14T09:00:08Z</time>
      </trkpt>
      <trkpt lat="45.93508" lon="4.76558">
        <ele>168</ele>
        <time>2017-07-14T09:00:09Z</time>
      </trkpt>
      <trkpt lat="45.93504" lon="4.76553">
        <ele>168</ele>
        <time>2017-07-14T09:00:10Z</time>
      </trkpt>
      <trkpt lat="45.935" lon="4.76548">
        <ele>168</ele>
        <time>2017-07-14T09:00:11Z</time>
      </trkpt>
      <trkpt lat="45.93496" lon="4.76543">
        <ele>168</ele>
        <time>2017-07-14T09:00:12Z</time>
      </trkpt>
      <trkpt lat="45.93491" lon="4.7654">
        <ele>168</ele>
        <time>2017-07-14T09:00:13Z</time>
      </trkpt>
      <trkpt lat="45.93488" lon="4.76536">
        <ele>168</ele>
        <time>2017-07-14T09:00:14Z</time>
      </trkpt>
      <trkpt lat="45.93482" lon="4.76528">
        <ele>168</ele>
        <time>2017-07-14T09:00:16Z</time>
      </trkpt>
      <trkpt lat="45.9348" lon="4.76524">
        <ele>168</ele>
        <time>2017-07-14T09:00:17Z</time>
      </trkpt>
      <trkpt lat="45.93474" lon="4.76519">
        <ele>168</ele>
        <time>2017-07-14T09:00:19Z</time>
      </trkpt>
      <trkpt lat="45.93472" lon="4.76517">
        <ele>168</ele>
        <time>2017-07-14T09:00:20Z</time>
      </trkpt>
      <trkpt lat="45.93467" lon="4.76511">
        <ele>168</ele>
        <time>2017-07-14T09:00:22Z</time>
      </trkpt>
      <trkpt lat="45.93465" lon="4.76507">
        <ele>168</ele>
        <time>2017-07-14T09:00:23Z</time>
      </trkpt>
      <trkpt lat="45.93459" lon="4.765">
        <ele>167</ele>
        <time>2017-07-14T09:00:25Z</time>
      </trkpt>
      <trkpt lat="45.93457" lon="4.76495">
        <ele>167</ele>
        <time>2017-07-14T09:00:26Z</time>
      </trkpt>
      <trkpt lat="45.93454" lon="4.7649">
        <ele>167</ele>
        <time>2017-07-14T09:00:27Z</time>
      </trkpt>
      <trkpt lat="45.93451" lon="4.76485">
        <ele>167</ele>
        <time>2017-07-14T09:00:28Z</time>
      </trkpt>
      <trkpt lat="45.93448" lon="4.7648">
        <ele>167</ele>
        <time>2017-07-14T09:00:29Z</time>
      </trkpt>
      <trkpt lat="45.93445" lon="4.76475">
        <ele>167</ele>
        <time>2017-07-14T09:00:30Z</time>
      </trkpt>
      <trkpt lat="45.93442" lon="4.7647">
        <ele>167</ele>
        <time>2017-07-14T09:00:31Z</time>
      </trkpt>
      <trkpt lat="45.93438" lon="4.76465">
        <ele>167</ele>
        <time>2017-07-14T09:00:32Z</time>
      </trkpt>
      <trkpt lat="45.93432" lon="4.76456">
        <ele>167</ele>
        <time>2017-07-14T09:00:34Z</time>
      </trkpt>
      <trkpt lat="45.93429" lon="4.76452">
        <ele>167</ele>
        <time>2017-07-14T09:00:35Z</time>
      </trkpt>
      <trkpt lat="45.93423" lon="4.76444">
        <ele>167</ele>
        <time>2017-07-14T09:00:37Z</time>
      </trkpt>
      <trkpt lat="45.93421" lon="4.7644">
        <ele>167</ele>
        <time>2017-07-14T09:00:38Z</time>
      </trkpt>
      <trkpt lat="45.93414" lon="4.76432">
        <ele>167</ele>
        <time>2017-07-14T09:00:40Z</time>
      </trkpt>
      <trkpt lat="45.93411" lon="4.76427">
        <ele>167</ele>
        <time>2017-07-14T09:00:41Z</time>
      </trkpt>
      <trkpt lat="45.93407" lon="4.76423">
        <ele>167</ele>
        <time>2017-07-14T09:00:42Z</time>
      </trkpt>
      <trkpt lat="45.93404" lon="4.76418">
        <ele>167</ele>
        <time>2017-07-14T09:00:43Z</time>
      </trkpt>
      <trkpt lat="45.934" lon="4.76412">
        <ele>167</ele>
        <time>2017-07-14T09:00:44Z</time>
      </trkpt>
      <trkpt lat="45.93396" lon="4.76407">
        <ele>167</ele>
        <time>2017-07-14T09:00:45Z</time>
      </trkpt>
      <trkpt lat="45.93391" lon="4.76402">
        <ele>167</ele>
        <time>2017-07-14T09:00:46Z</time>
      </trkpt>
      <trkpt lat="45.93387" lon="4.76398">
        <ele>167</ele>
        <time>2017-07-14T09:00:47Z</time>
      </trkpt>
      <trkpt lat="45.93381" lon="4.76389">
        <ele>168</ele>
        <time>2017-07-14T09:00:49Z</time>
      </trkpt>
      <trkpt lat="45.93377" lon="4.76385">
        <ele>168</ele>
        <time>2017-07-14T09:00:50Z</time>
      </trkpt>
      <trkpt lat="45.93371" lon="4.76376">
        <ele>168</ele>
        <time>2017-07-14T09:00:52Z</time>
      </trkpt>
      <trkpt lat="45.93368" lon="4.76371">
        <ele>168</ele>
        <time>2017-07-14T09:00:53Z</time>
      </trkpt>
      <trkpt lat="45.93363" lon="4.76361">
        <ele>168</ele>
        <time>2017-07-14T09:00:55Z</time>
      </trkpt>
      <trkpt lat="45.9336" lon="4.76356">
        <ele>168</ele>
        <time>2017-07-14T09:00:56Z</time>
      </trkpt>
      <trkpt lat="45.93355" lon="4.76345">
        <ele>168</ele>
        <time>2017-07-14T09:00:58Z</time>
      </trkpt>
      <trkpt lat="45.93352" lon="4.7634">
        <ele>168</ele>
        <time>2017-07-14T09:00:59Z</time>
      </trkpt>
      <trkpt lat="45.93346" lon="4.7633">
        <ele>169</ele>
        <time>2017-07-14T09:01:01Z</time>
      </trkpt>
      <trkpt lat="45.93343" lon="4.76325">
        <ele>169</ele>
        <time>2017-07-14T09:01:02Z</time>
      </trkpt>
      <trkpt lat="45.93338" lon="4.76318">
        <ele>169</ele>
        <time>2017-07-14T09:01:04Z</time>
      </trkpt>
      <trkpt lat="45.93335" lon="4.76316">
        <ele>169</ele>
        <time>2017-07-14T09:01:05Z</time>
      </trkpt>
      <trkpt lat="45.93329" lon="4.7631">
        <ele>168</ele>
        <time>2017-07-14T09:01:07Z</time>
      </trkpt>
      <trkpt lat="45.93325" lon="4.76308">
        <ele>168</ele>
        <time>2017-07-14T09:01:08Z</time>
      </trkpt>
      <trkpt lat="45.93319" lon="4.76303">
        <ele>168</ele>
        <time>2017-07-14T09:01:10Z</time>
      </trkpt>
      <trkpt lat="45.93316" lon="4.76302">
        <ele>168</ele>
        <time>2017-07-14T09:01:11Z</time>
      </trkpt>
      <trkpt lat="45.93311" lon="4.763">
        <ele>168</ele>
        <time>2017-07-14T09:01:12Z</time>
      </trkpt>
      <trkpt lat="45.93306" lon="4.76299">
        <ele>168</ele>
        <time>2017-07-14T09:01:13Z</time>
      </trkpt>
      <trkpt lat="45.933" lon="4.76297">
        <ele>168</ele>
        <time>2017-07-14T09:01:14Z</time>
      </trkpt>
      <trkpt lat="45.93296" lon="4.76295">
        <ele>168</ele>
        <time>2017-07-14T09:01:15Z</time>
      </trkpt>
      <trkpt lat="45.93288" lon="4.76292">
        <ele>168</ele>
        <time>2017-07-14T09:01:17Z</time>
      </trkpt>
      <trkpt lat="45.93284" lon="4.7629">
        <ele>168</ele>
        <time>2017-07-14T09:01:18Z</time>
      </trkpt>
      <trkpt lat="45.93276" lon="4.76288">
        <ele>168</ele>
        <time>2017-07-14T09:01:21Z</time>
      </trkpt>
      <trkpt lat="45.93273" lon="4.76288">
        <ele>168</ele>
        <time>2017-07-14T09:01:22Z</time>
      </trkpt>
      <trkpt lat="45.93268" lon="4.76289">
        <ele>168</ele>
        <time>2017-07-14T09:01:23Z</time>
      </trkpt>
      <trkpt lat="45.93264" lon="4.76288">
        <ele>169</ele>
        <time>2017-07-14T09:01:24Z</time>
      </trkpt>
      <trkpt lat="45.93255" lon="4.76287">
        <ele>169</ele>
        <time>2017-07-14T09:01:26Z</time>
      </trkpt>
      <trkpt lat="45.93249" lon="4.76288">
        <ele>169</ele>
        <time>2017-07-14T09:01:27Z</time>
      </trkpt>
      <trkpt lat="45.93242" lon="4.76293">
        <ele>169</ele>
        <time>2017-07-14T09:01:30Z</time>
      </trkpt>
      <trkpt lat="45.9324" lon="4.76297">
        <ele>169</ele>
        <time>2017-07-14T09:01:31Z</time>
      </trkpt>
      <trkpt lat="45.93236" lon="4.76305">
        <ele>169</ele>
        <time>2017-07-14T09:01:33Z</time>
      </trkpt>
      <trkpt lat="45.93235" lon="4.76309">
        <ele>169</ele>
        <time>2017-07-14T09:01:34Z</time>
      </trkpt>
      <trkpt lat="45.93232" lon="4.7632">
        <ele>169</ele>
        <time>2017-07-14T09:01:38Z</time>
      </trkpt>
      <trkpt lat="45.93232" lon="4.76322">
        <ele>168</ele>
        <time>2017-07-14T09:01:39Z</time>
      </trkpt>
      <trkpt lat="45.93231" lon="4.76334">
        <ele>168</ele>
        <time>2017-07-14T09:01:44Z</time>
      </trkpt>
      <trkpt lat="45.9323" lon="4.76339">
        <ele>168</ele>
        <time>2017-07-14T09:01:45Z</time>
      </trkpt>
      <trkpt lat="45.93229" lon="4.76349">
        <ele>168</ele>
        <time>2017-07-14T09:01:47Z</time>
      </trkpt>
      <trkpt lat="45.93228" lon="4.76355">
        <ele>168</ele>
        <time>2017-07-14T09:01:48Z</time>
      </trkpt>
      <trkpt lat="45.93228" lon="4.76362">
        <ele>168</ele>
        <time>2017-07-14T09:01:49Z</time>
      </trkpt>
      <trkpt lat="45.93227" lon="4.76368">
        <ele>168</ele>
        <time>2017-07-14T09:01:50Z</time>
      </trkpt>
      <trkpt lat="45.93227" lon="4.76375">
        <ele>168</ele>
        <time>2017-07-14T09:01:51Z</time>
      </trkpt>
      <trkpt lat="45.93227" lon="4.76382">
        <ele>168</ele>
        <time>2017-07-14T09:01:52Z</time>
      </trkpt>
      <trkpt lat="45.93226" lon="4.7639">
        <ele>168</ele>
        <time>2017-07-14T09:01:53Z</time>
      </trkpt>
      <trkpt lat="45.93226" lon="4.76396">
        <ele>168</ele>
        <time>2017-07-14T09:01:54Z</time>
      </trkpt>
      <trkpt lat="45.93225" lon="4.76409">
        <ele>168</ele>
        <time>2017-07-14T09:01:56Z</time>
      </trkpt>
      <trkpt lat="45.93225" lon="4.76414">
        <ele>168</ele>
        <time>2017-07-14T09:01:57Z</time>
      </trkpt>
      <trkpt lat="45.93224" lon="4.76426">
        <ele>168</ele>
        <time>2017-07-14T09:01:59Z</time>
      </trkpt>
      <trkpt lat="45.93223" lon="4.76433">
        <ele>168</ele>
        <time>2017-07-14T09:02:00Z</time>
      </trkpt>
      <trkpt lat="45.93222" lon="4.7644">
        <ele>168</ele>
        <time>2017-07-14T09:02:01Z</time>
      </trkpt>
      <trkpt lat="45.93222" lon="4.76447">
        <ele>168</ele>
        <time>2017-07-14T09:02:02Z</time>
      </trkpt>
      <trkpt lat="45.93221" lon="4.76454">
        <ele>168</ele>
        <time>2017-07-14T09:02:03Z</time>
      </trkpt>
      <trkpt lat="45.9322" lon="4.76461">
        <ele>169</ele>
        <time>2017-07-14T09:02:04Z</time>
      </trkpt>
      <trkpt lat="45.9322" lon="4.76469">
        <ele>169</ele>
        <time>2017-07-14T09:02:05Z</time>
      </trkpt>
      <trkpt lat="45.93219" lon="4.76476">
        <ele>169</ele>
        <time>2017-07-14T09:02:06Z</time>
      </trkpt>
      <trkpt lat="45.93218" lon="4.76483">
        <ele>169</ele>
        <time>2017-07-14T09:02:07Z</time>
      </trkpt>
      <trkpt lat="45.93218" lon="4.7649">
        <ele>169</ele>
        <time>2017-07-14T09:02:08Z</time>
      </trkpt>
      <trkpt lat="45.93217" lon="4.76496">
        <ele>169</ele>
        <time>2017-07-14T09:02:09Z</time>
      </trkpt>
      <trkpt lat="45.93216" lon="4.76503">
        <ele>169</ele>
        <time>2017-07-14T09:02:10Z</time>
      </trkpt>
      <trkpt lat="45.93215" lon="4.76515">
        <ele>169</ele>
        <time>2017-07-14T09:02:12Z</time>
      </trkpt>
      <trkpt lat="45.93214" lon="4.76521">
        <ele>169</ele>
        <time>2017-07-14T09:02:13Z</time>
      </trkpt>
      <trkpt lat="45.93213" lon="4.76534">
        <ele>169</ele>
        <time>2017-07-14T09:02:15Z</time>
      </trkpt>
      <trkpt lat="45.93212" lon="4.7654">
        <ele>169</ele>
        <time>2017-07-14T09:02:16Z</time>
      </trkpt>
      <trkpt lat="45.93211" lon="4.76547">
        <ele>169</ele>
        <time>2017-07-14T09:02:17Z</time>
      </trkpt>
      <trkpt lat="45.9321" lon="4.76553">
        <ele>169</ele>
        <time>2017-07-14T09:02:18Z</time>
      </trkpt>
      <trkpt lat="45.93209" lon="4.7656">
        <ele>169</ele>
        <time>2017-07-14T09:02:19Z</time>
      </trkpt>
      <trkpt lat="45.93207" lon="4.76566">
        <ele>169</ele>
        <time>2017-07-14T09:02:20Z</time>
      </trkpt>
      <trkpt lat="45.93204" lon="4.76576">
        <ele>169</ele>
        <time>2017-07-14T09:02:22Z</time>
      </trkpt>
      <trkpt lat="45.93202" lon="4.76579">
        <ele>169</ele>
        <time>2017-07-14T09:02:23Z</time>
      </trkpt>
      <trkpt lat="45.93196" lon="4.76587">
        <ele>170</ele>
        <time>2017-07-14T09:02:26Z</time>
      </trkpt>
      <trkpt lat="45.93195" lon="4.76589">
        <ele>170</ele>
        <time>2017-07-14T09:02:27Z</time>
      </trkpt>
      <trkpt lat="45.93187" lon="4.76583">
        <ele>170</ele>
        <time>2017-07-14T09:02:30Z</time>
      </trkpt>
      <trkpt lat="45.93184" lon="4.7658">
        <ele>170</ele>
        <time>2017-07-14T09:02:31Z</time>
      </trkpt>
      <trkpt lat="45.93177" lon="4.76573">
        <ele>170</ele>
        <time>2017-07-14T09:02:33Z</time>
      </trkpt>
      <trkpt lat="45.93173" lon="4.7657">
        <ele>170</ele>
        <time>2017-07-14T09:02:34Z</time>
      </trkpt>
      <trkpt lat="45.93166" lon="4.76564">
        <ele>170</ele>
        <time>2017-07-14T09:02:36Z</time>
      </trkpt>
      <trkpt lat="45.93162" lon="4.7656">
        <ele>170</ele>
        <time>2017-07-14T09:02:37Z</time>
      </trkpt>
      <trkpt lat="45.93154" lon="4.76554">
        <ele>170</ele>
        <time>2017-07-14T09:02:39Z</time>
      </trkpt>
      <trkpt lat="45.93151" lon="4.7655">
        <ele>170</ele>
        <time>2017-07-14T09:02:40Z</time>
      </trkpt>
      <trkpt lat="45.93144" lon="4.76543">
        <ele>170</ele>
        <time>2017-07-14T09:02:42Z</time>
      </trkpt>
      <trkpt lat="45.9314" lon="4.76539">
        <ele>170</ele>
        <time>2017-07-14T09:02:43Z</time>
      </trkpt>
      <trkpt lat="45.93136" lon="4.76535">
        <ele>170</ele>
        <time>2017-07-14T09:02:44Z</time>
      </trkpt>
      <trkpt lat="45.93132" lon="4.76531">
        <ele>170</ele>
        <time>2017-07-14T09:02:45Z</time>
      </trkpt>
      <trkpt lat="45.93129" lon="4.76527">
        <ele>170</ele>
        <time>2017-07-14T09:02:46Z</time>
      </trkpt>
      <trkpt lat="45.93124" lon="4.76522">
        <ele>170</ele>
        <time>2017-07-14T09:02:47Z</time>
      </trkpt>
      <trkpt lat="45.93119" lon="4.76519">
        <ele>170</ele>
        <time>2017-07-14T09:02:48Z</time>
      </trkpt>
      <trkpt lat="45.93115" lon="4.76514">
        <ele>170</ele>
        <time>2017-07-14T09:02:49Z</time>
      </trkpt>
      <trkpt lat="45.9311" lon="4.7651">
        <ele>170</ele>
        <time>2017-07-14T09:02:50Z</time>
      </trkpt>
      <trkpt lat="45.93107" lon="4.76505">
        <ele>170</ele>
        <time>2017-07-14T09:02:51Z</time>
      </trkpt>
      <trkpt lat="45.93102" lon="4.76501">
        <ele>170</ele>
        <time>2017-07-14T09:02:52Z</time>
      </trkpt>
      <trkpt lat="45.93098" lon="4.76498">
        <ele>170</ele>
        <time>2017-07-14T09:02:53Z</time>
      </trkpt>
      <trkpt lat="45.93095" lon="4.76493">
        <ele>170</ele>
        <time>2017-07-14T09:02:54Z</time>
      </trkpt>
      <trkpt lat="45.93091" lon="4.76489">
        <ele>170</ele>
        <time>2017-07-14T09:02:55Z</time>
      </trkpt>
      <trkpt lat="45.93086" lon="4.76486">
        <ele>170</ele>
        <time>2017-07-14T09:02:56Z</time>
      </trkpt>
      <trkpt lat="45.93082" lon="4.76482">
        <ele>169</ele>
        <time>2017-07-14T09:02:57Z</time>
      </trkpt>
      <trkpt lat="45.93077" lon="4.76478">
        <ele>169</ele>
        <time>2017-07-14T09:02:58Z</time>
      </trkpt>
      <trkpt lat="45.93073" lon="4.76474">
        <ele>169</ele>
        <time>2017-07-14T09:02:59Z</time>
      </trkpt>
      <trkpt lat="45.93068" lon="4.76469">
        <ele>169</ele>
        <time>2017-07-14T09:03:00Z</time>
      </trkpt>
      <trkpt lat="45.93064" lon="4.76465">
        <ele>169</ele>
        <time>2017-07-14T09:03:01Z</time>
      </trkpt>
      <trkpt lat="45.93059" lon="4.7646">
        <ele>169</ele>
        <time>2017-07-14T09:03:02Z</time>
      </trkpt>
      <trkpt lat="45.93055" lon="4.76456">
        <ele>169</ele>
        <time>2017-07-14T09:03:03Z</time>
      </trkpt>
      <trkpt lat="45.9305" lon="4.76451">
        <ele>169</ele>
        <time>2017-07-14T09:03:04Z</time>
      </trkpt>
      <trkpt lat="45.93046" lon="4.76447">
        <ele>169</ele>
        <time>2017-07-14T09:03:05Z</time>
      </trkpt>
      <trkpt lat="45.93041" lon="4.76442">
        <ele>169</ele>
        <time>2017-07-14T09:03:06Z</time>
      </trkpt>
      <trkpt lat="45.93036" lon="4.76438">
        <ele>169</ele>
        <time>2017-07-14T09:03:07Z</time>
      </trkpt>
      <trkpt lat="45.93031" lon="4.76433">
        <ele>169</ele>
        <time>2017-07-14T09:03:08Z</time>
      </trkpt>
      <trkpt lat="45.93026" lon="4.76429">
        <ele>169</ele>
        <time>2017-07-14T09:03:09Z</time>
      </trkpt>
      <trkpt lat="45.93021" lon="4.76424">
        <ele>169</ele>
        <time>2017-07-14T09:03:10Z</time>
      </trkpt>
      <trkpt lat="45.93017" lon="4.76419">
        <ele>169</ele>
        <time>2017-07-14T09:03:11Z</time>
      </trkpt>
      <trkpt lat="45.93012" lon="4.76415">
        <ele>169</ele>
        <time>2017-07-14T09:03:12Z</time>
      </trkpt>
      <trkpt lat="45.93006" lon="4.76409">
        <ele>169</ele>
        <time>2017-07-14T09:03:13Z</time>
      </trkpt>
      <trkpt lat="45.93001" lon="4.76404">
        <ele>169</ele>
        <time>2017-07-14T09:03:14Z</time>
      </trkpt>
      <trkpt lat="45.92996" lon="4.76399">
        <ele>169</ele>
        <time>2017-07-14T09:03:15Z</time>
      </trkpt>
      <trkpt lat="45.92991" lon="4.76394">
        <ele>169</ele>
        <time>2017-07-14T09:03:16Z</time>
      </trkpt>
      <trkpt lat="45.92987" lon="4.7639">
        <ele>169</ele>
        <time>2017-07-14T09:03:17Z</time>
      </trkpt>
      <trkpt lat="45.92982" lon="4.76385">
        <ele>169</ele>
        <time>2017-07-14T09:03:18Z</time>
      </trkpt>
      <trkpt lat="45.92978" lon="4.76381">
        <ele>169</ele>
        <time>2017-07-14T09:03:19Z</time>
      </trkpt>
      <trkpt lat="45.92975" lon="4.76376">
        <ele>169</ele>
        <time>2017-07-14T09:03:20Z</time>
      </trkpt>
      <trkpt lat="45.92971" lon="4.76372">
        <ele>169</ele>
        <time>2017-07-14T09:03:21Z</time>
      </trkpt>
      <trkpt lat="45.92967" lon="4.76368">
        <ele>169</ele>
        <time>2017-07-14T09:03:22Z</time>
      </trkpt>
      <trkpt lat="45.92963" lon="4.76363">
        <ele>169</ele>
        <time>2017-07-14T09:03:23Z</time>
      </trkpt>
      <trkpt lat="45.92959" lon="4.76359">
        <ele>169</ele>
        <time>2017-07-14T09:03:24Z</time>
      </trkpt>
      <trkpt lat="45.92954" lon="4.76355">
        <ele>169</ele>
        <time>2017-07-14T09:03:25Z</time>
      </trkpt>
      <trkpt lat="45.9295" lon="4.76351">
        <ele>169</ele>
        <time>2017-07-14T09:03:26Z</time>
      </trkpt>
      <trkpt lat="45.92945" lon="4.76346">
        <ele>169</ele>
        <time>2017-07-14T09:03:27Z</time>
      </trkpt>
      <trkpt lat="45.9294" lon="4.76341">
        <ele>169</ele>
        <time>2017-07-14T09:03:28Z</time>
      </trkpt>
      <trkpt lat="45.92935" lon="4.76336">
        <ele>169</ele>
        <time>2017-07-14T09:03:29Z</time>
      </trkpt>
      <trkpt lat="45.9293" lon="4.76332">
        <ele>169</ele>
        <time>2017-07-14T09:03:30Z</time>
      </trkpt>
      <trkpt lat="45.92926" lon="4.76327">
        <ele>169</ele>
        <time>2017-07-14T09:03:31Z</time>
      </trkpt>
      <trkpt lat="45.92921" lon="4.76323">
        <ele>169</ele>
        <time>2017-07-14T09:03:32Z</time>
      </trkpt>
      <trkpt lat="45.92916" lon="4.76319">
        <ele>169</ele>
        <time>2017-07-14T09:03:33Z</time>
      </trkpt>
      <trkpt lat="45.92911" lon="4.76315">
        <ele>169</ele>
        <time>2017-07-14T09:03:34Z</time>
      </trkpt>
      <trkpt lat="45.92906" lon="4.76311">
        <ele>169</ele>
        <time>2017-07-14T09:03:35Z</time>
      </trkpt>
      <trkpt lat="45.92902" lon="4.76306">
        <ele>169</ele>
        <time>2017-07-14T09:03:36Z</time>
      </trkpt>
      <trkpt lat="45.92898" lon="4.76302">
        <ele>169</ele>
        <time>2017-07-14T09:03:37Z</time>
      </trkpt>
      <trkpt lat="45.92894" lon="4.76298">
        <ele>169</ele>
        <time>2017-07-14T09:03:38Z</time>
      </trkpt>
      <trkpt lat="45.9289" lon="4.76294">
        <ele>169</ele>
        <time>2017-07-14T09:03:39Z</time>
      </trkpt>
      <trkpt lat="45.92882" lon="4.76289">
        <ele>169</ele>
        <time>2017-07-14T09:03:41Z</time>
      </trkpt>
      <trkpt lat="45.92879" lon="4.7629">
        <ele>169</ele>
        <time>2017-07-14T09:03:42Z</time>
      </trkpt>
      <trkpt lat="45.92874" lon="4.76298">
        <ele>169</ele>
        <time>2017-07-14T09:03:46Z</time>
      </trkpt>
      <trkpt lat="45.92872" lon="4.76301">
        <ele>169</ele>
        <time>2017-07-14T09:03:47Z</time>
      </trkpt>
      <trkpt lat="45.92865" lon="4.76307">
        <ele>169</ele>
        <time>2017-07-14T09:03:49Z</time>
      </trkpt>
      <trkpt lat="45.92862" lon="4.76311">
        <ele>169</ele>
        <time>2017-07-14T09:03:50Z</time>
      </trkpt>
      <trkpt lat="45.92855" lon="4.76319">
        <ele>169</ele>
        <time>2017-07-14T09:03:52Z</time>
      </trkpt>
      <trkpt lat="45.92852" lon="4.76324">
        <ele>169</ele>
        <time>2017-07-14T09:03:53Z</time>
      </trkpt>
      <trkpt lat="45.92849" lon="4.76328">
        <ele>170</ele>
        <time>2017-07-14T09:03:54Z</time>
      </trkpt>
      <trkpt lat="45.92845" lon="4.76333">
        <ele>170</ele>
        <time>2017-07-14T09:03:55Z</time>
      </trkpt>
      <trkpt lat="45.92842" lon="4.76337">
        <ele>170</ele>
        <time>2017-07-14T09:03:56Z</time>
      </trkpt>
      <trkpt lat="45.92839" lon="4.76342">
        <ele>170</ele>
        <time>2017-07-14T09:03:57Z</time>
      </trkpt>
      <trkpt lat="45.92836" lon="4.76347">
        <ele>170</ele>
        <time>2017-07-14T09:03:58Z</time>
      </trkpt>
      <trkpt lat="45.92832" lon="4.76352">
        <ele>170</ele>
        <time>2017-07-14T09:03:59Z</time>
      </trkpt>
      <trkpt lat="45.92829" lon="4.76357">
        <ele>170</ele>
        <time>2017-07-14T09:04:00Z</time>
      </trkpt>
      <trkpt lat="45.92825" lon="4.76362">
        <ele>169</ele>
        <time>2017-07-14T09:04:01Z</time>
      </trkpt>
      <trkpt lat="45.92821" lon="4.76366">
        <ele>169</ele>
        <time>2017-07-14T09:04:02Z</time>
      </trkpt>
      <trkpt lat="45.92816" lon="4.76372">
        <ele>169</ele>
        <time>2017-07-14T09:04:03Z</time>
      </trkpt>
      <trkpt lat="45.92812" lon="4.76376">
        <ele>169</ele>
        <time>2017-07-14T09:04:04Z</time>
      </trkpt>
      <trkpt lat="45.92808" lon="4.7638">
        <ele>169</ele>
        <time>2017-07-14T09:04:05Z</time>
      </trkpt>
      <trkpt lat="45.92799" lon="4.76383">
        <ele>169</ele>
        <time>2017-07-14T09:04:07Z</time>
      </trkpt>
      <trkpt lat="45.92795" lon="4.76382">
        <ele>169</ele>
        <time>2017-07-14T09:04:08Z</time>
      </trkpt>
      <trkpt lat="45.9279" lon="4.7638">
        <ele>169</ele>
        <time>2017-07-14T09:04:09Z</time>
      </trkpt>
      <trkpt lat="45.92786" lon="4.76377">
        <ele>169</ele>
        <time>2017-07-14T09:04:10Z</time>
      </trkpt>
      <trkpt lat="45.92781" lon="4.76375">
        <ele>169</ele>
        <time>2017-07-14T09:04:11Z</time>
      </trkpt>
      <trkpt lat="45.92776" lon="4.76373">
        <ele>169</ele>
        <time>2017-07-14T09:04:12Z</time>
      </trkpt>
      <trkpt lat="45.92771" lon="4.76371">
        <ele>169</ele>
        <time>2017-07-14T09:04:13Z</time>
      </trkpt>
      <trkpt lat="45.92765" lon="4.76369">
        <ele>169</ele>
        <time>2017-07-14T09:04:14Z</time>
      </trkpt>
      <trkpt lat="45.9276" lon="4.76366">
        <ele>169</ele>
        <time>2017-07-14T09:04:15Z</time>
      </trkpt>
      <trkpt lat="45.92754" lon="4.76364">
        <ele>169</ele>
        <time>2017-07-14T09:04:16Z</time>
      </trkpt>
      <trkpt lat="45.92748" lon="4.76362">
        <ele>169</ele>
        <time>2017-07-14T09:04:17Z</time>
      </trkpt>
      <trkpt lat="45.92743" lon="4.76359">
        <ele>169</ele>
        <time>2017-07-14T09:04:18Z</time>
      </trkpt>
      <trkpt lat="45.92737" lon="4.76357">
        <ele>169</ele>
        <time>2017-07-14T09:04:19Z</time>
      </trkpt>
      <trkpt lat="45.92732" lon="4.76355">
        <ele>169</ele>
        <time>2017-07-14T09:04:20Z</time>
      </trkpt>
      <trkpt lat="45.92727" lon="4.76353">
        <ele>169</ele>
        <time>2017-07-14T09:04:21Z</time>
      </trkpt>
      <trkpt lat="45.92723" lon="4.76352">
        <ele>169</ele>
        <time>2017-07-14T09:04:22Z</time>
      </trkpt>
      <trkpt lat="45.92718" lon="4.7635">
        <ele>169</ele>
        <time>2017-07-14T09:04:23Z</time>
      </trkpt>
      <trkpt lat="45.92713" lon="4.76349">
        <ele>169</ele>
        <time>2017-07-14T09:04:24Z</time>
      </trkpt>
      <trkpt lat="45.92708" lon="4.76347">
        <ele>168</ele>
        <time>2017-07-14T09:04:25Z</time>
      </trkpt>
      <trkpt lat="45.92704" lon="4.76345">
        <ele>168</ele>
        <time>2017-07-14T09:04:26Z</time>
      </trkpt>
      <trkpt lat="45.92699" lon="4.76344">
        <ele>168</ele>
        <time>2017-07-14T09:04:27Z</time>
      </trkpt>
      <trkpt lat="45.92694" lon="4.76342">
        <ele>168</ele>
        <time>2017-07-14T09:04:28Z</time>
      </trkpt>
      <trkpt lat="45.92688" lon="4.7634">
        <ele>168</ele>
        <time>2017-07-14T09:04:29Z</time>
      </trkpt>
      <trkpt lat="45.92683" lon="4.76339">
        <ele>168</ele>
        <time>2017-07-14T09:04:30Z</time>
      </trkpt>
      <trkpt lat="45.92678" lon="4.76337">
        <ele>168</ele>
        <time>2017-07-14T09:04:31Z</time>
      </trkpt>
      <trkpt lat="45.92673" lon="4.76335">
        <ele>168</ele>
        <time>2017-07-14T09:04:32Z</time>
      </trkpt>
      <trkpt lat="45.92667" lon="4.76333">
        <ele>168</ele>
        <time>2017-07-14T09:04:33Z</time>
      </trkpt>
      <trkpt lat="45.92662" lon="4.7633">
        <ele>168</ele>
        <time>2017-07-14T09:04:34Z</time>
      </trkpt>
      <trkpt lat="45.92656" lon="4.76328">
        <ele>168</ele>
        <time>2017-07-14T09:04:35Z</time>
      </trkpt>
      <trkpt lat="45.92651" lon="4.76325">
        <ele>168</ele>
        <time>2017-07-14T09:04:36Z</time>
      </trkpt>
      <trkpt lat="45.92646" lon="4.76322">
        <ele>168</ele>
        <time>2017-07-14T09:04:37Z</time>
      </trkpt>
      <trkpt lat="45.92641" lon="4.7632">
        <ele>168</ele>
        <time>2017-07-14T09:04:38Z</time>
      </trkpt>
      <trkpt lat="45.92636" lon="4.76317">
        <ele>168</ele>
        <time>2017-07-14T09:04:39Z</time>
      </trkpt>
      <trkpt lat="45.92632" lon="4.76314">
        <ele>168</ele>
        <time>2017-07-14T09:04:40Z</time>
      </trkpt>
      <trkpt lat="45.92627" lon="4.76312">
        <ele>168</ele>
        <time>2017-07-14T09:04:41Z</time>
      </trkpt>
      <trkpt lat="45.92623" lon="4.7631">
        <ele>167</ele>
        <time>2017-07-14T09:04:42Z</time>
      </trkpt>
      <trkpt lat="45.92618" lon="4.76307">
        <ele>167</ele>
        <time>2017-07-14T09:04:43Z</time>
      </trkpt>
      <trkpt lat="45.92613" lon="4.76304">
        <ele>167</ele>
        <time>2017-07-14T09:04:44Z</time>
      </trkpt>
      <trkpt lat="45.92608" lon="4.76302">
        <ele>167</ele>
        <time>2017-07-14T09:04:45Z</time>
      </trkpt>
      <trkpt lat="45.92603" lon="4.76299">
        <ele>167</ele>
        <time>2017-07-14T09:04:46Z</time>
      </trkpt>
      <trkpt lat="45.92598" lon="4.76296">
        <ele>167</ele>
        <time>2017-07-14T09:04:47Z</time>
      </trkpt>
      <trkpt lat="45.92593" lon="4.76293">
        <ele>167</ele>
        <time>2017-07-14T09:04:48Z</time>
      </trkpt>
      <trkpt lat="45.92588" lon="4.7629">
        <ele>168</ele>
        <time>2017-07-14T09:04:49Z</time>
      </trkpt>
      <trkpt lat="45.92583" lon="4.76287">
        <ele>168</ele>
        <time>2017-07-14T09:04:50Z</time>
      </trkpt>
      <trkpt lat="45.92577" lon="4.76284">
        <ele>168</ele>
        <time>2017-07-14T09:04:51Z</time>
      </trkpt>
      <trkpt lat="45.92573" lon="4.76281">
        <ele>168</ele>
        <time>2017-07-14T09:04:52Z</time>
      </trkpt>
      <trkpt lat="45.92568" lon="4.76278">
        <ele>168</ele>
        <time>2017-07-14T09:04:53Z</time>
      </trkpt>
      <trkpt lat="45.92563" lon="4.76276">
        <ele>168</ele>
        <time>2017-07-14T09:04:54Z</time>
      </trkpt>
      <trkpt lat="45.92559" lon="4.76274">
        <ele>168</ele>
        <time>2017-07-14T09:04:55Z</time>
      </trkpt>
      <trkpt lat="45.92554" lon="4.76272">
        <ele>168</ele>
        <time>2017-07-14T09:04:56Z</time>
      </trkpt>
      <trkpt lat="45.92549" lon="4.76269">
        <ele>168</ele>
        <time>2017-07-14T09:04:57Z</time>
      </trkpt>
      <trkpt lat="45.92545" lon="4.76266">
        <ele>168</ele>
        <time>2017-07-14T09:04:58Z</time>
      </trkpt>
      <trkpt lat="45.9254" lon="4.76263">
        <ele>168</ele>
        <time>2017-07-14T09:04:59Z</time>
      </trkpt>
      <trkpt lat="45.92535" lon="4.7626">
        <ele>168</ele>
        <time>2017-07-14T09:05:00Z</time>
      </trkpt>
      <trkpt lat="45.9253" lon="4.76257">
        <ele>168</ele>
        <time>2017-07-14T09:05:01Z</time>
      </trkpt>
      <trkpt lat="45.92525" lon="4.76255">
        <ele>168</ele>
        <time>2017-07-14T09:05:02Z</time>
      </trkpt>
      <trkpt lat="45.9252" lon="4.76253">
        <ele>168</ele>
        <time>2017-07-14T09:05:03Z</time>
      </trkpt>
      <trkpt lat="45.92514" lon="4.76251">
        <ele>168</ele>
        <time>2017-07-14T09:05:04Z</time>
      </trkpt>
      <trkpt lat="45.92509" lon="4.76251">
        <ele>168</ele>
        <time>2017-07-14T09:05:05Z</time>
      </trkpt>
      <trkpt lat="45.92504" lon="4.76252">
        <ele>168</ele>
        <time>2017-07-14T09:05:06Z</time>
      </trkpt>
      <trkpt lat="45.92499" lon="4.76254">
        <ele>168</ele>
        <time>2017-07-14T09:05:07Z</time>
      </trkpt>
      <trkpt lat="45.92494" lon="4.76257">
        <ele>168</ele>
        <time>2017-07-14T09:05:08Z</time>
      </trkpt>
      <trkpt lat="45.92489" lon="4.7626">
        <ele>169</ele>
        <time>2017-07-14T09:05:09Z</time>
      </trkpt>
      <trkpt lat="45.92485" lon="4.76262">
        <ele>169</ele>
        <time>2017-07-14T09:05:10Z</time>
      </trkpt>
      <trkpt lat="45.9248" lon="4.76265">
        <ele>169</ele>
        <time>2017-07-14T09:05:11Z</time>
      </trkpt>
      <trkpt lat="45.92476" lon="4.76267">
        <ele>169</ele>
        <time>2017-07-14T09:05:12Z</time>
      </trkpt>
      <trkpt lat="45.92471" lon="4.7627">
        <ele>169</ele>
        <time>2017-07-14T09:05:13Z</time>
      </trkpt>
      <trkpt lat="45.92466" lon="4.76274">
        <ele>169</ele>
        <time>2017-07-14T09:05:14Z</time>
      </trkpt>
      <trkpt lat="45.92462" lon="4.76278">
        <ele>169</ele>
        <time>2017-07-14T09:05:15Z</time>
      </trkpt>
      <trkpt lat="45.92458" lon="4.76283">
        <ele>169</ele>
        <time>2017-07-14T09:05:16Z</time>
      </trkpt>
      <trkpt lat="45.92455" lon="4.76289">
        <ele>169</ele>
        <time>2017-07-14T09:05:17Z</time>
      </trkpt>
      <trkpt lat="45.92453" lon="4.76296">
        <ele>169</ele>
        <time>2017-07-14T09:05:18Z</time>
      </trkpt>
      <trkpt lat="45.9245" lon="4.76302">
        <ele>169</ele>
        <time>2017-07-14T09:05:19Z</time>
      </trkpt>
      <trkpt lat="45.92447" lon="4.76308">
        <ele>169</ele>
        <time>2017-07-14T09:05:20Z</time>
      </trkpt>
      <trkpt lat="45.92445" lon="4.76314">
        <ele>169</ele>
        <time>2017-07-14T09:05:21Z</time>
      </trkpt>
      <trkpt lat="45.92442" lon="4.7632">
        <ele>170</ele>
        <time>2017-07-14T09:05:22Z</time>
      </trkpt>
      <trkpt lat="45.92439" lon="4.76326">
        <ele>170</ele>
        <time>2017-07-14T09:05:23Z</time>
      </trkpt>
      <trkpt lat="45.92436" lon="4.76333">
        <ele>170</ele>
        <time>2017-07-14T09:05:24Z</time>
      </trkpt>
      <trkpt lat="45.92433" lon="4.76339">
        <ele>170</ele>
        <time>2017-07-14T09:05:25Z</time>
      </trkpt>
      <trkpt lat="45.92431" lon="4.76345">
        <ele>170</ele>
        <time>2017-07-14T09:05:26Z</time>
      </trkpt>
      <trkpt lat="45.92429" lon="4.76352">
        <ele>170</ele>
        <time>2017-07-14T09:05:27Z</time>
      </trkpt>
      <trkpt lat="45.92427" lon="4.76357">
        <ele>170</ele>
        <time>2017-07-14T09:05:28Z</time>
      </trkpt>
      <trkpt lat="45.92422" lon="4.76368">
        <ele>170</ele>
        <time>2017-07-14T09:05:30Z</time>
      </trkpt>
      <trkpt lat="45.92419" lon="4.76373">
        <ele>170</ele>
        <time>2017-07-14T09:05:31Z</time>
      </trkpt>
      <trkpt lat="45.92413" lon="4.7638">
        <ele>169</ele>
        <time>2017-07-14T09:05:34Z</time>
      </trkpt>
      <trkpt lat="45.9241" lon="4.7638">
        <ele>169</ele>
        <time>2017-07-14T09:05:35Z</time>
      </trkpt>
      <trkpt lat="45.92405" lon="4.76376">
        <ele>169</ele>
        <time>2017-07-14T09:05:37Z</time>
      </trkpt>
      <trkpt lat="45.92402" lon="4.76374">
        <ele>169</ele>
        <time>2017-07-14T09:05:38Z</time>
      </trkpt>
      <trkpt lat="45.92393" lon="4.7637">
        <ele>169</ele>
        <time>2017-07-14T09:05:41Z</time>
      </trkpt>
      <trkpt lat="45.92391" lon="4.76369">
        <ele>169</ele>
        <time>2017-07-14T09:05:42Z</time>
      </trkpt>
      <trkpt lat="45.92384" lon="4.76367">
        <ele>168</ele>
        <time>2017-07-14T09:05:44Z</time>
      </trkpt>
      <trkpt lat="45.92382" lon="4.76366">
        <ele>168</ele>
        <time>2017-07-14T09:05:45Z</time>
      </trkpt>
      <trkpt lat="45.92377" lon="4.76362">
        <ele>168</ele>
        <time>2017-07-14T09:05:46Z</time>
      </trkpt>
      <trkpt lat="45.92378" lon="4.7635">
        <ele>168</ele>
        <time>2017-07-14T09:05:47Z</time>
      </trkpt>
      <trkpt lat="45.92372" lon="4.76343">
        <ele>168</ele>
        <time>2017-07-14T09:05:49Z</time>
      </trkpt>
      <trkpt lat="45.92368" lon="4.76342">
        <ele>168</ele>
        <time>2017-07-14T09:05:50Z</time>
      </trkpt>
      <trkpt lat="45.92361" lon="4.76341">
        <ele>168</ele>
        <time>2017-07-14T09:05:52Z</time>
      </trkpt>
      <trkpt lat="45.92357" lon="4.76341">
        <ele>168</ele>
        <time>2017-07-14T09:05:53Z</time>
      </trkpt>
      <trkpt lat="45.92349" lon="4.76344">
        <ele>168</ele>
        <time>2017-07-14T09:05:55Z</time>
      </trkpt>
      <trkpt lat="45.92344" lon="4.76347">
        <ele>168</ele>
        <time>2017-07-14T09:05:56Z</time>
      </trkpt>
      <trkpt lat="45.9234" lon="4.7635">
        <ele>168</ele>
        <time>2017-07-14T09:05:57Z</time>
      </trkpt>
      <trkpt lat="45.92336" lon="4.76352">
        <ele>168</ele>
        <time>2017-07-14T09:05:58Z</time>
      </trkpt>
      <trkpt lat="45.92331" lon="4.76354">
        <ele>167</ele>
        <time>2017-07-14T09:05:59Z</time>
      </trkpt>
      <trkpt lat="45.92327" lon="4.76356">
        <ele>167</ele>
        <time>2017-07-14T09:06:00Z</time>
      </trkpt>
      <trkpt lat="45.92322" lon="4.76358">
        <ele>167</ele>
        <time>2017-07-14T09:06:01Z</time>
      </trkpt>
      <trkpt lat="45.92318" lon="4.7636">
        <ele>167</ele>
        <time>2017-07-14T09:06:02Z</time>
      </trkpt>
      <trkpt lat="45.92313" lon="4.76362">
        <ele>167</ele>
        <time>2017-07-14T09:06:03Z</time>
      </trkpt>
      <trkpt lat="45.92308" lon="4.76364">
        <ele>167</ele>
        <time>2017-07-14T09:06:04Z</time>
      </trkpt>
      <trkpt lat="45.92303" lon="4.76366">
        <ele>167</ele>
        <time>2017-07-14T09:06:05Z</time>
      </trkpt>
      <trkpt lat="45.92299" lon="4.76368">
        <ele>167</ele>
        <time>2017-07-14T09:06:06Z</time>
      </trkpt>
      <trkpt lat="45.92294" lon="4.7637">
        <ele>167</ele>
        <time>2017-07-14T09:06:07Z</time>
      </trkpt>
      <trkpt lat="45.92289" lon="4.76372">
        <ele>167</ele>
        <time>2017-07-14T09:06:08Z</time>
      </trkpt>
      <trkpt lat="45.92281" lon="4.76375">
        <ele>167</ele>
        <time>2017-07-14T09:06:10Z</time>
      </trkpt>
      <trkpt lat="45.92276" lon="4.76376">
        <ele>167</ele>
        <time>2017-07-14T09:06:11Z</time>
      </trkpt>
      <trkpt lat="45.92268" lon="4.7638">
        <ele>167</ele>
        <time>2017-07-14T09:06:14Z</time>
      </trkpt>
      <trkpt lat="45.92268" lon="4.7638">
        <ele>167</ele>
        <time>2017-07-14T09:06:15Z</time>
      </trkpt>
      <trkpt lat="45.9226" lon="4.76381">
        <ele>167</ele>
        <time>2017-07-14T09:07:04Z</time>
      </trkpt>
      <trkpt lat="45.92258" lon="4.76382">
        <ele>167</ele>
        <time>2017-07-14T09:07:05Z</time>
      </trkpt>
      <trkpt lat="45.92249" lon="4.76382">
        <ele>168</ele>
        <time>2017-07-14T09:07:08Z</time>
      </trkpt>
      <trkpt lat="45.92246" lon="4.76382">
        <ele>168</ele>
        <time>2017-07-14T09:07:09Z</time>
      </trkpt>
      <trkpt lat="45.92238" lon="4.76381">
        <ele>168</ele>
        <time>2017-07-14T09:07:11Z</time>
      </trkpt>
      <trkpt lat="45.92234" lon="4.7638">
        <ele>168</ele>
        <time>2017-07-14T09:07:12Z</time>
      </trkpt>
      <trkpt lat="45.92226" lon="4.76376">
        <ele>168</ele>
        <time>2017-07-14T09:07:14Z</time>
      </trkpt>
      <trkpt lat="45.92223" lon="4.76374">
        <ele>168</ele>
        <time>2017-07-14T09:07:15Z</time>
      </trkpt>
      <trkpt lat="45.92216" lon="4.76369">
        <ele>168</ele>
        <time>2017-07-14T09:07:17Z</time>
      </trkpt>
      <trkpt lat="45.92212" lon="4.76367">
        <ele>168</ele>
        <time>2017-07-14T09:07:18Z</time>
      </trkpt>
      <trkpt lat="45.92206" lon="4.76363">
        <ele>168</ele>
        <time>2017-07-14T09:07:20Z</time>
      </trkpt>
      <trkpt lat="45.92203" lon="4.76361">
        <ele>168</ele>
        <time>2017-07-14T09:07:21Z</time>
      </trkpt>
      <trkpt lat="45.92196" lon="4.76356">
        <ele>168</ele>
        <time>2017-07-14T09:07:23Z</time>
      </trkpt>
      <trkpt lat="45.92192" lon="4.76354">
        <ele>168</ele>
        <time>2017-07-14T09:07:24Z</time>
      </trkpt>
      <trkpt lat="45.92188" lon="4.76351">
        <ele>168</ele>
        <time>2017-07-14T09:07:25Z</time>
      </trkpt>
      <trkpt lat="45.92183" lon="4.76349">
        <ele>168</ele>
        <time>2017-07-14T09:07:26Z</time>
      </trkpt>
      <trkpt lat="45.92178" lon="4.76346">
        <ele>169</ele>
        <time>2017-07-14T09:07:27Z</time>
      </trkpt>
      <trkpt lat="45.92173" lon="4.76344">
        <ele>169</ele>
        <time>2017-07-14T09:07:28Z</time>
      </trkpt>
      <trkpt lat="45.92169" lon="4.76341">
        <ele>169</ele>
        <time>2017-07-14T09:07:29Z</time>
      </trkpt>
      <trkpt lat="45.92165" lon="4.76339">
        <ele>169</ele>
        <time>2017-07-14T09:07:30Z</time>
      </trkpt>
      <trkpt lat="45.92156" lon="4.76334">
        <ele>169</ele>
        <time>2017-07-14T09:07:32Z</time>
      </trkpt>
      <trkpt lat="45.92152" lon="4.76331">
        <ele>169</ele>
        <time>2017-07-14T09:07:33Z</time>
      </trkpt>
      <trkpt lat="45.92145" lon="4.76327">
        <ele>169</ele>
        <time>2017-07-14T09:07:35Z</time>
      </trkpt>
      <trkpt lat="45.92142" lon="4.76325">
        <ele>169</ele>
        <time>2017-07-14T09:07:36Z</time>
      </trkpt>
      <trkpt lat="45.92137" lon="4.76322">
        <ele>169</ele>
        <time>2017-07-14T09:07:37Z</time>
      </trkpt>
      <trkpt lat="45.92132" lon="4.76319">
        <ele>169</ele>
        <time>2017-07-14T09:07:38Z</time>
      </trkpt>
      <trkpt lat="45.92128" lon="4.76317">
        <ele>169</ele>
        <time>2017-07-14T09:07:39Z</time>
      </trkpt>
      <trkpt lat="45.92123" lon="4.76314">
        <ele>169</ele>
        <time>2017-07-14T09:07:40Z</time>
      </trkpt>
      <trkpt lat="45.92118" lon="4.76311">
        <ele>169</ele>
        <time>2017-07-14T09:07:41Z</time>
      </trkpt>
      <trkpt lat="45.92114" lon="4.76308">
        <ele>169</ele>
        <time>2017-07-14T09:07:42Z</time>
      </trkpt>
      <trkpt lat="45.9211" lon="4.76305">
        <ele>169</ele>
        <time>2017-07-14T09:07:43Z</time>
      </trkpt>
      <trkpt lat="45.92105" lon="4.76302">
        <ele>169</ele>
        <time>2017-07-14T09:07:44Z</time>
      </trkpt>
      <trkpt lat="45.92098" lon="4.76298">
        <ele>169</ele>
        <time>2017-07-14T09:07:46Z</time>
      </trkpt>
      <trkpt lat="45.92094" lon="4.76295">
        <ele>169</ele>
        <time>2017-07-14T09:07:47Z</time>
      </trkpt>
      <trkpt lat="45.92086" lon="4.7629">
        <ele>169</ele>
        <time>2017-07-14T09:07:49Z</time>
      </trkpt>
      <trkpt lat="45.92082" lon="4.76287">
        <ele>169</ele>
        <time>2017-07-14T09:07:50Z</time>
      </trkpt>
      <trkpt lat="45.92077" lon="4.76284">
        <ele>169</ele>
        <time>2017-07-14T09:07:51Z</time>
      </trkpt>
      <trkpt lat="45.92072" lon="4.76281">
        <ele>169</ele>
        <time>2017-07-14T09:07:52Z</time>
      </trkpt>
      <trkpt lat="45.92067" lon="4.76278">
        <ele>169</ele>
        <time>2017-07-14T09:07:53Z</time>
      </trkpt>
      <trkpt lat="45.92062" lon="4.76275">
        <ele>169</ele>
        <time>2017-07-14T09:07:54Z</time>
      </trkpt>
      <trkpt lat="45.92057" lon="4.76272">
        <ele>169</ele>
        <time>2017-07-14T09:07:55Z</time>
      </trkpt>
      <trkpt lat="45.92053" lon="4.76269">
        <ele>169</ele>
        <time>2017-07-14T09:07:56Z</time>
      </trkpt>
      <trkpt lat="45.92048" lon="4.76267">
        <ele>169</ele>
        <time>2017-07-14T09:07:57Z</time>
      </trkpt>
      <trkpt lat="45.92044" lon="4.76264">
        <ele>169</ele>
        <time>2017-07-14T09:07:58Z</time>
      </trkpt>
      <trkpt lat="45.92035" lon="4.7626">
        <ele>169</ele>
        <time>2017-07-14T09:08:00Z</time>
      </trkpt>
      <trkpt lat="45.92031" lon="4.76257">
        <ele>169</ele>
        <time>2017-07-14T09:08:01Z</time>
      </trkpt>
      <trkpt lat="45.92023" lon="4.76253">
        <ele>169</ele>
        <time>2017-07-14T09:08:03Z</time>
      </trkpt>
      <trkpt lat="45.92018" lon="4.76251">
        <ele>169</ele>
        <time>2017-07-14T09:08:04Z</time>
      </trkpt>
      <trkpt lat="45.92013" lon="4.76249">
        <ele>170</ele>
        <time>2017-07-14T09:08:05Z</time>
      </trkpt>
      <trkpt lat="45.92008" lon="4.76246">
        <ele>170</ele>
        <time>2017-07-14T09:08:06Z</time>
      </trkpt>
      <trkpt lat="45.92004" lon="4.76243">
        <ele>170</ele>
        <time>2017-07-14T09:08:07Z</time>
      </trkpt>
      <trkpt lat="45.91999" lon="4.7624">
        <ele>170</ele>
        <time>2017-07-14T09:08:08Z</time>
      </trkpt>
      <trkpt lat="45.91994" lon="4.76238">
        <ele>170</ele>
        <time>2017-07-14T09:08:09Z</time>
      </trkpt>
      <trkpt lat="45.91989" lon="4.76235">
        <ele>170</ele>
        <time>2017-07-14T09:08:10Z</time>
      </trkpt>
      <trkpt lat="45.91984" lon="4.76233">
        <ele>170</ele>
        <time>2017-07-14T09:08:11Z</time>
      </trkpt>
      <trkpt lat="45.9198" lon="4.76231">
        <ele>171</ele>
        <time>2017-07-14T09:08:12Z</time>
      </trkpt>
      <trkpt lat="45.91972" lon="4.76226">
        <ele>171</ele>
        <time>2017-07-14T09:08:14Z</time>
      </trkpt>
      <trkpt lat="45.91968" lon="4.76224">
        <ele>171</ele>
        <time>2017-07-14T09:08:15Z</time>
      </trkpt>
      <trkpt lat="45.9196" lon="4.7622">
        <ele>171</ele>
        <time>2017-07-14T09:08:17Z</time>
      </trkpt>
      <trkpt lat="45.91956" lon="4.76218">
        <ele>171</ele>
        <time>2017-07-14T09:08:18Z</time>
      </trkpt>
      <trkpt lat="45.91948" lon="4.76214">
        <ele>171</ele>
        <time>2017-07-14T09:08:20Z</time>
      </trkpt>
      <trkpt lat="45.91944" lon="4.76212">
        <ele>171</ele>
        <time>2017-07-14T09:08:21Z</time>
      </trkpt>
      <trkpt lat="45.91936" lon="4.76208">
        <ele>171</ele>
        <time>2017-07-14T09:08:23Z</time>
      </trkpt>
      <trkpt lat="45.91932" lon="4.76205">
        <ele>171</ele>
        <time>2017-07-14T09:08:24Z</time>
      </trkpt>
      <trkpt lat="45.91927" lon="4.76202">
        <ele>171</ele>
        <time>2017-07-14T09:08:25Z</time>
      </trkpt>
      <trkpt lat="45.91923" lon="4.762">
        <ele>171</ele>
        <time>2017-07-14T09:08:26Z</time>
      </trkpt>
      <trkpt lat="45.91915" lon="4.76195">
        <ele>172</ele>
        <time>2017-07-14T09:08:28Z</time>
      </trkpt>
      <trkpt lat="45.91911" lon="4.76193">
        <ele>172</ele>
        <time>2017-07-14T09:08:29Z</time>
      </trkpt>
      <trkpt lat="45.91904" lon="4.76189">
        <ele>172</ele>
        <time>2017-07-14T09:08:31Z</time>
      </trkpt>
      <trkpt lat="45.91901" lon="4.76187">
        <ele>172</ele>
        <time>2017-07-14T09:08:32Z</time>
      </trkpt>
      <trkpt lat="45.91893" lon="4.76183">
        <ele>172</ele>
        <time>2017-07-14T09:08:34Z</time>
      </trkpt>
      <trkpt lat="45.91889" lon="4.76181">
        <ele>172</ele>
        <time>2017-07-14T09:08:35Z</time>
      </trkpt>
      <trkpt lat="45.91881" lon="4.76177">
        <ele>172</ele>
        <time>2017-07-14T09:08:37Z</time>
      </trkpt>
      <trkpt lat="45.91877" lon="4.76175">
        <ele>172</ele>
        <time>2017-07-14T09:08:38Z</time>
      </trkpt>
      <trkpt lat="45.91871" lon="4.76172">
        <ele>172</ele>
        <time>2017-07-14T09:08:40Z</time>
      </trkpt>
      <trkpt lat="45.91868" lon="4.76171">
        <ele>172</ele>
        <time>2017-07-14T09:08:41Z</time>
      </trkpt>
      <trkpt lat="45.91859" lon="4.76173">
        <ele>172</ele>
        <time>2017-07-14T09:08:45Z</time>
      </trkpt>
      <trkpt lat="45.91856" lon="4.76175">
        <ele>172</ele>
        <time>2017-07-14T09:08:46Z</time>
      </trkpt>
      <trkpt lat="45.91852" lon="4.76183">
        <ele>172</ele>
        <time>2017-07-14T09:08:48Z</time>
      </trkpt>
      <trkpt lat="45.9185" lon="4.76189">
        <ele>172</ele>
        <time>2017-07-14T09:08:49Z</time>
      </trkpt>
      <trkpt lat="45.91847" lon="4.76201">
        <ele>172</ele>
        <time>2017-07-14T09:08:51Z</time>
      </trkpt>
      <trkpt lat="45.91846" lon="4.76207">
        <ele>172</ele>
        <time>2017-07-14T09:08:52Z</time>
      </trkpt>
      <trkpt lat="45.91844" lon="4.76213">
        <ele>172</ele>
        <time>2017-07-14T09:08:53Z</time>
      </trkpt>
      <trkpt lat="45.91843" lon="4.7622">
        <ele>172</ele>
        <time>2017-07-14T09:08:54Z</time>
      </trkpt>
      <trkpt lat="45.91841" lon="4.76226">
        <ele>172</ele>
        <time>2017-07-14T09:08:55Z</time>
      </trkpt>
      <trkpt lat="45.9184" lon="4.76232">
        <ele>172</ele>
        <time>2017-07-14T09:08:56Z</time>
      </trkpt>
      <trkpt lat="45.91838" lon="4.76238">
        <ele>173</ele>
        <time>2017-07-14T09:08:57Z</time>
      </trkpt>
      <trkpt lat="45.91837" lon="4.76245">
        <ele>173</ele>
        <time>2017-07-14T09:08:58Z</time>
      </trkpt>
      <trkpt lat="45.91835" lon="4.76252">
        <ele>173</ele>
        <time>2017-07-14T09:08:59Z</time>
      </trkpt>
      <trkpt lat="45.91833" lon="4.76258">
        <ele>173</ele>
        <time>2017-07-14T09:09:00Z</time>
      </trkpt>
      <trkpt lat="45.91831" lon="4.76265">
        <ele>174</ele>
        <time>2017-07-14T09:09:01Z</time>
      </trkpt>
      <trkpt lat="45.9183" lon="4.76271">
        <ele>174</ele>
        <time>2017-07-14T09:09:02Z</time>
      </trkpt>
      <trkpt lat="45.91828" lon="4.76278">
        <ele>174</ele>
        <time>2017-07-14T09:09:03Z</time>
      </trkpt>
      <trkpt lat="45.91826" lon="4.76283">
        <ele>174</ele>
        <time>2017-07-14T09:09:04Z</time>
      </trkpt>
      <trkpt lat="45.91824" lon="4.76295">
        <ele>174</ele>
        <time>2017-07-14T09:09:06Z</time>
      </trkpt>
      <trkpt lat="45.91822" lon="4.763">
        <ele>174</ele>
        <time>2017-07-14T09:09:07Z</time>
      </trkpt>
      <trkpt lat="45.91819" lon="4.76312">
        <ele>174</ele>
        <time>2017-07-14T09:09:09Z</time>
      </trkpt>
      <trkpt lat="45.91817" lon="4.76317">
        <ele>174</ele>
        <time>2017-07-14T09:09:10Z</time>
      </trkpt>
      <trkpt lat="45.91814" lon="4.76328">
        <ele>174</ele>
        <time>2017-07-14T09:09:13Z</time>
      </trkpt>
      <trkpt lat="45.91812" lon="4.76329">
        <ele>174</ele>
        <time>2017-07-14T09:09:14Z</time>
      </trkpt>
      <trkpt lat="45.91804" lon="4.76327">
        <ele>174</ele>
        <time>2017-07-14T09:09:18Z</time>
      </trkpt>
      <trkpt lat="45.91802" lon="4.76326">
        <ele>174</ele>
        <time>2017-07-14T09:09:19Z</time>
      </trkpt>
      <trkpt lat="45.91794" lon="4.76324">
        <ele>175</ele>
        <time>2017-07-14T09:09:23Z</time>
      </trkpt>
      <trkpt lat="45.91792" lon="4.76323">
        <ele>175</ele>
        <time>2017-07-14T09:09:24Z</time>
      </trkpt>
      <trkpt lat="45.91784" lon="4.76323">
        <ele>175</ele>
        <time>2017-07-14T09:09:30Z</time>
      </trkpt>
      <trkpt lat="45.91783" lon="4.76321">
        <ele>175</ele>
        <time>2017-07-14T09:09:31Z</time>
      </trkpt>
      <trkpt lat="45.91775" lon="4.76319">
        <ele>175</ele>
        <time>2017-07-14T09:09:36Z</time>
      </trkpt>
      <trkpt lat="45.91772" lon="4.76318">
        <ele>175</ele>
        <time>2017-07-14T09:09:37Z</time>
      </trkpt>
      <trkpt lat="45.91764" lon="4.76316">
        <ele>175</ele>
        <time>2017-07-14T09:09:41Z</time>
      </trkpt>
      <trkpt lat="45.91762" lon="4.76316">
        <ele>175</ele>
        <time>2017-07-14T09:09:42Z</time>
      </trkpt>
      <trkpt lat="45.91754" lon="4.76317">
        <ele>175</ele>
        <time>2017-07-14T09:09:47Z</time>
      </trkpt>
      <trkpt lat="45.91753" lon="4.76318">
        <ele>175</ele>
        <time>2017-07-14T09:09:48Z</time>
      </trkpt>
      <trkpt lat="45.91745" lon="4.7632">
        <ele>177</ele>
        <time>2017-07-14T09:09:53Z</time>
      </trkpt>
      <trkpt lat="45.91743" lon="4.76321">
        <ele>177</ele>
        <time>2017-07-14T09:09:54Z</time>
      </trkpt>
      <trkpt lat="45.91735" lon="4.76324">
        <ele>177</ele>
        <time>2017-07-14T09:09:58Z</time>
      </trkpt>
      <trkpt lat="45.91733" lon="4.76325">
        <ele>177</ele>
        <time>2017-07-14T09:09:59Z</time>
      </trkpt>
      <trkpt lat="45.91726" lon="4.76329">
        <ele>177</ele>
        <time>2017-07-14T09:10:03Z</time>
      </trkpt>
      <trkpt lat="45.91725" lon="4.7633">
        <ele>177</ele>
        <time>2017-07-14T09:10:04Z</time>
      </trkpt>
      <trkpt lat="45.91717" lon="4.76333">
        <ele>177</ele>
        <time>2017-07-14T09:10:08Z</time>
      </trkpt>
      <trkpt lat="45.91715" lon="4.76334">
        <ele>176</ele>
        <time>2017-07-14T09:10:09Z</time>
      </trkpt>
      <trkpt lat="45.91707" lon="4.76338">
        <ele>177</ele>
        <time>2017-07-14T09:10:14Z</time>
      </trkpt>
      <trkpt lat="45.91706" lon="4.76339">
        <ele>177</ele>
        <time>2017-07-14T09:10:15Z</time>
      </trkpt>
      <trkpt lat="45.91698" lon="4.76344">
        <ele>177</ele>
        <time>2017-07-14T09:10:20Z</time>
      </trkpt>
      <trkpt lat="45.91696" lon="4.76344">
        <ele>177</ele>
        <time>2017-07-14T09:10:21Z</time>
      </trkpt>
      <trkpt lat="45.91688" lon="4.76346">
        <ele>177</ele>
        <time>2017-07-14T09:10:26Z</time>
      </trkpt>
      <trkpt lat="45.91686" lon="4.76346">
        <ele>177</ele>
        <time>2017-07-14T09:10:27Z</time>
      </trkpt>
      <trkpt lat="45.91678" lon="4.76345">
        <ele>177</ele>
        <time>2017-07-14T09:10:31Z</time>
      </trkpt>
      <trkpt lat="45.91676" lon="4.76344">
        <ele>177</ele>
        <time>2017-07-14T09:10:32Z</time>
      </trkpt>
      <trkpt lat="45.91668" lon="4.76341">
        <ele>178</ele>
        <time>2017-07-14T09:10:37Z</time>
      </trkpt>
      <trkpt lat="45.91666" lon="4.76341">
        <ele>177</ele>
        <time>2017-07-14T09:10:38Z</time>
      </trkpt>
      <trkpt lat="45.91659" lon="4.76338">
        <ele>177</ele>
        <time>2017-07-14T09:10:41Z</time>
      </trkpt>
      <trkpt lat="45.91656" lon="4.76337">
        <ele>177</ele>
        <time>2017-07-14T09:10:42Z</time>
      </trkpt>
      <trkpt lat="45.91648" lon="4.76335">
        <ele>177</ele>
        <time>2017-07-14T09:10:46Z</time>
      </trkpt>
      <trkpt lat="45.91646" lon="4.76334">
        <ele>177</ele>
        <time>2017-07-14T09:10:47Z</time>
      </trkpt>
      <trkpt lat="45.91638" lon="4.76332">
        <ele>177</ele>
        <time>2017-07-14T09:10:52Z</time>
      </trkpt>
      <trkpt lat="45.91636" lon="4.76331">
        <ele>177</ele>
        <time>2017-07-14T09:10:53Z</time>
      </trkpt>
      <trkpt lat="45.91629" lon="4.7633">
        <ele>177</ele>
        <time>2017-07-14T09:10:57Z</time>
      </trkpt>
      <trkpt lat="45.91627" lon="4.7633">
        <ele>177</ele>
        <time>2017-07-14T09:10:58Z</time>
      </trkpt>
      <trkpt lat="45.91618" lon="4.76328">
        <ele>177</ele>
        <time>2017-07-14T09:11:02Z</time>
      </trkpt>
      <trkpt lat="45.91616" lon="4.76328">
        <ele>177</ele>
        <time>2017-07-14T09:11:03Z</time>
      </trkpt>
      <trkpt lat="45.91608" lon="4.76324">
        <ele>176</ele>
        <time>2017-07-14T09:11:07Z</time>
      </trkpt>
      <trkpt lat="45.91607" lon="4.76324">
        <ele>176</ele>
        <time>2017-07-14T09:11:08Z</time>
      </trkpt>
      <trkpt lat="45.91599" lon="4.76321">
        <ele>176</ele>
        <time>2017-07-14T09:11:12Z</time>
      </trkpt>
      <trkpt lat="45.91598" lon="4.7632">
        <ele>176</ele>
        <time>2017-07-14T09:11:13Z</time>
      </trkpt>
      <trkpt lat="45.91589" lon="4.76318">
        <ele>176</ele>
        <time>2017-07-14T09:11:17Z</time>
      </trkpt>
      <trkpt lat="45.91587" lon="4.76317">
        <ele>176</ele>
        <time>2017-07-14T09:11:18Z</time>
      </trkpt>
      <trkpt lat="45.9158" lon="4.76315">
        <ele>176</ele>
        <time>2017-07-14T09:11:21Z</time>
      </trkpt>
      <trkpt lat="45.91578" lon="4.76315">
        <ele>176</ele>
        <time>2017-07-14T09:11:22Z</time>
      </trkpt>
      <trkpt lat="45.9157" lon="4.76312">
        <ele>176</ele>
        <time>2017-07-14T09:11:26Z</time>
      </trkpt>
      <trkpt lat="45.91568" lon="4.76311">
        <ele>176</ele>
        <time>2017-07-14T09:11:27Z</time>
      </trkpt>
      <trkpt lat="45.91561" lon="4.76309">
        <ele>176</ele>
        <time>2017-07-14T09:11:31Z</time>
      </trkpt>
      <trkpt lat="45.91559" lon="4.76309">
        <ele>177</ele>
        <time>2017-07-14T09:11:32Z</time>
      </trkpt>
      <trkpt lat="45.91551" lon="4.76309">
        <ele>177</ele>
        <time>2017-07-14T09:11:36Z</time>
      </trkpt>
      <trkpt lat="45.91549" lon="4.76309">
        <ele>177</ele>
        <time>2017-07-14T09:11:37Z</time>
      </trkpt>
      <trkpt lat="45.91543" lon="4.76312">
        <ele>177</ele>
        <time>2017-07-14T09:11:41Z</time>
      </trkpt>
      <trkpt lat="45.9154" lon="4.76315">
        <ele>177</ele>
        <time>2017-07-14T09:11:42Z</time>
      </trkpt>
      <trkpt lat="45.91536" lon="4.76321">
        <ele>177</ele>
        <time>2017-07-14T09:11:44Z</time>
      </trkpt>
      <trkpt lat="45.91534" lon="4.76324">
        <ele>177</ele>
        <time>2017-07-14T09:11:45Z</time>
      </trkpt>
      <trkpt lat="45.91529" lon="4.76334">
        <ele>176</ele>
        <time>2017-07-14T09:11:48Z</time>
      </trkpt>
      <trkpt lat="45.91527" lon="4.76337">
        <ele>176</ele>
        <time>2017-07-14T09:11:49Z</time>
      </trkpt>
      <trkpt lat="45.91522" lon="4.76346">
        <ele>176</ele>
        <time>2017-07-14T09:11:52Z</time>
      </trkpt>
      <trkpt lat="45.9152" lon="4.76351">
        <ele>176</ele>
        <time>2017-07-14T09:11:53Z</time>
      </trkpt>
      <trkpt lat="45.91515" lon="4.76359">
        <ele>176</ele>
        <time>2017-07-14T09:11:55Z</time>
      </trkpt>
      <trkpt lat="45.91512" lon="4.76364">
        <ele>176</ele>
        <time>2017-07-14T09:11:56Z</time>
      </trkpt>
      <trkpt lat="45.91507" lon="4.76373">
        <ele>176</ele>
        <time>2017-07-14T09:11:58Z</time>
      </trkpt>
      <trkpt lat="45.91505" lon="4.76378">
        <ele>176</ele>
        <time>2017-07-14T09:11:59Z</time>
      </trkpt>
      <trkpt lat="45.915" lon="4.76387">
        <ele>176</ele>
        <time>2017-07-14T09:12:01Z</time>
      </trkpt>
      <trkpt lat="45.91498" lon="4.76391">
        <ele>176</ele>
        <time>2017-07-14T09:12:02Z</time>
      </trkpt>
      <trkpt lat="45.91493" lon="4.76399">
        <ele>176</ele>
        <time>2017-07-14T09:12:04Z</time>
      </trkpt>
      <trkpt lat="45.91491" lon="4.76403">
        <ele>176</ele>
        <time>2017-07-14T09:12:05Z</time>
      </trkpt>
      <trkpt lat="45.91487" lon="4.76411">
        <ele>176</ele>
        <time>2017-07-14T09:12:07Z</time>
      </trkpt>
      <trkpt lat="45.91485" lon="4.76415">
        <ele>176</ele>
        <time>2017-07-14T09:12:08Z</time>
      </trkpt>
      <trkpt lat="45.9148" lon="4.76424">
        <ele>176</ele>
        <time>2017-07-14T09:12:10Z</time>
      </trkpt>
      <trkpt lat="45.91477" lon="4.76429">
        <ele>176</ele>
        <time>2017-07-14T09:12:11Z</time>
      </trkpt>
      <trkpt lat="45.91474" lon="4.76433">
        <ele>176</ele>
        <time>2017-07-14T09:12:12Z</time>
      </trkpt>
      <trkpt lat="45.9147" lon="4.76439">
        <ele>176</ele>
        <time>2017-07-14T09:12:13Z</time>
      </trkpt>
      <trkpt lat="45.91465" lon="4.76449">
        <ele>177</ele>
        <time>2017-07-14T09:12:15Z</time>
      </trkpt>
      <trkpt lat="45.91462" lon="4.76454">
        <ele>177</ele>
        <time>2017-07-14T09:12:16Z</time>
      </trkpt>
      <trkpt lat="45.91457" lon="4.76462">
        <ele>177</ele>
        <time>2017-07-14T09:12:18Z</time>
      </trkpt>
      <trkpt lat="45.91455" lon="4.76467">
        <ele>177</ele>
        <time>2017-07-14T09:12:19Z</time>
      </trkpt>
      <trkpt lat="45.9145" lon="4.76475">
        <ele>177</ele>
        <time>2017-07-14T09:12:21Z</time>
      </trkpt>
      <trkpt lat="45.91448" lon="4.76479">
        <ele>177</ele>
        <time>2017-07-14T09:12:22Z</time>
      </trkpt>
      <trkpt lat="45.91443" lon="4.76486">
        <ele>177</ele>
        <time>2017-07-14T09:12:24Z</time>
      </trkpt>
      <trkpt lat="45.91441" lon="4.7649">
        <ele>177</ele>
        <time>2017-07-14T09:12:25Z</time>
      </trkpt>
      <trkpt lat="45.91436" lon="4.76499">
        <ele>177</ele>
        <time>2017-07-14T09:12:27Z</time>
      </trkpt>
      <trkpt lat="45.91433" lon="4.76504">
        <ele>177</ele>
        <time>2017-07-14T09:12:28Z</time>
      </trkpt>
      <trkpt lat="45.9143" lon="4.76509">
        <ele>177</ele>
        <time>2017-07-14T09:12:29Z</time>
      </trkpt>
      <trkpt lat="45.91428" lon="4.76514">
        <ele>177</ele>
        <time>2017-07-14T09:12:30Z</time>
      </trkpt>
      <trkpt lat="45.91422" lon="4.76524">
        <ele>177</ele>
        <time>2017-07-14T09:12:32Z</time>
      </trkpt>
      <trkpt lat="45.9142" lon="4.76529">
        <ele>177</ele>
        <time>2017-07-14T09:12:33Z</time>
      </trkpt>
      <trkpt lat="45.91414" lon="4.76539">
        <ele>177</ele>
        <time>2017-07-14T09:12:35Z</time>
      </trkpt>
      <trkpt lat="45.91411" lon="4.76546">
        <ele>177</ele>
        <time>2017-07-14T09:12:36Z</time>
      </trkpt>
      <trkpt lat="45.91408" lon="4.76552">
        <ele>177</ele>
        <time>2017-07-14T09:12:37Z</time>
      </trkpt>
      <trkpt lat="45.91404" lon="4.76559">
        <ele>177</ele>
        <time>2017-07-14T09:12:38Z</time>
      </trkpt>
      <trkpt lat="45.91401" lon="4.76565">
        <ele>177</ele>
        <time>2017-07-14T09:12:39Z</time>
      </trkpt>
      <trkpt lat="45.91397" lon="4.76572">
        <ele>177</ele>
        <time>2017-07-14T09:12:40Z</time>
      </trkpt>
      <trkpt lat="45.91394" lon="4.76578">
        <ele>177</ele>
        <time>2017-07-14T09:12:41Z</time>
      </trkpt>
      <trkpt lat="45.91391" lon="4.76585">
        <ele>176</ele>
        <time>2017-07-14T09:12:42Z</time>
      </trkpt>
      <trkpt lat="45.91387" lon="4.76592">
        <ele>176</ele>
        <time>2017-07-14T09:12:43Z</time>
      </trkpt>
      <trkpt lat="45.91384" lon="4.76599">
        <ele>176</ele>
        <time>2017-07-14T09:12:44Z</time>
      </trkpt>
      <trkpt lat="45.91381" lon="4.76604">
        <ele>176</ele>
        <time>2017-07-14T09:12:45Z</time>
      </trkpt>
      <trkpt lat="45.91377" lon="4.7661">
        <ele>176</ele>
        <time>2017-07-14T09:12:46Z</time>
      </trkpt>
      <trkpt lat="45.91374" lon="4.76616">
        <ele>176</ele>
        <time>2017-07-14T09:12:47Z</time>
      </trkpt>
      <trkpt lat="45.91371" lon="4.76622">
        <ele>176</ele>
        <time>2017-07-14T09:12:48Z</time>
      </trkpt>
      <trkpt lat="45.91368" lon="4.76627">
        <ele>176</ele>
        <time>2017-07-14T09:12:49Z</time>
      </trkpt>
      <trkpt lat="45.91365" lon="4.76632">
        <ele>176</ele>
        <time>2017-07-14T09:12:50Z</time>
      </trkpt>
      <trkpt lat="45.91362" lon="4.76638">
        <ele>176</ele>
        <time>2017-07-14T09:12:51Z</time>
      </trkpt>
      <trkpt lat="45.9136" lon="4.76643">
        <ele>176</ele>
        <time>2017-07-14T09:12:52Z</time>
      </trkpt>
      <trkpt lat="45.91358" lon="4.76649">
        <ele>176</ele>
        <time>2017-07-14T09:12:53Z</time>
      </trkpt>
      <trkpt lat="45.91355" lon="4.76654">
        <ele>176</ele>
        <time>2017-07-14T09:12:54Z</time>
      </trkpt>
      <trkpt lat="45.91351" lon="4.7666">
        <ele>176</ele>
        <time>2017-07-14T09:12:55Z</time>
      </trkpt>
      <trkpt lat="45.91347" lon="4.76666">
        <ele>176</ele>
        <time>2017-07-14T09:12:56Z</time>
      </trkpt>
      <trkpt lat="45.91344" lon="4.76671">
        <ele>176</ele>
        <time>2017-07-14T09:12:57Z</time>
      </trkpt>
      <trkpt lat="45.91341" lon="4.76677">
        <ele>176</ele>
        <time>2017-07-14T09:12:58Z</time>
      </trkpt>
      <trkpt lat="45.91336" lon="4.76687">
        <ele>176</ele>
        <time>2017-07-14T09:13:00Z</time>
      </trkpt>
      <trkpt lat="45.91334" lon="4.76692">
        <ele>176</ele>
        <time>2017-07-14T09:13:01Z</time>
      </trkpt>
      <trkpt lat="45.9133" lon="4.76703">
        <ele>176</ele>
        <time>2017-07-14T09:13:03Z</time>
      </trkpt>
      <trkpt lat="45.91329" lon="4.7671">
        <ele>176</ele>
        <time>2017-07-14T09:13:04Z</time>
      </trkpt>
      <trkpt lat="45.91329" lon="4.76718">
        <ele>176</ele>
        <time>2017-07-14T09:13:05Z</time>
      </trkpt>
      <trkpt lat="45.91328" lon="4.76726">
        <ele>176</ele>
        <time>2017-07-14T09:13:06Z</time>
      </trkpt>
      <trkpt lat="45.91328" lon="4.76734">
        <ele>176</ele>
        <time>2017-07-14T09:13:07Z</time>
      </trkpt>
      <trkpt lat="45.91328" lon="4.76743">
        <ele>176</ele>
        <time>2017-07-14T09:13:08Z</time>
      </trkpt>
      <trkpt lat="45.91328" lon="4.76752">
        <ele>176</ele>
        <time>2017-07-14T09:13:09Z</time>
      </trkpt>
      <trkpt lat="45.91328" lon="4.76761">
        <ele>176</ele>
        <time>2017-07-14T09:13:10Z</time>
      </trkpt>
      <trkpt lat="45.91328" lon="4.7677">
        <ele>176</ele>
        <time>2017-07-14T09:13:11Z</time>
      </trkpt>
      <trkpt lat="45.91327" lon="4.76779">
        <ele>176</ele>
        <time>2017-07-14T09:13:12Z</time>
      </trkpt>
      <trkpt lat="45.91327" lon="4.76788">
        <ele>175</ele>
        <time>2017-07-14T09:13:13Z</time>
      </trkpt>
      <trkpt lat="45.91327" lon="4.76797">
        <ele>175</ele>
        <time>2017-07-14T09:13:14Z</time>
      </trkpt>
      <trkpt lat="45.91327" lon="4.76806">
        <ele>175</ele>
        <time>2017-07-14T09:13:15Z</time>
      </trkpt>
      <trkpt lat="45.91326" lon="4.76814">
        <ele>175</ele>
        <time>2017-07-14T09:13:16Z</time>
      </trkpt>
      <trkpt lat="45.91325" lon="4.76822">
        <ele>175</ele>
        <time>2017-07-14T09:13:17Z</time>
      </trkpt>
      <trkpt lat="45.91325" lon="4.7683">
        <ele>174</ele>
        <time>2017-07-14T09:13:18Z</time>
      </trkpt>
      <trkpt lat="45.91324" lon="4.76838">
        <ele>174</ele>
        <time>2017-07-14T09:13:19Z</time>
      </trkpt>
      <trkpt lat="45.91324" lon="4.76846">
        <ele>174</ele>
        <time>2017-07-14T09:13:20Z</time>
      </trkpt>
      <trkpt lat="45.91324" lon="4.76855">
        <ele>175</ele>
        <time>2017-07-14T09:13:21Z</time>
      </trkpt>
      <trkpt lat="45.91324" lon="4.76863">
        <ele>175</ele>
        <time>2017-07-14T09:13:22Z</time>
      </trkpt>
      <trkpt lat="45.91324" lon="4.76871">
        <ele>175</ele>
        <time>2017-07-14T09:13:23Z</time>
      </trkpt>
      <trkpt lat="45.91324" lon="4.7688">
        <ele>175</ele>
        <time>2017-07-14T09:13:24Z</time>
      </trkpt>
      <trkpt lat="45.91324" lon="4.76889">
        <ele>175</ele>
        <time>2017-07-14T09:13:25Z</time>
      </trkpt>
      <trkpt lat="45.91323" lon="4.76898">
        <ele>175</ele>
        <time>2017-07-14T09:13:26Z</time>
      </trkpt>
      <trkpt lat="45.91323" lon="4.76906">
        <ele>175</ele>
        <time>2017-07-14T09:13:27Z</time>
      </trkpt>
      <trkpt lat="45.91323" lon="4.76915">
        <ele>175</ele>
        <time>2017-07-14T09:13:28Z</time>
      </trkpt>
      <trkpt lat="45.91322" lon="4.76923">
        <ele>175</ele>
        <time>2017-07-14T09:13:29Z</time>
      </trkpt>
      <trkpt lat="45.91322" lon="4.76931">
        <ele>175</ele>
        <time>2017-07-14T09:13:30Z</time>
      </trkpt>
      <trkpt lat="45.91322" lon="4.7694">
        <ele>175</ele>
        <time>2017-07-14T09:13:31Z</time>
      </trkpt>
      <trkpt lat="45.91321" lon="4.76948">
        <ele>175</ele>
        <time>2017-07-14T09:13:32Z</time>
      </trkpt>
      <trkpt lat="45.91321" lon="4.76956">
        <ele>175</ele>
        <time>2017-07-14T09:13:33Z</time>
      </trkpt>
      <trkpt lat="45.9132" lon="4.76964">
        <ele>175</ele>
        <time>2017-07-14T09:13:34Z</time>
      </trkpt>
      <trkpt lat="45.9132" lon="4.76972">
        <ele>175</ele>
        <time>2017-07-14T09:13:35Z</time>
      </trkpt>
      <trkpt lat="45.91321" lon="4.7698">
        <ele>175</ele>
        <time>2017-07-14T09:13:36Z</time>
      </trkpt>
      <trkpt lat="45.91323" lon="4.76987">
        <ele>175</ele>
        <time>2017-07-14T09:13:37Z</time>
      </trkpt>
      <trkpt lat="45.91326" lon="4.76994">
        <ele>176</ele>
        <time>2017-07-14T09:13:38Z</time>
      </trkpt>
      <trkpt lat="45.91327" lon="4.77001">
        <ele>176</ele>
        <time>2017-07-14T09:13:39Z</time>
      </trkpt>
      <trkpt lat="45.91329" lon="4.77008">
        <ele>176</ele>
        <time>2017-07-14T09:13:40Z</time>
      </trkpt>
      <trkpt lat="45.91331" lon="4.77016">
        <ele>176</ele>
        <time>2017-07-14T09:13:41Z</time>
      </trkpt>
      <trkpt lat="45.91332" lon="4.77024">
        <ele>176</ele>
        <time>2017-07-14T09:13:42Z</time>
      </trkpt>
      <trkpt lat="45.91333" lon="4.77032">
        <ele>176</ele>
        <time>2017-07-14T09:13:43Z</time>
      </trkpt>
      <trkpt lat="45.91336" lon="4.77039">
        <ele>176</ele>
        <time>2017-07-14T09:13:44Z</time>
      </trkpt>
      <trkpt lat="45.91337" lon="4.77047">
        <ele>176</ele>
        <time>2017-07-14T09:13:45Z</time>
      </trkpt>
      <trkpt lat="45.91339" lon="4.77056">
        <ele>176</ele>
        <time>2017-07-14T09:13:46Z</time>
      </trkpt>
      <trkpt lat="45.91341" lon="4.77064">
        <ele>176</ele>
        <time>2017-07-14T09:13:47Z</time>
      </trkpt>
      <trkpt lat="45.91343" lon="4.77073">
        <ele>177</ele>
        <time>2017-07-14T09:13:48Z</time>
      </trkpt>
      <trkpt lat="45.91345" lon="4.77081">
        <ele>177</ele>
        <time>2017-07-14T09:13:49Z</time>
      </trkpt>
      <trkpt lat="45.91347" lon="4.7709">
        <ele>177</ele>
        <time>2017-07-14T09:13:50Z</time>
      </trkpt>
      <trkpt lat="45.91348" lon="4.77099">
        <ele>177</ele>
        <time>2017-07-14T09:13:51Z</time>
      </trkpt>
      <trkpt lat="45.91351" lon="4.77107">
        <ele>177</ele>
        <time>2017-07-14T09:13:52Z</time>
      </trkpt>
      <trkpt lat="45.91353" lon="4.77115">
        <ele>177</ele>
        <time>2017-07-14T09:13:53Z</time>
      </trkpt>
      <trkpt lat="45.91355" lon="4.77123">
        <ele>177</ele>
        <time>2017-07-14T09:13:54Z</time>
      </trkpt>
      <trkpt lat="45.91357" lon="4.77131">
        <ele>177</ele>
        <time>2017-07-14T09:13:55Z</time>
      </trkpt>
      <trkpt lat="45.91359" lon="4.77138">
        <ele>177</ele>
        <time>2017-07-14T09:13:56Z</time>
      </trkpt>
      <trkpt lat="45.9136" lon="4.77146">
        <ele>177</ele>
        <time>2017-07-14T09:13:57Z</time>
      </trkpt>
      <trkpt lat="45.91361" lon="4.77153">
        <ele>177</ele>
        <time>2017-07-14T09:13:58Z</time>
      </trkpt>
      <trkpt lat="45.91362" lon="4.7716">
        <ele>177</ele>
        <time>2017-07-14T09:13:59Z</time>
      </trkpt>
      <trkpt lat="45.91364" lon="4.77167">
        <ele>176</ele>
        <time>2017-07-14T09:14:00Z</time>
      </trkpt>
      <trkpt lat="45.91366" lon="4.77174">
        <ele>176</ele>
        <time>2017-07-14T09:14:01Z</time>
      </trkpt>
      <trkpt lat="45.91367" lon="4.77181">
        <ele>176</ele>
        <time>2017-07-14T09:14:02Z</time>
      </trkpt>
      <trkpt lat="45.91369" lon="4.77188">
        <ele>176</ele>
        <time>2017-07-14T09:14:03Z</time>
      </trkpt>
      <trkpt lat="45.9137" lon="4.77196">
        <ele>176</ele>
        <time>2017-07-14T09:14:04Z</time>
      </trkpt>
      <trkpt lat="45.91372" lon="4.77203">
        <ele>176</ele>
        <time>2017-07-14T09:14:05Z</time>
      </trkpt>
      <trkpt lat="45.91373" lon="4.77211">
        <ele>176</ele>
        <time>2017-07-14T09:14:06Z</time>
      </trkpt>
      <trkpt lat="45.91374" lon="4.77219">
        <ele>176</ele>
        <time>2017-07-14T09:14:07Z</time>
      </trkpt>
      <trkpt lat="45.91375" lon="4.77227">
        <ele>176</ele>
        <time>2017-07-14T09:14:08Z</time>
      </trkpt>
      <trkpt lat="45.91376" lon="4.77235">
        <ele>176</ele>
        <time>2017-07-14T09:14:09Z</time>
      </trkpt>
      <trkpt lat="45.91377" lon="4.77243">
        <ele>176</ele>
        <time>2017-07-14T09:14:10Z</time>
      </trkpt>
      <trkpt lat="45.91378" lon="4.77252">
        <ele>175</ele>
        <time>2017-07-14T09:14:11Z</time>
      </trkpt>
      <trkpt lat="45.9138" lon="4.7726">
        <ele>175</ele>
        <time>2017-07-14T09:14:12Z</time>
      </trkpt>
      <trkpt lat="45.91381" lon="4.77267">
        <ele>175</ele>
        <time>2017-07-14T09:14:13Z</time>
      </trkpt>
      <trkpt lat="45.91382" lon="4.77275">
        <ele>175</ele>
        <time>2017-07-14T09:14:14Z</time>
      </trkpt>
      <trkpt lat="45.91382" lon="4.77282">
        <ele>175</ele>
        <time>2017-07-14T09:14:15Z</time>
      </trkpt>
      <trkpt lat="45.91383" lon="4.7729">
        <ele>175</ele>
        <time>2017-07-14T09:14:16Z</time>
      </trkpt>
      <trkpt lat="45.91384" lon="4.77298">
        <ele>175</ele>
        <time>2017-07-14T09:14:17Z</time>
      </trkpt>
      <trkpt lat="45.91384" lon="4.77305">
        <ele>175</ele>
        <time>2017-07-14T09:14:18Z</time>
      </trkpt>
      <trkpt lat="45.91384" lon="4.77313">
        <ele>175</ele>
        <time>2017-07-14T09:14:19Z</time>
      </trkpt>
      <trkpt lat="45.91385" lon="4.7732">
        <ele>175</ele>
        <time>2017-07-14T09:14:20Z</time>
      </trkpt>
      <trkpt lat="45.91385" lon="4.77327">
        <ele>175</ele>
        <time>2017-07-14T09:14:21Z</time>
      </trkpt>
      <trkpt lat="45.91385" lon="4.77334">
        <ele>175</ele>
        <time>2017-07-14T09:14:22Z</time>
      </trkpt>
      <trkpt lat="45.91385" lon="4.77341">
        <ele>175</ele>
        <time>2017-07-14T09:14:23Z</time>
      </trkpt>
      <trkpt lat="45.91385" lon="4.77348">
        <ele>175</ele>
        <time>2017-07-14T09:14:24Z</time>
      </trkpt>
      <trkpt lat="45.91384" lon="4.77356">
        <ele>174</ele>
        <time>2017-07-14T09:14:25Z</time>
      </trkpt>
      <trkpt lat="45.91385" lon="4.77364">
        <ele>174</ele>
        <time>2017-07-14T09:14:26Z</time>
      </trkpt>
      <trkpt lat="45.91385" lon="4.77372">
        <ele>174</ele>
        <time>2017-07-14T09:14:27Z</time>
      </trkpt>
      <trkpt lat="45.91385" lon="4.7738">
        <ele>174</ele>
        <time>2017-07-14T09:14:28Z</time>
      </trkpt>
      <trkpt lat="45.91386" lon="4.77392">
        <ele>174</ele>
        <time>2017-07-14T09:14:30Z</time>
      </trkpt>
      <trkpt lat="45.91386" lon="4.77397">
        <ele>174</ele>
        <time>2017-07-14T09:14:31Z</time>
      </trkpt>
      <trkpt lat="45.91386" lon="4.77409">
        <ele>174</ele>
        <time>2017-07-14T09:14:33Z</time>
      </trkpt>
      <trkpt lat="45.91387" lon="4.77417">
        <ele>174</ele>
        <time>2017-07-14T09:14:34Z</time>
      </trkpt>
      <trkpt lat="45.91388" lon="4.77425">
        <ele>174</ele>
        <time>2017-07-14T09:14:35Z</time>
      </trkpt>
      <trkpt lat="45.91389" lon="4.77433">
        <ele>174</ele>
        <time>2017-07-14T09:14:36Z</time>
      </trkpt>
      <trkpt lat="45.9139" lon="4.77443">
        <ele>174</ele>
        <time>2017-07-14T09:14:37Z</time>
      </trkpt>
      <trkpt lat="45.9139" lon="4.77452">
        <ele>174</ele>
        <time>2017-07-14T09:14:38Z</time>
      </trkpt>
      <trkpt lat="45.9139" lon="4.77461">
        <ele>174</ele>
        <time>2017-07-14T09:14:39Z</time>
      </trkpt>
      <trkpt lat="45.91391" lon="4.7747">
        <ele>174</ele>
        <time>2017-07-14T09:14:40Z</time>
      </trkpt>
      <trkpt lat="45.91392" lon="4.77479">
        <ele>174</ele>
        <time>2017-07-14T09:14:41Z</time>
      </trkpt>
      <trkpt lat="45.91393" lon="4.77487">
        <ele>174</ele>
        <time>2017-07-14T09:14:42Z</time>
      </trkpt>
      <trkpt lat="45.91394" lon="4.77495">
        <ele>174</ele>
        <time>2017-07-14T09:14:43Z</time>
      </trkpt>
      <trkpt lat="45.91394" lon="4.77503">
        <ele>174</ele>
        <time>2017-07-14T09:14:44Z</time>
      </trkpt>
      <trkpt lat="45.91394" lon="4.77511">
        <ele>174</ele>
        <time>2017-07-14T09:14:45Z</time>
      </trkpt>
      <trkpt lat="45.91394" lon="4.77519">
        <ele>174</ele>
        <time>2017-07-14T09:14:46Z</time>
      </trkpt>
      <trkpt lat="45.91394" lon="4.77527">
        <ele>174</ele>
        <time>2017-07-14T09:14:47Z</time>
      </trkpt>
      <trkpt lat="45.91395" lon="4.77535">
        <ele>174</ele>
        <time>2017-07-14T09:14:48Z</time>
      </trkpt>
      <trkpt lat="45.91395" lon="4.77543">
        <ele>174</ele>
        <time>2017-07-14T09:14:49Z</time>
      </trkpt>
      <trkpt lat="45.91395" lon="4.7755">
        <ele>174</ele>
        <time>2017-07-14T09:14:50Z</time>
      </trkpt>
      <trkpt lat="45.91395" lon="4.77557">
        <ele>174</ele>
        <time>2017-07-14T09:14:51Z</time>
      </trkpt>
      <trkpt lat="45.91396" lon="4.77564">
        <ele>174</ele>
        <time>2017-07-14T09:14:52Z</time>
      </trkpt>
      <trkpt lat="45.91397" lon="4.77571">
        <ele>174</ele>
        <time>2017-07-14T09:14:53Z</time>
      </trkpt>
      <trkpt lat="45.91397" lon="4.77578">
        <ele>174</ele>
        <time>2017-07-14T09:14:54Z</time>
      </trkpt>
      <trkpt lat="45.91397" lon="4.77586">
        <ele>174</ele>
        <time>2017-07-14T09:14:55Z</time>
      </trkpt>
      <trkpt lat="45.91398" lon="4.77593">
        <ele>174</ele>
        <time>2017-07-14T09:14:56Z</time>
      </trkpt>
      <trkpt lat="45.91398" lon="4.77601">
        <ele>174</ele>
        <time>2017-07-14T09:14:57Z</time>
      </trkpt>
      <trkpt lat="45.91399" lon="4.77609">
        <ele>174</ele>
        <time>2017-07-14T09:14:58Z</time>
      </trkpt>
      <trkpt lat="45.914" lon="4.77616">
        <ele>175</ele>
        <time>2017-07-14T09:14:59Z</time>
      </trkpt>
      <trkpt lat="45.914" lon="4.77623">
        <ele>175</ele>
        <time>2017-07-14T09:15:00Z</time>
      </trkpt>
      <trkpt lat="45.91401" lon="4.77635">
        <ele>175</ele>
        <time>2017-07-14T09:15:02Z</time>
      </trkpt>
      <trkpt lat="45.91402" lon="4.77641">
        <ele>175</ele>
        <time>2017-07-14T09:15:03Z</time>
      </trkpt>
      <trkpt lat="45.91404" lon="4.77651">
        <ele>175</ele>
        <time>2017-07-14T09:15:05Z</time>
      </trkpt>
      <trkpt lat="45.91406" lon="4.77657">
        <ele>175</ele>
        <time>2017-07-14T09:15:06Z</time>
      </trkpt>
      <trkpt lat="45.91408" lon="4.77667">
        <ele>176</ele>
        <time>2017-07-14T09:15:08Z</time>
      </trkpt>
      <trkpt lat="45.9141" lon="4.77672">
        <ele>176</ele>
        <time>2017-07-14T09:15:09Z</time>
      </trkpt>
      <trkpt lat="45.91413" lon="4.77684">
        <ele>176</ele>
        <time>2017-07-14T09:15:11Z</time>
      </trkpt>
      <trkpt lat="45.91414" lon="4.77689">
        <ele>176</ele>
        <time>2017-07-14T09:15:12Z</time>
      </trkpt>
      <trkpt lat="45.91416" lon="4.77698">
        <ele>176</ele>
        <time>2017-07-14T09:15:14Z</time>
      </trkpt>
      <trkpt lat="45.91415" lon="4.77702">
        <ele>176</ele>
        <time>2017-07-14T09:15:15Z</time>
      </trkpt>
      <trkpt lat="45.9141" lon="4.7771">
        <ele>177</ele>
        <time>2017-07-14T09:15:18Z</time>
      </trkpt>
      <trkpt lat="45.91408" lon="4.77713">
        <ele>177</ele>
        <time>2017-07-14T09:15:19Z</time>
      </trkpt>
      <trkpt lat="45.91401" lon="4.77715">
        <ele>177</ele>
        <time>2017-07-14T09:15:21Z</time>
      </trkpt>
      <trkpt lat="45.91397" lon="4.77716">
        <ele>177</ele>
        <time>2017-07-14T09:15:22Z</time>
      </trkpt>
      <trkpt lat="45.91389" lon="4.77716">
        <ele>176</ele>
        <time>2017-07-14T09:15:24Z</time>
      </trkpt>
      <trkpt lat="45.91385" lon="4.77717">
        <ele>176</ele>
        <time>2017-07-14T09:15:25Z</time>
      </trkpt>
      <trkpt lat="45.91377" lon="4.77716">
        <ele>176</ele>
        <time>2017-07-14T09:15:27Z</time>
      </trkpt>
      <trkpt lat="45.91372" lon="4.77716">
        <ele>176</ele>
        <time>2017-07-14T09:15:28Z</time>
      </trkpt>
      <trkpt lat="45.91368" lon="4.77716">
        <ele>176</ele>
        <time>2017-07-14T09:15:29Z</time>
      </trkpt>
      <trkpt lat="45.91363" lon="4.77716">
        <ele>176</ele>
        <time>2017-07-14T09:15:30Z</time>
      </trkpt>
      <trkpt lat="45.91358" lon="4.77716">
        <ele>176</ele>
        <time>2017-07-14T09:15:31Z</time>
      </trkpt>
      <trkpt lat="45.91353" lon="4.77715">
        <ele>176</ele>
        <time>2017-07-14T09:15:32Z</time>
      </trkpt>
      <trkpt lat="45.91348" lon="4.77715">
        <ele>176</ele>
        <time>2017-07-14T09:15:33Z</time>
      </trkpt>
      <trkpt lat="45.91344" lon="4.77715">
        <ele>176</ele>
        <time>2017-07-14T09:15:34Z</time>
      </trkpt>
      <trkpt lat="45.91339" lon="4.77714">
        <ele>176</ele>
        <time>2017-07-14T09:15:35Z</time>
      </trkpt>
      <trkpt lat="45.91334" lon="4.77714">
        <ele>176</ele>
        <time>2017-07-14T09:15:36Z</time>
      </trkpt>
      <trkpt lat="45.91329" lon="4.77713">
        <ele>176</ele>
        <time>2017-07-14T09:15:37Z</time>
      </trkpt>
      <trkpt lat="45.91325" lon="4.77712">
        <ele>176</ele>
        <time>2017-07-14T09:15:38Z</time>
      </trkpt>
      <trkpt lat="45.91316" lon="4.77708">
        <ele>176</ele>
        <time>2017-07-14T09:15:40Z</time>
      </trkpt>
      <trkpt lat="45.91311" lon="4.77705">
        <ele>176</ele>
        <time>2017-07-14T09:15:41Z</time>
      </trkpt>
      <trkpt lat="45.91306" lon="4.77702">
        <ele>176</ele>
        <time>2017-07-14T09:15:42Z</time>
      </trkpt>
      <trkpt lat="45.91301" lon="4.77699">
        <ele>176</ele>
        <time>2017-07-14T09:15:43Z</time>
      </trkpt>
      <trkpt lat="45.91296" lon="4.77697">
        <ele>176</ele>
        <time>2017-07-14T09:15:44Z</time>
      </trkpt>
      <trkpt lat="45.91292" lon="4.77694">
        <ele>176</ele>
        <time>2017-07-14T09:15:45Z</time>
      </trkpt>
      <trkpt lat="45.91287" lon="4.77692">
        <ele>176</ele>
        <time>2017-07-14T09:15:46Z</time>
      </trkpt>
      <trkpt lat="45.91283" lon="4.77689">
        <ele>176</ele>
        <time>2017-07-14T09:15:47Z</time>
      </trkpt>
      <trkpt lat="45.91278" lon="4.77686">
        <ele>176</ele>
        <time>2017-07-14T09:15:48Z</time>
      </trkpt>
      <trkpt lat="45.91273" lon="4.77685">
        <ele>176</ele>
        <time>2017-07-14T09:15:49Z</time>
      </trkpt>
      <trkpt lat="45.91267" lon="4.77682">
        <ele>176</ele>
        <time>2017-07-14T09:15:50Z</time>
      </trkpt>
      <trkpt lat="45.91261" lon="4.7768">
        <ele>175</ele>
        <time>2017-07-14T09:15:51Z</time>
      </trkpt>
      <trkpt lat="45.91255" lon="4.77679">
        <ele>175</ele>
        <time>2017-07-14T09:15:52Z</time>
      </trkpt>
      <trkpt lat="45.91249" lon="4.77678">
        <ele>176</ele>
        <time>2017-07-14T09:15:53Z</time>
      </trkpt>
      <trkpt lat="45.91243" lon="4.77679">
        <ele>176</ele>
        <time>2017-07-14T09:15:54Z</time>
      </trkpt>
      <trkpt lat="45.91238" lon="4.7768">
        <ele>176</ele>
        <time>2017-07-14T09:15:55Z</time>
      </trkpt>
      <trkpt lat="45.91233" lon="4.77682">
        <ele>176</ele>
        <time>2017-07-14T09:15:56Z</time>
      </trkpt>
      <trkpt lat="45.91228" lon="4.77683">
        <ele>176</ele>
        <time>2017-07-14T09:15:57Z</time>
      </trkpt>
      <trkpt lat="45.91223" lon="4.77684">
        <ele>176</ele>
        <time>2017-07-14T09:15:58Z</time>
      </trkpt>
      <trkpt lat="45.91218" lon="4.77686">
        <ele>176</ele>
        <time>2017-07-14T09:15:59Z</time>
      </trkpt>
      <trkpt lat="45.91212" lon="4.77687">
        <ele>176</ele>
        <time>2017-07-14T09:16:00Z</time>
      </trkpt>
      <trkpt lat="45.91207" lon="4.77688">
        <ele>176</ele>
        <time>2017-07-14T09:16:01Z</time>
      </trkpt>
      <trkpt lat="45.91201" lon="4.7769">
        <ele>176</ele>
        <time>2017-07-14T09:16:02Z</time>
      </trkpt>
      <trkpt lat="45.91195" lon="4.77691">
        <ele>176</ele>
        <time>2017-07-14T09:16:03Z</time>
      </trkpt>
      <trkpt lat="45.91189" lon="4.77693">
        <ele>176</ele>
        <time>2017-07-14T09:16:04Z</time>
      </trkpt>
      <trkpt lat="45.91183" lon="4.77694">
        <ele>176</ele>
        <time>2017-07-14T09:16:05Z</time>
      </trkpt>
      <trkpt lat="45.91176" lon="4.77697">
        <ele>176</ele>
        <time>2017-07-14T09:16:06Z</time>
      </trkpt>
      <trkpt lat="45.91171" lon="4.77699">
        <ele>176</ele>
        <time>2017-07-14T09:16:07Z</time>
      </trkpt>
      <trkpt lat="45.91165" lon="4.77701">
        <ele>177</ele>
        <time>2017-07-14T09:16:08Z</time>
      </trkpt>
      <trkpt lat="45.9116" lon="4.77703">
        <ele>177</ele>
        <time>2017-07-14T09:16:09Z</time>
      </trkpt>
      <trkpt lat="45.91155" lon="4.77705">
        <ele>177</ele>
        <time>2017-07-14T09:16:10Z</time>
      </trkpt>
      <trkpt lat="45.9115" lon="4.77706">
        <ele>177</ele>
        <time>2017-07-14T09:16:11Z</time>
      </trkpt>
      <trkpt lat="45.91145" lon="4.77708">
        <ele>177</ele>
        <time>2017-07-14T09:16:12Z</time>
      </trkpt>
      <trkpt lat="45.9114" lon="4.7771">
        <ele>177</ele>
        <time>2017-07-14T09:16:13Z</time>
      </trkpt>
      <trkpt lat="45.91134" lon="4.77712">
        <ele>177</ele>
        <time>2017-07-14T09:16:14Z</time>
      </trkpt>
      <trkpt lat="45.91129" lon="4.77714">
        <ele>177</ele>
        <time>2017-07-14T09:16:15Z</time>
      </trkpt>
      <trkpt lat="45.91123" lon="4.77717">
        <ele>177</ele>
        <time>2017-07-14T09:16:16Z</time>
      </trkpt>
      <trkpt lat="45.91118" lon="4.77721">
        <ele>177</ele>
        <time>2017-07-14T09:16:17Z</time>
      </trkpt>
      <trkpt lat="45.91112" lon="4.77725">
        <ele>178</ele>
        <time>2017-07-14T09:16:18Z</time>
      </trkpt>
      <trkpt lat="45.91107" lon="4.77729">
        <ele>178</ele>
        <time>2017-07-14T09:16:19Z</time>
      </trkpt>
      <trkpt lat="45.91101" lon="4.77733">
        <ele>178</ele>
        <time>2017-07-14T09:16:20Z</time>
      </trkpt>
      <trkpt lat="45.91095" lon="4.77736">
        <ele>178</ele>
        <time>2017-07-14T09:16:21Z</time>
      </trkpt>
      <trkpt lat="45.91089" lon="4.7774">
        <ele>178</ele>
        <time>2017-07-14T09:16:22Z</time>
      </trkpt>
      <trkpt lat="45.91083" lon="4.77744">
        <ele>179</ele>
        <time>2017-07-14T09:16:23Z</time>
      </trkpt>
      <trkpt lat="45.91077" lon="4.77747">
        <ele>179</ele>
        <time>2017-07-14T09:16:24Z</time>
      </trkpt>
      <trkpt lat="45.9107" lon="4.77752">
        <ele>179</ele>
        <time>2017-07-14T09:16:25Z</time>
      </trkpt>
      <trkpt lat="45.91064" lon="4.77756">
        <ele>178</ele>
        <time>2017-07-14T09:16:26Z</time>
      </trkpt>
      <trkpt lat="45.91058" lon="4.77759">
        <ele>178</ele>
        <time>2017-07-14T09:16:27Z</time>
      </trkpt>
      <trkpt lat="45.91052" lon="4.77762">
        <ele>178</ele>
        <time>2017-07-14T09:16:28Z</time>
      </trkpt>
      <trkpt lat="45.91047" lon="4.77765">
        <ele>178</ele>
        <time>2017-07-14T09:16:29Z</time>
      </trkpt>
      <trkpt lat="45.91041" lon="4.77767">
        <ele>178</ele>
        <time>2017-07-14T09:16:30Z</time>
      </trkpt>
      <trkpt lat="45.91036" lon="4.7777">
        <ele>178</ele>
        <time>2017-07-14T09:16:31Z</time>
      </trkpt>
      <trkpt lat="45.9103" lon="4.77772">
        <ele>178</ele>
        <time>2017-07-14T09:16:32Z</time>
      </trkpt>
      <trkpt lat="45.91024" lon="4.77774">
        <ele>178</ele>
        <time>2017-07-14T09:16:33Z</time>
      </trkpt>
      <trkpt lat="45.91019" lon="4.77776">
        <ele>178</ele>
        <time>2017-07-14T09:16:34Z</time>
      </trkpt>
      <trkpt lat="45.91013" lon="4.77777">
        <ele>178</ele>
        <time>2017-07-14T09:16:35Z</time>
      </trkpt>
      <trkpt lat="45.91006" lon="4.77778">
        <ele>178</ele>
        <time>2017-07-14T09:16:36Z</time>
      </trkpt>
      <trkpt lat="45.91" lon="4.7778">
        <ele>178</ele>
        <time>2017-07-14T09:16:37Z</time>
      </trkpt>
      <trkpt lat="45.90994" lon="4.77781">
        <ele>177</ele>
        <time>2017-07-14T09:16:38Z</time>
      </trkpt>
      <trkpt lat="45.90988" lon="4.77782">
        <ele>177</ele>
        <time>2017-07-14T09:16:39Z</time>
      </trkpt>
      <trkpt lat="45.90983" lon="4.77783">
        <ele>177</ele>
        <time>2017-07-14T09:16:40Z</time>
      </trkpt>
      <trkpt lat="45.90977" lon="4.77783">
        <ele>177</ele>
        <time>2017-07-14T09:16:41Z</time>
      </trkpt>
      <trkpt lat="45.90971" lon="4.77783">
        <ele>177</ele>
        <time>2017-07-14T09:16:42Z</time>
      </trkpt>
      <trkpt lat="45.90966" lon="4.77783">
        <ele>177</ele>
        <time>2017-07-14T09:16:43Z</time>
      </trkpt>
      <trkpt lat="45.90961" lon="4.7778">
        <ele>177</ele>
        <time>2017-07-14T09:16:44Z</time>
      </trkpt>
      <trkpt lat="45.90957" lon="4.77776">
        <ele>177</ele>
        <time>2017-07-14T09:16:45Z</time>
      </trkpt>
      <trkpt lat="45.90953" lon="4.77773">
        <ele>177</ele>
        <time>2017-07-14T09:16:46Z</time>
      </trkpt>
      <trkpt lat="45.90949" lon="4.7777">
        <ele>177</ele>
        <time>2017-07-14T09:16:47Z</time>
      </trkpt>
      <trkpt lat="45.90943" lon="4.77768">
        <ele>177</ele>
        <time>2017-07-14T09:16:48Z</time>
      </trkpt>
      <trkpt lat="45.90938" lon="4.77767">
        <ele>177</ele>
        <time>2017-07-14T09:16:49Z</time>
      </trkpt>
      <trkpt lat="45.90932" lon="4.77765">
        <ele>177</ele>
        <time>2017-07-14T09:16:50Z</time>
      </trkpt>
      <trkpt lat="45.90927" lon="4.77762">
        <ele>177</ele>
        <time>2017-07-14T09:16:51Z</time>
      </trkpt>
      <trkpt lat="45.90923" lon="4.77757">
        <ele>176</ele>
        <time>2017-07-14T09:16:52Z</time>
      </trkpt>
      <trkpt lat="45.9092" lon="4.77752">
        <ele>176</ele>
        <time>2017-07-14T09:16:53Z</time>
      </trkpt>
      <trkpt lat="45.90915" lon="4.77748">
        <ele>176</ele>
        <time>2017-07-14T09:16:54Z</time>
      </trkpt>
      <trkpt lat="45.90911" lon="4.77743">
        <ele>176</ele>
        <time>2017-07-14T09:16:55Z</time>
      </trkpt>
      <trkpt lat="45.90907" lon="4.77738">
        <ele>177</ele>
        <time>2017-07-14T09:16:56Z</time>
      </trkpt>
      <trkpt lat="45.90903" lon="4.77734">
        <ele>177</ele>
        <time>2017-07-14T09:16:57Z</time>
      </trkpt>
      <trkpt lat="45.909" lon="4.77729">
        <ele>177</ele>
        <time>2017-07-14T09:16:58Z</time>
      </trkpt>
      <trkpt lat="45.90897" lon="4.77724">
        <ele>177</ele>
        <time>2017-07-14T09:16:59Z</time>
      </trkpt>
      <trkpt lat="45.90893" lon="4.7772">
        <ele>177</ele>
        <time>2017-07-14T09:17:00Z</time>
      </trkpt>
      <trkpt lat="45.90889" lon="4.77716">
        <ele>177</ele>
        <time>2017-07-14T09:17:01Z</time>
      </trkpt>
      <trkpt lat="45.90882" lon="4.77708">
        <ele>177</ele>
        <time>2017-07-14T09:17:03Z</time>
      </trkpt>
      <trkpt lat="45.90879" lon="4.77704">
        <ele>177</ele>
        <time>2017-07-14T09:17:04Z</time>
      </trkpt>
      <trkpt lat="45.90871" lon="4.77698">
        <ele>178</ele>
        <time>2017-07-14T09:17:06Z</time>
      </trkpt>
      <trkpt lat="45.90867" lon="4.77695">
        <ele>178</ele>
        <time>2017-07-14T09:17:07Z</time>
      </trkpt>
      <trkpt lat="45.9086" lon="4.77689">
        <ele>178</ele>
        <time>2017-07-14T09:17:09Z</time>
      </trkpt>
      <trkpt lat="45.90856" lon="4.77686">
        <ele>178</ele>
        <time>2017-07-14T09:17:10Z</time>
      </trkpt>
      <trkpt lat="45.90851" lon="4.77683">
        <ele>178</ele>
        <time>2017-07-14T09:17:11Z</time>
      </trkpt>
      <trkpt lat="45.90846" lon="4.77681">
        <ele>178</ele>
        <time>2017-07-14T09:17:12Z</time>
      </trkpt>
      <trkpt lat="45.90841" lon="4.77679">
        <ele>178</ele>
        <time>2017-07-14T09:17:13Z</time>
      </trkpt>
      <trkpt lat="45.90836" lon="4.77676">
        <ele>179</ele>
        <time>2017-07-14T09:17:14Z</time>
      </trkpt>
      <trkpt lat="45.90832" lon="4.77675">
        <ele>179</ele>
        <time>2017-07-14T09:17:15Z</time>
      </trkpt>
      <trkpt lat="45.90828" lon="4.77672">
        <ele>179</ele>
        <time>2017-07-14T09:17:16Z</time>
      </trkpt>
      <trkpt lat="45.90823" lon="4.7767">
        <ele>179</ele>
        <time>2017-07-14T09:17:17Z</time>
      </trkpt>
      <trkpt lat="45.90819" lon="4.77669">
        <ele>179</ele>
        <time>2017-07-14T09:17:18Z</time>
      </trkpt>
      <trkpt lat="45.90811" lon="4.77666">
        <ele>179</ele>
        <time>2017-07-14T09:17:20Z</time>
      </trkpt>
      <trkpt lat="45.90807" lon="4.77664">
        <ele>179</ele>
        <time>2017-07-14T09:17:21Z</time>
      </trkpt>
      <trkpt lat="45.90799" lon="4.77663">
        <ele>179</ele>
        <time>2017-07-14T09:17:23Z</time>
      </trkpt>
      <trkpt lat="45.90795" lon="4.77662">
        <ele>179</ele>
        <time>2017-07-14T09:17:24Z</time>
      </trkpt>
      <trkpt lat="45.90787" lon="4.77659">
        <ele>179</ele>
        <time>2017-07-14T09:17:26Z</time>
      </trkpt>
      <trkpt lat="45.90784" lon="4.77658">
        <ele>179</ele>
        <time>2017-07-14T09:17:27Z</time>
      </trkpt>
      <trkpt lat="45.90775" lon="4.77656">
        <ele>180</ele>
        <time>2017-07-14T09:17:29Z</time>
      </trkpt>
      <trkpt lat="45.90772" lon="4.77655">
        <ele>180</ele>
        <time>2017-07-14T09:17:30Z</time>
      </trkpt>
      <trkpt lat="45.90765" lon="4.77651">
        <ele>180</ele>
        <time>2017-07-14T09:17:32Z</time>
      </trkpt>
      <trkpt lat="45.90762" lon="4.77649">
        <ele>180</ele>
        <time>2017-07-14T09:17:33Z</time>
      </trkpt>
      <trkpt lat="45.9076" lon="4.77637">
        <ele>179</ele>
        <time>2017-07-14T09:17:36Z</time>
      </trkpt>
      <trkpt lat="45.90761" lon="4.77634">
        <ele>179</ele>
        <time>2017-07-14T09:17:37Z</time>
      </trkpt>
      <trkpt lat="45.90766" lon="4.77624">
        <ele>179</ele>
        <time>2017-07-14T09:17:40Z</time>
      </trkpt>
      <trkpt lat="45.90769" lon="4.7762">
        <ele>179</ele>
        <time>2017-07-14T09:17:41Z</time>
      </trkpt>
      <trkpt lat="45.90774" lon="4.77612">
        <ele>179</ele>
        <time>2017-07-14T09:17:43Z</time>
      </trkpt>
      <trkpt lat="45.90777" lon="4.77609">
        <ele>179</ele>
        <time>2017-07-14T09:17:44Z</time>
      </trkpt>
      <trkpt lat="45.90783" lon="4.77604">
        <ele>179</ele>
        <time>2017-07-14T09:17:47Z</time>
      </trkpt>
      <trkpt lat="45.90784" lon="4.77602">
        <ele>179</ele>
        <time>2017-07-14T09:17:48Z</time>
      </trkpt>
      <trkpt lat="45.90785" lon="4.77602">
        <ele>179</ele>
        <time>2017-07-14T09:17:49Z</time>
      </trkpt>
      <trkpt lat="45.90786" lon="4.77602">
        <ele>179</ele>
        <time>2017-07-14T09:18:05Z</time>
      </trkpt>
      <trkpt lat="45.90788" lon="4.77601">
        <ele>179</ele>
        <time>2017-07-14T09:18:06Z</time>
      </trkpt>
      <trkpt lat="45.90791" lon="4.77592">
        <ele>179</ele>
        <time>2017-07-14T09:18:09Z</time>
      </trkpt>
      <trkpt lat="45.90793" lon="4.77588">
        <ele>179</ele>
        <time>2017-07-14T09:18:10Z</time>
      </trkpt>
      <trkpt lat="45.908" lon="4.7758">
        <ele>178</ele>
        <time>2017-07-14T09:18:13Z</time>
      </trkpt>
      <trkpt lat="45.90801" lon="4.77579">
        <ele>178</ele>
        <time>2017-07-14T09:18:14Z</time>
      </trkpt>
      <trkpt lat="45.90803" lon="4.77568">
        <ele>178</ele>
        <time>2017-07-14T09:18:48Z</time>
      </trkpt>
      <trkpt lat="45.90806" lon="4.77566">
        <ele>178</ele>
        <time>2017-07-14T09:18:49Z</time>
      </trkpt>
      <trkpt lat="45.90811" lon="4.77559">
        <ele>178</ele>
        <time>2017-07-14T09:18:51Z</time>
      </trkpt>
      <trkpt lat="45.90815" lon="4.77554">
        <ele>178</ele>
        <time>2017-07-14T09:18:52Z</time>
      </trkpt>
      <trkpt lat="45.90818" lon="4.77549">
        <ele>178</ele>
        <time>2017-07-14T09:18:53Z</time>
      </trkpt>
      <trkpt lat="45.90822" lon="4.77544">
        <ele>178</ele>
        <time>2017-07-14T09:18:54Z</time>
      </trkpt>
      <trkpt lat="45.90828" lon="4.77534">
        <ele>178</ele>
        <time>2017-07-14T09:18:56Z</time>
      </trkpt>
      <trkpt lat="45.90831" lon="4.7753">
        <ele>178</ele>
        <time>2017-07-14T09:18:57Z</time>
      </trkpt>
      <trkpt lat="45.90835" lon="4.77524">
        <ele>178</ele>
        <time>2017-07-14T09:18:58Z</time>
      </trkpt>
      <trkpt lat="45.90838" lon="4.77518">
        <ele>178</ele>
        <time>2017-07-14T09:18:59Z</time>
      </trkpt>
      <trkpt lat="45.90842" lon="4.77513">
        <ele>179</ele>
        <time>2017-07-14T09:19:00Z</time>
      </trkpt>
      <trkpt lat="45.90845" lon="4.77508">
        <ele>179</ele>
        <time>2017-07-14T09:19:01Z</time>
      </trkpt>
      <trkpt lat="45.90849" lon="4.77503">
        <ele>179</ele>
        <time>2017-07-14T09:19:02Z</time>
      </trkpt>
      <trkpt lat="45.90852" lon="4.77497">
        <ele>178</ele>
        <time>2017-07-14T09:19:03Z</time>
      </trkpt>
      <trkpt lat="45.90856" lon="4.77492">
        <ele>178</ele>
        <time>2017-07-14T09:19:04Z</time>
      </trkpt>
      <trkpt lat="45.90859" lon="4.77486">
        <ele>178</ele>
        <time>2017-07-14T09:19:05Z</time>
      </trkpt>
      <trkpt lat="45.90863" lon="4.7748">
        <ele>178</ele>
        <time>2017-07-14T09:19:06Z</time>
      </trkpt>
      <trkpt lat="45.90866" lon="4.77475">
        <ele>178</ele>
        <time>2017-07-14T09:19:07Z</time>
      </trkpt>
      <trkpt lat="45.9087" lon="4.77468">
        <ele>178</ele>
        <time>2017-07-14T09:19:08Z</time>
      </trkpt>
      <trkpt lat="45.90874" lon="4.77462">
        <ele>178</ele>
        <time>2017-07-14T09:19:09Z</time>
      </trkpt>
      <trkpt lat="45.90878" lon="4.77455">
        <ele>178</ele>
        <time>2017-07-14T09:19:10Z</time>
      </trkpt>
      <trkpt lat="45.90882" lon="4.77449">
        <ele>178</ele>
        <time>2017-07-14T09:19:11Z</time>
      </trkpt>
      <trkpt lat="45.90886" lon="4.77442">
        <ele>177</ele>
        <time>2017-07-14T09:19:12Z</time>
      </trkpt>
      <trkpt lat="45.9089" lon="4.77435">
        <ele>177</ele>
        <time>2017-07-14T09:19:13Z</time>
      </trkpt>
      <trkpt lat="45.90894" lon="4.77429">
        <ele>177</ele>
        <time>2017-07-14T09:19:14Z</time>
      </trkpt>
      <trkpt lat="45.90897" lon="4.77422">
        <ele>177</ele>
        <time>2017-07-14T09:19:15Z</time>
      </trkpt>
      <trkpt lat="45.90901" lon="4.77415">
        <ele>177</ele>
        <time>2017-07-14T09:19:16Z</time>
      </trkpt>
      <trkpt lat="45.90905" lon="4.77408">
        <ele>177</ele>
        <time>2017-07-14T09:19:17Z</time>
      </trkpt>
      <trkpt lat="45.90909" lon="4.77401">
        <ele>177</ele>
        <time>2017-07-14T09:19:18Z</time>
      </trkpt>
      <trkpt lat="45.90913" lon="4.77394">
        <ele>177</ele>
        <time>2017-07-14T09:19:19Z</time>
      </trkpt>
      <trkpt lat="45.90917" lon="4.77386">
        <ele>176</ele>
        <time>2017-07-14T09:19:20Z</time>
      </trkpt>
      <trkpt lat="45.90921" lon="4.77378">
        <ele>176</ele>
        <time>2017-07-14T09:19:21Z</time>
      </trkpt>
      <trkpt lat="45.90925" lon="4.77371">
        <ele>177</ele>
        <time>2017-07-14T09:19:22Z</time>
      </trkpt>
      <trkpt lat="45.90929" lon="4.77363">
        <ele>177</ele>
        <time>2017-07-14T09:19:23Z</time>
      </trkpt>
      <trkpt lat="45.90933" lon="4.77356">
        <ele>177</ele>
        <time>2017-07-14T09:19:24Z</time>
      </trkpt>
      <trkpt lat="45.90937" lon="4.77349">
        <ele>177</ele>
        <time>2017-07-14T09:19:25Z</time>
      </trkpt>
      <trkpt lat="45.90941" lon="4.77343">
        <ele>177</ele>
        <time>2017-07-14T09:19:26Z</time>
      </trkpt>
      <trkpt lat="45.90945" lon="4.77336">
        <ele>177</ele>
        <time>2017-07-14T09:19:27Z</time>
      </trkpt>
      <trkpt lat="45.90949" lon="4.7733">
        <ele>178</ele>
        <time>2017-07-14T09:19:28Z</time>
      </trkpt>
      <trkpt lat="45.90952" lon="4.77323">
        <ele>178</ele>
        <time>2017-07-14T09:19:29Z</time>
      </trkpt>
      <trkpt lat="45.90956" lon="4.77317">
        <ele>178</ele>
        <time>2017-07-14T09:19:30Z</time>
      </trkpt>
      <trkpt lat="45.90959" lon="4.77311">
        <ele>178</ele>
        <time>2017-07-14T09:19:31Z</time>
      </trkpt>
      <trkpt lat="45.90962" lon="4.77306">
        <ele>178</ele>
        <time>2017-07-14T09:19:32Z</time>
      </trkpt>
      <trkpt lat="45.90966" lon="4.773">
        <ele>178</ele>
        <time>2017-07-14T09:19:33Z</time>
      </trkpt>
      <trkpt lat="45.90969" lon="4.77295">
        <ele>178</ele>
        <time>2017-07-14T09:19:34Z</time>
      </trkpt>
      <trkpt lat="45.90973" lon="4.77289">
        <ele>178</ele>
        <time>2017-07-14T09:19:35Z</time>
      </trkpt>
      <trkpt lat="45.90976" lon="4.77282">
        <ele>178</ele>
        <time>2017-07-14T09:19:36Z</time>
      </trkpt>
      <trkpt lat="45.90979" lon="4.77275">
        <ele>178</ele>
        <time>2017-07-14T09:19:37Z</time>
      </trkpt>
      <trkpt lat="45.90981" lon="4.77267">
        <ele>178</ele>
        <time>2017-07-14T09:19:38Z</time>
      </trkpt>
      <trkpt lat="45.90981" lon="4.77258">
        <ele>178</ele>
        <time>2017-07-14T09:19:39Z</time>
      </trkpt>
      <trkpt lat="45.9098" lon="4.77249">
        <ele>178</ele>
        <time>2017-07-14T09:19:40Z</time>
      </trkpt>
      <trkpt lat="45.90978" lon="4.77241">
        <ele>178</ele>
        <time>2017-07-14T09:19:41Z</time>
      </trkpt>
      <trkpt lat="45.90975" lon="4.77234">
        <ele>177</ele>
        <time>2017-07-14T09:19:42Z</time>
      </trkpt>
      <trkpt lat="45.90972" lon="4.77227">
        <ele>177</ele>
        <time>2017-07-14T09:19:43Z</time>
      </trkpt>
      <trkpt lat="45.90969" lon="4.77221">
        <ele>177</ele>
        <time>2017-07-14T09:19:44Z</time>
      </trkpt>
      <trkpt lat="45.90966" lon="4.77215">
        <ele>177</ele>
        <time>2017-07-14T09:19:45Z</time>
      </trkpt>
      <trkpt lat="45.90963" lon="4.77209">
        <ele>177</ele>
        <time>2017-07-14T09:19:46Z</time>
      </trkpt>
      <trkpt lat="45.90959" lon="4.77203">
        <ele>177</ele>
        <time>2017-07-14T09:19:47Z</time>
      </trkpt>
      <trkpt lat="45.90955" lon="4.77198">
        <ele>177</ele>
        <time>2017-07-14T09:19:48Z</time>
      </trkpt>
      <trkpt lat="45.90951" lon="4.77192">
        <ele>176</ele>
        <time>2017-07-14T09:19:49Z</time>
      </trkpt>
      <trkpt lat="45.90947" lon="4.77185">
        <ele>176</ele>
        <time>2017-07-14T09:19:50Z</time>
      </trkpt>
      <trkpt lat="45.90942" lon="4.77179">
        <ele>176</ele>
        <time>2017-07-14T09:19:51Z</time>
      </trkpt>
      <trkpt lat="45.90938" lon="4.77172">
        <ele>176</ele>
        <time>2017-07-14T09:19:52Z</time>
      </trkpt>
      <trkpt lat="45.90933" lon="4.77166">
        <ele>176</ele>
        <time>2017-07-14T09:19:53Z</time>
      </trkpt>
      <trkpt lat="45.90929" lon="4.7716">
        <ele>176</ele>
        <time>2017-07-14T09:19:54Z</time>
      </trkpt>
      <trkpt lat="45.90923" lon="4.77154">
        <ele>176</ele>
        <time>2017-07-14T09:19:55Z</time>
      </trkpt>
      <trkpt lat="45.90918" lon="4.77147">
        <ele>176</ele>
        <time>2017-07-14T09:19:56Z</time>
      </trkpt>
      <trkpt lat="45.90913" lon="4.77141">
        <ele>176</ele>
        <time>2017-07-14T09:19:57Z</time>
      </trkpt>
      <trkpt lat="45.90908" lon="4.77134">
        <ele>176</ele>
        <time>2017-07-14T09:19:58Z</time>
      </trkpt>
      <trkpt lat="45.90903" lon="4.77128">
        <ele>176</ele>
        <time>2017-07-14T09:19:59Z</time>
      </trkpt>
      <trkpt lat="45.90899" lon="4.77122">
        <ele>176</ele>
        <time>2017-07-14T09:20:00Z</time>
      </trkpt>
      <trkpt lat="45.90895" lon="4.77116">
        <ele>176</ele>
        <time>2017-07-14T09:20:01Z</time>
      </trkpt>
      <trkpt lat="45.90891" lon="4.7711">
        <ele>176</ele>
        <time>2017-07-14T09:20:02Z</time>
      </trkpt>
      <trkpt lat="45.90886" lon="4.77105">
        <ele>176</ele>
        <time>2017-07-14T09:20:03Z</time>
      </trkpt>
      <trkpt lat="45.90882" lon="4.771">
        <ele>176</ele>
        <time>2017-07-14T09:20:04Z</time>
      </trkpt>
      <trkpt lat="45.90878" lon="4.77095">
        <ele>176</ele>
        <time>2017-07-14T09:20:05Z</time>
      </trkpt>
      <trkpt lat="45.90873" lon="4.7709">
        <ele>176</ele>
        <time>2017-07-14T09:20:06Z</time>
      </trkpt>
      <trkpt lat="45.90867" lon="4.77084">
        <ele>176</ele>
        <time>2017-07-14T09:20:07Z</time>
      </trkpt>
      <trkpt lat="45.90862" lon="4.77079">
        <ele>177</ele>
        <time>2017-07-14T09:20:08Z</time>
      </trkpt>
      <trkpt lat="45.90857" lon="4.77073">
        <ele>177</ele>
        <time>2017-07-14T09:20:09Z</time>
      </trkpt>
      <trkpt lat="45.90852" lon="4.77068">
        <ele>177</ele>
        <time>2017-07-14T09:20:10Z</time>
      </trkpt>
      <trkpt lat="45.90846" lon="4.77062">
        <ele>177</ele>
        <time>2017-07-14T09:20:11Z</time>
      </trkpt>
      <trkpt lat="45.90841" lon="4.77057">
        <ele>177</ele>
        <time>2017-07-14T09:20:12Z</time>
      </trkpt>
      <trkpt lat="45.90837" lon="4.77052">
        <ele>177</ele>
        <time>2017-07-14T09:20:13Z</time>
      </trkpt>
      <trkpt lat="45.90832" lon="4.77048">
        <ele>177</ele>
        <time>2017-07-14T09:20:14Z</time>
      </trkpt>
      <trkpt lat="45.90827" lon="4.77043">
        <ele>177</ele>
        <time>2017-07-14T09:20:15Z</time>
      </trkpt>
      <trkpt lat="45.90823" lon="4.77039">
        <ele>177</ele>
        <time>2017-07-14T09:20:16Z</time>
      </trkpt>
      <trkpt lat="45.90819" lon="4.77034">
        <ele>177</ele>
        <time>2017-07-14T09:20:17Z</time>
      </trkpt>
      <trkpt lat="45.90815" lon="4.7703">
        <ele>177</ele>
        <time>2017-07-14T09:20:18Z</time>
      </trkpt>
      <trkpt lat="45.9081" lon="4.77026">
        <ele>177</ele>
        <time>2017-07-14T09:20:19Z</time>
      </trkpt>
      <trkpt lat="45.90807" lon="4.77022">
        <ele>177</ele>
        <time>2017-07-14T09:20:20Z</time>
      </trkpt>
      <trkpt lat="45.90803" lon="4.77018">
        <ele>177</ele>
        <time>2017-07-14T09:20:21Z</time>
      </trkpt>
      <trkpt lat="45.90796" lon="4.77012">
        <ele>177</ele>
        <time>2017-07-14T09:20:23Z</time>
      </trkpt>
      <trkpt lat="45.90793" lon="4.77008">
        <ele>177</ele>
        <time>2017-07-14T09:20:24Z</time>
      </trkpt>
      <trkpt lat="45.90789" lon="4.77005">
        <ele>178</ele>
        <time>2017-07-14T09:20:25Z</time>
      </trkpt>
      <trkpt lat="45.90785" lon="4.77001">
        <ele>178</ele>
        <time>2017-07-14T09:20:26Z</time>
      </trkpt>
      <trkpt lat="45.90782" lon="4.76997">
        <ele>178</ele>
        <time>2017-07-14T09:20:27Z</time>
      </trkpt>
      <trkpt lat="45.90778" lon="4.76992">
        <ele>178</ele>
        <time>2017-07-14T09:20:28Z</time>
      </trkpt>
      <trkpt lat="45.90774" lon="4.76988">
        <ele>178</ele>
        <time>2017-07-14T09:20:29Z</time>
      </trkpt>
      <trkpt lat="45.90771" lon="4.76985">
        <ele>178</ele>
        <time>2017-07-14T09:20:30Z</time>
      </trkpt>
      <trkpt lat="45.90764" lon="4.7698">
        <ele>178</ele>
        <time>2017-07-14T09:20:32Z</time>
      </trkpt>
      <trkpt lat="45.90761" lon="4.76979">
        <ele>178</ele>
        <time>2017-07-14T09:20:33Z</time>
      </trkpt>
      <trkpt lat="45.90754" lon="4.76975">
        <ele>178</ele>
        <time>2017-07-14T09:20:35Z</time>
      </trkpt>
      <trkpt lat="45.90751" lon="4.76973">
        <ele>178</ele>
        <time>2017-07-14T09:20:36Z</time>
      </trkpt>
      <trkpt lat="45.90744" lon="4.7697">
        <ele>179</ele>
        <time>2017-07-14T09:20:38Z</time>
      </trkpt>
      <trkpt lat="45.9074" lon="4.76969">
        <ele>179</ele>
        <time>2017-07-14T09:20:39Z</time>
      </trkpt>
      <trkpt lat="45.90732" lon="4.76965">
        <ele>179</ele>
        <time>2017-07-14T09:20:42Z</time>
      </trkpt>
      <trkpt lat="45.90729" lon="4.76963">
        <ele>179</ele>
        <time>2017-07-14T09:20:43Z</time>
      </trkpt>
      <trkpt lat="45.90722" lon="4.76959">
        <ele>179</ele>
        <time>2017-07-14T09:20:47Z</time>
      </trkpt>
      <trkpt lat="45.9072" lon="4.76958">
        <ele>179</ele>
        <time>2017-07-14T09:20:48Z</time>
      </trkpt>
      <trkpt lat="45.90713" lon="4.76954">
        <ele>179</ele>
        <time>2017-07-14T09:20:51Z</time>
      </trkpt>
      <trkpt lat="45.9071" lon="4.76952">
        <ele>179</ele>
        <time>2017-07-14T09:20:52Z</time>
      </trkpt>
      <trkpt lat="45.90704" lon="4.76948">
        <ele>179</ele>
        <time>2017-07-14T09:20:54Z</time>
      </trkpt>
      <trkpt lat="45.907" lon="4.76946">
        <ele>179</ele>
        <time>2017-07-14T09:20:55Z</time>
      </trkpt>
      <trkpt lat="45.90693" lon="4.76943">
        <ele>179</ele>
        <time>2017-07-14T09:20:57Z</time>
      </trkpt>
      <trkpt lat="45.9069" lon="4.76941">
        <ele>179</ele>
        <time>2017-07-14T09:20:58Z</time>
      </trkpt>
      <trkpt lat="45.90683" lon="4.76938">
        <ele>179</ele>
        <time>2017-07-14T09:21:00Z</time>
      </trkpt>
      <trkpt lat="45.9068" lon="4.76936">
        <ele>179</ele>
        <time>2017-07-14T09:21:01Z</time>
      </trkpt>
      <trkpt lat="45.90672" lon="4.76932">
        <ele>179</ele>
        <time>2017-07-14T09:21:03Z</time>
      </trkpt>
      <trkpt lat="45.90668" lon="4.76931">
        <ele>179</ele>
        <time>2017-07-14T09:21:04Z</time>
      </trkpt>
      <trkpt lat="45.9066" lon="4.76928">
        <ele>179</ele>
        <time>2017-07-14T09:21:06Z</time>
      </trkpt>
      <trkpt lat="45.90657" lon="4.76927">
        <ele>179</ele>
        <time>2017-07-14T09:21:07Z</time>
      </trkpt>
      <trkpt lat="45.9065" lon="4.76925">
        <ele>179</ele>
        <time>2017-07-14T09:21:09Z</time>
      </trkpt>
      <trkpt lat="45.90646" lon="4.76924">
        <ele>179</ele>
        <time>2017-07-14T09:21:10Z</time>
      </trkpt>
      <trkpt lat="45.90639" lon="4.76922">
        <ele>180</ele>
        <time>2017-07-14T09:21:12Z</time>
      </trkpt>
      <trkpt lat="45.90635" lon="4.76922">
        <ele>180</ele>
        <time>2017-07-14T09:21:13Z</time>
      </trkpt>
      <trkpt lat="45.90628" lon="4.76919">
        <ele>180</ele>
        <time>2017-07-14T09:21:15Z</time>
      </trkpt>
      <trkpt lat="45.90624" lon="4.76917">
        <ele>180</ele>
        <time>2017-07-14T09:21:16Z</time>
      </trkpt>
      <trkpt lat="45.90616" lon="4.76915">
        <ele>179</ele>
        <time>2017-07-14T09:21:18Z</time>
      </trkpt>
      <trkpt lat="45.90612" lon="4.76914">
        <ele>179</ele>
        <time>2017-07-14T09:21:19Z</time>
      </trkpt>
      <trkpt lat="45.90607" lon="4.76913">
        <ele>179</ele>
        <time>2017-07-14T09:21:20Z</time>
      </trkpt>
      <trkpt lat="45.90603" lon="4.76911">
        <ele>179</ele>
        <time>2017-07-14T09:21:21Z</time>
      </trkpt>
      <trkpt lat="45.90595" lon="4.76909">
        <ele>180</ele>
        <time>2017-07-14T09:21:23Z</time>
      </trkpt>
      <trkpt lat="45.90592" lon="4.76908">
        <ele>180</ele>
        <time>2017-07-14T09:21:24Z</time>
      </trkpt>
      <trkpt lat="45.90585" lon="4.76906">
        <ele>180</ele>
        <time>2017-07-14T09:21:26Z</time>
      </trkpt>
      <trkpt lat="45.90581" lon="4.76905">
        <ele>180</ele>
        <time>2017-07-14T09:21:27Z</time>
      </trkpt>
      <trkpt lat="45.90574" lon="4.76902">
        <ele>180</ele>
        <time>2017-07-14T09:21:29Z</time>
      </trkpt>
      <trkpt lat="45.9057" lon="4.76901">
        <ele>180</ele>
        <time>2017-07-14T09:21:30Z</time>
      </trkpt>
      <trkpt lat="45.90563" lon="4.76899">
        <ele>180</ele>
        <time>2017-07-14T09:21:32Z</time>
      </trkpt>
      <trkpt lat="45.9056" lon="4.76898">
        <ele>180</ele>
        <time>2017-07-14T09:21:33Z</time>
      </trkpt>
      <trkpt lat="45.90552" lon="4.76896">
        <ele>180</ele>
        <time>2017-07-14T09:21:35Z</time>
      </trkpt>
      <trkpt lat="45.90548" lon="4.76896">
        <ele>180</ele>
        <time>2017-07-14T09:21:36Z</time>
      </trkpt>
      <trkpt lat="45.90543" lon="4.76894">
        <ele>180</ele>
        <time>2017-07-14T09:21:37Z</time>
      </trkpt>
      <trkpt lat="45.90539" lon="4.76893">
        <ele>180</ele>
        <time>2017-07-14T09:21:38Z</time>
      </trkpt>
      <trkpt lat="45.90535" lon="4.76892">
        <ele>180</ele>
        <time>2017-07-14T09:21:39Z</time>
      </trkpt>
      <trkpt lat="45.9053" lon="4.7689">
        <ele>180</ele>
        <time>2017-07-14T09:21:40Z</time>
      </trkpt>
      <trkpt lat="45.90522" lon="4.76888">
        <ele>180</ele>
        <time>2017-07-14T09:21:42Z</time>
      </trkpt>
      <trkpt lat="45.90518" lon="4.76887">
        <ele>180</ele>
        <time>2017-07-14T09:21:43Z</time>
      </trkpt>
      <trkpt lat="45.90511" lon="4.76884">
        <ele>180</ele>
        <time>2017-07-14T09:21:45Z</time>
      </trkpt>
      <trkpt lat="45.90507" lon="4.76883">
        <ele>180</ele>
        <time>2017-07-14T09:21:46Z</time>
      </trkpt>
      <trkpt lat="45.90498" lon="4.76881">
        <ele>181</ele>
        <time>2017-07-14T09:21:48Z</time>
      </trkpt>
      <trkpt lat="45.90494" lon="4.7688">
        <ele>181</ele>
        <time>2017-07-14T09:21:49Z</time>
      </trkpt>
      <trkpt lat="45.90485" lon="4.76877">
        <ele>181</ele>
        <time>2017-07-14T09:21:51Z</time>
      </trkpt>
      <trkpt lat="45.90481" lon="4.76876">
        <ele>181</ele>
        <time>2017-07-14T09:21:52Z</time>
      </trkpt>
      <trkpt lat="45.90473" lon="4.76874">
        <ele>181</ele>
        <time>2017-07-14T09:21:54Z</time>
      </trkpt>
      <trkpt lat="45.90468" lon="4.76873">
        <ele>181</ele>
        <time>2017-07-14T09:21:55Z</time>
      </trkpt>
      <trkpt lat="45.90464" lon="4.76873">
        <ele>181</ele>
        <time>2017-07-14T09:21:56Z</time>
      </trkpt>
      <trkpt lat="45.90459" lon="4.76872">
        <ele>181</ele>
        <time>2017-07-14T09:21:57Z</time>
      </trkpt>
      <trkpt lat="45.90454" lon="4.76872">
        <ele>181</ele>
        <time>2017-07-14T09:21:58Z</time>
      </trkpt>
      <trkpt lat="45.90449" lon="4.76871">
        <ele>181</ele>
        <time>2017-07-14T09:21:59Z</time>
      </trkpt>
      <trkpt lat="45.90444" lon="4.7687">
        <ele>181</ele>
        <time>2017-07-14T09:22:00Z</time>
      </trkpt>
      <trkpt lat="45.9044" lon="4.76869">
        <ele>181</ele>
        <time>2017-07-14T09:22:01Z</time>
      </trkpt>
      <trkpt lat="45.90431" lon="4.76867">
        <ele>181</ele>
        <time>2017-07-14T09:22:03Z</time>
      </trkpt>
      <trkpt lat="45.90427" lon="4.76867">
        <ele>181</ele>
        <time>2017-07-14T09:22:04Z</time>
      </trkpt>
      <trkpt lat="45.9042" lon="4.76865">
        <ele>181</ele>
        <time>2017-07-14T09:22:06Z</time>
      </trkpt>
      <trkpt lat="45.90416" lon="4.76865">
        <ele>182</ele>
        <time>2017-07-14T09:22:07Z</time>
      </trkpt>
      <trkpt lat="45.90407" lon="4.76864">
        <ele>182</ele>
        <time>2017-07-14T09:22:09Z</time>
      </trkpt>
      <trkpt lat="45.90403" lon="4.76863">
        <ele>182</ele>
        <time>2017-07-14T09:22:10Z</time>
      </trkpt>
      <trkpt lat="45.90398" lon="4.76864">
        <ele>182</ele>
        <time>2017-07-14T09:22:11Z</time>
      </trkpt>
      <trkpt lat="45.90394" lon="4.76863">
        <ele>182</ele>
        <time>2017-07-14T09:22:12Z</time>
      </trkpt>
      <trkpt lat="45.90385" lon="4.76862">
        <ele>182</ele>
        <time>2017-07-14T09:22:14Z</time>
      </trkpt>
      <trkpt lat="45.90382" lon="4.76862">
        <ele>182</ele>
        <time>2017-07-14T09:22:15Z</time>
      </trkpt>
      <trkpt lat="45.90375" lon="4.76861">
        <ele>182</ele>
        <time>2017-07-14T09:22:17Z</time>
      </trkpt>
      <trkpt lat="45.90371" lon="4.76861">
        <ele>182</ele>
        <time>2017-07-14T09:22:18Z</time>
      </trkpt>
      <trkpt lat="45.90363" lon="4.76862">
        <ele>182</ele>
        <time>2017-07-14T09:22:20Z</time>
      </trkpt>
      <trkpt lat="45.90358" lon="4.76861">
        <ele>182</ele>
        <time>2017-07-14T09:22:21Z</time>
      </trkpt>
      <trkpt lat="45.9035" lon="4.76861">
        <ele>182</ele>
        <time>2017-07-14T09:22:23Z</time>
      </trkpt>
      <trkpt lat="45.90345" lon="4.7686">
        <ele>182</ele>
        <time>2017-07-14T09:22:24Z</time>
      </trkpt>
      <trkpt lat="45.90338" lon="4.76855">
        <ele>182</ele>
        <time>2017-07-14T09:22:26Z</time>
      </trkpt>
      <trkpt lat="45.90336" lon="4.76851">
        <ele>182</ele>
        <time>2017-07-14T09:22:27Z</time>
      </trkpt>
      <trkpt lat="45.90335" lon="4.76841">
        <ele>182</ele>
        <time>2017-07-14T09:22:29Z</time>
      </trkpt>
      <trkpt lat="45.90335" lon="4.76836">
        <ele>182</ele>
        <time>2017-07-14T09:22:30Z</time>
      </trkpt>
      <trkpt lat="45.90336" lon="4.76825">
        <ele>182</ele>
        <time>2017-07-14T09:22:32Z</time>
      </trkpt>
      <trkpt lat="45.90336" lon="4.76819">
        <ele>182</ele>
        <time>2017-07-14T09:22:33Z</time>
      </trkpt>
      <trkpt lat="45.90337" lon="4.76807">
        <ele>182</ele>
        <time>2017-07-14T09:22:35Z</time>
      </trkpt>
      <trkpt lat="45.90337" lon="4.768">
        <ele>182</ele>
        <time>2017-07-14T09:22:36Z</time>
      </trkpt>
      <trkpt lat="45.90336" lon="4.76793">
        <ele>182</ele>
        <time>2017-07-14T09:22:37Z</time>
      </trkpt>
      <trkpt lat="45.90337" lon="4.76786">
        <ele>182</ele>
        <time>2017-07-14T09:22:38Z</time>
      </trkpt>
      <trkpt lat="45.90337" lon="4.7678">
        <ele>182</ele>
        <time>2017-07-14T09:22:39Z</time>
      </trkpt>
      <trkpt lat="45.90337" lon="4.76773">
        <ele>182</ele>
        <time>2017-07-14T09:22:40Z</time>
      </trkpt>
      <trkpt lat="45.90337" lon="4.76761">
        <ele>183</ele>
        <time>2017-07-14T09:22:42Z</time>
      </trkpt>
      <trkpt lat="45.90338" lon="4.76755">
        <ele>183</ele>
        <time>2017-07-14T09:22:43Z</time>
      </trkpt>
      <trkpt lat="45.90338" lon="4.76743">
        <ele>183</ele>
        <time>2017-07-14T09:22:45Z</time>
      </trkpt>
      <trkpt lat="45.90338" lon="4.76736">
        <ele>183</ele>
        <time>2017-07-14T09:22:46Z</time>
      </trkpt>
      <trkpt lat="45.90338" lon="4.76729">
        <ele>183</ele>
        <time>2017-07-14T09:22:47Z</time>
      </trkpt>
      <trkpt lat="45.90337" lon="4.76722">
        <ele>183</ele>
        <time>2017-07-14T09:22:48Z</time>
      </trkpt>
      <trkpt lat="45.90337" lon="4.76715">
        <ele>183</ele>
        <time>2017-07-14T09:22:49Z</time>
      </trkpt>
      <trkpt lat="45.90337" lon="4.76709">
        <ele>183</ele>
        <time>2017-07-14T09:22:50Z</time>
      </trkpt>
      <trkpt lat="45.90337" lon="4.76697">
        <ele>183</ele>
        <time>2017-07-14T09:22:52Z</time>
      </trkpt>
      <trkpt lat="45.90337" lon="4.76691">
        <ele>183</ele>
        <time>2017-07-14T09:22:53Z</time>
      </trkpt>
      <trkpt lat="45.90337" lon="4.76679">
        <ele>183</ele>
        <time>2017-07-14T09:22:55Z</time>
      </trkpt>
      <trkpt lat="45.90337" lon="4.76672">
        <ele>184</ele>
        <time>2017-07-14T09:22:56Z</time>
      </trkpt>
      <trkpt lat="45.90338" lon="4.7666">
        <ele>184</ele>
        <time>2017-07-14T09:22:58Z</time>
      </trkpt>
      <trkpt lat="45.90338" lon="4.76654">
        <ele>184</ele>
        <time>2017-07-14T09:22:59Z</time>
      </trkpt>
      <trkpt lat="45.90338" lon="4.76642">
        <ele>184</ele>
        <time>2017-07-14T09:23:01Z</time>
      </trkpt>
      <trkpt lat="45.90338" lon="4.76636">
        <ele>184</ele>
        <time>2017-07-14T09:23:02Z</time>
      </trkpt>
      <trkpt lat="45.90338" lon="4.76624">
        <ele>184</ele>
        <time>2017-07-14T09:23:04Z</time>
      </trkpt>
      <trkpt lat="45.90338" lon="4.76619">
        <ele>184</ele>
        <time>2017-07-14T09:23:05Z</time>
      </trkpt>
      <trkpt lat="45.90339" lon="4.76609">
        <ele>184</ele>
        <time>2017-07-14T09:23:07Z</time>
      </trkpt>
      <trkpt lat="45.90339" lon="4.76604">
        <ele>184</ele>
        <time>2017-07-14T09:23:08Z</time>
      </trkpt>
      <trkpt lat="45.90339" lon="4.76595">
        <ele>184</ele>
        <time>2017-07-14T09:23:10Z</time>
      </trkpt>
      <trkpt lat="45.90339" lon="4.7659">
        <ele>184</ele>
        <time>2017-07-14T09:23:11Z</time>
      </trkpt>
      <trkpt lat="45.9034" lon="4.76582">
        <ele>185</ele>
        <time>2017-07-14T09:23:13Z</time>
      </trkpt>
      <trkpt lat="45.9034" lon="4.76577">
        <ele>185</ele>
        <time>2017-07-14T09:23:14Z</time>
      </trkpt>
      <trkpt lat="45.9034" lon="4.76568">
        <ele>185</ele>
        <time>2017-07-14T09:23:16Z</time>
      </trkpt>
      <trkpt lat="45.9034" lon="4.76564">
        <ele>185</ele>
        <time>2017-07-14T09:23:17Z</time>
      </trkpt>
      <trkpt lat="45.9034" lon="4.76552">
        <ele>185</ele>
        <time>2017-07-14T09:23:20Z</time>
      </trkpt>
      <trkpt lat="45.9034" lon="4.76547">
        <ele>186</ele>
        <time>2017-07-14T09:23:21Z</time>
      </trkpt>
      <trkpt lat="45.9034" lon="4.76535">
        <ele>186</ele>
        <time>2017-07-14T09:23:24Z</time>
      </trkpt>
      <trkpt lat="45.9034" lon="4.7653">
        <ele>186</ele>
        <time>2017-07-14T09:23:25Z</time>
      </trkpt>
      <trkpt lat="45.90342" lon="4.7652">
        <ele>186</ele>
        <time>2017-07-14T09:23:27Z</time>
      </trkpt>
      <trkpt lat="45.90344" lon="4.76516">
        <ele>187</ele>
        <time>2017-07-14T09:23:28Z</time>
      </trkpt>
      <trkpt lat="45.90347" lon="4.76508">
        <ele>187</ele>
        <time>2017-07-14T09:23:30Z</time>
      </trkpt>
      <trkpt lat="45.90349" lon="4.76505">
        <ele>187</ele>
        <time>2017-07-14T09:23:31Z</time>
      </trkpt>
      <trkpt lat="45.90355" lon="4.76496">
        <ele>188</ele>
        <time>2017-07-14T09:23:34Z</time>
      </trkpt>
      <trkpt lat="45.90357" lon="4.76493">
        <ele>188</ele>
        <time>2017-07-14T09:23:35Z</time>
      </trkpt>
      <trkpt lat="45.90363" lon="4.76487">
        <ele>188</ele>
        <time>2017-07-14T09:23:38Z</time>
      </trkpt>
      <trkpt lat="45.90365" lon="4.76485">
        <ele>188</ele>
        <time>2017-07-14T09:23:39Z</time>
      </trkpt>
      <trkpt lat="45.90373" lon="4.7648">
        <ele>188</ele>
        <time>2017-07-14T09:23:42Z</time>
      </trkpt>
      <trkpt lat="45.90376" lon="4.76478">
        <ele>188</ele>
        <time>2017-07-14T09:23:43Z</time>
      </trkpt>
      <trkpt lat="45.90382" lon="4.76477">
        <ele>188</ele>
        <time>2017-07-14T09:23:45Z</time>
      </trkpt>
      <trkpt lat="45.90385" lon="4.76477">
        <ele>188</ele>
        <time>2017-07-14T09:23:46Z</time>
      </trkpt>
      <trkpt lat="45.90394" lon="4.76478">
        <ele>188</ele>
        <time>2017-07-14T09:23:49Z</time>
      </trkpt>
      <trkpt lat="45.90397" lon="4.76478">
        <ele>188</ele>
        <time>2017-07-14T09:23:50Z</time>
      </trkpt>
      <trkpt lat="45.90404" lon="4.76478">
        <ele>187</ele>
        <time>2017-07-14T09:23:52Z</time>
      </trkpt>
      <trkpt lat="45.90408" lon="4.76476">
        <ele>187</ele>
        <time>2017-07-14T09:23:53Z</time>
      </trkpt>
      <trkpt lat="45.90414" lon="4.7647">
        <ele>188</ele>
        <time>2017-07-14T09:23:55Z</time>
      </trkpt>
      <trkpt lat="45.90416" lon="4.76467">
        <ele>188</ele>
        <time>2017-07-14T09:23:56Z</time>
      </trkpt>
      <trkpt lat="45.9042" lon="4.7646">
        <ele>186</ele>
        <time>2017-07-14T09:23:58Z</time>
      </trkpt>
      <trkpt lat="45.90422" lon="4.76456">
        <ele>186</ele>
        <time>2017-07-14T09:23:59Z</time>
      </trkpt>
      <trkpt lat="45.90426" lon="4.76447">
        <ele>186</ele>
        <time>2017-07-14T09:24:01Z</time>
      </trkpt>
      <trkpt lat="45.90427" lon="4.76442">
        <ele>187</ele>
        <time>2017-07-14T09:24:02Z</time>
      </trkpt>
      <trkpt lat="45.90431" lon="4.76432">
        <ele>187</ele>
        <time>2017-07-14T09:24:04Z</time>
      </trkpt>
      <trkpt lat="45.90433" lon="4.76428">
        <ele>187</ele>
        <time>2017-07-14T09:24:05Z</time>
      </trkpt>
      <trkpt lat="45.90436" lon="4.76418">
        <ele>187</ele>
        <time>2017-07-14T09:24:07Z</time>
      </trkpt>
      <trkpt lat="45.90438" lon="4.76413">
        <ele>187</ele>
        <time>2017-07-14T09:24:08Z</time>
      </trkpt>
      <trkpt lat="45.90442" lon="4.76404">
        <ele>187</ele>
        <time>2017-07-14T09:24:10Z</time>
      </trkpt>
      <trkpt lat="45.90444" lon="4.76399">
        <ele>187</ele>
        <time>2017-07-14T09:24:11Z</time>
      </trkpt>
      <trkpt lat="45.90447" lon="4.7639">
        <ele>187</ele>
        <time>2017-07-14T09:24:13Z</time>
      </trkpt>
      <trkpt lat="45.90448" lon="4.76386">
        <ele>187</ele>
        <time>2017-07-14T09:24:14Z</time>
      </trkpt>
      <trkpt lat="45.90451" lon="4.76377">
        <ele>186</ele>
        <time>2017-07-14T09:24:16Z</time>
      </trkpt>
      <trkpt lat="45.90452" lon="4.76372">
        <ele>186</ele>
        <time>2017-07-14T09:24:17Z</time>
      </trkpt>
      <trkpt lat="45.90456" lon="4.76362">
        <ele>186</ele>
        <time>2017-07-14T09:24:19Z</time>
      </trkpt>
      <trkpt lat="45.90457" lon="4.76357">
        <ele>186</ele>
        <time>2017-07-14T09:24:20Z</time>
      </trkpt>
      <trkpt lat="45.9046" lon="4.76348">
        <ele>186</ele>
        <time>2017-07-14T09:24:22Z</time>
      </trkpt>
      <trkpt lat="45.90461" lon="4.76343">
        <ele>186</ele>
        <time>2017-07-14T09:24:23Z</time>
      </trkpt>
      <trkpt lat="45.90464" lon="4.76335">
        <ele>186</ele>
        <time>2017-07-14T09:24:25Z</time>
      </trkpt>
      <trkpt lat="45.90465" lon="4.7633">
        <ele>186</ele>
        <time>2017-07-14T09:24:26Z</time>
      </trkpt>
      <trkpt lat="45.90467" lon="4.76318">
        <ele>186</ele>
        <time>2017-07-14T09:24:29Z</time>
      </trkpt>
      <trkpt lat="45.90468" lon="4.76314">
        <ele>186</ele>
        <time>2017-07-14T09:24:30Z</time>
      </trkpt>
      <trkpt lat="45.90471" lon="4.76307">
        <ele>186</ele>
        <time>2017-07-14T09:24:32Z</time>
      </trkpt>
      <trkpt lat="45.90472" lon="4.76302">
        <ele>186</ele>
        <time>2017-07-14T09:24:33Z</time>
      </trkpt>
      <trkpt lat="45.90476" lon="4.76293">
        <ele>186</ele>
        <time>2017-07-14T09:24:35Z</time>
      </trkpt>
      <trkpt lat="45.90477" lon="4.76287">
        <ele>186</ele>
        <time>2017-07-14T09:24:36Z</time>
      </trkpt>
      <trkpt lat="45.90479" lon="4.76281">
        <ele>186</ele>
        <time>2017-07-14T09:24:37Z</time>
      </trkpt>
      <trkpt lat="45.90481" lon="4.76275">
        <ele>186</ele>
        <time>2017-07-14T09:24:38Z</time>
      </trkpt>
      <trkpt lat="45.90486" lon="4.76264">
        <ele>186</ele>
        <time>2017-07-14T09:24:40Z</time>
      </trkpt>
      <trkpt lat="45.90487" lon="4.76258">
        <ele>185</ele>
        <time>2017-07-14T09:24:41Z</time>
      </trkpt>
      <trkpt lat="45.90487" lon="4.76247">
        <ele>185</ele>
        <time>2017-07-14T09:24:43Z</time>
      </trkpt>
      <trkpt lat="45.90485" lon="4.76242">
        <ele>185</ele>
        <time>2017-07-14T09:24:44Z</time>
      </trkpt>
      <trkpt lat="45.9048" lon="4.76236">
        <ele>185</ele>
        <time>2017-07-14T09:24:46Z</time>
      </trkpt>
      <trkpt lat="45.90476" lon="4.76233">
        <ele>185</ele>
        <time>2017-07-14T09:24:47Z</time>
      </trkpt>
      <trkpt lat="45.90472" lon="4.7623">
        <ele>185</ele>
        <time>2017-07-14T09:24:48Z</time>
      </trkpt>
      <trkpt lat="45.90468" lon="4.76228">
        <ele>185</ele>
        <time>2017-07-14T09:24:49Z</time>
      </trkpt>
      <trkpt lat="45.9046" lon="4.76224">
        <ele>185</ele>
        <time>2017-07-14T09:24:51Z</time>
      </trkpt>
      <trkpt lat="45.90456" lon="4.76221">
        <ele>186</ele>
        <time>2017-07-14T09:24:52Z</time>
      </trkpt>
      <trkpt lat="45.90448" lon="4.76216">
        <ele>186</ele>
        <time>2017-07-14T09:24:54Z</time>
      </trkpt>
      <trkpt lat="45.90445" lon="4.76213">
        <ele>186</ele>
        <time>2017-07-14T09:24:55Z</time>
      </trkpt>
      <trkpt lat="45.90438" lon="4.76207">
        <ele>186</ele>
        <time>2017-07-14T09:24:57Z</time>
      </trkpt>
      <trkpt lat="45.90434" lon="4.76205">
        <ele>186</ele>
        <time>2017-07-14T09:24:58Z</time>
      </trkpt>
      <trkpt lat="45.90427" lon="4.76199">
        <ele>186</ele>
        <time>2017-07-14T09:25:00Z</time>
      </trkpt>
      <trkpt lat="45.90424" lon="4.76196">
        <ele>186</ele>
        <time>2017-07-14T09:25:01Z</time>
      </trkpt>
      <trkpt lat="45.9042" lon="4.76188">
        <ele>186</ele>
        <time>2017-07-14T09:25:03Z</time>
      </trkpt>
      <trkpt lat="45.90419" lon="4.76183">
        <ele>186</ele>
        <time>2017-07-14T09:25:04Z</time>
      </trkpt>
      <trkpt lat="45.90423" lon="4.76174">
        <ele>186</ele>
        <time>2017-07-14T09:25:07Z</time>
      </trkpt>
      <trkpt lat="45.90426" lon="4.76172">
        <ele>186</ele>
        <time>2017-07-14T09:25:08Z</time>
      </trkpt>
      <trkpt lat="45.90432" lon="4.76166">
        <ele>186</ele>
        <time>2017-07-14T09:25:10Z</time>
      </trkpt>
      <trkpt lat="45.90435" lon="4.76163">
        <ele>186</ele>
        <time>2017-07-14T09:25:11Z</time>
      </trkpt>
      <trkpt lat="45.90441" lon="4.76157">
        <ele>186</ele>
        <time>2017-07-14T09:25:13Z</time>
      </trkpt>
      <trkpt lat="45.90444" lon="4.76154">
        <ele>186</ele>
        <time>2017-07-14T09:25:14Z</time>
      </trkpt>
      <trkpt lat="45.90448" lon="4.7615">
        <ele>186</ele>
        <time>2017-07-14T09:25:15Z</time>
      </trkpt>
      <trkpt lat="45.90452" lon="4.76147">
        <ele>186</ele>
        <time>2017-07-14T09:25:16Z</time>
      </trkpt>
      <trkpt lat="45.90458" lon="4.76139">
        <ele>186</ele>
        <time>2017-07-14T09:25:18Z</time>
      </trkpt>
      <trkpt lat="45.90461" lon="4.76135">
        <ele>185</ele>
        <time>2017-07-14T09:25:19Z</time>
      </trkpt>
      <trkpt lat="45.90467" lon="4.76126">
        <ele>185</ele>
        <time>2017-07-14T09:25:21Z</time>
      </trkpt>
      <trkpt lat="45.90469" lon="4.76122">
        <ele>185</ele>
        <time>2017-07-14T09:25:22Z</time>
      </trkpt>
      <trkpt lat="45.90472" lon="4.76117">
        <ele>185</ele>
        <time>2017-07-14T09:25:23Z</time>
      </trkpt>
      <trkpt lat="45.90475" lon="4.76112">
        <ele>185</ele>
        <time>2017-07-14T09:25:24Z</time>
      </trkpt>
      <trkpt lat="45.90479" lon="4.76107">
        <ele>185</ele>
        <time>2017-07-14T09:25:25Z</time>
      </trkpt>
      <trkpt lat="45.90482" lon="4.76101">
        <ele>185</ele>
        <time>2017-07-14T09:25:26Z</time>
      </trkpt>
      <trkpt lat="45.90486" lon="4.76095">
        <ele>185</ele>
        <time>2017-07-14T09:25:27Z</time>
      </trkpt>
      <trkpt lat="45.90489" lon="4.7609">
        <ele>185</ele>
        <time>2017-07-14T09:25:28Z</time>
      </trkpt>
      <trkpt lat="45.90492" lon="4.76084">
        <ele>185</ele>
        <time>2017-07-14T09:25:29Z</time>
      </trkpt>
      <trkpt lat="45.90494" lon="4.76079">
        <ele>185</ele>
        <time>2017-07-14T09:25:30Z</time>
      </trkpt>
      <trkpt lat="45.90497" lon="4.76073">
        <ele>185</ele>
        <time>2017-07-14T09:25:31Z</time>
      </trkpt>
      <trkpt lat="45.905" lon="4.76066">
        <ele>185</ele>
        <time>2017-07-14T09:25:32Z</time>
      </trkpt>
      <trkpt lat="45.90503" lon="4.7606">
        <ele>185</ele>
        <time>2017-07-14T09:25:33Z</time>
      </trkpt>
      <trkpt lat="45.90505" lon="4.76055">
        <ele>185</ele>
        <time>2017-07-14T09:25:34Z</time>
      </trkpt>
      <trkpt lat="45.90506" lon="4.76048">
        <ele>185</ele>
        <time>2017-07-14T09:25:35Z</time>
      </trkpt>
      <trkpt lat="45.90508" lon="4.76042">
        <ele>185</ele>
        <time>2017-07-14T09:25:36Z</time>
      </trkpt>
      <trkpt lat="45.90509" lon="4.76031">
        <ele>185</ele>
        <time>2017-07-14T09:25:38Z</time>
      </trkpt>
      <trkpt lat="45.90511" lon="4.76025">
        <ele>186</ele>
        <time>2017-07-14T09:25:39Z</time>
      </trkpt>
      <trkpt lat="45.90512" lon="4.76019">
        <ele>186</ele>
        <time>2017-07-14T09:25:40Z</time>
      </trkpt>
      <trkpt lat="45.90514" lon="4.76013">
        <ele>186</ele>
        <time>2017-07-14T09:25:41Z</time>
      </trkpt>
      <trkpt lat="45.90515" lon="4.76006">
        <ele>186</ele>
        <time>2017-07-14T09:25:42Z</time>
      </trkpt>
      <trkpt lat="45.90517" lon="4.76">
        <ele>186</ele>
        <time>2017-07-14T09:25:43Z</time>
      </trkpt>
      <trkpt lat="45.90519" lon="4.75989">
        <ele>186</ele>
        <time>2017-07-14T09:25:45Z</time>
      </trkpt>
      <trkpt lat="45.9052" lon="4.75983">
        <ele>186</ele>
        <time>2017-07-14T09:25:46Z</time>
      </trkpt>
      <trkpt lat="45.90523" lon="4.75974">
        <ele>186</ele>
        <time>2017-07-14T09:25:48Z</time>
      </trkpt>
      <trkpt lat="45.90525" lon="4.7597">
        <ele>186</ele>
        <time>2017-07-14T09:25:49Z</time>
      </trkpt>
      <trkpt lat="45.90529" lon="4.75967">
        <ele>186</ele>
        <time>2017-07-14T09:25:50Z</time>
      </trkpt>
      <trkpt lat="45.90535" lon="4.75963">
        <ele>186</ele>
        <time>2017-07-14T09:25:51Z</time>
      </trkpt>
      <trkpt lat="45.90543" lon="4.7596">
        <ele>186</ele>
        <time>2017-07-14T09:25:53Z</time>
      </trkpt>
      <trkpt lat="45.90547" lon="4.75959">
        <ele>186</ele>
        <time>2017-07-14T09:25:54Z</time>
      </trkpt>
      <trkpt lat="45.90553" lon="4.75962">
        <ele>186</ele>
        <time>2017-07-14T09:25:56Z</time>
      </trkpt>
      <trkpt lat="45.90556" lon="4.75964">
        <ele>186</ele>
        <time>2017-07-14T09:25:57Z</time>
      </trkpt>
      <trkpt lat="45.90563" lon="4.75969">
        <ele>186</ele>
        <time>2017-07-14T09:25:59Z</time>
      </trkpt>
      <trkpt lat="45.90567" lon="4.75971">
        <ele>186</ele>
        <time>2017-07-14T09:26:00Z</time>
      </trkpt>
      <trkpt lat="45.90575" lon="4.75976">
        <ele>186</ele>
        <time>2017-07-14T09:26:02Z</time>
      </trkpt>
      <trkpt lat="45.9058" lon="4.75979">
        <ele>186</ele>
        <time>2017-07-14T09:26:03Z</time>
      </trkpt>
      <trkpt lat="45.90584" lon="4.75982">
        <ele>186</ele>
        <time>2017-07-14T09:26:04Z</time>
      </trkpt>
      <trkpt lat="45.9059" lon="4.75985">
        <ele>186</ele>
        <time>2017-07-14T09:26:05Z</time>
      </trkpt>
      <trkpt lat="45.90594" lon="4.75986">
        <ele>186</ele>
        <time>2017-07-14T09:26:06Z</time>
      </trkpt>
      <trkpt lat="45.90599" lon="4.75985">
        <ele>186</ele>
        <time>2017-07-14T09:26:07Z</time>
      </trkpt>
      <trkpt lat="45.90604" lon="4.75982">
        <ele>186</ele>
        <time>2017-07-14T09:26:08Z</time>
      </trkpt>
      <trkpt lat="45.90607" lon="4.75977">
        <ele>186</ele>
        <time>2017-07-14T09:26:09Z</time>
      </trkpt>
      <trkpt lat="45.90611" lon="4.75973">
        <ele>186</ele>
        <time>2017-07-14T09:26:10Z</time>
      </trkpt>
      <trkpt lat="45.90615" lon="4.75968">
        <ele>186</ele>
        <time>2017-07-14T09:26:11Z</time>
      </trkpt>
      <trkpt lat="45.90619" lon="4.75962">
        <ele>186</ele>
        <time>2017-07-14T09:26:12Z</time>
      </trkpt>
      <trkpt lat="45.90622" lon="4.75956">
        <ele>186</ele>
        <time>2017-07-14T09:26:13Z</time>
      </trkpt>
      <trkpt lat="45.90626" lon="4.7595">
        <ele>186</ele>
        <time>2017-07-14T09:26:14Z</time>
      </trkpt>
      <trkpt lat="45.90629" lon="4.75945">
        <ele>186</ele>
        <time>2017-07-14T09:26:15Z</time>
      </trkpt>
      <trkpt lat="45.90633" lon="4.75938">
        <ele>186</ele>
        <time>2017-07-14T09:26:16Z</time>
      </trkpt>
      <trkpt lat="45.90637" lon="4.75932">
        <ele>186</ele>
        <time>2017-07-14T09:26:17Z</time>
      </trkpt>
      <trkpt lat="45.90641" lon="4.75926">
        <ele>186</ele>
        <time>2017-07-14T09:26:18Z</time>
      </trkpt>
      <trkpt lat="45.90644" lon="4.7592">
        <ele>187</ele>
        <time>2017-07-14T09:26:19Z</time>
      </trkpt>
      <trkpt lat="45.90649" lon="4.7591">
        <ele>187</ele>
        <time>2017-07-14T09:26:21Z</time>
      </trkpt>
      <trkpt lat="45.90652" lon="4.75906">
        <ele>187</ele>
        <time>2017-07-14T09:26:22Z</time>
      </trkpt>
      <trkpt lat="45.90657" lon="4.75899">
        <ele>187</ele>
        <time>2017-07-14T09:26:24Z</time>
      </trkpt>
      <trkpt lat="45.9066" lon="4.75895">
        <ele>187</ele>
        <time>2017-07-14T09:26:25Z</time>
      </trkpt>
      <trkpt lat="45.90666" lon="4.75887">
        <ele>187</ele>
        <time>2017-07-14T09:26:27Z</time>
      </trkpt>
      <trkpt lat="45.90668" lon="4.75883">
        <ele>187</ele>
        <time>2017-07-14T09:26:28Z</time>
      </trkpt>
      <trkpt lat="45.90675" lon="4.75876">
        <ele>187</ele>
        <time>2017-07-14T09:26:31Z</time>
      </trkpt>
      <trkpt lat="45.90678" lon="4.75872">
        <ele>187</ele>
        <time>2017-07-14T09:26:32Z</time>
      </trkpt>
      <trkpt lat="45.90685" lon="4.75867">
        <ele>187</ele>
        <time>2017-07-14T09:26:34Z</time>
      </trkpt>
      <trkpt lat="45.90688" lon="4.75865">
        <ele>187</ele>
        <time>2017-07-14T09:26:35Z</time>
      </trkpt>
      <trkpt lat="45.90694" lon="4.75866">
        <ele>187</ele>
        <time>2017-07-14T09:26:36Z</time>
      </trkpt>
      <trkpt lat="45.90698" lon="4.75866">
        <ele>187</ele>
        <time>2017-07-14T09:26:37Z</time>
      </trkpt>
      <trkpt lat="45.90703" lon="4.75866">
        <ele>187</ele>
        <time>2017-07-14T09:26:38Z</time>
      </trkpt>
      <trkpt lat="45.90709" lon="4.75865">
        <ele>187</ele>
        <time>2017-07-14T09:26:39Z</time>
      </trkpt>
      <trkpt lat="45.90714" lon="4.75864">
        <ele>186</ele>
        <time>2017-07-14T09:26:40Z</time>
      </trkpt>
      <trkpt lat="45.9072" lon="4.75863">
        <ele>186</ele>
        <time>2017-07-14T09:26:41Z</time>
      </trkpt>
      <trkpt lat="45.90725" lon="4.75862">
        <ele>186</ele>
        <time>2017-07-14T09:26:42Z</time>
      </trkpt>
      <trkpt lat="45.9073" lon="4.75862">
        <ele>186</ele>
        <time>2017-07-14T09:26:43Z</time>
      </trkpt>
      <trkpt lat="45.90735" lon="4.75862">
        <ele>186</ele>
        <time>2017-07-14T09:26:44Z</time>
      </trkpt>
      <trkpt lat="45.90739" lon="4.75862">
        <ele>186</ele>
        <time>2017-07-14T09:26:45Z</time>
      </trkpt>
      <trkpt lat="45.90744" lon="4.7586">
        <ele>186</ele>
        <time>2017-07-14T09:26:46Z</time>
      </trkpt>
      <trkpt lat="45.90749" lon="4.75861">
        <ele>186</ele>
        <time>2017-07-14T09:26:47Z</time>
      </trkpt>
      <trkpt lat="45.90755" lon="4.75861">
        <ele>185</ele>
        <time>2017-07-14T09:26:48Z</time>
      </trkpt>
      <trkpt lat="45.9076" lon="4.75861">
        <ele>185</ele>
        <time>2017-07-14T09:26:49Z</time>
      </trkpt>
      <trkpt lat="45.90769" lon="4.75861">
        <ele>185</ele>
        <time>2017-07-14T09:26:51Z</time>
      </trkpt>
      <trkpt lat="45.90774" lon="4.75861">
        <ele>185</ele>
        <time>2017-07-14T09:26:52Z</time>
      </trkpt>
      <trkpt lat="45.90779" lon="4.75862">
        <ele>185</ele>
        <time>2017-07-14T09:26:53Z</time>
      </trkpt>
      <trkpt lat="45.90784" lon="4.75863">
        <ele>185</ele>
        <time>2017-07-14T09:26:54Z</time>
      </trkpt>
      <trkpt lat="45.90791" lon="4.75864">
        <ele>185</ele>
        <time>2017-07-14T09:26:56Z</time>
      </trkpt>
      <trkpt lat="45.90795" lon="4.75865">
        <ele>185</ele>
        <time>2017-07-14T09:26:57Z</time>
      </trkpt>
      <trkpt lat="45.90801" lon="4.75865">
        <ele>185</ele>
        <time>2017-07-14T09:26:58Z</time>
      </trkpt>
      <trkpt lat="45.90805" lon="4.75866">
        <ele>185</ele>
        <time>2017-07-14T09:26:59Z</time>
      </trkpt>
      <trkpt lat="45.9081" lon="4.75866">
        <ele>185</ele>
        <time>2017-07-14T09:27:00Z</time>
      </trkpt>
      <trkpt lat="45.90815" lon="4.75867">
        <ele>185</ele>
        <time>2017-07-14T09:27:01Z</time>
      </trkpt>
      <trkpt lat="45.90823" lon="4.75868">
        <ele>185</ele>
        <time>2017-07-14T09:27:03Z</time>
      </trkpt>
      <trkpt lat="45.90827" lon="4.75868">
        <ele>185</ele>
        <time>2017-07-14T09:27:04Z</time>
      </trkpt>
      <trkpt lat="45.90836" lon="4.75867">
        <ele>184</ele>
        <time>2017-07-14T09:27:06Z</time>
      </trkpt>
      <trkpt lat="45.90839" lon="4.75868">
        <ele>184</ele>
        <time>2017-07-14T09:27:07Z</time>
      </trkpt>
      <trkpt lat="45.90844" lon="4.75868">
        <ele>184</ele>
        <time>2017-07-14T09:27:08Z</time>
      </trkpt>
      <trkpt lat="45.90848" lon="4.75869">
        <ele>184</ele>
        <time>2017-07-14T09:27:09Z</time>
      </trkpt>
      <trkpt lat="45.90856" lon="4.75872">
        <ele>184</ele>
        <time>2017-07-14T09:27:11Z</time>
      </trkpt>
      <trkpt lat="45.9086" lon="4.75872">
        <ele>184</ele>
        <time>2017-07-14T09:27:12Z</time>
      </trkpt>
      <trkpt lat="45.90866" lon="4.75871">
        <ele>184</ele>
        <time>2017-07-14T09:27:13Z</time>
      </trkpt>
      <trkpt lat="45.9087" lon="4.75871">
        <ele>184</ele>
        <time>2017-07-14T09:27:14Z</time>
      </trkpt>
      <trkpt lat="45.90877" lon="4.75871">
        <ele>184</ele>
        <time>2017-07-14T09:27:16Z</time>
      </trkpt>
      <trkpt lat="45.90881" lon="4.75871">
        <ele>184</ele>
        <time>2017-07-14T09:27:17Z</time>
      </trkpt>
      <trkpt lat="45.90888" lon="4.75869">
        <ele>184</ele>
        <time>2017-07-14T09:27:19Z</time>
      </trkpt>
      <trkpt lat="45.9089" lon="4.75868">
        <ele>184</ele>
        <time>2017-07-14T09:27:20Z</time>
      </trkpt>
      <trkpt lat="45.90889" lon="4.75857">
        <ele>184</ele>
        <time>2017-07-14T09:27:24Z</time>
      </trkpt>
      <trkpt lat="45.90889" lon="4.75854">
        <ele>184</ele>
        <time>2017-07-14T09:27:25Z</time>
      </trkpt>
      <trkpt lat="45.9089" lon="4.75841">
        <ele>184</ele>
        <time>2017-07-14T09:27:28Z</time>
      </trkpt>
      <trkpt lat="45.90892" lon="4.75836">
        <ele>184</ele>
        <time>2017-07-14T09:27:29Z</time>
      </trkpt>
      <trkpt lat="45.90893" lon="4.75824">
        <ele>184</ele>
        <time>2017-07-14T09:27:32Z</time>
      </trkpt>
      <trkpt lat="45.90893" lon="4.75819">
        <ele>184</ele>
        <time>2017-07-14T09:27:33Z</time>
      </trkpt>
      <trkpt lat="45.90892" lon="4.75811">
        <ele>184</ele>
        <time>2017-07-14T09:27:35Z</time>
      </trkpt>
      <trkpt lat="45.90893" lon="4.75805">
        <ele>184</ele>
        <time>2017-07-14T09:27:36Z</time>
      </trkpt>
      <trkpt lat="45.90892" lon="4.75794">
        <ele>184</ele>
        <time>2017-07-14T09:27:38Z</time>
      </trkpt>
      <trkpt lat="45.90892" lon="4.75789">
        <ele>185</ele>
        <time>2017-07-14T09:27:39Z</time>
      </trkpt>
      <trkpt lat="45.90892" lon="4.75778">
        <ele>185</ele>
        <time>2017-07-14T09:27:41Z</time>
      </trkpt>
      <trkpt lat="45.90892" lon="4.75772">
        <ele>185</ele>
        <time>2017-07-14T09:27:42Z</time>
      </trkpt>
      <trkpt lat="45.90893" lon="4.75761">
        <ele>185</ele>
        <time>2017-07-14T09:27:44Z</time>
      </trkpt>
      <trkpt lat="45.90895" lon="4.75756">
        <ele>184</ele>
        <time>2017-07-14T09:27:45Z</time>
      </trkpt>
      <trkpt lat="45.90895" lon="4.75747">
        <ele>184</ele>
        <time>2017-07-14T09:27:47Z</time>
      </trkpt>
      <trkpt lat="45.90896" lon="4.75742">
        <ele>184</ele>
        <time>2017-07-14T09:27:48Z</time>
      </trkpt>
      <trkpt lat="45.90895" lon="4.75731">
        <ele>185</ele>
        <time>2017-07-14T09:27:50Z</time>
      </trkpt>
      <trkpt lat="45.90896" lon="4.75726">
        <ele>185</ele>
        <time>2017-07-14T09:27:51Z</time>
      </trkpt>
      <trkpt lat="45.90897" lon="4.75716">
        <ele>184</ele>
        <time>2017-07-14T09:27:53Z</time>
      </trkpt>
      <trkpt lat="45.90898" lon="4.75711">
        <ele>184</ele>
        <time>2017-07-14T09:27:54Z</time>
      </trkpt>
      <trkpt lat="45.90899" lon="4.75698">
        <ele>184</ele>
        <time>2017-07-14T09:27:57Z</time>
      </trkpt>
      <trkpt lat="45.90899" lon="4.75694">
        <ele>184</ele>
        <time>2017-07-14T09:27:58Z</time>
      </trkpt>
      <trkpt lat="45.90899" lon="4.75682">
        <ele>184</ele>
        <time>2017-07-14T09:28:01Z</time>
      </trkpt>
      <trkpt lat="45.90899" lon="4.75677">
        <ele>184</ele>
        <time>2017-07-14T09:28:02Z</time>
      </trkpt>
      <trkpt lat="45.90899" lon="4.75667">
        <ele>184</ele>
        <time>2017-07-14T09:28:04Z</time>
      </trkpt>
      <trkpt lat="45.909" lon="4.75661">
        <ele>184</ele>
        <time>2017-07-14T09:28:05Z</time>
      </trkpt>
      <trkpt lat="45.90899" lon="4.7565">
        <ele>184</ele>
        <time>2017-07-14T09:28:07Z</time>
      </trkpt>
      <trkpt lat="45.90899" lon="4.75644">
        <ele>185</ele>
        <time>2017-07-14T09:28:08Z</time>
      </trkpt>
      <trkpt lat="45.90899" lon="4.75634">
        <ele>185</ele>
        <time>2017-07-14T09:28:10Z</time>
      </trkpt>
      <trkpt lat="45.909" lon="4.7563">
        <ele>185</ele>
        <time>2017-07-14T09:28:11Z</time>
      </trkpt>
      <trkpt lat="45.90899" lon="4.7562">
        <ele>185</ele>
        <time>2017-07-14T09:28:13Z</time>
      </trkpt>
      <trkpt lat="45.909" lon="4.75615">
        <ele>185</ele>
        <time>2017-07-14T09:28:14Z</time>
      </trkpt>
      <trkpt lat="45.90901" lon="4.75604">
        <ele>185</ele>
        <time>2017-07-14T09:28:16Z</time>
      </trkpt>
      <trkpt lat="45.90902" lon="4.75599">
        <ele>185</ele>
        <time>2017-07-14T09:28:17Z</time>
      </trkpt>
      <trkpt lat="45.90903" lon="4.75589">
        <ele>185</ele>
        <time>2017-07-14T09:28:19Z</time>
      </trkpt>
      <trkpt lat="45.90903" lon="4.75584">
        <ele>185</ele>
        <time>2017-07-14T09:28:20Z</time>
      </trkpt>
      <trkpt lat="45.90905" lon="4.75573">
        <ele>185</ele>
        <time>2017-07-14T09:28:22Z</time>
      </trkpt>
      <trkpt lat="45.90906" lon="4.75568">
        <ele>186</ele>
        <time>2017-07-14T09:28:23Z</time>
      </trkpt>
      <trkpt lat="45.90906" lon="4.75558">
        <ele>186</ele>
        <time>2017-07-14T09:28:25Z</time>
      </trkpt>
      <trkpt lat="45.90907" lon="4.75554">
        <ele>186</ele>
        <time>2017-07-14T09:28:26Z</time>
      </trkpt>
      <trkpt lat="45.90908" lon="4.75541">
        <ele>186</ele>
        <time>2017-07-14T09:28:29Z</time>
      </trkpt>
      <trkpt lat="45.90908" lon="4.75536">
        <ele>186</ele>
        <time>2017-07-14T09:28:30Z</time>
      </trkpt>
      <trkpt lat="45.90909" lon="4.75525">
        <ele>186</ele>
        <time>2017-07-14T09:28:32Z</time>
      </trkpt>
      <trkpt lat="45.90909" lon="4.7552">
        <ele>186</ele>
        <time>2017-07-14T09:28:33Z</time>
      </trkpt>
      <trkpt lat="45.9091" lon="4.75511">
        <ele>186</ele>
        <time>2017-07-14T09:28:35Z</time>
      </trkpt>
      <trkpt lat="45.90911" lon="4.75506">
        <ele>186</ele>
        <time>2017-07-14T09:28:36Z</time>
      </trkpt>
      <trkpt lat="45.90912" lon="4.75496">
        <ele>186</ele>
        <time>2017-07-14T09:28:38Z</time>
      </trkpt>
      <trkpt lat="45.90913" lon="4.7549">
        <ele>186</ele>
        <time>2017-07-14T09:28:39Z</time>
      </trkpt>
      <trkpt lat="45.90914" lon="4.7548">
        <ele>186</ele>
        <time>2017-07-14T09:28:41Z</time>
      </trkpt>
      <trkpt lat="45.90913" lon="4.75476">
        <ele>186</ele>
        <time>2017-07-14T09:28:42Z</time>
      </trkpt>
      <trkpt lat="45.90914" lon="4.75467">
        <ele>186</ele>
        <time>2017-07-14T09:28:44Z</time>
      </trkpt>
      <trkpt lat="45.90915" lon="4.75463">
        <ele>186</ele>
        <time>2017-07-14T09:28:45Z</time>
      </trkpt>
      <trkpt lat="45.90917" lon="4.75452">
        <ele>185</ele>
        <time>2017-07-14T09:28:47Z</time>
      </trkpt>
      <trkpt lat="45.90917" lon="4.75446">
        <ele>185</ele>
        <time>2017-07-14T09:28:48Z</time>
      </trkpt>
      <trkpt lat="45.90917" lon="4.75436">
        <ele>185</ele>
        <time>2017-07-14T09:28:50Z</time>
      </trkpt>
      <trkpt lat="45.90918" lon="4.75431">
        <ele>185</ele>
        <time>2017-07-14T09:28:51Z</time>
      </trkpt>
      <trkpt lat="45.9092" lon="4.75422">
        <ele>185</ele>
        <time>2017-07-14T09:28:53Z</time>
      </trkpt>
      <trkpt lat="45.90921" lon="4.75416">
        <ele>185</ele>
        <time>2017-07-14T09:28:54Z</time>
      </trkpt>
      <trkpt lat="45.90922" lon="4.75405">
        <ele>185</ele>
        <time>2017-07-14T09:28:56Z</time>
      </trkpt>
      <trkpt lat="45.90923" lon="4.754">
        <ele>185</ele>
        <time>2017-07-14T09:28:57Z</time>
      </trkpt>
      <trkpt lat="45.90923" lon="4.75391">
        <ele>185</ele>
        <time>2017-07-14T09:28:59Z</time>
      </trkpt>
      <trkpt lat="45.90924" lon="4.75387">
        <ele>185</ele>
        <time>2017-07-14T09:29:00Z</time>
      </trkpt>
      <trkpt lat="45.90925" lon="4.75377">
        <ele>185</ele>
        <time>2017-07-14T09:29:02Z</time>
      </trkpt>
      <trkpt lat="45.90925" lon="4.75371">
        <ele>185</ele>
        <time>2017-07-14T09:29:03Z</time>
      </trkpt>
      <trkpt lat="45.90926" lon="4.75358">
        <ele>185</ele>
        <time>2017-07-14T09:29:05Z</time>
      </trkpt>
      <trkpt lat="45.90927" lon="4.75352">
        <ele>185</ele>
        <time>2017-07-14T09:29:06Z</time>
      </trkpt>
      <trkpt lat="45.90928" lon="4.75341">
        <ele>186</ele>
        <time>2017-07-14T09:29:08Z</time>
      </trkpt>
      <trkpt lat="45.90929" lon="4.75336">
        <ele>186</ele>
        <time>2017-07-14T09:29:09Z</time>
      </trkpt>
      <trkpt lat="45.9093" lon="4.75326">
        <ele>185</ele>
        <time>2017-07-14T09:29:11Z</time>
      </trkpt>
      <trkpt lat="45.90931" lon="4.75322">
        <ele>185</ele>
        <time>2017-07-14T09:29:12Z</time>
      </trkpt>
      <trkpt lat="45.90929" lon="4.75312">
        <ele>185</ele>
        <time>2017-07-14T09:29:14Z</time>
      </trkpt>
      <trkpt lat="45.9093" lon="4.75307">
        <ele>185</ele>
        <time>2017-07-14T09:29:15Z</time>
      </trkpt>
      <trkpt lat="45.9093" lon="4.75296">
        <ele>185</ele>
        <time>2017-07-14T09:29:17Z</time>
      </trkpt>
      <trkpt lat="45.9093" lon="4.7529">
        <ele>185</ele>
        <time>2017-07-14T09:29:18Z</time>
      </trkpt>
      <trkpt lat="45.90931" lon="4.75278">
        <ele>185</ele>
        <time>2017-07-14T09:29:20Z</time>
      </trkpt>
      <trkpt lat="45.90931" lon="4.75272">
        <ele>185</ele>
        <time>2017-07-14T09:29:21Z</time>
      </trkpt>
      <trkpt lat="45.90933" lon="4.75261">
        <ele>185</ele>
        <time>2017-07-14T09:29:23Z</time>
      </trkpt>
      <trkpt lat="45.90933" lon="4.75255">
        <ele>185</ele>
        <time>2017-07-14T09:29:24Z</time>
      </trkpt>
      <trkpt lat="45.90934" lon="4.75243">
        <ele>184</ele>
        <time>2017-07-14T09:29:26Z</time>
      </trkpt>
      <trkpt lat="45.90934" lon="4.75238">
        <ele>184</ele>
        <time>2017-07-14T09:29:27Z</time>
      </trkpt>
      <trkpt lat="45.90937" lon="4.75226">
        <ele>184</ele>
        <time>2017-07-14T09:29:29Z</time>
      </trkpt>
      <trkpt lat="45.90938" lon="4.7522">
        <ele>184</ele>
        <time>2017-07-14T09:29:30Z</time>
      </trkpt>
      <trkpt lat="45.9094" lon="4.75207">
        <ele>184</ele>
        <time>2017-07-14T09:29:32Z</time>
      </trkpt>
      <trkpt lat="45.90941" lon="4.75201">
        <ele>184</ele>
        <time>2017-07-14T09:29:33Z</time>
      </trkpt>
      <trkpt lat="45.90941" lon="4.75195">
        <ele>183</ele>
        <time>2017-07-14T09:29:34Z</time>
      </trkpt>
      <trkpt lat="45.90942" lon="4.75188">
        <ele>183</ele>
        <time>2017-07-14T09:29:35Z</time>
      </trkpt>
      <trkpt lat="45.90943" lon="4.75182">
        <ele>183</ele>
        <time>2017-07-14T09:29:36Z</time>
      </trkpt>
      <trkpt lat="45.90944" lon="4.75175">
        <ele>183</ele>
        <time>2017-07-14T09:29:37Z</time>
      </trkpt>
      <trkpt lat="45.90945" lon="4.75164">
        <ele>182</ele>
        <time>2017-07-14T09:29:39Z</time>
      </trkpt>
      <trkpt lat="45.90946" lon="4.75158">
        <ele>182</ele>
        <time>2017-07-14T09:29:40Z</time>
      </trkpt>
      <trkpt lat="45.90947" lon="4.75145">
        <ele>182</ele>
        <time>2017-07-14T09:29:42Z</time>
      </trkpt>
      <trkpt lat="45.90948" lon="4.75139">
        <ele>182</ele>
        <time>2017-07-14T09:29:43Z</time>
      </trkpt>
      <trkpt lat="45.90947" lon="4.75132">
        <ele>181</ele>
        <time>2017-07-14T09:29:44Z</time>
      </trkpt>
      <trkpt lat="45.90948" lon="4.75126">
        <ele>181</ele>
        <time>2017-07-14T09:29:45Z</time>
      </trkpt>
      <trkpt lat="45.90949" lon="4.75119">
        <ele>181</ele>
        <time>2017-07-14T09:29:46Z</time>
      </trkpt>
      <trkpt lat="45.9095" lon="4.75113">
        <ele>181</ele>
        <time>2017-07-14T09:29:47Z</time>
      </trkpt>
      <trkpt lat="45.90951" lon="4.75106">
        <ele>181</ele>
        <time>2017-07-14T09:29:48Z</time>
      </trkpt>
      <trkpt lat="45.90952" lon="4.751">
        <ele>181</ele>
        <time>2017-07-14T09:29:49Z</time>
      </trkpt>
      <trkpt lat="45.90952" lon="4.75094">
        <ele>181</ele>
        <time>2017-07-14T09:29:50Z</time>
      </trkpt>
      <trkpt lat="45.90953" lon="4.75087">
        <ele>181</ele>
        <time>2017-07-14T09:29:51Z</time>
      </trkpt>
      <trkpt lat="45.90954" lon="4.75081">
        <ele>179</ele>
        <time>2017-07-14T09:29:52Z</time>
      </trkpt>
      <trkpt lat="45.90954" lon="4.75074">
        <ele>179</ele>
        <time>2017-07-14T09:29:53Z</time>
      </trkpt>
      <trkpt lat="45.90955" lon="4.75068">
        <ele>179</ele>
        <time>2017-07-14T09:29:54Z</time>
      </trkpt>
      <trkpt lat="45.90956" lon="4.75061">
        <ele>179</ele>
        <time>2017-07-14T09:29:55Z</time>
      </trkpt>
      <trkpt lat="45.90958" lon="4.7505">
        <ele>179</ele>
        <time>2017-07-14T09:29:57Z</time>
      </trkpt>
      <trkpt lat="45.90959" lon="4.75045">
        <ele>179</ele>
        <time>2017-07-14T09:29:58Z</time>
      </trkpt>
      <trkpt lat="45.90964" lon="4.75036">
        <ele>179</ele>
        <time>2017-07-14T09:30:01Z</time>
      </trkpt>
      <trkpt lat="45.90968" lon="4.75035">
        <ele>179</ele>
        <time>2017-07-14T09:30:02Z</time>
      </trkpt>
      <trkpt lat="45.90976" lon="4.75037">
        <ele>179</ele>
        <time>2017-07-14T09:30:04Z</time>
      </trkpt>
      <trkpt lat="45.9098" lon="4.75039">
        <ele>179</ele>
        <time>2017-07-14T09:30:05Z</time>
      </trkpt>
      <trkpt lat="45.90984" lon="4.75041">
        <ele>179</ele>
        <time>2017-07-14T09:30:06Z</time>
      </trkpt>
      <trkpt lat="45.90989" lon="4.75042">
        <ele>179</ele>
        <time>2017-07-14T09:30:07Z</time>
      </trkpt>
      <trkpt lat="45.90997" lon="4.75046">
        <ele>179</ele>
        <time>2017-07-14T09:30:09Z</time>
      </trkpt>
      <trkpt lat="45.91001" lon="4.75047">
        <ele>178</ele>
        <time>2017-07-14T09:30:10Z</time>
      </trkpt>
      <trkpt lat="45.91009" lon="4.75049">
        <ele>178</ele>
        <time>2017-07-14T09:30:12Z</time>
      </trkpt>
      <trkpt lat="45.91013" lon="4.75051">
        <ele>178</ele>
        <time>2017-07-14T09:30:13Z</time>
      </trkpt>
      <trkpt lat="45.91018" lon="4.75053">
        <ele>179</ele>
        <time>2017-07-14T09:30:14Z</time>
      </trkpt>
      <trkpt lat="45.91023" lon="4.75055">
        <ele>179</ele>
        <time>2017-07-14T09:30:15Z</time>
      </trkpt>
      <trkpt lat="45.91027" lon="4.75057">
        <ele>179</ele>
        <time>2017-07-14T09:30:16Z</time>
      </trkpt>
      <trkpt lat="45.91032" lon="4.75059">
        <ele>179</ele>
        <time>2017-07-14T09:30:17Z</time>
      </trkpt>
      <trkpt lat="45.91041" lon="4.75062">
        <ele>179</ele>
        <time>2017-07-14T09:30:19Z</time>
      </trkpt>
      <trkpt lat="45.91045" lon="4.75064">
        <ele>179</ele>
        <time>2017-07-14T09:30:20Z</time>
      </trkpt>
      <trkpt lat="45.91053" lon="4.75066">
        <ele>179</ele>
        <time>2017-07-14T09:30:22Z</time>
      </trkpt>
      <trkpt lat="45.91057" lon="4.75068">
        <ele>179</ele>
        <time>2017-07-14T09:30:23Z</time>
      </trkpt>
      <trkpt lat="45.91061" lon="4.7507">
        <ele>179</ele>
        <time>2017-07-14T09:30:24Z</time>
      </trkpt>
      <trkpt lat="45.91066" lon="4.75073">
        <ele>179</ele>
        <time>2017-07-14T09:30:25Z</time>
      </trkpt>
      <trkpt lat="45.9107" lon="4.75074">
        <ele>179</ele>
        <time>2017-07-14T09:30:26Z</time>
      </trkpt>
      <trkpt lat="45.91075" lon="4.75077">
        <ele>179</ele>
        <time>2017-07-14T09:30:27Z</time>
      </trkpt>
      <trkpt lat="45.91079" lon="4.75079">
        <ele>180</ele>
        <time>2017-07-14T09:30:28Z</time>
      </trkpt>
      <trkpt lat="45.91084" lon="4.75081">
        <ele>180</ele>
        <time>2017-07-14T09:30:29Z</time>
      </trkpt>
      <trkpt lat="45.91089" lon="4.75083">
        <ele>180</ele>
        <time>2017-07-14T09:30:30Z</time>
      </trkpt>
      <trkpt lat="45.91093" lon="4.75085">
        <ele>180</ele>
        <time>2017-07-14T09:30:31Z</time>
      </trkpt>
      <trkpt lat="45.911" lon="4.75088">
        <ele>180</ele>
        <time>2017-07-14T09:30:33Z</time>
      </trkpt>
      <trkpt lat="45.91105" lon="4.75089">
        <ele>180</ele>
        <time>2017-07-14T09:30:34Z</time>
      </trkpt>
      <trkpt lat="45.9111" lon="4.75091">
        <ele>179</ele>
        <time>2017-07-14T09:30:35Z</time>
      </trkpt>
      <trkpt lat="45.91115" lon="4.75093">
        <ele>179</ele>
        <time>2017-07-14T09:30:36Z</time>
      </trkpt>
      <trkpt lat="45.9112" lon="4.75095">
        <ele>179</ele>
        <time>2017-07-14T09:30:37Z</time>
      </trkpt>
      <trkpt lat="45.91125" lon="4.75097">
        <ele>179</ele>
        <time>2017-07-14T09:30:38Z</time>
      </trkpt>
      <trkpt lat="45.9113" lon="4.75099">
        <ele>179</ele>
        <time>2017-07-14T09:30:39Z</time>
      </trkpt>
      <trkpt lat="45.91135" lon="4.75101">
        <ele>179</ele>
        <time>2017-07-14T09:30:40Z</time>
      </trkpt>
      <trkpt lat="45.91141" lon="4.75103">
        <ele>179</ele>
        <time>2017-07-14T09:30:41Z</time>
      </trkpt>
      <trkpt lat="45.91147" lon="4.75105">
        <ele>179</ele>
        <time>2017-07-14T09:30:42Z</time>
      </trkpt>
      <trkpt lat="45.91152" lon="4.75107">
        <ele>179</ele>
        <time>2017-07-14T09:30:43Z</time>
      </trkpt>
      <trkpt lat="45.91158" lon="4.75109">
        <ele>179</ele>
        <time>2017-07-14T09:30:44Z</time>
      </trkpt>
      <trkpt lat="45.91163" lon="4.7511">
        <ele>179</ele>
        <time>2017-07-14T09:30:45Z</time>
      </trkpt>
      <trkpt lat="45.91169" lon="4.75111">
        <ele>178</ele>
        <time>2017-07-14T09:30:46Z</time>
      </trkpt>
      <trkpt lat="45.91174" lon="4.75112">
        <ele>178</ele>
        <time>2017-07-14T09:30:47Z</time>
      </trkpt>
      <trkpt lat="45.91179" lon="4.75113">
        <ele>178</ele>
        <time>2017-07-14T09:30:48Z</time>
      </trkpt>
      <trkpt lat="45.91183" lon="4.75113">
        <ele>178</ele>
        <time>2017-07-14T09:30:49Z</time>
      </trkpt>
      <trkpt lat="45.91188" lon="4.75114">
        <ele>178</ele>
        <time>2017-07-14T09:30:50Z</time>
      </trkpt>
      <trkpt lat="45.91193" lon="4.75115">
        <ele>178</ele>
        <time>2017-07-14T09:30:51Z</time>
      </trkpt>
      <trkpt lat="45.91199" lon="4.75116">
        <ele>178</ele>
        <time>2017-07-14T09:30:52Z</time>
      </trkpt>
      <trkpt lat="45.91204" lon="4.75116">
        <ele>178</ele>
        <time>2017-07-14T09:30:53Z</time>
      </trkpt>
      <trkpt lat="45.9121" lon="4.75117">
        <ele>177</ele>
        <time>2017-07-14T09:30:54Z</time>
      </trkpt>
      <trkpt lat="45.91216" lon="4.75119">
        <ele>177</ele>
        <time>2017-07-14T09:30:55Z</time>
      </trkpt>
      <trkpt lat="45.91221" lon="4.75121">
        <ele>177</ele>
        <time>2017-07-14T09:30:56Z</time>
      </trkpt>
      <trkpt lat="45.91226" lon="4.75123">
        <ele>177</ele>
        <time>2017-07-14T09:30:57Z</time>
      </trkpt>
      <trkpt lat="45.91232" lon="4.75125">
        <ele>177</ele>
        <time>2017-07-14T09:30:58Z</time>
      </trkpt>
      <trkpt lat="45.91237" lon="4.75127">
        <ele>177</ele>
        <time>2017-07-14T09:30:59Z</time>
      </trkpt>
      <trkpt lat="45.91242" lon="4.75129">
        <ele>177</ele>
        <time>2017-07-14T09:31:00Z</time>
      </trkpt>
      <trkpt lat="45.91247" lon="4.75132">
        <ele>177</ele>
        <time>2017-07-14T09:31:01Z</time>
      </trkpt>
      <trkpt lat="45.91251" lon="4.75134">
        <ele>177</ele>
        <time>2017-07-14T09:31:02Z</time>
      </trkpt>
      <trkpt lat="45.91259" lon="4.75139">
        <ele>177</ele>
        <time>2017-07-14T09:31:04Z</time>
      </trkpt>
      <trkpt lat="45.91263" lon="4.75141">
        <ele>177</ele>
        <time>2017-07-14T09:31:05Z</time>
      </trkpt>
      <trkpt lat="45.91268" lon="4.75144">
        <ele>177</ele>
        <time>2017-07-14T09:31:06Z</time>
      </trkpt>
      <trkpt lat="45.91272" lon="4.75146">
        <ele>177</ele>
        <time>2017-07-14T09:31:07Z</time>
      </trkpt>
      <trkpt lat="45.91277" lon="4.75148">
        <ele>177</ele>
        <time>2017-07-14T09:31:08Z</time>
      </trkpt>
      <trkpt lat="45.91281" lon="4.7515">
        <ele>177</ele>
        <time>2017-07-14T09:31:09Z</time>
      </trkpt>
      <trkpt lat="45.91286" lon="4.75152">
        <ele>177</ele>
        <time>2017-07-14T09:31:10Z</time>
      </trkpt>
      <trkpt lat="45.9129" lon="4.75154">
        <ele>177</ele>
        <time>2017-07-14T09:31:11Z</time>
      </trkpt>
      <trkpt lat="45.91298" lon="4.75156">
        <ele>177</ele>
        <time>2017-07-14T09:31:13Z</time>
      </trkpt>
      <trkpt lat="45.91302" lon="4.75158">
        <ele>177</ele>
        <time>2017-07-14T09:31:14Z</time>
      </trkpt>
      <trkpt lat="45.91311" lon="4.75156">
        <ele>177</ele>
        <time>2017-07-14T09:31:18Z</time>
      </trkpt>
      <trkpt lat="45.91312" lon="4.75152">
        <ele>177</ele>
        <time>2017-07-14T09:31:19Z</time>
      </trkpt>
      <trkpt lat="45.91312" lon="4.75141">
        <ele>177</ele>
        <time>2017-07-14T09:31:21Z</time>
      </trkpt>
      <trkpt lat="45.91311" lon="4.75136">
        <ele>177</ele>
        <time>2017-07-14T09:31:22Z</time>
      </trkpt>
      <trkpt lat="45.91309" lon="4.75125">
        <ele>177</ele>
        <time>2017-07-14T09:31:24Z</time>
      </trkpt>
      <trkpt lat="45.91308" lon="4.75119">
        <ele>177</ele>
        <time>2017-07-14T09:31:25Z</time>
      </trkpt>
      <trkpt lat="45.91306" lon="4.75107">
        <ele>177</ele>
        <time>2017-07-14T09:31:27Z</time>
      </trkpt>
      <trkpt lat="45.91305" lon="4.75101">
        <ele>177</ele>
        <time>2017-07-14T09:31:28Z</time>
      </trkpt>
      <trkpt lat="45.91304" lon="4.75095">
        <ele>177</ele>
        <time>2017-07-14T09:31:29Z</time>
      </trkpt>
      <trkpt lat="45.91304" lon="4.75088">
        <ele>177</ele>
        <time>2017-07-14T09:31:30Z</time>
      </trkpt>
      <trkpt lat="45.91303" lon="4.75082">
        <ele>177</ele>
        <time>2017-07-14T09:31:31Z</time>
      </trkpt>
      <trkpt lat="45.91302" lon="4.75075">
        <ele>177</ele>
        <time>2017-07-14T09:31:32Z</time>
      </trkpt>
      <trkpt lat="45.91302" lon="4.75063">
        <ele>177</ele>
        <time>2017-07-14T09:31:34Z</time>
      </trkpt>
      <trkpt lat="45.91302" lon="4.75056">
        <ele>177</ele>
        <time>2017-07-14T09:31:35Z</time>
      </trkpt>
      <trkpt lat="45.91302" lon="4.7505">
        <ele>177</ele>
        <time>2017-07-14T09:31:36Z</time>
      </trkpt>
      <trkpt lat="45.91302" lon="4.75043">
        <ele>177</ele>
        <time>2017-07-14T09:31:37Z</time>
      </trkpt>
      <trkpt lat="45.91301" lon="4.75035">
        <ele>177</ele>
        <time>2017-07-14T09:31:38Z</time>
      </trkpt>
      <trkpt lat="45.91301" lon="4.75028">
        <ele>177</ele>
        <time>2017-07-14T09:31:39Z</time>
      </trkpt>
      <trkpt lat="45.91301" lon="4.75021">
        <ele>177</ele>
        <time>2017-07-14T09:31:40Z</time>
      </trkpt>
      <trkpt lat="45.91301" lon="4.75013">
        <ele>177</ele>
        <time>2017-07-14T09:31:41Z</time>
      </trkpt>
      <trkpt lat="45.91301" lon="4.75006">
        <ele>177</ele>
        <time>2017-07-14T09:31:42Z</time>
      </trkpt>
      <trkpt lat="45.91302" lon="4.74998">
        <ele>177</ele>
        <time>2017-07-14T09:31:43Z</time>
      </trkpt>
      <trkpt lat="45.91302" lon="4.74986">
        <ele>177</ele>
        <time>2017-07-14T09:31:45Z</time>
      </trkpt>
      <trkpt lat="45.91302" lon="4.7498">
        <ele>177</ele>
        <time>2017-07-14T09:31:46Z</time>
      </trkpt>
      <trkpt lat="45.91302" lon="4.74968">
        <ele>177</ele>
        <time>2017-07-14T09:31:48Z</time>
      </trkpt>
      <trkpt lat="45.91301" lon="4.74962">
        <ele>177</ele>
        <time>2017-07-14T09:31:49Z</time>
      </trkpt>
      <trkpt lat="45.91302" lon="4.7495">
        <ele>177</ele>
        <time>2017-07-14T09:31:51Z</time>
      </trkpt>
      <trkpt lat="45.91305" lon="4.74943">
        <ele>177</ele>
        <time>2017-07-14T09:31:52Z</time>
      </trkpt>
      <trkpt lat="45.91306" lon="4.74931">
        <ele>177</ele>
        <time>2017-07-14T09:31:54Z</time>
      </trkpt>
      <trkpt lat="45.91306" lon="4.74925">
        <ele>177</ele>
        <time>2017-07-14T09:31:55Z</time>
      </trkpt>
      <trkpt lat="45.91308" lon="4.74915">
        <ele>176</ele>
        <time>2017-07-14T09:31:57Z</time>
      </trkpt>
      <trkpt lat="45.91308" lon="4.7491">
        <ele>176</ele>
        <time>2017-07-14T09:31:58Z</time>
      </trkpt>
      <trkpt lat="45.91309" lon="4.749">
        <ele>176</ele>
        <time>2017-07-14T09:32:00Z</time>
      </trkpt>
      <trkpt lat="45.91311" lon="4.74895">
        <ele>176</ele>
        <time>2017-07-14T09:32:01Z</time>
      </trkpt>
      <trkpt lat="45.91315" lon="4.74888">
        <ele>176</ele>
        <time>2017-07-14T09:32:03Z</time>
      </trkpt>
      <trkpt lat="45.91317" lon="4.74886">
        <ele>176</ele>
        <time>2017-07-14T09:32:04Z</time>
      </trkpt>
      <trkpt lat="45.91325" lon="4.74885">
        <ele>176</ele>
        <time>2017-07-14T09:32:06Z</time>
      </trkpt>
      <trkpt lat="45.91331" lon="4.74887">
        <ele>176</ele>
        <time>2017-07-14T09:32:07Z</time>
      </trkpt>
      <trkpt lat="45.91335" lon="4.74889">
        <ele>176</ele>
        <time>2017-07-14T09:32:08Z</time>
      </trkpt>
      <trkpt lat="45.91339" lon="4.74892">
        <ele>176</ele>
        <time>2017-07-14T09:32:09Z</time>
      </trkpt>
      <trkpt lat="45.91343" lon="4.74894">
        <ele>176</ele>
        <time>2017-07-14T09:32:10Z</time>
      </trkpt>
      <trkpt lat="45.91348" lon="4.74897">
        <ele>177</ele>
        <time>2017-07-14T09:32:11Z</time>
      </trkpt>
      <trkpt lat="45.91353" lon="4.74899">
        <ele>177</ele>
        <time>2017-07-14T09:32:12Z</time>
      </trkpt>
      <trkpt lat="45.91358" lon="4.74901">
        <ele>177</ele>
        <time>2017-07-14T09:32:13Z</time>
      </trkpt>
      <trkpt lat="45.91363" lon="4.74904">
        <ele>177</ele>
        <time>2017-07-14T09:32:14Z</time>
      </trkpt>
      <trkpt lat="45.91367" lon="4.74905">
        <ele>177</ele>
        <time>2017-07-14T09:32:15Z</time>
      </trkpt>
      <trkpt lat="45.91371" lon="4.74907">
        <ele>177</ele>
        <time>2017-07-14T09:32:16Z</time>
      </trkpt>
      <trkpt lat="45.91376" lon="4.74909">
        <ele>177</ele>
        <time>2017-07-14T09:32:17Z</time>
      </trkpt>
      <trkpt lat="45.91381" lon="4.7491">
        <ele>177</ele>
        <time>2017-07-14T09:32:18Z</time>
      </trkpt>
      <trkpt lat="45.91385" lon="4.7491">
        <ele>177</ele>
        <time>2017-07-14T09:32:19Z</time>
      </trkpt>
      <trkpt lat="45.91389" lon="4.7491">
        <ele>177</ele>
        <time>2017-07-14T09:32:20Z</time>
      </trkpt>
      <trkpt lat="45.91395" lon="4.74911">
        <ele>177</ele>
        <time>2017-07-14T09:32:21Z</time>
      </trkpt>
      <trkpt lat="45.91399" lon="4.74912">
        <ele>177</ele>
        <time>2017-07-14T09:32:22Z</time>
      </trkpt>
      <trkpt lat="45.91404" lon="4.74912">
        <ele>177</ele>
        <time>2017-07-14T09:32:23Z</time>
      </trkpt>
      <trkpt lat="45.9141" lon="4.74913">
        <ele>178</ele>
        <time>2017-07-14T09:32:24Z</time>
      </trkpt>
      <trkpt lat="45.91415" lon="4.74913">
        <ele>178</ele>
        <time>2017-07-14T09:32:25Z</time>
      </trkpt>
      <trkpt lat="45.9142" lon="4.74913">
        <ele>178</ele>
        <time>2017-07-14T09:32:26Z</time>
      </trkpt>
      <trkpt lat="45.91425" lon="4.74914">
        <ele>177</ele>
        <time>2017-07-14T09:32:27Z</time>
      </trkpt>
      <trkpt lat="45.91429" lon="4.74915">
        <ele>177</ele>
        <time>2017-07-14T09:32:28Z</time>
      </trkpt>
      <trkpt lat="45.91435" lon="4.74916">
        <ele>177</ele>
        <time>2017-07-14T09:32:29Z</time>
      </trkpt>
      <trkpt lat="45.91442" lon="4.74917">
        <ele>178</ele>
        <time>2017-07-14T09:32:31Z</time>
      </trkpt>
      <trkpt lat="45.91447" lon="4.74918">
        <ele>178</ele>
        <time>2017-07-14T09:32:32Z</time>
      </trkpt>
      <trkpt lat="45.91452" lon="4.7492">
        <ele>178</ele>
        <time>2017-07-14T09:32:33Z</time>
      </trkpt>
      <trkpt lat="45.91457" lon="4.7492">
        <ele>178</ele>
        <time>2017-07-14T09:32:34Z</time>
      </trkpt>
      <trkpt lat="45.91461" lon="4.74921">
        <ele>178</ele>
        <time>2017-07-14T09:32:35Z</time>
      </trkpt>
      <trkpt lat="45.91466" lon="4.74921">
        <ele>178</ele>
        <time>2017-07-14T09:32:36Z</time>
      </trkpt>
      <trkpt lat="45.91475" lon="4.74923">
        <ele>178</ele>
        <time>2017-07-14T09:32:38Z</time>
      </trkpt>
      <trkpt lat="45.9148" lon="4.74923">
        <ele>178</ele>
        <time>2017-07-14T09:32:39Z</time>
      </trkpt>
      <trkpt lat="45.91488" lon="4.74929">
        <ele>178</ele>
        <time>2017-07-14T09:32:41Z</time>
      </trkpt>
      <trkpt lat="45.91493" lon="4.7493">
        <ele>178</ele>
        <time>2017-07-14T09:32:42Z</time>
      </trkpt>
      <trkpt lat="45.91497" lon="4.74932">
        <ele>178</ele>
        <time>2017-07-14T09:32:43Z</time>
      </trkpt>
      <trkpt lat="45.91502" lon="4.74932">
        <ele>177</ele>
        <time>2017-07-14T09:32:44Z</time>
      </trkpt>
      <trkpt lat="45.9151" lon="4.74933">
        <ele>177</ele>
        <time>2017-07-14T09:32:46Z</time>
      </trkpt>
      <trkpt lat="45.91514" lon="4.74933">
        <ele>177</ele>
        <time>2017-07-14T09:32:47Z</time>
      </trkpt>
      <trkpt lat="45.9152" lon="4.74933">
        <ele>177</ele>
        <time>2017-07-14T09:32:48Z</time>
      </trkpt>
      <trkpt lat="45.91525" lon="4.74934">
        <ele>177</ele>
        <time>2017-07-14T09:32:49Z</time>
      </trkpt>
      <trkpt lat="45.9153" lon="4.74934">
        <ele>178</ele>
        <time>2017-07-14T09:32:50Z</time>
      </trkpt>
      <trkpt lat="45.91535" lon="4.74934">
        <ele>178</ele>
        <time>2017-07-14T09:32:51Z</time>
      </trkpt>
      <trkpt lat="45.91544" lon="4.74934">
        <ele>178</ele>
        <time>2017-07-14T09:32:53Z</time>
      </trkpt>
      <trkpt lat="45.91548" lon="4.74935">
        <ele>178</ele>
        <time>2017-07-14T09:32:54Z</time>
      </trkpt>
      <trkpt lat="45.91554" lon="4.74935">
        <ele>178</ele>
        <time>2017-07-14T09:32:55Z</time>
      </trkpt>
      <trkpt lat="45.91557" lon="4.74936">
        <ele>178</ele>
        <time>2017-07-14T09:32:56Z</time>
      </trkpt>
      <trkpt lat="45.91566" lon="4.74937">
        <ele>178</ele>
        <time>2017-07-14T09:32:58Z</time>
      </trkpt>
      <trkpt lat="45.91571" lon="4.74938">
        <ele>178</ele>
        <time>2017-07-14T09:32:59Z</time>
      </trkpt>
      <trkpt lat="45.91578" lon="4.74939">
        <ele>178</ele>
        <time>2017-07-14T09:33:00Z</time>
      </trkpt>
      <trkpt lat="45.91584" lon="4.7494">
        <ele>177</ele>
        <time>2017-07-14T09:33:01Z</time>
      </trkpt>
      <trkpt lat="45.91592" lon="4.74945">
        <ele>177</ele>
        <time>2017-07-14T09:33:03Z</time>
      </trkpt>
      <trkpt lat="45.91596" lon="4.74948">
        <ele>177</ele>
        <time>2017-07-14T09:33:04Z</time>
      </trkpt>
      <trkpt lat="45.91601" lon="4.74951">
        <ele>177</ele>
        <time>2017-07-14T09:33:05Z</time>
      </trkpt>
      <trkpt lat="45.91604" lon="4.74953">
        <ele>177</ele>
        <time>2017-07-14T09:33:06Z</time>
      </trkpt>
      <trkpt lat="45.91612" lon="4.74958">
        <ele>177</ele>
        <time>2017-07-14T09:33:08Z</time>
      </trkpt>
      <trkpt lat="45.91615" lon="4.7496">
        <ele>177</ele>
        <time>2017-07-14T09:33:09Z</time>
      </trkpt>
      <trkpt lat="45.91623" lon="4.74965">
        <ele>177</ele>
        <time>2017-07-14T09:33:11Z</time>
      </trkpt>
      <trkpt lat="45.91627" lon="4.74966">
        <ele>177</ele>
        <time>2017-07-14T09:33:12Z</time>
      </trkpt>
      <trkpt lat="45.91634" lon="4.74968">
        <ele>176</ele>
        <time>2017-07-14T09:33:14Z</time>
      </trkpt>
      <trkpt lat="45.91639" lon="4.74971">
        <ele>176</ele>
        <time>2017-07-14T09:33:15Z</time>
      </trkpt>
      <trkpt lat="45.91643" lon="4.74973">
        <ele>176</ele>
        <time>2017-07-14T09:33:16Z</time>
      </trkpt>
      <trkpt lat="45.91648" lon="4.74975">
        <ele>176</ele>
        <time>2017-07-14T09:33:17Z</time>
      </trkpt>
      <trkpt lat="45.91653" lon="4.74977">
        <ele>176</ele>
        <time>2017-07-14T09:33:18Z</time>
      </trkpt>
      <trkpt lat="45.91658" lon="4.74979">
        <ele>176</ele>
        <time>2017-07-14T09:33:19Z</time>
      </trkpt>
      <trkpt lat="45.91662" lon="4.7498">
        <ele>176</ele>
        <time>2017-07-14T09:33:20Z</time>
      </trkpt>
      <trkpt lat="45.91667" lon="4.74982">
        <ele>175</ele>
        <time>2017-07-14T09:33:21Z</time>
      </trkpt>
      <trkpt lat="45.91672" lon="4.74984">
        <ele>175</ele>
        <time>2017-07-14T09:33:22Z</time>
      </trkpt>
      <trkpt lat="45.91676" lon="4.74985">
        <ele>175</ele>
        <time>2017-07-14T09:33:23Z</time>
      </trkpt>
      <trkpt lat="45.91684" lon="4.74987">
        <ele>175</ele>
        <time>2017-07-14T09:33:25Z</time>
      </trkpt>
      <trkpt lat="45.91687" lon="4.74988">
        <ele>175</ele>
        <time>2017-07-14T09:33:26Z</time>
      </trkpt>
      <trkpt lat="45.91695" lon="4.74987">
        <ele>175</ele>
        <time>2017-07-14T09:33:28Z</time>
      </trkpt>
      <trkpt lat="45.91698" lon="4.74987">
        <ele>175</ele>
        <time>2017-07-14T09:33:29Z</time>
      </trkpt>
      <trkpt lat="45.91704" lon="4.74986">
        <ele>175</ele>
        <time>2017-07-14T09:33:31Z</time>
      </trkpt>
      <trkpt lat="45.91707" lon="4.74985">
        <ele>175</ele>
        <time>2017-07-14T09:33:32Z</time>
      </trkpt>
      <trkpt lat="45.91714" lon="4.74981">
        <ele>175</ele>
        <time>2017-07-14T09:33:34Z</time>
      </trkpt>
      <trkpt lat="45.91716" lon="4.74978">
        <ele>175</ele>
        <time>2017-07-14T09:33:35Z</time>
      </trkpt>
      <trkpt lat="45.91721" lon="4.74973">
        <ele>175</ele>
        <time>2017-07-14T09:33:37Z</time>
      </trkpt>
      <trkpt lat="45.91724" lon="4.74971">
        <ele>175</ele>
        <time>2017-07-14T09:33:38Z</time>
      </trkpt>
      <trkpt lat="45.91731" lon="4.74966">
        <ele>175</ele>
        <time>2017-07-14T09:33:40Z</time>
      </trkpt>
      <trkpt lat="45.91734" lon="4.74963">
        <ele>175</ele>
        <time>2017-07-14T09:33:41Z</time>
      </trkpt>
      <trkpt lat="45.91738" lon="4.74958">
        <ele>175</ele>
        <time>2017-07-14T09:33:43Z</time>
      </trkpt>
      <trkpt lat="45.91741" lon="4.74956">
        <ele>175</ele>
        <time>2017-07-14T09:33:44Z</time>
      </trkpt>
      <trkpt lat="45.91748" lon="4.74949">
        <ele>174</ele>
        <time>2017-07-14T09:33:46Z</time>
      </trkpt>
      <trkpt lat="45.91751" lon="4.74945">
        <ele>174</ele>
        <time>2017-07-14T09:33:47Z</time>
      </trkpt>
      <trkpt lat="45.91758" lon="4.74938">
        <ele>174</ele>
        <time>2017-07-14T09:33:49Z</time>
      </trkpt>
      <trkpt lat="45.91762" lon="4.74933">
        <ele>174</ele>
        <time>2017-07-14T09:33:50Z</time>
      </trkpt>
      <trkpt lat="45.91766" lon="4.74927">
        <ele>174</ele>
        <time>2017-07-14T09:33:51Z</time>
      </trkpt>
      <trkpt lat="45.91769" lon="4.74921">
        <ele>174</ele>
        <time>2017-07-14T09:33:52Z</time>
      </trkpt>
      <trkpt lat="45.91773" lon="4.74914">
        <ele>173</ele>
        <time>2017-07-14T09:33:53Z</time>
      </trkpt>
      <trkpt lat="45.91777" lon="4.74907">
        <ele>173</ele>
        <time>2017-07-14T09:33:54Z</time>
      </trkpt>
      <trkpt lat="45.91781" lon="4.74899">
        <ele>173</ele>
        <time>2017-07-14T09:33:55Z</time>
      </trkpt>
      <trkpt lat="45.91784" lon="4.74892">
        <ele>173</ele>
        <time>2017-07-14T09:33:56Z</time>
      </trkpt>
      <trkpt lat="45.91788" lon="4.74884">
        <ele>173</ele>
        <time>2017-07-14T09:33:57Z</time>
      </trkpt>
      <trkpt lat="45.91792" lon="4.74877">
        <ele>173</ele>
        <time>2017-07-14T09:33:58Z</time>
      </trkpt>
      <trkpt lat="45.91795" lon="4.74869">
        <ele>173</ele>
        <time>2017-07-14T09:33:59Z</time>
      </trkpt>
      <trkpt lat="45.91799" lon="4.74862">
        <ele>173</ele>
        <time>2017-07-14T09:34:00Z</time>
      </trkpt>
      <trkpt lat="45.91802" lon="4.74854">
        <ele>173</ele>
        <time>2017-07-14T09:34:01Z</time>
      </trkpt>
      <trkpt lat="45.91806" lon="4.74847">
        <ele>173</ele>
        <time>2017-07-14T09:34:02Z</time>
      </trkpt>
      <trkpt lat="45.9181" lon="4.7484">
        <ele>172</ele>
        <time>2017-07-14T09:34:03Z</time>
      </trkpt>
      <trkpt lat="45.91813" lon="4.74832">
        <ele>172</ele>
        <time>2017-07-14T09:34:04Z</time>
      </trkpt>
      <trkpt lat="45.91817" lon="4.74826">
        <ele>172</ele>
        <time>2017-07-14T09:34:05Z</time>
      </trkpt>
      <trkpt lat="45.91821" lon="4.7482">
        <ele>172</ele>
        <time>2017-07-14T09:34:06Z</time>
      </trkpt>
      <trkpt lat="45.91825" lon="4.74814">
        <ele>172</ele>
        <time>2017-07-14T09:34:07Z</time>
      </trkpt>
      <trkpt lat="45.91829" lon="4.74808">
        <ele>172</ele>
        <time>2017-07-14T09:34:08Z</time>
      </trkpt>
      <trkpt lat="45.91833" lon="4.74803">
        <ele>172</ele>
        <time>2017-07-14T09:34:09Z</time>
      </trkpt>
      <trkpt lat="45.91837" lon="4.74798">
        <ele>172</ele>
        <time>2017-07-14T09:34:10Z</time>
      </trkpt>
      <trkpt lat="45.9184" lon="4.74793">
        <ele>172</ele>
        <time>2017-07-14T09:34:11Z</time>
      </trkpt>
      <trkpt lat="45.91843" lon="4.74788">
        <ele>171</ele>
        <time>2017-07-14T09:34:12Z</time>
      </trkpt>
      <trkpt lat="45.91849" lon="4.74779">
        <ele>171</ele>
        <time>2017-07-14T09:34:14Z</time>
      </trkpt>
      <trkpt lat="45.91853" lon="4.74774">
        <ele>171</ele>
        <time>2017-07-14T09:34:15Z</time>
      </trkpt>
      <trkpt lat="45.9186" lon="4.74768">
        <ele>171</ele>
        <time>2017-07-14T09:34:17Z</time>
      </trkpt>
      <trkpt lat="45.91864" lon="4.74766">
        <ele>171</ele>
        <time>2017-07-14T09:34:18Z</time>
      </trkpt>
      <trkpt lat="45.91872" lon="4.74764">
        <ele>171</ele>
        <time>2017-07-14T09:34:20Z</time>
      </trkpt>
      <trkpt lat="45.91877" lon="4.74765">
        <ele>172</ele>
        <time>2017-07-14T09:34:21Z</time>
      </trkpt>
      <trkpt lat="45.91884" lon="4.74769">
        <ele>172</ele>
        <time>2017-07-14T09:34:23Z</time>
      </trkpt>
      <trkpt lat="45.91889" lon="4.74771">
        <ele>172</ele>
        <time>2017-07-14T09:34:24Z</time>
      </trkpt>
      <trkpt lat="45.91893" lon="4.74773">
        <ele>172</ele>
        <time>2017-07-14T09:34:25Z</time>
      </trkpt>
      <trkpt lat="45.91898" lon="4.74776">
        <ele>172</ele>
        <time>2017-07-14T09:34:26Z</time>
      </trkpt>
      <trkpt lat="45.91906" lon="4.7478">
        <ele>172</ele>
        <time>2017-07-14T09:34:28Z</time>
      </trkpt>
      <trkpt lat="45.9191" lon="4.74783">
        <ele>172</ele>
        <time>2017-07-14T09:34:29Z</time>
      </trkpt>
      <trkpt lat="45.91914" lon="4.74785">
        <ele>172</ele>
        <time>2017-07-14T09:34:30Z</time>
      </trkpt>
      <trkpt lat="45.91919" lon="4.74788">
        <ele>171</ele>
        <time>2017-07-14T09:34:31Z</time>
      </trkpt>
      <trkpt lat="45.91923" lon="4.7479">
        <ele>171</ele>
        <time>2017-07-14T09:34:32Z</time>
      </trkpt>
      <trkpt lat="45.91928" lon="4.74793">
        <ele>170</ele>
        <time>2017-07-14T09:34:33Z</time>
      </trkpt>
      <trkpt lat="45.91933" lon="4.74797">
        <ele>170</ele>
        <time>2017-07-14T09:34:34Z</time>
      </trkpt>
      <trkpt lat="45.91938" lon="4.74799">
        <ele>170</ele>
        <time>2017-07-14T09:34:35Z</time>
      </trkpt>
      <trkpt lat="45.91943" lon="4.74803">
        <ele>170</ele>
        <time>2017-07-14T09:34:36Z</time>
      </trkpt>
      <trkpt lat="45.91948" lon="4.74805">
        <ele>170</ele>
        <time>2017-07-14T09:34:37Z</time>
      </trkpt>
      <trkpt lat="45.91952" lon="4.74808">
        <ele>170</ele>
        <time>2017-07-14T09:34:38Z</time>
      </trkpt>
      <trkpt lat="45.91956" lon="4.7481">
        <ele>170</ele>
        <time>2017-07-14T09:34:39Z</time>
      </trkpt>
      <trkpt lat="45.91961" lon="4.74812">
        <ele>170</ele>
        <time>2017-07-14T09:34:40Z</time>
      </trkpt>
      <trkpt lat="45.91966" lon="4.74815">
        <ele>170</ele>
        <time>2017-07-14T09:34:41Z</time>
      </trkpt>
      <trkpt lat="45.9197" lon="4.74818">
        <ele>170</ele>
        <time>2017-07-14T09:34:42Z</time>
      </trkpt>
      <trkpt lat="45.91975" lon="4.7482">
        <ele>169</ele>
        <time>2017-07-14T09:34:43Z</time>
      </trkpt>
      <trkpt lat="45.9198" lon="4.74823">
        <ele>169</ele>
        <time>2017-07-14T09:34:44Z</time>
      </trkpt>
      <trkpt lat="45.91986" lon="4.74826">
        <ele>169</ele>
        <time>2017-07-14T09:34:45Z</time>
      </trkpt>
      <trkpt lat="45.91992" lon="4.74829">
        <ele>169</ele>
        <time>2017-07-14T09:34:46Z</time>
      </trkpt>
      <trkpt lat="45.91997" lon="4.74832">
        <ele>168</ele>
        <time>2017-07-14T09:34:47Z</time>
      </trkpt>
      <trkpt lat="45.92002" lon="4.74835">
        <ele>168</ele>
        <time>2017-07-14T09:34:48Z</time>
      </trkpt>
      <trkpt lat="45.92007" lon="4.74838">
        <ele>168</ele>
        <time>2017-07-14T09:34:49Z</time>
      </trkpt>
      <trkpt lat="45.92011" lon="4.7484">
        <ele>168</ele>
        <time>2017-07-14T09:34:50Z</time>
      </trkpt>
      <trkpt lat="45.92016" lon="4.74842">
        <ele>169</ele>
        <time>2017-07-14T09:34:51Z</time>
      </trkpt>
      <trkpt lat="45.92021" lon="4.74845">
        <ele>169</ele>
        <time>2017-07-14T09:34:52Z</time>
      </trkpt>
      <trkpt lat="45.92026" lon="4.74847">
        <ele>169</ele>
        <time>2017-07-14T09:34:53Z</time>
      </trkpt>
      <trkpt lat="45.92031" lon="4.7485">
        <ele>169</ele>
        <time>2017-07-14T09:34:54Z</time>
      </trkpt>
      <trkpt lat="45.92036" lon="4.74853">
        <ele>169</ele>
        <time>2017-07-14T09:34:55Z</time>
      </trkpt>
      <trkpt lat="45.92042" lon="4.74856">
        <ele>169</ele>
        <time>2017-07-14T09:34:56Z</time>
      </trkpt>
      <trkpt lat="45.92047" lon="4.74859">
        <ele>169</ele>
        <time>2017-07-14T09:34:57Z</time>
      </trkpt>
      <trkpt lat="45.92052" lon="4.74862">
        <ele>169</ele>
        <time>2017-07-14T09:34:58Z</time>
      </trkpt>
      <trkpt lat="45.92057" lon="4.74865">
        <ele>169</ele>
        <time>2017-07-14T09:34:59Z</time>
      </trkpt>
      <trkpt lat="45.92063" lon="4.74867">
        <ele>169</ele>
        <time>2017-07-14T09:35:00Z</time>
      </trkpt>
      <trkpt lat="45.92068" lon="4.7487">
        <ele>169</ele>
        <time>2017-07-14T09:35:01Z</time>
      </trkpt>
      <trkpt lat="45.92073" lon="4.74873">
        <ele>169</ele>
        <time>2017-07-14T09:35:02Z</time>
      </trkpt>
      <trkpt lat="45.92077" lon="4.74875">
        <ele>169</ele>
        <time>2017-07-14T09:35:03Z</time>
      </trkpt>
      <trkpt lat="45.92082" lon="4.74877">
        <ele>169</ele>
        <time>2017-07-14T09:35:04Z</time>
      </trkpt>
      <trkpt lat="45.92087" lon="4.7488">
        <ele>170</ele>
        <time>2017-07-14T09:35:05Z</time>
      </trkpt>
      <trkpt lat="45.92091" lon="4.74882">
        <ele>170</ele>
        <time>2017-07-14T09:35:06Z</time>
      </trkpt>
      <trkpt lat="45.92096" lon="4.74885">
        <ele>170</ele>
        <time>2017-07-14T09:35:07Z</time>
      </trkpt>
      <trkpt lat="45.92101" lon="4.74888">
        <ele>170</ele>
        <time>2017-07-14T09:35:08Z</time>
      </trkpt>
      <trkpt lat="45.92106" lon="4.74891">
        <ele>170</ele>
        <time>2017-07-14T09:35:09Z</time>
      </trkpt>
      <trkpt lat="45.92111" lon="4.74894">
        <ele>170</ele>
        <time>2017-07-14T09:35:10Z</time>
      </trkpt>
      <trkpt lat="45.92117" lon="4.74897">
        <ele>170</ele>
        <time>2017-07-14T09:35:11Z</time>
      </trkpt>
      <trkpt lat="45.92122" lon="4.749">
        <ele>170</ele>
        <time>2017-07-14T09:35:12Z</time>
      </trkpt>
      <trkpt lat="45.92127" lon="4.74902">
        <ele>170</ele>
        <time>2017-07-14T09:35:13Z</time>
      </trkpt>
      <trkpt lat="45.92131" lon="4.74905">
        <ele>170</ele>
        <time>2017-07-14T09:35:14Z</time>
      </trkpt>
      <trkpt lat="45.92136" lon="4.74908">
        <ele>170</ele>
        <time>2017-07-14T09:35:15Z</time>
      </trkpt>
      <trkpt lat="45.92144" lon="4.74913">
        <ele>170</ele>
        <time>2017-07-14T09:35:17Z</time>
      </trkpt>
      <trkpt lat="45.92148" lon="4.74915">
        <ele>170</ele>
        <time>2017-07-14T09:35:18Z</time>
      </trkpt>
      <trkpt lat="45.92152" lon="4.74918">
        <ele>170</ele>
        <time>2017-07-14T09:35:19Z</time>
      </trkpt>
      <trkpt lat="45.92157" lon="4.7492">
        <ele>170</ele>
        <time>2017-07-14T09:35:20Z</time>
      </trkpt>
      <trkpt lat="45.92162" lon="4.74923">
        <ele>170</ele>
        <time>2017-07-14T09:35:21Z</time>
      </trkpt>
      <trkpt lat="45.92167" lon="4.74926">
        <ele>170</ele>
        <time>2017-07-14T09:35:22Z</time>
      </trkpt>
      <trkpt lat="45.92173" lon="4.74929">
        <ele>171</ele>
        <time>2017-07-14T09:35:23Z</time>
      </trkpt>
      <trkpt lat="45.92178" lon="4.74932">
        <ele>171</ele>
        <time>2017-07-14T09:35:24Z</time>
      </trkpt>
      <trkpt lat="45.92183" lon="4.74935">
        <ele>171</ele>
        <time>2017-07-14T09:35:25Z</time>
      </trkpt>
      <trkpt lat="45.92188" lon="4.74938">
        <ele>171</ele>
        <time>2017-07-14T09:35:26Z</time>
      </trkpt>
      <trkpt lat="45.92192" lon="4.74941">
        <ele>171</ele>
        <time>2017-07-14T09:35:27Z</time>
      </trkpt>
      <trkpt lat="45.92197" lon="4.74943">
        <ele>171</ele>
        <time>2017-07-14T09:35:28Z</time>
      </trkpt>
      <trkpt lat="45.92201" lon="4.74946">
        <ele>171</ele>
        <time>2017-07-14T09:35:29Z</time>
      </trkpt>
      <trkpt lat="45.92205" lon="4.74948">
        <ele>171</ele>
        <time>2017-07-14T09:35:30Z</time>
      </trkpt>
      <trkpt lat="45.9221" lon="4.7495">
        <ele>171</ele>
        <time>2017-07-14T09:35:31Z</time>
      </trkpt>
      <trkpt lat="45.92214" lon="4.74952">
        <ele>171</ele>
        <time>2017-07-14T09:35:32Z</time>
      </trkpt>
      <trkpt lat="45.92218" lon="4.74954">
        <ele>171</ele>
        <time>2017-07-14T09:35:33Z</time>
      </trkpt>
      <trkpt lat="45.92223" lon="4.74957">
        <ele>171</ele>
        <time>2017-07-14T09:35:34Z</time>
      </trkpt>
      <trkpt lat="45.92231" lon="4.74961">
        <ele>171</ele>
        <time>2017-07-14T09:35:36Z</time>
      </trkpt>
      <trkpt lat="45.92235" lon="4.74962">
        <ele>171</ele>
        <time>2017-07-14T09:35:37Z</time>
      </trkpt>
      <trkpt lat="45.92243" lon="4.74962">
        <ele>172</ele>
        <time>2017-07-14T09:35:39Z</time>
      </trkpt>
      <trkpt lat="45.92246" lon="4.74959">
        <ele>172</ele>
        <time>2017-07-14T09:35:40Z</time>
      </trkpt>
      <trkpt lat="45.92251" lon="4.7495">
        <ele>172</ele>
        <time>2017-07-14T09:35:42Z</time>
      </trkpt>
      <trkpt lat="45.92252" lon="4.74945">
        <ele>172</ele>
        <time>2017-07-14T09:35:43Z</time>
      </trkpt>
      <trkpt lat="45.92253" lon="4.74936">
        <ele>172</ele>
        <time>2017-07-14T09:35:45Z</time>
      </trkpt>
      <trkpt lat="45.92254" lon="4.74931">
        <ele>172</ele>
        <time>2017-07-14T09:35:46Z</time>
      </trkpt>
      <trkpt lat="45.92258" lon="4.74921">
        <ele>172</ele>
        <time>2017-07-14T09:35:48Z</time>
      </trkpt>
      <trkpt lat="45.92261" lon="4.74917">
        <ele>172</ele>
        <time>2017-07-14T09:35:49Z</time>
      </trkpt>
      <trkpt lat="45.92265" lon="4.74909">
        <ele>172</ele>
        <time>2017-07-14T09:35:51Z</time>
      </trkpt>
      <trkpt lat="45.92268" lon="4.74904">
        <ele>172</ele>
        <time>2017-07-14T09:35:52Z</time>
      </trkpt>
      <trkpt lat="45.92275" lon="4.74896">
        <ele>172</ele>
        <time>2017-07-14T09:35:54Z</time>
      </trkpt>
      <trkpt lat="45.92278" lon="4.74892">
        <ele>172</ele>
        <time>2017-07-14T09:35:55Z</time>
      </trkpt>
      <trkpt lat="45.92281" lon="4.74887">
        <ele>172</ele>
        <time>2017-07-14T09:35:56Z</time>
      </trkpt>
      <trkpt lat="45.92285" lon="4.74882">
        <ele>172</ele>
        <time>2017-07-14T09:35:57Z</time>
      </trkpt>
      <trkpt lat="45.92288" lon="4.74877">
        <ele>172</ele>
        <time>2017-07-14T09:35:58Z</time>
      </trkpt>
      <trkpt lat="45.92291" lon="4.74872">
        <ele>171</ele>
        <time>2017-07-14T09:35:59Z</time>
      </trkpt>
      <trkpt lat="45.92297" lon="4.74863">
        <ele>172</ele>
        <time>2017-07-14T09:36:01Z</time>
      </trkpt>
      <trkpt lat="45.92299" lon="4.74859">
        <ele>172</ele>
        <time>2017-07-14T09:36:02Z</time>
      </trkpt>
      <trkpt lat="45.92304" lon="4.74852">
        <ele>172</ele>
        <time>2017-07-14T09:36:04Z</time>
      </trkpt>
      <trkpt lat="45.92307" lon="4.74848">
        <ele>172</ele>
        <time>2017-07-14T09:36:05Z</time>
      </trkpt>
      <trkpt lat="45.92312" lon="4.74839">
        <ele>172</ele>
        <time>2017-07-14T09:36:07Z</time>
      </trkpt>
      <trkpt lat="45.92315" lon="4.74835">
        <ele>172</ele>
        <time>2017-07-14T09:36:08Z</time>
      </trkpt>
      <trkpt lat="45.9232" lon="4.74826">
        <ele>171</ele>
        <time>2017-07-14T09:36:10Z</time>
      </trkpt>
      <trkpt lat="45.92321" lon="4.74822">
        <ele>171</ele>
        <time>2017-07-14T09:36:11Z</time>
      </trkpt>
      <trkpt lat="45.92326" lon="4.74815">
        <ele>171</ele>
        <time>2017-07-14T09:36:13Z</time>
      </trkpt>
      <trkpt lat="45.92328" lon="4.74811">
        <ele>171</ele>
        <time>2017-07-14T09:36:14Z</time>
      </trkpt>
      <trkpt lat="45.92332" lon="4.74803">
        <ele>171</ele>
        <time>2017-07-14T09:36:16Z</time>
      </trkpt>
      <trkpt lat="45.92335" lon="4.74798">
        <ele>171</ele>
        <time>2017-07-14T09:36:17Z</time>
      </trkpt>
      <trkpt lat="45.9234" lon="4.7479">
        <ele>171</ele>
        <time>2017-07-14T09:36:19Z</time>
      </trkpt>
      <trkpt lat="45.92343" lon="4.74785">
        <ele>171</ele>
        <time>2017-07-14T09:36:20Z</time>
      </trkpt>
      <trkpt lat="45.92347" lon="4.74776">
        <ele>171</ele>
        <time>2017-07-14T09:36:22Z</time>
      </trkpt>
      <trkpt lat="45.92351" lon="4.74771">
        <ele>171</ele>
        <time>2017-07-14T09:36:23Z</time>
      </trkpt>
      <trkpt lat="45.92355" lon="4.74762">
        <ele>171</ele>
        <time>2017-07-14T09:36:25Z</time>
      </trkpt>
      <trkpt lat="45.92358" lon="4.74757">
        <ele>171</ele>
        <time>2017-07-14T09:36:26Z</time>
      </trkpt>
      <trkpt lat="45.92363" lon="4.74749">
        <ele>171</ele>
        <time>2017-07-14T09:36:28Z</time>
      </trkpt>
      <trkpt lat="45.92365" lon="4.74745">
        <ele>171</ele>
        <time>2017-07-14T09:36:29Z</time>
      </trkpt>
      <trkpt lat="45.9237" lon="4.74737">
        <ele>171</ele>
        <time>2017-07-14T09:36:31Z</time>
      </trkpt>
      <trkpt lat="45.92372" lon="4.74731">
        <ele>171</ele>
        <time>2017-07-14T09:36:32Z</time>
      </trkpt>
      <trkpt lat="45.92375" lon="4.74726">
        <ele>171</ele>
        <time>2017-07-14T09:36:33Z</time>
      </trkpt>
      <trkpt lat="45.92378" lon="4.74721">
        <ele>171</ele>
        <time>2017-07-14T09:36:34Z</time>
      </trkpt>
      <trkpt lat="45.92383" lon="4.74712">
        <ele>171</ele>
        <time>2017-07-14T09:36:36Z</time>
      </trkpt>
      <trkpt lat="45.92386" lon="4.74707">
        <ele>171</ele>
        <time>2017-07-14T09:36:37Z</time>
      </trkpt>
      <trkpt lat="45.9239" lon="4.74698">
        <ele>171</ele>
        <time>2017-07-14T09:36:39Z</time>
      </trkpt>
      <trkpt lat="45.92392" lon="4.74693">
        <ele>171</ele>
        <time>2017-07-14T09:36:40Z</time>
      </trkpt>
      <trkpt lat="45.92397" lon="4.74684">
        <ele>171</ele>
        <time>2017-07-14T09:36:42Z</time>
      </trkpt>
      <trkpt lat="45.924" lon="4.7468">
        <ele>171</ele>
        <time>2017-07-14T09:36:43Z</time>
      </trkpt>
      <trkpt lat="45.92405" lon="4.7467">
        <ele>171</ele>
        <time>2017-07-14T09:36:45Z</time>
      </trkpt>
      <trkpt lat="45.92408" lon="4.74664">
        <ele>172</ele>
        <time>2017-07-14T09:36:46Z</time>
      </trkpt>
      <trkpt lat="45.92414" lon="4.74655">
        <ele>171</ele>
        <time>2017-07-14T09:36:48Z</time>
      </trkpt>
      <trkpt lat="45.92416" lon="4.74651">
        <ele>171</ele>
        <time>2017-07-14T09:36:49Z</time>
      </trkpt>
      <trkpt lat="45.92422" lon="4.74645">
        <ele>171</ele>
        <time>2017-07-14T09:36:51Z</time>
      </trkpt>
      <trkpt lat="45.92424" lon="4.74641">
        <ele>171</ele>
        <time>2017-07-14T09:36:52Z</time>
      </trkpt>
      <trkpt lat="45.92428" lon="4.74633">
        <ele>171</ele>
        <time>2017-07-14T09:36:54Z</time>
      </trkpt>
      <trkpt lat="45.9243" lon="4.74629">
        <ele>171</ele>
        <time>2017-07-14T09:36:55Z</time>
      </trkpt>
      <trkpt lat="45.92434" lon="4.74618">
        <ele>171</ele>
        <time>2017-07-14T09:36:57Z</time>
      </trkpt>
      <trkpt lat="45.92434" lon="4.74611">
        <ele>171</ele>
        <time>2017-07-14T09:36:58Z</time>
      </trkpt>
      <trkpt lat="45.92431" lon="4.74599">
        <ele>171</ele>
        <time>2017-07-14T09:37:00Z</time>
      </trkpt>
      <trkpt lat="45.92429" lon="4.74594">
        <ele>171</ele>
        <time>2017-07-14T09:37:01Z</time>
      </trkpt>
      <trkpt lat="45.92424" lon="4.74586">
        <ele>171</ele>
        <time>2017-07-14T09:37:03Z</time>
      </trkpt>
      <trkpt lat="45.9242" lon="4.74583">
        <ele>171</ele>
        <time>2017-07-14T09:37:04Z</time>
      </trkpt>
      <trkpt lat="45.92416" lon="4.74579">
        <ele>171</ele>
        <time>2017-07-14T09:37:05Z</time>
      </trkpt>
      <trkpt lat="45.92412" lon="4.74576">
        <ele>171</ele>
        <time>2017-07-14T09:37:06Z</time>
      </trkpt>
      <trkpt lat="45.92407" lon="4.74573">
        <ele>171</ele>
        <time>2017-07-14T09:37:07Z</time>
      </trkpt>
      <trkpt lat="45.92403" lon="4.7457">
        <ele>171</ele>
        <time>2017-07-14T09:37:08Z</time>
      </trkpt>
      <trkpt lat="45.92395" lon="4.74565">
        <ele>171</ele>
        <time>2017-07-14T09:37:10Z</time>
      </trkpt>
      <trkpt lat="45.92391" lon="4.74563">
        <ele>171</ele>
        <time>2017-07-14T09:37:11Z</time>
      </trkpt>
      <trkpt lat="45.92384" lon="4.74558">
        <ele>171</ele>
        <time>2017-07-14T09:37:13Z</time>
      </trkpt>
      <trkpt lat="45.9238" lon="4.74556">
        <ele>171</ele>
        <time>2017-07-14T09:37:14Z</time>
      </trkpt>
      <trkpt lat="45.92375" lon="4.74552">
        <ele>171</ele>
        <time>2017-07-14T09:37:15Z</time>
      </trkpt>
      <trkpt lat="45.92371" lon="4.74549">
        <ele>170</ele>
        <time>2017-07-14T09:37:16Z</time>
      </trkpt>
      <trkpt lat="45.92363" lon="4.74544">
        <ele>170</ele>
        <time>2017-07-14T09:37:18Z</time>
      </trkpt>
      <trkpt lat="45.92359" lon="4.74542">
        <ele>171</ele>
        <time>2017-07-14T09:37:19Z</time>
      </trkpt>
      <trkpt lat="45.92351" lon="4.74537">
        <ele>171</ele>
        <time>2017-07-14T09:37:21Z</time>
      </trkpt>
      <trkpt lat="45.92348" lon="4.74534">
        <ele>171</ele>
        <time>2017-07-14T09:37:22Z</time>
      </trkpt>
      <trkpt lat="45.92341" lon="4.7453">
        <ele>171</ele>
        <time>2017-07-14T09:37:24Z</time>
      </trkpt>
      <trkpt lat="45.92337" lon="4.74528">
        <ele>171</ele>
        <time>2017-07-14T09:37:25Z</time>
      </trkpt>
      <trkpt lat="45.92331" lon="4.74523">
        <ele>171</ele>
        <time>2017-07-14T09:37:27Z</time>
      </trkpt>
      <trkpt lat="45.92327" lon="4.7452">
        <ele>171</ele>
        <time>2017-07-14T09:37:28Z</time>
      </trkpt>
      <trkpt lat="45.92319" lon="4.74515">
        <ele>171</ele>
        <time>2017-07-14T09:37:30Z</time>
      </trkpt>
      <trkpt lat="45.92315" lon="4.74512">
        <ele>171</ele>
        <time>2017-07-14T09:37:31Z</time>
      </trkpt>
      <trkpt lat="45.92308" lon="4.74507">
        <ele>171</ele>
        <time>2017-07-14T09:37:33Z</time>
      </trkpt>
      <trkpt lat="45.92304" lon="4.74505">
        <ele>171</ele>
        <time>2017-07-14T09:37:34Z</time>
      </trkpt>
      <trkpt lat="45.92297" lon="4.74501">
        <ele>171</ele>
        <time>2017-07-14T09:37:36Z</time>
      </trkpt>
      <trkpt lat="45.92294" lon="4.74498">
        <ele>171</ele>
        <time>2017-07-14T09:37:37Z</time>
      </trkpt>
      <trkpt lat="45.9229" lon="4.74496">
        <ele>171</ele>
        <time>2017-07-14T09:37:38Z</time>
      </trkpt>
      <trkpt lat="45.92285" lon="4.74494">
        <ele>171</ele>
        <time>2017-07-14T09:37:39Z</time>
      </trkpt>
      <trkpt lat="45.92281" lon="4.74491">
        <ele>171</ele>
        <time>2017-07-14T09:37:40Z</time>
      </trkpt>
      <trkpt lat="45.92276" lon="4.74489">
        <ele>171</ele>
        <time>2017-07-14T09:37:41Z</time>
      </trkpt>
      <trkpt lat="45.92269" lon="4.74483">
        <ele>171</ele>
        <time>2017-07-14T09:37:43Z</time>
      </trkpt>
      <trkpt lat="45.92264" lon="4.74481">
        <ele>171</ele>
        <time>2017-07-14T09:37:44Z</time>
      </trkpt>
      <trkpt lat="45.92259" lon="4.74478">
        <ele>171</ele>
        <time>2017-07-14T09:37:45Z</time>
      </trkpt>
      <trkpt lat="45.92255" lon="4.74475">
        <ele>171</ele>
        <time>2017-07-14T09:37:46Z</time>
      </trkpt>
      <trkpt lat="45.92251" lon="4.74471">
        <ele>171</ele>
        <time>2017-07-14T09:37:47Z</time>
      </trkpt>
      <trkpt lat="45.92247" lon="4.74467">
        <ele>171</ele>
        <time>2017-07-14T09:37:48Z</time>
      </trkpt>
      <trkpt lat="45.92242" lon="4.74458">
        <ele>171</ele>
        <time>2017-07-14T09:37:50Z</time>
      </trkpt>
      <trkpt lat="45.92241" lon="4.74454">
        <ele>171</ele>
        <time>2017-07-14T09:37:51Z</time>
      </trkpt>
      <trkpt lat="45.92241" lon="4.74444">
        <ele>171</ele>
        <time>2017-07-14T09:37:53Z</time>
      </trkpt>
      <trkpt lat="45.92242" lon="4.7444">
        <ele>171</ele>
        <time>2017-07-14T09:37:54Z</time>
      </trkpt>
      <trkpt lat="45.92243" lon="4.74429">
        <ele>171</ele>
        <time>2017-07-14T09:37:56Z</time>
      </trkpt>
      <trkpt lat="45.92244" lon="4.74424">
        <ele>171</ele>
        <time>2017-07-14T09:37:57Z</time>
      </trkpt>
      <trkpt lat="45.92248" lon="4.74412">
        <ele>171</ele>
        <time>2017-07-14T09:37:59Z</time>
      </trkpt>
      <trkpt lat="45.9225" lon="4.74407">
        <ele>171</ele>
        <time>2017-07-14T09:38:00Z</time>
      </trkpt>
      <trkpt lat="45.92254" lon="4.74397">
        <ele>171</ele>
        <time>2017-07-14T09:38:02Z</time>
      </trkpt>
      <trkpt lat="45.92256" lon="4.74393">
        <ele>171</ele>
        <time>2017-07-14T09:38:03Z</time>
      </trkpt>
      <trkpt lat="45.9226" lon="4.74385">
        <ele>171</ele>
        <time>2017-07-14T09:38:05Z</time>
      </trkpt>
      <trkpt lat="45.92262" lon="4.7438">
        <ele>171</ele>
        <time>2017-07-14T09:38:06Z</time>
      </trkpt>
      <trkpt lat="45.92266" lon="4.74372">
        <ele>171</ele>
        <time>2017-07-14T09:38:08Z</time>
      </trkpt>
      <trkpt lat="45.92268" lon="4.74368">
        <ele>171</ele>
        <time>2017-07-14T09:38:09Z</time>
      </trkpt>
      <trkpt lat="45.92274" lon="4.7436">
        <ele>171</ele>
        <time>2017-07-14T09:38:11Z</time>
      </trkpt>
      <trkpt lat="45.92278" lon="4.74357">
        <ele>171</ele>
        <time>2017-07-14T09:38:12Z</time>
      </trkpt>
      <trkpt lat="45.92285" lon="4.7435">
        <ele>171</ele>
        <time>2017-07-14T09:38:14Z</time>
      </trkpt>
      <trkpt lat="45.92288" lon="4.74346">
        <ele>171</ele>
        <time>2017-07-14T09:38:15Z</time>
      </trkpt>
      <trkpt lat="45.92292" lon="4.74342">
        <ele>171</ele>
        <time>2017-07-14T09:38:16Z</time>
      </trkpt>
      <trkpt lat="45.92296" lon="4.74339">
        <ele>171</ele>
        <time>2017-07-14T09:38:17Z</time>
      </trkpt>
      <trkpt lat="45.92301" lon="4.74333">
        <ele>170</ele>
        <time>2017-07-14T09:38:19Z</time>
      </trkpt>
      <trkpt lat="45.92304" lon="4.7433">
        <ele>170</ele>
        <time>2017-07-14T09:38:20Z</time>
      </trkpt>
      <trkpt lat="45.9231" lon="4.74324">
        <ele>170</ele>
        <time>2017-07-14T09:38:22Z</time>
      </trkpt>
      <trkpt lat="45.92313" lon="4.74321">
        <ele>170</ele>
        <time>2017-07-14T09:38:23Z</time>
      </trkpt>
      <trkpt lat="45.9232" lon="4.74315">
        <ele>170</ele>
        <time>2017-07-14T09:38:25Z</time>
      </trkpt>
      <trkpt lat="45.92323" lon="4.74313">
        <ele>170</ele>
        <time>2017-07-14T09:38:26Z</time>
      </trkpt>
      <trkpt lat="45.9233" lon="4.74308">
        <ele>170</ele>
        <time>2017-07-14T09:38:28Z</time>
      </trkpt>
      <trkpt lat="45.92334" lon="4.74307">
        <ele>170</ele>
        <time>2017-07-14T09:38:29Z</time>
      </trkpt>
      <trkpt lat="45.9234" lon="4.74306">
        <ele>170</ele>
        <time>2017-07-14T09:38:31Z</time>
      </trkpt>
      <trkpt lat="45.92343" lon="4.74306">
        <ele>170</ele>
        <time>2017-07-14T09:38:32Z</time>
      </trkpt>
      <trkpt lat="45.9235" lon="4.74307">
        <ele>170</ele>
        <time>2017-07-14T09:38:34Z</time>
      </trkpt>
      <trkpt lat="45.92354" lon="4.74309">
        <ele>170</ele>
        <time>2017-07-14T09:38:35Z</time>
      </trkpt>
      <trkpt lat="45.92359" lon="4.7431">
        <ele>170</ele>
        <time>2017-07-14T09:38:36Z</time>
      </trkpt>
      <trkpt lat="45.92363" lon="4.74312">
        <ele>170</ele>
        <time>2017-07-14T09:38:37Z</time>
      </trkpt>
      <trkpt lat="45.92371" lon="4.74317">
        <ele>170</ele>
        <time>2017-07-14T09:38:39Z</time>
      </trkpt>
      <trkpt lat="45.92374" lon="4.74319">
        <ele>170</ele>
        <time>2017-07-14T09:38:40Z</time>
      </trkpt>
      <trkpt lat="45.92382" lon="4.74321">
        <ele>170</ele>
        <time>2017-07-14T09:38:42Z</time>
      </trkpt>
      <trkpt lat="45.92386" lon="4.74321">
        <ele>170</ele>
        <time>2017-07-14T09:38:43Z</time>
      </trkpt>
      <trkpt lat="45.92392" lon="4.74319">
        <ele>170</ele>
        <time>2017-07-14T09:38:45Z</time>
      </trkpt>
      <trkpt lat="45.92395" lon="4.74317">
        <ele>170</ele>
        <time>2017-07-14T09:38:46Z</time>
      </trkpt>
      <trkpt lat="45.92401" lon="4.74311">
        <ele>170</ele>
        <time>2017-07-14T09:38:48Z</time>
      </trkpt>
      <trkpt lat="45.92404" lon="4.74307">
        <ele>170</ele>
        <time>2017-07-14T09:38:49Z</time>
      </trkpt>
      <trkpt lat="45.92409" lon="4.743">
        <ele>170</ele>
        <time>2017-07-14T09:38:51Z</time>
      </trkpt>
      <trkpt lat="45.92412" lon="4.74296">
        <ele>170</ele>
        <time>2017-07-14T09:38:52Z</time>
      </trkpt>
      <trkpt lat="45.92418" lon="4.74286">
        <ele>170</ele>
        <time>2017-07-14T09:38:54Z</time>
      </trkpt>
      <trkpt lat="45.9242" lon="4.7428">
        <ele>170</ele>
        <time>2017-07-14T09:38:55Z</time>
      </trkpt>
      <trkpt lat="45.92426" lon="4.7427">
        <ele>170</ele>
        <time>2017-07-14T09:38:57Z</time>
      </trkpt>
      <trkpt lat="45.92428" lon="4.74266">
        <ele>170</ele>
        <time>2017-07-14T09:38:58Z</time>
      </trkpt>
      <trkpt lat="45.92434" lon="4.74257">
        <ele>170</ele>
        <time>2017-07-14T09:39:00Z</time>
      </trkpt>
      <trkpt lat="45.92436" lon="4.74253">
        <ele>170</ele>
        <time>2017-07-14T09:39:01Z</time>
      </trkpt>
      <trkpt lat="45.92441" lon="4.74243">
        <ele>171</ele>
        <time>2017-07-14T09:39:03Z</time>
      </trkpt>
      <trkpt lat="45.92444" lon="4.74238">
        <ele>171</ele>
        <time>2017-07-14T09:39:04Z</time>
      </trkpt>
      <trkpt lat="45.92448" lon="4.74229">
        <ele>171</ele>
        <time>2017-07-14T09:39:06Z</time>
      </trkpt>
      <trkpt lat="45.9245" lon="4.74225">
        <ele>171</ele>
        <time>2017-07-14T09:39:07Z</time>
      </trkpt>
      <trkpt lat="45.92454" lon="4.74215">
        <ele>171</ele>
        <time>2017-07-14T09:39:10Z</time>
      </trkpt>
      <trkpt lat="45.92455" lon="4.74212">
        <ele>171</ele>
        <time>2017-07-14T09:39:11Z</time>
      </trkpt>
      <trkpt lat="45.92458" lon="4.74201">
        <ele>171</ele>
        <time>2017-07-14T09:39:15Z</time>
      </trkpt>
      <trkpt lat="45.9246" lon="4.742">
        <ele>171</ele>
        <time>2017-07-14T09:39:16Z</time>
      </trkpt>
      <trkpt lat="45.92463" lon="4.74189">
        <ele>171</ele>
        <time>2017-07-14T09:39:20Z</time>
      </trkpt>
      <trkpt lat="45.92464" lon="4.74186">
        <ele>171</ele>
        <time>2017-07-14T09:39:21Z</time>
      </trkpt>
      <trkpt lat="45.92468" lon="4.74175">
        <ele>171</ele>
        <time>2017-07-14T09:39:25Z</time>
      </trkpt>
      <trkpt lat="45.92469" lon="4.74172">
        <ele>171</ele>
        <time>2017-07-14T09:39:26Z</time>
      </trkpt>
      <trkpt lat="45.92473" lon="4.74161">
        <ele>171</ele>
        <time>2017-07-14T09:39:29Z</time>
      </trkpt>
      <trkpt lat="45.92474" lon="4.74157">
        <ele>171</ele>
        <time>2017-07-14T09:39:30Z</time>
      </trkpt>
      <trkpt lat="45.92478" lon="4.7415">
        <ele>171</ele>
        <time>2017-07-14T09:39:32Z</time>
      </trkpt>
      <trkpt lat="45.9248" lon="4.74146">
        <ele>171</ele>
        <time>2017-07-14T09:39:33Z</time>
      </trkpt>
      <trkpt lat="45.92483" lon="4.74135">
        <ele>171</ele>
        <time>2017-07-14T09:39:37Z</time>
      </trkpt>
      <trkpt lat="45.92484" lon="4.74132">
        <ele>171</ele>
        <time>2017-07-14T09:39:38Z</time>
      </trkpt>
      <trkpt lat="45.92487" lon="4.74121">
        <ele>172</ele>
        <time>2017-07-14T09:39:42Z</time>
      </trkpt>
      <trkpt lat="45.92487" lon="4.74119">
        <ele>172</ele>
        <time>2017-07-14T09:39:43Z</time>
      </trkpt>
      <trkpt lat="45.9249" lon="4.74111">
        <ele>172</ele>
        <time>2017-07-14T09:39:46Z</time>
      </trkpt>
      <trkpt lat="45.92492" lon="4.74108">
        <ele>172</ele>
        <time>2017-07-14T09:39:47Z</time>
      </trkpt>
      <trkpt lat="45.92498" lon="4.741">
        <ele>172</ele>
        <time>2017-07-14T09:39:49Z</time>
      </trkpt>
      <trkpt lat="45.925" lon="4.74096">
        <ele>172</ele>
        <time>2017-07-14T09:39:50Z</time>
      </trkpt>
      <trkpt lat="45.92505" lon="4.74091">
        <ele>172</ele>
        <time>2017-07-14T09:39:52Z</time>
      </trkpt>
      <trkpt lat="45.92507" lon="4.74089">
        <ele>172</ele>
        <time>2017-07-14T09:39:53Z</time>
      </trkpt>
      <trkpt lat="45.92512" lon="4.74082">
        <ele>172</ele>
        <time>2017-07-14T09:39:55Z</time>
      </trkpt>
      <trkpt lat="45.92514" lon="4.74079">
        <ele>172</ele>
        <time>2017-07-14T09:39:56Z</time>
      </trkpt>
      <trkpt lat="45.9252" lon="4.74072">
        <ele>172</ele>
        <time>2017-07-14T09:39:58Z</time>
      </trkpt>
      <trkpt lat="45.92522" lon="4.74069">
        <ele>172</ele>
        <time>2017-07-14T09:39:59Z</time>
      </trkpt>
      <trkpt lat="45.92528" lon="4.74062">
        <ele>172</ele>
        <time>2017-07-14T09:40:01Z</time>
      </trkpt>
      <trkpt lat="45.9253" lon="4.74058">
        <ele>172</ele>
        <time>2017-07-14T09:40:02Z</time>
      </trkpt>
      <trkpt lat="45.92536" lon="4.74049">
        <ele>172</ele>
        <time>2017-07-14T09:40:04Z</time>
      </trkpt>
      <trkpt lat="45.92539" lon="4.74045">
        <ele>172</ele>
        <time>2017-07-14T09:40:05Z</time>
      </trkpt>
      <trkpt lat="45.92545" lon="4.74035">
        <ele>172</ele>
        <time>2017-07-14T09:40:07Z</time>
      </trkpt>
      <trkpt lat="45.92548" lon="4.74032">
        <ele>172</ele>
        <time>2017-07-14T09:40:08Z</time>
      </trkpt>
      <trkpt lat="45.92552" lon="4.74024">
        <ele>172</ele>
        <time>2017-07-14T09:40:10Z</time>
      </trkpt>
      <trkpt lat="45.92554" lon="4.74019">
        <ele>172</ele>
        <time>2017-07-14T09:40:11Z</time>
      </trkpt>
      <trkpt lat="45.92556" lon="4.74007">
        <ele>172</ele>
        <time>2017-07-14T09:40:14Z</time>
      </trkpt>
      <trkpt lat="45.92553" lon="4.74004">
        <ele>172</ele>
        <time>2017-07-14T09:40:15Z</time>
      </trkpt>
      <trkpt lat="45.92547" lon="4.73996">
        <ele>172</ele>
        <time>2017-07-14T09:40:17Z</time>
      </trkpt>
      <trkpt lat="45.92543" lon="4.73993">
        <ele>172</ele>
        <time>2017-07-14T09:40:18Z</time>
      </trkpt>
      <trkpt lat="45.92536" lon="4.73989">
        <ele>172</ele>
        <time>2017-07-14T09:40:20Z</time>
      </trkpt>
      <trkpt lat="45.92532" lon="4.73986">
        <ele>172</ele>
        <time>2017-07-14T09:40:21Z</time>
      </trkpt>
      <trkpt lat="45.92525" lon="4.73983">
        <ele>172</ele>
        <time>2017-07-14T09:40:23Z</time>
      </trkpt>
      <trkpt lat="45.92523" lon="4.73981">
        <ele>172</ele>
        <time>2017-07-14T09:40:24Z</time>
      </trkpt>
      <trkpt lat="45.92515" lon="4.73976">
        <ele>172</ele>
        <time>2017-07-14T09:40:26Z</time>
      </trkpt>
      <trkpt lat="45.92511" lon="4.73974">
        <ele>172</ele>
        <time>2017-07-14T09:40:27Z</time>
      </trkpt>
      <trkpt lat="45.92503" lon="4.7397">
        <ele>172</ele>
        <time>2017-07-14T09:40:29Z</time>
      </trkpt>
      <trkpt lat="45.92499" lon="4.73968">
        <ele>172</ele>
        <time>2017-07-14T09:40:30Z</time>
      </trkpt>
      <trkpt lat="45.92495" lon="4.73966">
        <ele>172</ele>
        <time>2017-07-14T09:40:31Z</time>
      </trkpt>
      <trkpt lat="45.9249" lon="4.73964">
        <ele>172</ele>
        <time>2017-07-14T09:40:32Z</time>
      </trkpt>
      <trkpt lat="45.92486" lon="4.73962">
        <ele>172</ele>
        <time>2017-07-14T09:40:33Z</time>
      </trkpt>
      <trkpt lat="45.92482" lon="4.73959">
        <ele>172</ele>
        <time>2017-07-14T09:40:34Z</time>
      </trkpt>
      <trkpt lat="45.92475" lon="4.73952">
        <ele>172</ele>
        <time>2017-07-14T09:40:36Z</time>
      </trkpt>
      <trkpt lat="45.92472" lon="4.73949">
        <ele>172</ele>
        <time>2017-07-14T09:40:37Z</time>
      </trkpt>
      <trkpt lat="45.92468" lon="4.73942">
        <ele>172</ele>
        <time>2017-07-14T09:40:39Z</time>
      </trkpt>
      <trkpt lat="45.92467" lon="4.73938">
        <ele>172</ele>
        <time>2017-07-14T09:40:40Z</time>
      </trkpt>
      <trkpt lat="45.92465" lon="4.73928">
        <ele>172</ele>
        <time>2017-07-14T09:40:42Z</time>
      </trkpt>
      <trkpt lat="45.92464" lon="4.73923">
        <ele>172</ele>
        <time>2017-07-14T09:40:43Z</time>
      </trkpt>
      <trkpt lat="45.92464" lon="4.73912">
        <ele>171</ele>
        <time>2017-07-14T09:40:45Z</time>
      </trkpt>
      <trkpt lat="45.92464" lon="4.73907">
        <ele>171</ele>
        <time>2017-07-14T09:40:46Z</time>
      </trkpt>
      <trkpt lat="45.92463" lon="4.73896">
        <ele>171</ele>
        <time>2017-07-14T09:40:48Z</time>
      </trkpt>
      <trkpt lat="45.92463" lon="4.73892">
        <ele>171</ele>
        <time>2017-07-14T09:40:49Z</time>
      </trkpt>
      <trkpt lat="45.92463" lon="4.73882">
        <ele>171</ele>
        <time>2017-07-14T09:40:51Z</time>
      </trkpt>
      <trkpt lat="45.92463" lon="4.73876">
        <ele>171</ele>
        <time>2017-07-14T09:40:52Z</time>
      </trkpt>
      <trkpt lat="45.92464" lon="4.73865">
        <ele>171</ele>
        <time>2017-07-14T09:40:54Z</time>
      </trkpt>
      <trkpt lat="45.92464" lon="4.73859">
        <ele>171</ele>
        <time>2017-07-14T09:40:55Z</time>
      </trkpt>
      <trkpt lat="45.92464" lon="4.73846">
        <ele>171</ele>
        <time>2017-07-14T09:40:57Z</time>
      </trkpt>
      <trkpt lat="45.92465" lon="4.7384">
        <ele>171</ele>
        <time>2017-07-14T09:40:58Z</time>
      </trkpt>
      <trkpt lat="45.92466" lon="4.73828">
        <ele>171</ele>
        <time>2017-07-14T09:41:00Z</time>
      </trkpt>
      <trkpt lat="45.92466" lon="4.73822">
        <ele>172</ele>
        <time>2017-07-14T09:41:01Z</time>
      </trkpt>
      <trkpt lat="45.92467" lon="4.7381">
        <ele>172</ele>
        <time>2017-07-14T09:41:03Z</time>
      </trkpt>
      <trkpt lat="45.92468" lon="4.73805">
        <ele>172</ele>
        <time>2017-07-14T09:41:04Z</time>
      </trkpt>
      <trkpt lat="45.92469" lon="4.73794">
        <ele>172</ele>
        <time>2017-07-14T09:41:06Z</time>
      </trkpt>
      <trkpt lat="45.92469" lon="4.73789">
        <ele>172</ele>
        <time>2017-07-14T09:41:07Z</time>
      </trkpt>
      <trkpt lat="45.92469" lon="4.73779">
        <ele>172</ele>
        <time>2017-07-14T09:41:09Z</time>
      </trkpt>
      <trkpt lat="45.92469" lon="4.73775">
        <ele>173</ele>
        <time>2017-07-14T09:41:10Z</time>
      </trkpt>
      <trkpt lat="45.92469" lon="4.73763">
        <ele>173</ele>
        <time>2017-07-14T09:41:13Z</time>
      </trkpt>
      <trkpt lat="45.92469" lon="4.73758">
        <ele>173</ele>
        <time>2017-07-14T09:41:14Z</time>
      </trkpt>
      <trkpt lat="45.9247" lon="4.73748">
        <ele>174</ele>
        <time>2017-07-14T09:41:16Z</time>
      </trkpt>
      <trkpt lat="45.9247" lon="4.73742">
        <ele>174</ele>
        <time>2017-07-14T09:41:17Z</time>
      </trkpt>
      <trkpt lat="45.9247" lon="4.73732">
        <ele>174</ele>
        <time>2017-07-14T09:41:19Z</time>
      </trkpt>
      <trkpt lat="45.9247" lon="4.73727">
        <ele>174</ele>
        <time>2017-07-14T09:41:20Z</time>
      </trkpt>
      <trkpt lat="45.9247" lon="4.73716">
        <ele>174</ele>
        <time>2017-07-14T09:41:23Z</time>
      </trkpt>
      <trkpt lat="45.92468" lon="4.73714">
        <ele>174</ele>
        <time>2017-07-14T09:41:24Z</time>
      </trkpt>
      <trkpt lat="45.92466" lon="4.73712">
        <ele>174</ele>
        <time>2017-07-14T09:41:25Z</time>
      </trkpt>
      <trkpt lat="45.92465" lon="4.73711">
        <ele>174</ele>
        <time>2017-07-14T09:41:26Z</time>
      </trkpt>
      <trkpt lat="45.92463" lon="4.73711">
        <ele>174</ele>
        <time>2017-07-14T09:41:42.791Z</time>
      </trkpt>
    </trkseg>
  </trk>
</gpx>